<?xml version="1.0" encoding="UTF-8" standalone="no" ?>
<gpx xmlns="http://www.topografix.com/GPX/1/1" xmlns:xsi="http://www.w3.org/2001/XMLSchema-instance" xsi:schemaLocation="http://www.topografix.com/GPX/1/1 http://www.topografix.com/GPX/1/1/gpx.xsd" version="1.1" creator="VisuGPX - https://www.visugpx.com">
  <metadata>
    <name>VTT du mercredi 29 août 2012 (à 2, de Coulevon)</name>
    <desc><![CDATA[3 montées sérieuses
A Colombier passage bloqué au km 4, barbelés et vaches, après une côte terrible : demi-tour]]></desc>
  </metadata>
  <trk>
    <name><![CDATA[2012-08-29T07_2]]></name>
    <trkseg>
      <trkpt lat="47.64442" lon="6.18317">
        <ele>225</ele>
        <time>2012-08-29T07:25:53Z</time>
      </trkpt>
      <trkpt lat="47.64442" lon="6.18317">
        <ele>225</ele>
        <time>2012-08-29T07:25:54Z</time>
      </trkpt>
      <trkpt lat="47.6444" lon="6.18303">
        <ele>224.80000305176</ele>
        <time>2012-08-29T07:26:33Z</time>
      </trkpt>
      <trkpt lat="47.64443" lon="6.18299">
        <ele>224.80000305176</ele>
        <time>2012-08-29T07:26:35Z</time>
      </trkpt>
      <trkpt lat="47.64458" lon="6.18279">
        <ele>224.80000305176</ele>
        <time>2012-08-29T07:26:44Z</time>
      </trkpt>
      <trkpt lat="47.64471" lon="6.18259">
        <ele>224.80000305176</ele>
        <time>2012-08-29T07:26:51Z</time>
      </trkpt>
      <trkpt lat="47.64478" lon="6.18246">
        <ele>224.80000305176</ele>
        <time>2012-08-29T07:26:54Z</time>
      </trkpt>
      <trkpt lat="47.64483" lon="6.18238">
        <ele>224.80000305176</ele>
        <time>2012-08-29T07:26:56Z</time>
      </trkpt>
      <trkpt lat="47.64494" lon="6.18211">
        <ele>224.80000305176</ele>
        <time>2012-08-29T07:27:03Z</time>
      </trkpt>
      <trkpt lat="47.64499" lon="6.1819">
        <ele>224.80000305176</ele>
        <time>2012-08-29T07:27:08Z</time>
      </trkpt>
      <trkpt lat="47.64497" lon="6.18164">
        <ele>224.80000305176</ele>
        <time>2012-08-29T07:27:13Z</time>
      </trkpt>
      <trkpt lat="47.64492" lon="6.18144">
        <ele>224.80000305176</ele>
        <time>2012-08-29T07:27:17Z</time>
      </trkpt>
      <trkpt lat="47.64496" lon="6.18117">
        <ele>224.80000305176</ele>
        <time>2012-08-29T07:27:22Z</time>
      </trkpt>
      <trkpt lat="47.64503" lon="6.18092">
        <ele>224.80000305176</ele>
        <time>2012-08-29T07:27:28Z</time>
      </trkpt>
      <trkpt lat="47.64509" lon="6.18063">
        <ele>224.80000305176</ele>
        <time>2012-08-29T07:27:35Z</time>
      </trkpt>
      <trkpt lat="47.64519" lon="6.18049">
        <ele>224.80000305176</ele>
        <time>2012-08-29T07:27:40Z</time>
      </trkpt>
      <trkpt lat="47.64532" lon="6.18037">
        <ele>225.19999694824</ele>
        <time>2012-08-29T07:27:45Z</time>
      </trkpt>
      <trkpt lat="47.64534" lon="6.18038">
        <ele>225.80000305176</ele>
        <time>2012-08-29T07:27:46Z</time>
      </trkpt>
      <trkpt lat="47.64536" lon="6.18041">
        <ele>226.60000610352</ele>
        <time>2012-08-29T07:27:47Z</time>
      </trkpt>
      <trkpt lat="47.64538" lon="6.18043">
        <ele>227</ele>
        <time>2012-08-29T07:27:48Z</time>
      </trkpt>
      <trkpt lat="47.6454" lon="6.18049">
        <ele>227.39999389648</ele>
        <time>2012-08-29T07:27:51Z</time>
      </trkpt>
      <trkpt lat="47.64541" lon="6.18052">
        <ele>227.80000305176</ele>
        <time>2012-08-29T07:27:52Z</time>
      </trkpt>
      <trkpt lat="47.64542" lon="6.18054">
        <ele>228.19999694824</ele>
        <time>2012-08-29T07:27:53Z</time>
      </trkpt>
      <trkpt lat="47.64542" lon="6.18057">
        <ele>228.60000610352</ele>
        <time>2012-08-29T07:27:54Z</time>
      </trkpt>
      <trkpt lat="47.64542" lon="6.1806">
        <ele>229</ele>
        <time>2012-08-29T07:27:55Z</time>
      </trkpt>
      <trkpt lat="47.64543" lon="6.18066">
        <ele>229</ele>
        <time>2012-08-29T07:27:58Z</time>
      </trkpt>
      <trkpt lat="47.64544" lon="6.18072">
        <ele>229.39999389648</ele>
        <time>2012-08-29T07:28:01Z</time>
      </trkpt>
      <trkpt lat="47.64544" lon="6.18074">
        <ele>229.80000305176</ele>
        <time>2012-08-29T07:28:02Z</time>
      </trkpt>
      <trkpt lat="47.64544" lon="6.18076">
        <ele>230.39999389648</ele>
        <time>2012-08-29T07:28:03Z</time>
      </trkpt>
      <trkpt lat="47.64544" lon="6.18079">
        <ele>230.80000305176</ele>
        <time>2012-08-29T07:28:04Z</time>
      </trkpt>
      <trkpt lat="47.64543" lon="6.18082">
        <ele>231.19999694824</ele>
        <time>2012-08-29T07:28:05Z</time>
      </trkpt>
      <trkpt lat="47.64544" lon="6.18095">
        <ele>231.19999694824</ele>
        <time>2012-08-29T07:28:11Z</time>
      </trkpt>
      <trkpt lat="47.64545" lon="6.18103">
        <ele>231.60000610352</ele>
        <time>2012-08-29T07:28:15Z</time>
      </trkpt>
      <trkpt lat="47.64545" lon="6.18105">
        <ele>232</ele>
        <time>2012-08-29T07:28:16Z</time>
      </trkpt>
      <trkpt lat="47.64545" lon="6.18107">
        <ele>232.39999389648</ele>
        <time>2012-08-29T07:28:17Z</time>
      </trkpt>
      <trkpt lat="47.64546" lon="6.18109">
        <ele>232.80000305176</ele>
        <time>2012-08-29T07:28:18Z</time>
      </trkpt>
      <trkpt lat="47.64547" lon="6.18111">
        <ele>233.19999694824</ele>
        <time>2012-08-29T07:28:19Z</time>
      </trkpt>
      <trkpt lat="47.64554" lon="6.18118">
        <ele>233.19999694824</ele>
        <time>2012-08-29T07:28:25Z</time>
      </trkpt>
      <trkpt lat="47.64556" lon="6.18122">
        <ele>233.60000610352</ele>
        <time>2012-08-29T07:28:28Z</time>
      </trkpt>
      <trkpt lat="47.64556" lon="6.18124">
        <ele>234</ele>
        <time>2012-08-29T07:28:29Z</time>
      </trkpt>
      <trkpt lat="47.64556" lon="6.18125">
        <ele>234.39999389648</ele>
        <time>2012-08-29T07:28:30Z</time>
      </trkpt>
      <trkpt lat="47.64556" lon="6.18127">
        <ele>235</ele>
        <time>2012-08-29T07:28:31Z</time>
      </trkpt>
      <trkpt lat="47.64557" lon="6.18129">
        <ele>235.39999389648</ele>
        <time>2012-08-29T07:28:32Z</time>
      </trkpt>
      <trkpt lat="47.64558" lon="6.1813">
        <ele>235.39999389648</ele>
        <time>2012-08-29T07:28:34Z</time>
      </trkpt>
      <trkpt lat="47.64559" lon="6.18131">
        <ele>235.39999389648</ele>
        <time>2012-08-29T07:28:35Z</time>
      </trkpt>
      <trkpt lat="47.6456" lon="6.18134">
        <ele>235.39999389648</ele>
        <time>2012-08-29T07:28:37Z</time>
      </trkpt>
      <trkpt lat="47.64561" lon="6.18136">
        <ele>235.80000305176</ele>
        <time>2012-08-29T07:28:38Z</time>
      </trkpt>
      <trkpt lat="47.6456" lon="6.18136">
        <ele>236.19999694824</ele>
        <time>2012-08-29T07:28:39Z</time>
      </trkpt>
      <trkpt lat="47.6456" lon="6.18138">
        <ele>236.60000610352</ele>
        <time>2012-08-29T07:28:40Z</time>
      </trkpt>
      <trkpt lat="47.6456" lon="6.18139">
        <ele>237</ele>
        <time>2012-08-29T07:28:41Z</time>
      </trkpt>
      <trkpt lat="47.6456" lon="6.18142">
        <ele>237.39999389648</ele>
        <time>2012-08-29T07:28:42Z</time>
      </trkpt>
      <trkpt lat="47.64559" lon="6.18144">
        <ele>237.39999389648</ele>
        <time>2012-08-29T07:28:43Z</time>
      </trkpt>
      <trkpt lat="47.64557" lon="6.18156">
        <ele>237.39999389648</ele>
        <time>2012-08-29T07:28:52Z</time>
      </trkpt>
      <trkpt lat="47.64557" lon="6.18158">
        <ele>237.39999389648</ele>
        <time>2012-08-29T07:28:53Z</time>
      </trkpt>
      <trkpt lat="47.64557" lon="6.18158">
        <ele>237.80000305176</ele>
        <time>2012-08-29T07:28:54Z</time>
      </trkpt>
      <trkpt lat="47.64556" lon="6.18159">
        <ele>238.19999694824</ele>
        <time>2012-08-29T07:28:55Z</time>
      </trkpt>
      <trkpt lat="47.64556" lon="6.1816">
        <ele>238.60000610352</ele>
        <time>2012-08-29T07:28:56Z</time>
      </trkpt>
      <trkpt lat="47.64555" lon="6.18162">
        <ele>239</ele>
        <time>2012-08-29T07:28:57Z</time>
      </trkpt>
      <trkpt lat="47.64555" lon="6.18164">
        <ele>239.39999389648</ele>
        <time>2012-08-29T07:28:58Z</time>
      </trkpt>
      <trkpt lat="47.64555" lon="6.18165">
        <ele>239.39999389648</ele>
        <time>2012-08-29T07:28:59Z</time>
      </trkpt>
      <trkpt lat="47.64552" lon="6.18179">
        <ele>239.39999389648</ele>
        <time>2012-08-29T07:29:06Z</time>
      </trkpt>
      <trkpt lat="47.64551" lon="6.18185">
        <ele>239.39999389648</ele>
        <time>2012-08-29T07:29:10Z</time>
      </trkpt>
      <trkpt lat="47.64551" lon="6.18187">
        <ele>239.39999389648</ele>
        <time>2012-08-29T07:29:11Z</time>
      </trkpt>
      <trkpt lat="47.64551" lon="6.18189">
        <ele>239.80000305176</ele>
        <time>2012-08-29T07:29:12Z</time>
      </trkpt>
      <trkpt lat="47.64551" lon="6.1819">
        <ele>240.19999694824</ele>
        <time>2012-08-29T07:29:13Z</time>
      </trkpt>
      <trkpt lat="47.64551" lon="6.18192">
        <ele>240.60000610352</ele>
        <time>2012-08-29T07:29:14Z</time>
      </trkpt>
      <trkpt lat="47.64551" lon="6.18194">
        <ele>241</ele>
        <time>2012-08-29T07:29:15Z</time>
      </trkpt>
      <trkpt lat="47.64551" lon="6.18195">
        <ele>241.39999389648</ele>
        <time>2012-08-29T07:29:16Z</time>
      </trkpt>
      <trkpt lat="47.6455" lon="6.18197">
        <ele>241.39999389648</ele>
        <time>2012-08-29T07:29:17Z</time>
      </trkpt>
      <trkpt lat="47.64549" lon="6.18201">
        <ele>241.39999389648</ele>
        <time>2012-08-29T07:29:20Z</time>
      </trkpt>
      <trkpt lat="47.6455" lon="6.18207">
        <ele>241.39999389648</ele>
        <time>2012-08-29T07:29:23Z</time>
      </trkpt>
      <trkpt lat="47.64551" lon="6.18208">
        <ele>241.39999389648</ele>
        <time>2012-08-29T07:29:24Z</time>
      </trkpt>
      <trkpt lat="47.64548" lon="6.18214">
        <ele>241.39999389648</ele>
        <time>2012-08-29T07:29:29Z</time>
      </trkpt>
      <trkpt lat="47.64548" lon="6.18216">
        <ele>242</ele>
        <time>2012-08-29T07:29:30Z</time>
      </trkpt>
      <trkpt lat="47.64548" lon="6.18218">
        <ele>242.39999389648</ele>
        <time>2012-08-29T07:29:31Z</time>
      </trkpt>
      <trkpt lat="47.64548" lon="6.18219">
        <ele>242.80000305176</ele>
        <time>2012-08-29T07:29:32Z</time>
      </trkpt>
      <trkpt lat="47.64549" lon="6.1822">
        <ele>243.19999694824</ele>
        <time>2012-08-29T07:29:33Z</time>
      </trkpt>
      <trkpt lat="47.64549" lon="6.18222">
        <ele>243.60000610352</ele>
        <time>2012-08-29T07:29:34Z</time>
      </trkpt>
      <trkpt lat="47.6455" lon="6.18224">
        <ele>243.60000610352</ele>
        <time>2012-08-29T07:29:36Z</time>
      </trkpt>
      <trkpt lat="47.64548" lon="6.1823">
        <ele>243.60000610352</ele>
        <time>2012-08-29T07:29:40Z</time>
      </trkpt>
      <trkpt lat="47.64548" lon="6.18233">
        <ele>243.60000610352</ele>
        <time>2012-08-29T07:29:42Z</time>
      </trkpt>
      <trkpt lat="47.64551" lon="6.18238">
        <ele>243.60000610352</ele>
        <time>2012-08-29T07:29:45Z</time>
      </trkpt>
      <trkpt lat="47.6455" lon="6.18242">
        <ele>244</ele>
        <time>2012-08-29T07:29:48Z</time>
      </trkpt>
      <trkpt lat="47.64549" lon="6.18244">
        <ele>244.39999389648</ele>
        <time>2012-08-29T07:29:49Z</time>
      </trkpt>
      <trkpt lat="47.64548" lon="6.18246">
        <ele>244.80000305176</ele>
        <time>2012-08-29T07:29:50Z</time>
      </trkpt>
      <trkpt lat="47.64548" lon="6.18247">
        <ele>245.60000610352</ele>
        <time>2012-08-29T07:29:51Z</time>
      </trkpt>
      <trkpt lat="47.64547" lon="6.1825">
        <ele>245.60000610352</ele>
        <time>2012-08-29T07:29:55Z</time>
      </trkpt>
      <trkpt lat="47.64548" lon="6.18252">
        <ele>245.60000610352</ele>
        <time>2012-08-29T07:30:15Z</time>
      </trkpt>
      <trkpt lat="47.64547" lon="6.18262">
        <ele>245.60000610352</ele>
        <time>2012-08-29T07:30:19Z</time>
      </trkpt>
      <trkpt lat="47.64548" lon="6.18268">
        <ele>246</ele>
        <time>2012-08-29T07:30:22Z</time>
      </trkpt>
      <trkpt lat="47.64548" lon="6.1827">
        <ele>246.60000610352</ele>
        <time>2012-08-29T07:30:23Z</time>
      </trkpt>
      <trkpt lat="47.64549" lon="6.18271">
        <ele>247</ele>
        <time>2012-08-29T07:30:24Z</time>
      </trkpt>
      <trkpt lat="47.6455" lon="6.18273">
        <ele>247.39999389648</ele>
        <time>2012-08-29T07:30:25Z</time>
      </trkpt>
      <trkpt lat="47.64551" lon="6.18274">
        <ele>247.80000305176</ele>
        <time>2012-08-29T07:30:26Z</time>
      </trkpt>
      <trkpt lat="47.64552" lon="6.18278">
        <ele>247.80000305176</ele>
        <time>2012-08-29T07:30:29Z</time>
      </trkpt>
      <trkpt lat="47.64553" lon="6.1828">
        <ele>247.80000305176</ele>
        <time>2012-08-29T07:30:30Z</time>
      </trkpt>
      <trkpt lat="47.64554" lon="6.18285">
        <ele>248.39999389648</ele>
        <time>2012-08-29T07:30:33Z</time>
      </trkpt>
      <trkpt lat="47.64555" lon="6.18286">
        <ele>248.80000305176</ele>
        <time>2012-08-29T07:30:34Z</time>
      </trkpt>
      <trkpt lat="47.64555" lon="6.18287">
        <ele>249.19999694824</ele>
        <time>2012-08-29T07:30:35Z</time>
      </trkpt>
      <trkpt lat="47.64556" lon="6.18288">
        <ele>249.60000610352</ele>
        <time>2012-08-29T07:30:36Z</time>
      </trkpt>
      <trkpt lat="47.64557" lon="6.1829">
        <ele>250</ele>
        <time>2012-08-29T07:30:37Z</time>
      </trkpt>
      <trkpt lat="47.64563" lon="6.18297">
        <ele>250.60000610352</ele>
        <time>2012-08-29T07:30:43Z</time>
      </trkpt>
      <trkpt lat="47.64563" lon="6.183">
        <ele>251</ele>
        <time>2012-08-29T07:30:44Z</time>
      </trkpt>
      <trkpt lat="47.64563" lon="6.18301">
        <ele>251.39999389648</ele>
        <time>2012-08-29T07:30:45Z</time>
      </trkpt>
      <trkpt lat="47.64563" lon="6.18303">
        <ele>251.80000305176</ele>
        <time>2012-08-29T07:30:46Z</time>
      </trkpt>
      <trkpt lat="47.64564" lon="6.18305">
        <ele>252.19999694824</ele>
        <time>2012-08-29T07:30:47Z</time>
      </trkpt>
      <trkpt lat="47.64566" lon="6.18308">
        <ele>252.19999694824</ele>
        <time>2012-08-29T07:30:50Z</time>
      </trkpt>
      <trkpt lat="47.64568" lon="6.1831">
        <ele>252.19999694824</ele>
        <time>2012-08-29T07:30:52Z</time>
      </trkpt>
      <trkpt lat="47.64572" lon="6.18312">
        <ele>252.60000610352</ele>
        <time>2012-08-29T07:30:55Z</time>
      </trkpt>
      <trkpt lat="47.64573" lon="6.18314">
        <ele>253</ele>
        <time>2012-08-29T07:30:56Z</time>
      </trkpt>
      <trkpt lat="47.64574" lon="6.18315">
        <ele>253.39999389648</ele>
        <time>2012-08-29T07:30:57Z</time>
      </trkpt>
      <trkpt lat="47.64575" lon="6.18316">
        <ele>253.80000305176</ele>
        <time>2012-08-29T07:30:58Z</time>
      </trkpt>
      <trkpt lat="47.64575" lon="6.18318">
        <ele>254.19999694824</ele>
        <time>2012-08-29T07:30:59Z</time>
      </trkpt>
      <trkpt lat="47.64577" lon="6.18324">
        <ele>254.19999694824</ele>
        <time>2012-08-29T07:31:03Z</time>
      </trkpt>
      <trkpt lat="47.64577" lon="6.18327">
        <ele>254.19999694824</ele>
        <time>2012-08-29T07:31:05Z</time>
      </trkpt>
      <trkpt lat="47.64579" lon="6.18331">
        <ele>254.19999694824</ele>
        <time>2012-08-29T07:31:08Z</time>
      </trkpt>
      <trkpt lat="47.6458" lon="6.18332">
        <ele>254.19999694824</ele>
        <time>2012-08-29T07:31:09Z</time>
      </trkpt>
      <trkpt lat="47.64583" lon="6.18336">
        <ele>254.60000610352</ele>
        <time>2012-08-29T07:31:13Z</time>
      </trkpt>
      <trkpt lat="47.64584" lon="6.18338">
        <ele>255</ele>
        <time>2012-08-29T07:31:14Z</time>
      </trkpt>
      <trkpt lat="47.64584" lon="6.18339">
        <ele>255.39999389648</ele>
        <time>2012-08-29T07:31:15Z</time>
      </trkpt>
      <trkpt lat="47.64584" lon="6.18341">
        <ele>256</ele>
        <time>2012-08-29T07:31:16Z</time>
      </trkpt>
      <trkpt lat="47.64583" lon="6.18343">
        <ele>256.39999389648</ele>
        <time>2012-08-29T07:31:17Z</time>
      </trkpt>
      <trkpt lat="47.64588" lon="6.18354">
        <ele>256.39999389648</ele>
        <time>2012-08-29T07:31:23Z</time>
      </trkpt>
      <trkpt lat="47.6459" lon="6.18355">
        <ele>256.39999389648</ele>
        <time>2012-08-29T07:31:26Z</time>
      </trkpt>
      <trkpt lat="47.64593" lon="6.1836">
        <ele>256.39999389648</ele>
        <time>2012-08-29T07:31:40Z</time>
      </trkpt>
      <trkpt lat="47.64594" lon="6.18363">
        <ele>256.39999389648</ele>
        <time>2012-08-29T07:31:41Z</time>
      </trkpt>
      <trkpt lat="47.64605" lon="6.18379">
        <ele>256.39999389648</ele>
        <time>2012-08-29T07:31:48Z</time>
      </trkpt>
      <trkpt lat="47.64625" lon="6.18399">
        <ele>256.39999389648</ele>
        <time>2012-08-29T07:31:57Z</time>
      </trkpt>
      <trkpt lat="47.6464" lon="6.18417">
        <ele>256.39999389648</ele>
        <time>2012-08-29T07:32:04Z</time>
      </trkpt>
      <trkpt lat="47.64644" lon="6.18423">
        <ele>256.79998779297</ele>
        <time>2012-08-29T07:32:06Z</time>
      </trkpt>
      <trkpt lat="47.64646" lon="6.18425">
        <ele>257.20001220703</ele>
        <time>2012-08-29T07:32:07Z</time>
      </trkpt>
      <trkpt lat="47.64648" lon="6.18428">
        <ele>257.60000610352</ele>
        <time>2012-08-29T07:32:08Z</time>
      </trkpt>
      <trkpt lat="47.6465" lon="6.18431">
        <ele>258</ele>
        <time>2012-08-29T07:32:09Z</time>
      </trkpt>
      <trkpt lat="47.64652" lon="6.18434">
        <ele>258.39999389648</ele>
        <time>2012-08-29T07:32:10Z</time>
      </trkpt>
      <trkpt lat="47.6466" lon="6.18448">
        <ele>258.39999389648</ele>
        <time>2012-08-29T07:32:14Z</time>
      </trkpt>
      <trkpt lat="47.6468" lon="6.18473">
        <ele>258.39999389648</ele>
        <time>2012-08-29T07:32:22Z</time>
      </trkpt>
      <trkpt lat="47.64695" lon="6.18498">
        <ele>258.39999389648</ele>
        <time>2012-08-29T07:32:30Z</time>
      </trkpt>
      <trkpt lat="47.6471" lon="6.18528">
        <ele>258.39999389648</ele>
        <time>2012-08-29T07:32:38Z</time>
      </trkpt>
      <trkpt lat="47.64726" lon="6.18558">
        <ele>258.39999389648</ele>
        <time>2012-08-29T07:32:47Z</time>
      </trkpt>
      <trkpt lat="47.64741" lon="6.18588">
        <ele>258.39999389648</ele>
        <time>2012-08-29T07:32:55Z</time>
      </trkpt>
      <trkpt lat="47.64753" lon="6.18607">
        <ele>258.39999389648</ele>
        <time>2012-08-29T07:33:01Z</time>
      </trkpt>
      <trkpt lat="47.64771" lon="6.18641">
        <ele>258.39999389648</ele>
        <time>2012-08-29T07:33:10Z</time>
      </trkpt>
      <trkpt lat="47.6479" lon="6.18676">
        <ele>258.39999389648</ele>
        <time>2012-08-29T07:33:20Z</time>
      </trkpt>
      <trkpt lat="47.64795" lon="6.18686">
        <ele>258.79998779297</ele>
        <time>2012-08-29T07:33:23Z</time>
      </trkpt>
      <trkpt lat="47.64796" lon="6.1869">
        <ele>259.20001220703</ele>
        <time>2012-08-29T07:33:24Z</time>
      </trkpt>
      <trkpt lat="47.64798" lon="6.18693">
        <ele>259.60000610352</ele>
        <time>2012-08-29T07:33:25Z</time>
      </trkpt>
      <trkpt lat="47.64799" lon="6.18696">
        <ele>260</ele>
        <time>2012-08-29T07:33:26Z</time>
      </trkpt>
      <trkpt lat="47.64801" lon="6.187">
        <ele>260.39999389648</ele>
        <time>2012-08-29T07:33:27Z</time>
      </trkpt>
      <trkpt lat="47.64808" lon="6.18712">
        <ele>260.39999389648</ele>
        <time>2012-08-29T07:33:31Z</time>
      </trkpt>
      <trkpt lat="47.64818" lon="6.18732">
        <ele>260.39999389648</ele>
        <time>2012-08-29T07:33:38Z</time>
      </trkpt>
      <trkpt lat="47.64819" lon="6.18735">
        <ele>261</ele>
        <time>2012-08-29T07:33:39Z</time>
      </trkpt>
      <trkpt lat="47.64821" lon="6.18737">
        <ele>261.39999389648</ele>
        <time>2012-08-29T07:33:40Z</time>
      </trkpt>
      <trkpt lat="47.64822" lon="6.18739">
        <ele>261.79998779297</ele>
        <time>2012-08-29T07:33:41Z</time>
      </trkpt>
      <trkpt lat="47.64823" lon="6.18742">
        <ele>262.20001220703</ele>
        <time>2012-08-29T07:33:42Z</time>
      </trkpt>
      <trkpt lat="47.64824" lon="6.18744">
        <ele>262.60000610352</ele>
        <time>2012-08-29T07:33:43Z</time>
      </trkpt>
      <trkpt lat="47.64828" lon="6.18753">
        <ele>262.60000610352</ele>
        <time>2012-08-29T07:33:46Z</time>
      </trkpt>
      <trkpt lat="47.64837" lon="6.18776">
        <ele>262.60000610352</ele>
        <time>2012-08-29T07:33:53Z</time>
      </trkpt>
      <trkpt lat="47.6485" lon="6.18803">
        <ele>262.60000610352</ele>
        <time>2012-08-29T07:34:01Z</time>
      </trkpt>
      <trkpt lat="47.64856" lon="6.18817">
        <ele>263</ele>
        <time>2012-08-29T07:34:05Z</time>
      </trkpt>
      <trkpt lat="47.64858" lon="6.18821">
        <ele>263.39999389648</ele>
        <time>2012-08-29T07:34:06Z</time>
      </trkpt>
      <trkpt lat="47.64861" lon="6.18824">
        <ele>263.79998779297</ele>
        <time>2012-08-29T07:34:07Z</time>
      </trkpt>
      <trkpt lat="47.64863" lon="6.18828">
        <ele>264.20001220703</ele>
        <time>2012-08-29T07:34:08Z</time>
      </trkpt>
      <trkpt lat="47.64864" lon="6.18832">
        <ele>264.60000610352</ele>
        <time>2012-08-29T07:34:09Z</time>
      </trkpt>
      <trkpt lat="47.64874" lon="6.18853">
        <ele>264.60000610352</ele>
        <time>2012-08-29T07:34:15Z</time>
      </trkpt>
      <trkpt lat="47.64884" lon="6.18875">
        <ele>264.60000610352</ele>
        <time>2012-08-29T07:34:22Z</time>
      </trkpt>
      <trkpt lat="47.64894" lon="6.18897">
        <ele>264.60000610352</ele>
        <time>2012-08-29T07:34:29Z</time>
      </trkpt>
      <trkpt lat="47.64902" lon="6.1891">
        <ele>265</ele>
        <time>2012-08-29T07:34:34Z</time>
      </trkpt>
      <trkpt lat="47.64904" lon="6.18913">
        <ele>265.39999389648</ele>
        <time>2012-08-29T07:34:35Z</time>
      </trkpt>
      <trkpt lat="47.64906" lon="6.18916">
        <ele>265.79998779297</ele>
        <time>2012-08-29T07:34:36Z</time>
      </trkpt>
      <trkpt lat="47.64908" lon="6.1892">
        <ele>266.20001220703</ele>
        <time>2012-08-29T07:34:37Z</time>
      </trkpt>
      <trkpt lat="47.6491" lon="6.18923">
        <ele>266.60000610352</ele>
        <time>2012-08-29T07:34:38Z</time>
      </trkpt>
      <trkpt lat="47.64918" lon="6.18934">
        <ele>266.60000610352</ele>
        <time>2012-08-29T07:34:42Z</time>
      </trkpt>
      <trkpt lat="47.64931" lon="6.18956">
        <ele>266.60000610352</ele>
        <time>2012-08-29T07:34:50Z</time>
      </trkpt>
      <trkpt lat="47.64947" lon="6.1898">
        <ele>266.60000610352</ele>
        <time>2012-08-29T07:34:59Z</time>
      </trkpt>
      <trkpt lat="47.64956" lon="6.18998">
        <ele>266.60000610352</ele>
        <time>2012-08-29T07:35:05Z</time>
      </trkpt>
      <trkpt lat="47.64962" lon="6.1901">
        <ele>267</ele>
        <time>2012-08-29T07:35:09Z</time>
      </trkpt>
      <trkpt lat="47.64964" lon="6.19013">
        <ele>267.60000610352</ele>
        <time>2012-08-29T07:35:10Z</time>
      </trkpt>
      <trkpt lat="47.64965" lon="6.19016">
        <ele>268</ele>
        <time>2012-08-29T07:35:11Z</time>
      </trkpt>
      <trkpt lat="47.64967" lon="6.19019">
        <ele>268.79998779297</ele>
        <time>2012-08-29T07:35:12Z</time>
      </trkpt>
      <trkpt lat="47.64975" lon="6.19036">
        <ele>268.79998779297</ele>
        <time>2012-08-29T07:35:18Z</time>
      </trkpt>
      <trkpt lat="47.64986" lon="6.19059">
        <ele>268.79998779297</ele>
        <time>2012-08-29T07:35:25Z</time>
      </trkpt>
      <trkpt lat="47.64999" lon="6.19084">
        <ele>268.79998779297</ele>
        <time>2012-08-29T07:35:32Z</time>
      </trkpt>
      <trkpt lat="47.65014" lon="6.19108">
        <ele>268.79998779297</ele>
        <time>2012-08-29T07:35:40Z</time>
      </trkpt>
      <trkpt lat="47.65021" lon="6.19119">
        <ele>269.20001220703</ele>
        <time>2012-08-29T07:35:44Z</time>
      </trkpt>
      <trkpt lat="47.65023" lon="6.19122">
        <ele>269.60000610352</ele>
        <time>2012-08-29T07:35:45Z</time>
      </trkpt>
      <trkpt lat="47.65024" lon="6.19126">
        <ele>270</ele>
        <time>2012-08-29T07:35:46Z</time>
      </trkpt>
      <trkpt lat="47.65026" lon="6.19129">
        <ele>270.39999389648</ele>
        <time>2012-08-29T07:35:47Z</time>
      </trkpt>
      <trkpt lat="47.65028" lon="6.19131">
        <ele>270.79998779297</ele>
        <time>2012-08-29T07:35:48Z</time>
      </trkpt>
      <trkpt lat="47.6503" lon="6.19134">
        <ele>270.79998779297</ele>
        <time>2012-08-29T07:35:49Z</time>
      </trkpt>
      <trkpt lat="47.65043" lon="6.19155">
        <ele>270.79998779297</ele>
        <time>2012-08-29T07:35:56Z</time>
      </trkpt>
      <trkpt lat="47.65056" lon="6.19176">
        <ele>270.79998779297</ele>
        <time>2012-08-29T07:36:03Z</time>
      </trkpt>
      <trkpt lat="47.65066" lon="6.19195">
        <ele>270.79998779297</ele>
        <time>2012-08-29T07:36:09Z</time>
      </trkpt>
      <trkpt lat="47.65081" lon="6.19219">
        <ele>270.79998779297</ele>
        <time>2012-08-29T07:36:16Z</time>
      </trkpt>
      <trkpt lat="47.65099" lon="6.19243">
        <ele>271.60000610352</ele>
        <time>2012-08-29T07:36:25Z</time>
      </trkpt>
      <trkpt lat="47.65101" lon="6.19246">
        <ele>272</ele>
        <time>2012-08-29T07:36:26Z</time>
      </trkpt>
      <trkpt lat="47.65103" lon="6.19249">
        <ele>272.39999389648</ele>
        <time>2012-08-29T07:36:27Z</time>
      </trkpt>
      <trkpt lat="47.65105" lon="6.19252">
        <ele>272.79998779297</ele>
        <time>2012-08-29T07:36:28Z</time>
      </trkpt>
      <trkpt lat="47.65116" lon="6.19267">
        <ele>272.79998779297</ele>
        <time>2012-08-29T07:36:33Z</time>
      </trkpt>
      <trkpt lat="47.6513" lon="6.19286">
        <ele>272.79998779297</ele>
        <time>2012-08-29T07:36:40Z</time>
      </trkpt>
      <trkpt lat="47.6515" lon="6.19306">
        <ele>272.79998779297</ele>
        <time>2012-08-29T07:36:48Z</time>
      </trkpt>
      <trkpt lat="47.65168" lon="6.19325">
        <ele>272.79998779297</ele>
        <time>2012-08-29T07:36:56Z</time>
      </trkpt>
      <trkpt lat="47.65182" lon="6.19342">
        <ele>272.39999389648</ele>
        <time>2012-08-29T07:37:02Z</time>
      </trkpt>
      <trkpt lat="47.65184" lon="6.19346">
        <ele>272</ele>
        <time>2012-08-29T07:37:03Z</time>
      </trkpt>
      <trkpt lat="47.65186" lon="6.1935">
        <ele>272.20001220703</ele>
        <time>2012-08-29T07:37:04Z</time>
      </trkpt>
      <trkpt lat="47.65188" lon="6.19353">
        <ele>272.39999389648</ele>
        <time>2012-08-29T07:37:05Z</time>
      </trkpt>
      <trkpt lat="47.6519" lon="6.19356">
        <ele>272.60000610352</ele>
        <time>2012-08-29T07:37:06Z</time>
      </trkpt>
      <trkpt lat="47.65192" lon="6.1936">
        <ele>272.60000610352</ele>
        <time>2012-08-29T07:37:07Z</time>
      </trkpt>
      <trkpt lat="47.65194" lon="6.19363">
        <ele>272.79998779297</ele>
        <time>2012-08-29T07:37:08Z</time>
      </trkpt>
      <trkpt lat="47.65198" lon="6.1937">
        <ele>272.79998779297</ele>
        <time>2012-08-29T07:37:10Z</time>
      </trkpt>
      <trkpt lat="47.65214" lon="6.194">
        <ele>272.79998779297</ele>
        <time>2012-08-29T07:37:18Z</time>
      </trkpt>
      <trkpt lat="47.65227" lon="6.19424">
        <ele>272.79998779297</ele>
        <time>2012-08-29T07:37:25Z</time>
      </trkpt>
      <trkpt lat="47.65239" lon="6.19438">
        <ele>272.79998779297</ele>
        <time>2012-08-29T07:37:31Z</time>
      </trkpt>
      <trkpt lat="47.65252" lon="6.19454">
        <ele>272.79998779297</ele>
        <time>2012-08-29T07:37:37Z</time>
      </trkpt>
      <trkpt lat="47.65262" lon="6.19469">
        <ele>272.79998779297</ele>
        <time>2012-08-29T07:37:43Z</time>
      </trkpt>
      <trkpt lat="47.65273" lon="6.19491">
        <ele>272.79998779297</ele>
        <time>2012-08-29T07:37:49Z</time>
      </trkpt>
      <trkpt lat="47.65279" lon="6.19508">
        <ele>272.79998779297</ele>
        <time>2012-08-29T07:37:55Z</time>
      </trkpt>
      <trkpt lat="47.65282" lon="6.1953">
        <ele>272.79998779297</ele>
        <time>2012-08-29T07:38:01Z</time>
      </trkpt>
      <trkpt lat="47.65289" lon="6.19546">
        <ele>272.79998779297</ele>
        <time>2012-08-29T07:38:06Z</time>
      </trkpt>
      <trkpt lat="47.65294" lon="6.19566">
        <ele>272.39999389648</ele>
        <time>2012-08-29T07:38:11Z</time>
      </trkpt>
      <trkpt lat="47.65296" lon="6.1957">
        <ele>272</ele>
        <time>2012-08-29T07:38:12Z</time>
      </trkpt>
      <trkpt lat="47.65297" lon="6.19574">
        <ele>271.60000610352</ele>
        <time>2012-08-29T07:38:13Z</time>
      </trkpt>
      <trkpt lat="47.65299" lon="6.19579">
        <ele>271.20001220703</ele>
        <time>2012-08-29T07:38:14Z</time>
      </trkpt>
      <trkpt lat="47.65301" lon="6.19584">
        <ele>270.79998779297</ele>
        <time>2012-08-29T07:38:15Z</time>
      </trkpt>
      <trkpt lat="47.65304" lon="6.19589">
        <ele>270.79998779297</ele>
        <time>2012-08-29T07:38:16Z</time>
      </trkpt>
      <trkpt lat="47.65315" lon="6.19618">
        <ele>270.79998779297</ele>
        <time>2012-08-29T07:38:22Z</time>
      </trkpt>
      <trkpt lat="47.65327" lon="6.19648">
        <ele>270.79998779297</ele>
        <time>2012-08-29T07:38:29Z</time>
      </trkpt>
      <trkpt lat="47.65335" lon="6.19666">
        <ele>270.79998779297</ele>
        <time>2012-08-29T07:38:34Z</time>
      </trkpt>
      <trkpt lat="47.6535" lon="6.19692">
        <ele>270.79998779297</ele>
        <time>2012-08-29T07:38:42Z</time>
      </trkpt>
      <trkpt lat="47.65362" lon="6.19722">
        <ele>270.79998779297</ele>
        <time>2012-08-29T07:38:50Z</time>
      </trkpt>
      <trkpt lat="47.6537" lon="6.19742">
        <ele>270.79998779297</ele>
        <time>2012-08-29T07:38:56Z</time>
      </trkpt>
      <trkpt lat="47.65381" lon="6.19765">
        <ele>270.79998779297</ele>
        <time>2012-08-29T07:39:04Z</time>
      </trkpt>
      <trkpt lat="47.65391" lon="6.19788">
        <ele>270.79998779297</ele>
        <time>2012-08-29T07:39:11Z</time>
      </trkpt>
      <trkpt lat="47.65403" lon="6.19808">
        <ele>270.79998779297</ele>
        <time>2012-08-29T07:39:18Z</time>
      </trkpt>
      <trkpt lat="47.65417" lon="6.19832">
        <ele>270.79998779297</ele>
        <time>2012-08-29T07:39:26Z</time>
      </trkpt>
      <trkpt lat="47.65422" lon="6.19841">
        <ele>271.20001220703</ele>
        <time>2012-08-29T07:39:29Z</time>
      </trkpt>
      <trkpt lat="47.65423" lon="6.19845">
        <ele>271.60000610352</ele>
        <time>2012-08-29T07:39:30Z</time>
      </trkpt>
      <trkpt lat="47.65425" lon="6.19848">
        <ele>272</ele>
        <time>2012-08-29T07:39:31Z</time>
      </trkpt>
      <trkpt lat="47.65426" lon="6.19851">
        <ele>272.39999389648</ele>
        <time>2012-08-29T07:39:32Z</time>
      </trkpt>
      <trkpt lat="47.65428" lon="6.19854">
        <ele>272.79998779297</ele>
        <time>2012-08-29T07:39:33Z</time>
      </trkpt>
      <trkpt lat="47.65432" lon="6.19862">
        <ele>272.79998779297</ele>
        <time>2012-08-29T07:39:36Z</time>
      </trkpt>
      <trkpt lat="47.65441" lon="6.19881">
        <ele>272.79998779297</ele>
        <time>2012-08-29T07:39:42Z</time>
      </trkpt>
      <trkpt lat="47.6545" lon="6.19907">
        <ele>272.79998779297</ele>
        <time>2012-08-29T07:39:48Z</time>
      </trkpt>
      <trkpt lat="47.65464" lon="6.19941">
        <ele>272.79998779297</ele>
        <time>2012-08-29T07:39:57Z</time>
      </trkpt>
      <trkpt lat="47.65471" lon="6.19954">
        <ele>272.79998779297</ele>
        <time>2012-08-29T07:40:02Z</time>
      </trkpt>
      <trkpt lat="47.65485" lon="6.19976">
        <ele>272.79998779297</ele>
        <time>2012-08-29T07:40:10Z</time>
      </trkpt>
      <trkpt lat="47.65498" lon="6.19998">
        <ele>272.79998779297</ele>
        <time>2012-08-29T07:40:19Z</time>
      </trkpt>
      <trkpt lat="47.65512" lon="6.20017">
        <ele>272.79998779297</ele>
        <time>2012-08-29T07:40:27Z</time>
      </trkpt>
      <trkpt lat="47.65528" lon="6.20041">
        <ele>272.79998779297</ele>
        <time>2012-08-29T07:40:35Z</time>
      </trkpt>
      <trkpt lat="47.65545" lon="6.20062">
        <ele>272.79998779297</ele>
        <time>2012-08-29T07:40:44Z</time>
      </trkpt>
      <trkpt lat="47.6556" lon="6.2008">
        <ele>273.20001220703</ele>
        <time>2012-08-29T07:40:52Z</time>
      </trkpt>
      <trkpt lat="47.65561" lon="6.20082">
        <ele>273.60000610352</ele>
        <time>2012-08-29T07:40:53Z</time>
      </trkpt>
      <trkpt lat="47.65563" lon="6.20084">
        <ele>274</ele>
        <time>2012-08-29T07:40:54Z</time>
      </trkpt>
      <trkpt lat="47.65565" lon="6.20086">
        <ele>274.39999389648</ele>
        <time>2012-08-29T07:40:55Z</time>
      </trkpt>
      <trkpt lat="47.65567" lon="6.20088">
        <ele>274.79998779297</ele>
        <time>2012-08-29T07:40:56Z</time>
      </trkpt>
      <trkpt lat="47.65574" lon="6.20094">
        <ele>274.79998779297</ele>
        <time>2012-08-29T07:40:59Z</time>
      </trkpt>
      <trkpt lat="47.65582" lon="6.20102">
        <ele>274.79998779297</ele>
        <time>2012-08-29T07:41:03Z</time>
      </trkpt>
      <trkpt lat="47.65596" lon="6.20116">
        <ele>274.79998779297</ele>
        <time>2012-08-29T07:41:11Z</time>
      </trkpt>
      <trkpt lat="47.65613" lon="6.20134">
        <ele>274.79998779297</ele>
        <time>2012-08-29T07:41:18Z</time>
      </trkpt>
      <trkpt lat="47.65623" lon="6.20146">
        <ele>274.79998779297</ele>
        <time>2012-08-29T07:41:24Z</time>
      </trkpt>
      <trkpt lat="47.65629" lon="6.20152">
        <ele>274.79998779297</ele>
        <time>2012-08-29T07:41:28Z</time>
      </trkpt>
      <trkpt lat="47.65635" lon="6.20155">
        <ele>274.79998779297</ele>
        <time>2012-08-29T07:41:32Z</time>
      </trkpt>
      <trkpt lat="47.65637" lon="6.20156">
        <ele>275.20001220703</ele>
        <time>2012-08-29T07:41:33Z</time>
      </trkpt>
      <trkpt lat="47.65638" lon="6.20158">
        <ele>275.60000610352</ele>
        <time>2012-08-29T07:41:34Z</time>
      </trkpt>
      <trkpt lat="47.65639" lon="6.2016">
        <ele>276</ele>
        <time>2012-08-29T07:41:35Z</time>
      </trkpt>
      <trkpt lat="47.65641" lon="6.20164">
        <ele>276.39999389648</ele>
        <time>2012-08-29T07:41:36Z</time>
      </trkpt>
      <trkpt lat="47.65643" lon="6.20167">
        <ele>276.79998779297</ele>
        <time>2012-08-29T07:41:37Z</time>
      </trkpt>
      <trkpt lat="47.65644" lon="6.20169">
        <ele>276.79998779297</ele>
        <time>2012-08-29T07:41:38Z</time>
      </trkpt>
      <trkpt lat="47.65655" lon="6.20186">
        <ele>276.79998779297</ele>
        <time>2012-08-29T07:41:43Z</time>
      </trkpt>
      <trkpt lat="47.65672" lon="6.20209">
        <ele>276.79998779297</ele>
        <time>2012-08-29T07:41:49Z</time>
      </trkpt>
      <trkpt lat="47.65693" lon="6.20237">
        <ele>276.20001220703</ele>
        <time>2012-08-29T07:41:56Z</time>
      </trkpt>
      <trkpt lat="47.65697" lon="6.20241">
        <ele>275.79998779297</ele>
        <time>2012-08-29T07:41:57Z</time>
      </trkpt>
      <trkpt lat="47.657" lon="6.20246">
        <ele>275.20001220703</ele>
        <time>2012-08-29T07:41:58Z</time>
      </trkpt>
      <trkpt lat="47.65703" lon="6.20249">
        <ele>274.79998779297</ele>
        <time>2012-08-29T07:41:59Z</time>
      </trkpt>
      <trkpt lat="47.65707" lon="6.20252">
        <ele>274.20001220703</ele>
        <time>2012-08-29T07:42:00Z</time>
      </trkpt>
      <trkpt lat="47.65712" lon="6.20258">
        <ele>274.20001220703</ele>
        <time>2012-08-29T07:42:02Z</time>
      </trkpt>
      <trkpt lat="47.65732" lon="6.2028">
        <ele>274.20001220703</ele>
        <time>2012-08-29T07:42:08Z</time>
      </trkpt>
      <trkpt lat="47.65747" lon="6.20297">
        <ele>273.79998779297</ele>
        <time>2012-08-29T07:42:12Z</time>
      </trkpt>
      <trkpt lat="47.65751" lon="6.20302">
        <ele>273.39999389648</ele>
        <time>2012-08-29T07:42:13Z</time>
      </trkpt>
      <trkpt lat="47.65756" lon="6.20307">
        <ele>273</ele>
        <time>2012-08-29T07:42:14Z</time>
      </trkpt>
      <trkpt lat="47.65761" lon="6.20312">
        <ele>272.39999389648</ele>
        <time>2012-08-29T07:42:15Z</time>
      </trkpt>
      <trkpt lat="47.65766" lon="6.20317">
        <ele>272</ele>
        <time>2012-08-29T07:42:16Z</time>
      </trkpt>
      <trkpt lat="47.65789" lon="6.20338">
        <ele>272</ele>
        <time>2012-08-29T07:42:21Z</time>
      </trkpt>
      <trkpt lat="47.65801" lon="6.20351">
        <ele>271.60000610352</ele>
        <time>2012-08-29T07:42:24Z</time>
      </trkpt>
      <trkpt lat="47.65806" lon="6.20355">
        <ele>271.20001220703</ele>
        <time>2012-08-29T07:42:25Z</time>
      </trkpt>
      <trkpt lat="47.6581" lon="6.2036">
        <ele>270.60000610352</ele>
        <time>2012-08-29T07:42:26Z</time>
      </trkpt>
      <trkpt lat="47.65815" lon="6.20364">
        <ele>270.20001220703</ele>
        <time>2012-08-29T07:42:27Z</time>
      </trkpt>
      <trkpt lat="47.65819" lon="6.20369">
        <ele>269.79998779297</ele>
        <time>2012-08-29T07:42:28Z</time>
      </trkpt>
      <trkpt lat="47.65824" lon="6.20373">
        <ele>269.79998779297</ele>
        <time>2012-08-29T07:42:29Z</time>
      </trkpt>
      <trkpt lat="47.65844" lon="6.20393">
        <ele>269.20001220703</ele>
        <time>2012-08-29T07:42:34Z</time>
      </trkpt>
      <trkpt lat="47.65847" lon="6.20397">
        <ele>268.79998779297</ele>
        <time>2012-08-29T07:42:35Z</time>
      </trkpt>
      <trkpt lat="47.65851" lon="6.204">
        <ele>267.79998779297</ele>
        <time>2012-08-29T07:42:36Z</time>
      </trkpt>
      <trkpt lat="47.65854" lon="6.20403">
        <ele>267.39999389648</ele>
        <time>2012-08-29T07:42:37Z</time>
      </trkpt>
      <trkpt lat="47.65859" lon="6.20408">
        <ele>267.79998779297</ele>
        <time>2012-08-29T07:42:39Z</time>
      </trkpt>
      <trkpt lat="47.65862" lon="6.20411">
        <ele>268.20001220703</ele>
        <time>2012-08-29T07:42:40Z</time>
      </trkpt>
      <trkpt lat="47.65864" lon="6.20413">
        <ele>268.60000610352</ele>
        <time>2012-08-29T07:42:41Z</time>
      </trkpt>
      <trkpt lat="47.65867" lon="6.20416">
        <ele>268.20001220703</ele>
        <time>2012-08-29T07:42:42Z</time>
      </trkpt>
      <trkpt lat="47.65869" lon="6.20418">
        <ele>267.79998779297</ele>
        <time>2012-08-29T07:42:43Z</time>
      </trkpt>
      <trkpt lat="47.65872" lon="6.2042">
        <ele>267.39999389648</ele>
        <time>2012-08-29T07:42:44Z</time>
      </trkpt>
      <trkpt lat="47.65874" lon="6.20422">
        <ele>267.79998779297</ele>
        <time>2012-08-29T07:42:45Z</time>
      </trkpt>
      <trkpt lat="47.65877" lon="6.20424">
        <ele>268.39999389648</ele>
        <time>2012-08-29T07:42:46Z</time>
      </trkpt>
      <trkpt lat="47.65879" lon="6.20425">
        <ele>268.79998779297</ele>
        <time>2012-08-29T07:42:47Z</time>
      </trkpt>
      <trkpt lat="47.65881" lon="6.20427">
        <ele>269.20001220703</ele>
        <time>2012-08-29T07:42:48Z</time>
      </trkpt>
      <trkpt lat="47.65884" lon="6.2043">
        <ele>269.60000610352</ele>
        <time>2012-08-29T07:42:49Z</time>
      </trkpt>
      <trkpt lat="47.65899" lon="6.20447">
        <ele>269.60000610352</ele>
        <time>2012-08-29T07:42:55Z</time>
      </trkpt>
      <trkpt lat="47.65911" lon="6.20459">
        <ele>269.20001220703</ele>
        <time>2012-08-29T07:42:59Z</time>
      </trkpt>
      <trkpt lat="47.65914" lon="6.20462">
        <ele>268.60000610352</ele>
        <time>2012-08-29T07:43:00Z</time>
      </trkpt>
      <trkpt lat="47.65916" lon="6.20465">
        <ele>268.39999389648</ele>
        <time>2012-08-29T07:43:01Z</time>
      </trkpt>
      <trkpt lat="47.65919" lon="6.20467">
        <ele>269</ele>
        <time>2012-08-29T07:43:02Z</time>
      </trkpt>
      <trkpt lat="47.65922" lon="6.20469">
        <ele>269.39999389648</ele>
        <time>2012-08-29T07:43:03Z</time>
      </trkpt>
      <trkpt lat="47.65925" lon="6.20471">
        <ele>270</ele>
        <time>2012-08-29T07:43:04Z</time>
      </trkpt>
      <trkpt lat="47.65928" lon="6.20473">
        <ele>270.39999389648</ele>
        <time>2012-08-29T07:43:05Z</time>
      </trkpt>
      <trkpt lat="47.65934" lon="6.20478">
        <ele>270.39999389648</ele>
        <time>2012-08-29T07:43:07Z</time>
      </trkpt>
      <trkpt lat="47.65953" lon="6.20489">
        <ele>270.39999389648</ele>
        <time>2012-08-29T07:43:13Z</time>
      </trkpt>
      <trkpt lat="47.65981" lon="6.20509">
        <ele>270.39999389648</ele>
        <time>2012-08-29T07:43:21Z</time>
      </trkpt>
      <trkpt lat="47.65999" lon="6.20519">
        <ele>269.20001220703</ele>
        <time>2012-08-29T07:43:26Z</time>
      </trkpt>
      <trkpt lat="47.66002" lon="6.20521">
        <ele>268.60000610352</ele>
        <time>2012-08-29T07:43:27Z</time>
      </trkpt>
      <trkpt lat="47.66006" lon="6.20523">
        <ele>269</ele>
        <time>2012-08-29T07:43:28Z</time>
      </trkpt>
      <trkpt lat="47.66009" lon="6.20525">
        <ele>269.20001220703</ele>
        <time>2012-08-29T07:43:29Z</time>
      </trkpt>
      <trkpt lat="47.66013" lon="6.20527">
        <ele>268.79998779297</ele>
        <time>2012-08-29T07:43:30Z</time>
      </trkpt>
      <trkpt lat="47.66017" lon="6.20529">
        <ele>268.20001220703</ele>
        <time>2012-08-29T07:43:31Z</time>
      </trkpt>
      <trkpt lat="47.66021" lon="6.20531">
        <ele>267.79998779297</ele>
        <time>2012-08-29T07:43:32Z</time>
      </trkpt>
      <trkpt lat="47.66024" lon="6.20533">
        <ele>267.20001220703</ele>
        <time>2012-08-29T07:43:33Z</time>
      </trkpt>
      <trkpt lat="47.66028" lon="6.20535">
        <ele>266.79998779297</ele>
        <time>2012-08-29T07:43:34Z</time>
      </trkpt>
      <trkpt lat="47.66036" lon="6.20539">
        <ele>266.79998779297</ele>
        <time>2012-08-29T07:43:36Z</time>
      </trkpt>
      <trkpt lat="47.66059" lon="6.20551">
        <ele>266.79998779297</ele>
        <time>2012-08-29T07:43:43Z</time>
      </trkpt>
      <trkpt lat="47.66079" lon="6.20563">
        <ele>266.79998779297</ele>
        <time>2012-08-29T07:43:50Z</time>
      </trkpt>
      <trkpt lat="47.66102" lon="6.20577">
        <ele>266.79998779297</ele>
        <time>2012-08-29T07:43:57Z</time>
      </trkpt>
      <trkpt lat="47.66113" lon="6.20583">
        <ele>267.20001220703</ele>
        <time>2012-08-29T07:44:01Z</time>
      </trkpt>
      <trkpt lat="47.66116" lon="6.20585">
        <ele>267.60000610352</ele>
        <time>2012-08-29T07:44:02Z</time>
      </trkpt>
      <trkpt lat="47.66119" lon="6.20586">
        <ele>268</ele>
        <time>2012-08-29T07:44:03Z</time>
      </trkpt>
      <trkpt lat="47.66122" lon="6.20588">
        <ele>268.39999389648</ele>
        <time>2012-08-29T07:44:04Z</time>
      </trkpt>
      <trkpt lat="47.66124" lon="6.20589">
        <ele>268.79998779297</ele>
        <time>2012-08-29T07:44:05Z</time>
      </trkpt>
      <trkpt lat="47.66137" lon="6.20596">
        <ele>268.79998779297</ele>
        <time>2012-08-29T07:44:10Z</time>
      </trkpt>
      <trkpt lat="47.66156" lon="6.20607">
        <ele>268.79998779297</ele>
        <time>2012-08-29T07:44:18Z</time>
      </trkpt>
      <trkpt lat="47.66177" lon="6.20619">
        <ele>268.79998779297</ele>
        <time>2012-08-29T07:44:24Z</time>
      </trkpt>
      <trkpt lat="47.66197" lon="6.20635">
        <ele>268.39999389648</ele>
        <time>2012-08-29T07:44:29Z</time>
      </trkpt>
      <trkpt lat="47.662" lon="6.20638">
        <ele>267.79998779297</ele>
        <time>2012-08-29T07:44:30Z</time>
      </trkpt>
      <trkpt lat="47.66204" lon="6.20641">
        <ele>267.39999389648</ele>
        <time>2012-08-29T07:44:31Z</time>
      </trkpt>
      <trkpt lat="47.66208" lon="6.20644">
        <ele>266.79998779297</ele>
        <time>2012-08-29T07:44:32Z</time>
      </trkpt>
      <trkpt lat="47.66211" lon="6.20647">
        <ele>266.39999389648</ele>
        <time>2012-08-29T07:44:33Z</time>
      </trkpt>
      <trkpt lat="47.66214" lon="6.20652">
        <ele>266</ele>
        <time>2012-08-29T07:44:34Z</time>
      </trkpt>
      <trkpt lat="47.66216" lon="6.20656">
        <ele>265.60000610352</ele>
        <time>2012-08-29T07:44:35Z</time>
      </trkpt>
      <trkpt lat="47.66219" lon="6.20661">
        <ele>265.20001220703</ele>
        <time>2012-08-29T07:44:36Z</time>
      </trkpt>
      <trkpt lat="47.66222" lon="6.20665">
        <ele>264.79998779297</ele>
        <time>2012-08-29T07:44:37Z</time>
      </trkpt>
      <trkpt lat="47.66224" lon="6.20669">
        <ele>264.20001220703</ele>
        <time>2012-08-29T07:44:38Z</time>
      </trkpt>
      <trkpt lat="47.66227" lon="6.20673">
        <ele>263.79998779297</ele>
        <time>2012-08-29T07:44:39Z</time>
      </trkpt>
      <trkpt lat="47.6623" lon="6.20677">
        <ele>262.79998779297</ele>
        <time>2012-08-29T07:44:40Z</time>
      </trkpt>
      <trkpt lat="47.66232" lon="6.20681">
        <ele>262.20001220703</ele>
        <time>2012-08-29T07:44:41Z</time>
      </trkpt>
      <trkpt lat="47.66235" lon="6.20686">
        <ele>261.60000610352</ele>
        <time>2012-08-29T07:44:42Z</time>
      </trkpt>
      <trkpt lat="47.66238" lon="6.2069">
        <ele>261.20001220703</ele>
        <time>2012-08-29T07:44:43Z</time>
      </trkpt>
      <trkpt lat="47.66242" lon="6.20694">
        <ele>260.60000610352</ele>
        <time>2012-08-29T07:44:44Z</time>
      </trkpt>
      <trkpt lat="47.66245" lon="6.20698">
        <ele>260.20001220703</ele>
        <time>2012-08-29T07:44:45Z</time>
      </trkpt>
      <trkpt lat="47.66249" lon="6.20703">
        <ele>259.60000610352</ele>
        <time>2012-08-29T07:44:46Z</time>
      </trkpt>
      <trkpt lat="47.66252" lon="6.20706">
        <ele>259</ele>
        <time>2012-08-29T07:44:47Z</time>
      </trkpt>
      <trkpt lat="47.66256" lon="6.2071">
        <ele>258.39999389648</ele>
        <time>2012-08-29T07:44:48Z</time>
      </trkpt>
      <trkpt lat="47.66259" lon="6.20712">
        <ele>257.79998779297</ele>
        <time>2012-08-29T07:44:49Z</time>
      </trkpt>
      <trkpt lat="47.66262" lon="6.20715">
        <ele>257</ele>
        <time>2012-08-29T07:44:50Z</time>
      </trkpt>
      <trkpt lat="47.66266" lon="6.20718">
        <ele>256.60000610352</ele>
        <time>2012-08-29T07:44:51Z</time>
      </trkpt>
      <trkpt lat="47.6627" lon="6.20721">
        <ele>256.20001220703</ele>
        <time>2012-08-29T07:44:52Z</time>
      </trkpt>
      <trkpt lat="47.66273" lon="6.20723">
        <ele>255.80000305176</ele>
        <time>2012-08-29T07:44:53Z</time>
      </trkpt>
      <trkpt lat="47.66278" lon="6.20724">
        <ele>255.19999694824</ele>
        <time>2012-08-29T07:44:54Z</time>
      </trkpt>
      <trkpt lat="47.66282" lon="6.20725">
        <ele>254.80000305176</ele>
        <time>2012-08-29T07:44:55Z</time>
      </trkpt>
      <trkpt lat="47.66294" lon="6.20728">
        <ele>254.39999389648</ele>
        <time>2012-08-29T07:44:58Z</time>
      </trkpt>
      <trkpt lat="47.66299" lon="6.20729">
        <ele>254</ele>
        <time>2012-08-29T07:44:59Z</time>
      </trkpt>
      <trkpt lat="47.66303" lon="6.2073">
        <ele>253.60000610352</ele>
        <time>2012-08-29T07:45:00Z</time>
      </trkpt>
      <trkpt lat="47.66307" lon="6.20732">
        <ele>253.19999694824</ele>
        <time>2012-08-29T07:45:01Z</time>
      </trkpt>
      <trkpt lat="47.66311" lon="6.20733">
        <ele>252.80000305176</ele>
        <time>2012-08-29T07:45:02Z</time>
      </trkpt>
      <trkpt lat="47.66318" lon="6.20734">
        <ele>252.80000305176</ele>
        <time>2012-08-29T07:45:04Z</time>
      </trkpt>
      <trkpt lat="47.66322" lon="6.20735">
        <ele>252</ele>
        <time>2012-08-29T07:45:05Z</time>
      </trkpt>
      <trkpt lat="47.66326" lon="6.20736">
        <ele>251.39999389648</ele>
        <time>2012-08-29T07:45:06Z</time>
      </trkpt>
      <trkpt lat="47.66329" lon="6.20738">
        <ele>251</ele>
        <time>2012-08-29T07:45:07Z</time>
      </trkpt>
      <trkpt lat="47.66333" lon="6.20739">
        <ele>250.60000610352</ele>
        <time>2012-08-29T07:45:08Z</time>
      </trkpt>
      <trkpt lat="47.66343" lon="6.20745">
        <ele>250.60000610352</ele>
        <time>2012-08-29T07:45:11Z</time>
      </trkpt>
      <trkpt lat="47.66346" lon="6.20747">
        <ele>250.19999694824</ele>
        <time>2012-08-29T07:45:12Z</time>
      </trkpt>
      <trkpt lat="47.66349" lon="6.20748">
        <ele>249.80000305176</ele>
        <time>2012-08-29T07:45:13Z</time>
      </trkpt>
      <trkpt lat="47.66352" lon="6.20747">
        <ele>249.39999389648</ele>
        <time>2012-08-29T07:45:14Z</time>
      </trkpt>
      <trkpt lat="47.66355" lon="6.20746">
        <ele>249</ele>
        <time>2012-08-29T07:45:15Z</time>
      </trkpt>
      <trkpt lat="47.66358" lon="6.20745">
        <ele>248.60000610352</ele>
        <time>2012-08-29T07:45:16Z</time>
      </trkpt>
      <trkpt lat="47.66363" lon="6.20737">
        <ele>248.60000610352</ele>
        <time>2012-08-29T07:45:20Z</time>
      </trkpt>
      <trkpt lat="47.66364" lon="6.20734">
        <ele>248.60000610352</ele>
        <time>2012-08-29T07:45:21Z</time>
      </trkpt>
      <trkpt lat="47.66363" lon="6.20723">
        <ele>248.60000610352</ele>
        <time>2012-08-29T07:45:25Z</time>
      </trkpt>
      <trkpt lat="47.66365" lon="6.20711">
        <ele>248.60000610352</ele>
        <time>2012-08-29T07:45:30Z</time>
      </trkpt>
      <trkpt lat="47.66367" lon="6.20709">
        <ele>249</ele>
        <time>2012-08-29T07:45:31Z</time>
      </trkpt>
      <trkpt lat="47.66368" lon="6.20708">
        <ele>249.39999389648</ele>
        <time>2012-08-29T07:45:32Z</time>
      </trkpt>
      <trkpt lat="47.66369" lon="6.20707">
        <ele>249.80000305176</ele>
        <time>2012-08-29T07:45:33Z</time>
      </trkpt>
      <trkpt lat="47.66371" lon="6.20707">
        <ele>250.39999389648</ele>
        <time>2012-08-29T07:45:34Z</time>
      </trkpt>
      <trkpt lat="47.66372" lon="6.20705">
        <ele>250.80000305176</ele>
        <time>2012-08-29T07:45:35Z</time>
      </trkpt>
      <trkpt lat="47.66378" lon="6.20696">
        <ele>250.80000305176</ele>
        <time>2012-08-29T07:45:40Z</time>
      </trkpt>
      <trkpt lat="47.66381" lon="6.20694">
        <ele>251.19999694824</ele>
        <time>2012-08-29T07:45:42Z</time>
      </trkpt>
      <trkpt lat="47.66382" lon="6.20693">
        <ele>251.60000610352</ele>
        <time>2012-08-29T07:45:43Z</time>
      </trkpt>
      <trkpt lat="47.66384" lon="6.20692">
        <ele>252</ele>
        <time>2012-08-29T07:45:44Z</time>
      </trkpt>
      <trkpt lat="47.66385" lon="6.20691">
        <ele>252.60000610352</ele>
        <time>2012-08-29T07:45:45Z</time>
      </trkpt>
      <trkpt lat="47.66385" lon="6.2069">
        <ele>253</ele>
        <time>2012-08-29T07:45:46Z</time>
      </trkpt>
      <trkpt lat="47.66391" lon="6.20685">
        <ele>253</ele>
        <time>2012-08-29T07:45:51Z</time>
      </trkpt>
      <trkpt lat="47.66392" lon="6.20684">
        <ele>253</ele>
        <time>2012-08-29T07:45:52Z</time>
      </trkpt>
      <trkpt lat="47.66393" lon="6.20683">
        <ele>253.80000305176</ele>
        <time>2012-08-29T07:45:53Z</time>
      </trkpt>
      <trkpt lat="47.66395" lon="6.20682">
        <ele>254.19999694824</ele>
        <time>2012-08-29T07:45:54Z</time>
      </trkpt>
      <trkpt lat="47.66396" lon="6.20682">
        <ele>254.60000610352</ele>
        <time>2012-08-29T07:45:55Z</time>
      </trkpt>
      <trkpt lat="47.66397" lon="6.20681">
        <ele>255.19999694824</ele>
        <time>2012-08-29T07:45:56Z</time>
      </trkpt>
      <trkpt lat="47.66399" lon="6.20681">
        <ele>255.19999694824</ele>
        <time>2012-08-29T07:45:58Z</time>
      </trkpt>
      <trkpt lat="47.66402" lon="6.20682">
        <ele>255.19999694824</ele>
        <time>2012-08-29T07:46:01Z</time>
      </trkpt>
      <trkpt lat="47.66403" lon="6.20683">
        <ele>255.60000610352</ele>
        <time>2012-08-29T07:46:02Z</time>
      </trkpt>
      <trkpt lat="47.66404" lon="6.20684">
        <ele>256</ele>
        <time>2012-08-29T07:46:03Z</time>
      </trkpt>
      <trkpt lat="47.66405" lon="6.20686">
        <ele>256.39999389648</ele>
        <time>2012-08-29T07:46:04Z</time>
      </trkpt>
      <trkpt lat="47.66406" lon="6.20687">
        <ele>256.79998779297</ele>
        <time>2012-08-29T07:46:05Z</time>
      </trkpt>
      <trkpt lat="47.66408" lon="6.20688">
        <ele>257.20001220703</ele>
        <time>2012-08-29T07:46:06Z</time>
      </trkpt>
      <trkpt lat="47.6641" lon="6.20692">
        <ele>257.20001220703</ele>
        <time>2012-08-29T07:46:08Z</time>
      </trkpt>
      <trkpt lat="47.66413" lon="6.20695">
        <ele>257.20001220703</ele>
        <time>2012-08-29T07:46:10Z</time>
      </trkpt>
      <trkpt lat="47.66417" lon="6.20699">
        <ele>257.60000610352</ele>
        <time>2012-08-29T07:46:13Z</time>
      </trkpt>
      <trkpt lat="47.66418" lon="6.20699">
        <ele>258</ele>
        <time>2012-08-29T07:46:14Z</time>
      </trkpt>
      <trkpt lat="47.66419" lon="6.20698">
        <ele>258.39999389648</ele>
        <time>2012-08-29T07:46:15Z</time>
      </trkpt>
      <trkpt lat="47.6642" lon="6.20698">
        <ele>258.79998779297</ele>
        <time>2012-08-29T07:46:16Z</time>
      </trkpt>
      <trkpt lat="47.66421" lon="6.20697">
        <ele>259.39999389648</ele>
        <time>2012-08-29T07:46:17Z</time>
      </trkpt>
      <trkpt lat="47.66421" lon="6.20695">
        <ele>259.39999389648</ele>
        <time>2012-08-29T07:46:18Z</time>
      </trkpt>
      <trkpt lat="47.66423" lon="6.2069">
        <ele>259.39999389648</ele>
        <time>2012-08-29T07:46:21Z</time>
      </trkpt>
      <trkpt lat="47.66424" lon="6.20689">
        <ele>259.39999389648</ele>
        <time>2012-08-29T07:46:22Z</time>
      </trkpt>
      <trkpt lat="47.66425" lon="6.20688">
        <ele>259.79998779297</ele>
        <time>2012-08-29T07:46:23Z</time>
      </trkpt>
      <trkpt lat="47.66426" lon="6.20686">
        <ele>260.20001220703</ele>
        <time>2012-08-29T07:46:24Z</time>
      </trkpt>
      <trkpt lat="47.66427" lon="6.20685">
        <ele>260.60000610352</ele>
        <time>2012-08-29T07:46:25Z</time>
      </trkpt>
      <trkpt lat="47.66428" lon="6.20684">
        <ele>261</ele>
        <time>2012-08-29T07:46:26Z</time>
      </trkpt>
      <trkpt lat="47.66429" lon="6.20683">
        <ele>261.39999389648</ele>
        <time>2012-08-29T07:46:27Z</time>
      </trkpt>
      <trkpt lat="47.6643" lon="6.20682">
        <ele>261.39999389648</ele>
        <time>2012-08-29T07:46:28Z</time>
      </trkpt>
      <trkpt lat="47.66432" lon="6.20678">
        <ele>261.39999389648</ele>
        <time>2012-08-29T07:46:31Z</time>
      </trkpt>
      <trkpt lat="47.66436" lon="6.20672">
        <ele>261.39999389648</ele>
        <time>2012-08-29T07:46:36Z</time>
      </trkpt>
      <trkpt lat="47.66437" lon="6.20671">
        <ele>261.79998779297</ele>
        <time>2012-08-29T07:46:37Z</time>
      </trkpt>
      <trkpt lat="47.66438" lon="6.2067">
        <ele>262.20001220703</ele>
        <time>2012-08-29T07:46:38Z</time>
      </trkpt>
      <trkpt lat="47.66439" lon="6.20668">
        <ele>262.60000610352</ele>
        <time>2012-08-29T07:46:39Z</time>
      </trkpt>
      <trkpt lat="47.6644" lon="6.20666">
        <ele>263</ele>
        <time>2012-08-29T07:46:40Z</time>
      </trkpt>
      <trkpt lat="47.66441" lon="6.20665">
        <ele>263.39999389648</ele>
        <time>2012-08-29T07:46:41Z</time>
      </trkpt>
      <trkpt lat="47.66442" lon="6.20655">
        <ele>263.79998779297</ele>
        <time>2012-08-29T07:46:46Z</time>
      </trkpt>
      <trkpt lat="47.66442" lon="6.20654">
        <ele>264.20001220703</ele>
        <time>2012-08-29T07:46:47Z</time>
      </trkpt>
      <trkpt lat="47.66443" lon="6.20652">
        <ele>264.60000610352</ele>
        <time>2012-08-29T07:46:48Z</time>
      </trkpt>
      <trkpt lat="47.66444" lon="6.20651">
        <ele>265</ele>
        <time>2012-08-29T07:46:49Z</time>
      </trkpt>
      <trkpt lat="47.66444" lon="6.20651">
        <ele>265.39999389648</ele>
        <time>2012-08-29T07:46:50Z</time>
      </trkpt>
      <trkpt lat="47.66445" lon="6.20651">
        <ele>265.39999389648</ele>
        <time>2012-08-29T07:46:51Z</time>
      </trkpt>
      <trkpt lat="47.66448" lon="6.20651">
        <ele>265.39999389648</ele>
        <time>2012-08-29T07:46:53Z</time>
      </trkpt>
      <trkpt lat="47.66454" lon="6.20656">
        <ele>265.39999389648</ele>
        <time>2012-08-29T07:46:59Z</time>
      </trkpt>
      <trkpt lat="47.66459" lon="6.20659">
        <ele>265.79998779297</ele>
        <time>2012-08-29T07:47:03Z</time>
      </trkpt>
      <trkpt lat="47.6646" lon="6.2066">
        <ele>266.39999389648</ele>
        <time>2012-08-29T07:47:04Z</time>
      </trkpt>
      <trkpt lat="47.66461" lon="6.2066">
        <ele>266.79998779297</ele>
        <time>2012-08-29T07:47:05Z</time>
      </trkpt>
      <trkpt lat="47.66462" lon="6.20661">
        <ele>267.20001220703</ele>
        <time>2012-08-29T07:47:06Z</time>
      </trkpt>
      <trkpt lat="47.66464" lon="6.20661">
        <ele>267.60000610352</ele>
        <time>2012-08-29T07:47:07Z</time>
      </trkpt>
      <trkpt lat="47.6647" lon="6.20661">
        <ele>267.60000610352</ele>
        <time>2012-08-29T07:47:12Z</time>
      </trkpt>
      <trkpt lat="47.66472" lon="6.20661">
        <ele>268</ele>
        <time>2012-08-29T07:47:13Z</time>
      </trkpt>
      <trkpt lat="47.66473" lon="6.20661">
        <ele>268.60000610352</ele>
        <time>2012-08-29T07:47:14Z</time>
      </trkpt>
      <trkpt lat="47.66475" lon="6.20662">
        <ele>269</ele>
        <time>2012-08-29T07:47:15Z</time>
      </trkpt>
      <trkpt lat="47.66476" lon="6.20662">
        <ele>269.39999389648</ele>
        <time>2012-08-29T07:47:16Z</time>
      </trkpt>
      <trkpt lat="47.66477" lon="6.20662">
        <ele>269.79998779297</ele>
        <time>2012-08-29T07:47:17Z</time>
      </trkpt>
      <trkpt lat="47.66479" lon="6.20662">
        <ele>269.79998779297</ele>
        <time>2012-08-29T07:47:19Z</time>
      </trkpt>
      <trkpt lat="47.66492" lon="6.20649">
        <ele>272.79998779297</ele>
        <time>2012-08-29T07:49:34Z</time>
      </trkpt>
      <trkpt lat="47.66493" lon="6.20648">
        <ele>273.39999389648</ele>
        <time>2012-08-29T07:49:35Z</time>
      </trkpt>
      <trkpt lat="47.66494" lon="6.20646">
        <ele>274.20001220703</ele>
        <time>2012-08-29T07:49:36Z</time>
      </trkpt>
      <trkpt lat="47.66498" lon="6.20643">
        <ele>274.20001220703</ele>
        <time>2012-08-29T07:49:41Z</time>
      </trkpt>
      <trkpt lat="47.66501" lon="6.20641">
        <ele>274.60000610352</ele>
        <time>2012-08-29T07:49:45Z</time>
      </trkpt>
      <trkpt lat="47.66502" lon="6.2064">
        <ele>275</ele>
        <time>2012-08-29T07:49:46Z</time>
      </trkpt>
      <trkpt lat="47.66503" lon="6.2064">
        <ele>275.60000610352</ele>
        <time>2012-08-29T07:49:47Z</time>
      </trkpt>
      <trkpt lat="47.66503" lon="6.2064">
        <ele>276</ele>
        <time>2012-08-29T07:49:48Z</time>
      </trkpt>
      <trkpt lat="47.66504" lon="6.2064">
        <ele>276.39999389648</ele>
        <time>2012-08-29T07:49:49Z</time>
      </trkpt>
      <trkpt lat="47.6651" lon="6.20638">
        <ele>276.39999389648</ele>
        <time>2012-08-29T07:49:57Z</time>
      </trkpt>
      <trkpt lat="47.66512" lon="6.20638">
        <ele>276.79998779297</ele>
        <time>2012-08-29T07:50:00Z</time>
      </trkpt>
      <trkpt lat="47.66513" lon="6.20638">
        <ele>277.20001220703</ele>
        <time>2012-08-29T07:50:01Z</time>
      </trkpt>
      <trkpt lat="47.66514" lon="6.20638">
        <ele>277.60000610352</ele>
        <time>2012-08-29T07:50:02Z</time>
      </trkpt>
      <trkpt lat="47.66514" lon="6.20639">
        <ele>278.20001220703</ele>
        <time>2012-08-29T07:50:03Z</time>
      </trkpt>
      <trkpt lat="47.66515" lon="6.20639">
        <ele>278.60000610352</ele>
        <time>2012-08-29T07:50:04Z</time>
      </trkpt>
      <trkpt lat="47.66516" lon="6.20639">
        <ele>278.60000610352</ele>
        <time>2012-08-29T07:50:05Z</time>
      </trkpt>
      <trkpt lat="47.66521" lon="6.20641">
        <ele>278.60000610352</ele>
        <time>2012-08-29T07:50:12Z</time>
      </trkpt>
      <trkpt lat="47.66526" lon="6.20643">
        <ele>279</ele>
        <time>2012-08-29T07:50:18Z</time>
      </trkpt>
      <trkpt lat="47.66527" lon="6.20644">
        <ele>279.39999389648</ele>
        <time>2012-08-29T07:50:19Z</time>
      </trkpt>
      <trkpt lat="47.66528" lon="6.20644">
        <ele>279.79998779297</ele>
        <time>2012-08-29T07:50:20Z</time>
      </trkpt>
      <trkpt lat="47.66529" lon="6.20644">
        <ele>280.20001220703</ele>
        <time>2012-08-29T07:50:21Z</time>
      </trkpt>
      <trkpt lat="47.66529" lon="6.20645">
        <ele>280.60000610352</ele>
        <time>2012-08-29T07:50:22Z</time>
      </trkpt>
      <trkpt lat="47.66532" lon="6.20646">
        <ele>280.60000610352</ele>
        <time>2012-08-29T07:50:26Z</time>
      </trkpt>
      <trkpt lat="47.66537" lon="6.20648">
        <ele>280.60000610352</ele>
        <time>2012-08-29T07:50:33Z</time>
      </trkpt>
      <trkpt lat="47.66591" lon="6.20655">
        <ele>291.20001220703</ele>
        <time>2012-08-29T07:52:09Z</time>
      </trkpt>
      <trkpt lat="47.66597" lon="6.20657">
        <ele>291.20001220703</ele>
        <time>2012-08-29T07:52:12Z</time>
      </trkpt>
      <trkpt lat="47.66599" lon="6.20657">
        <ele>291.60000610352</ele>
        <time>2012-08-29T07:52:13Z</time>
      </trkpt>
      <trkpt lat="47.66601" lon="6.20657">
        <ele>292</ele>
        <time>2012-08-29T07:52:14Z</time>
      </trkpt>
      <trkpt lat="47.66603" lon="6.20657">
        <ele>292.39999389648</ele>
        <time>2012-08-29T07:52:15Z</time>
      </trkpt>
      <trkpt lat="47.66605" lon="6.20657">
        <ele>293</ele>
        <time>2012-08-29T07:52:16Z</time>
      </trkpt>
      <trkpt lat="47.66606" lon="6.20656">
        <ele>293.39999389648</ele>
        <time>2012-08-29T07:52:17Z</time>
      </trkpt>
      <trkpt lat="47.66607" lon="6.20657">
        <ele>293.79998779297</ele>
        <time>2012-08-29T07:52:18Z</time>
      </trkpt>
      <trkpt lat="47.66608" lon="6.20657">
        <ele>294.20001220703</ele>
        <time>2012-08-29T07:52:19Z</time>
      </trkpt>
      <trkpt lat="47.66609" lon="6.20657">
        <ele>294.60000610352</ele>
        <time>2012-08-29T07:52:20Z</time>
      </trkpt>
      <trkpt lat="47.6661" lon="6.20657">
        <ele>295.20001220703</ele>
        <time>2012-08-29T07:52:21Z</time>
      </trkpt>
      <trkpt lat="47.66612" lon="6.20657">
        <ele>295.60000610352</ele>
        <time>2012-08-29T07:52:22Z</time>
      </trkpt>
      <trkpt lat="47.66618" lon="6.20656">
        <ele>295.60000610352</ele>
        <time>2012-08-29T07:52:27Z</time>
      </trkpt>
      <trkpt lat="47.66623" lon="6.20658">
        <ele>295.60000610352</ele>
        <time>2012-08-29T07:52:32Z</time>
      </trkpt>
      <trkpt lat="47.66627" lon="6.2066">
        <ele>295.60000610352</ele>
        <time>2012-08-29T07:52:34Z</time>
      </trkpt>
      <trkpt lat="47.66632" lon="6.20665">
        <ele>295.60000610352</ele>
        <time>2012-08-29T07:52:38Z</time>
      </trkpt>
      <trkpt lat="47.66637" lon="6.20666">
        <ele>295.60000610352</ele>
        <time>2012-08-29T07:52:41Z</time>
      </trkpt>
      <trkpt lat="47.66645" lon="6.20666">
        <ele>295.60000610352</ele>
        <time>2012-08-29T07:52:48Z</time>
      </trkpt>
      <trkpt lat="47.66653" lon="6.20664">
        <ele>295.60000610352</ele>
        <time>2012-08-29T07:52:56Z</time>
      </trkpt>
      <trkpt lat="47.66655" lon="6.20662">
        <ele>296</ele>
        <time>2012-08-29T07:52:58Z</time>
      </trkpt>
      <trkpt lat="47.66656" lon="6.20661">
        <ele>296.39999389648</ele>
        <time>2012-08-29T07:52:59Z</time>
      </trkpt>
      <trkpt lat="47.66657" lon="6.2066">
        <ele>296.79998779297</ele>
        <time>2012-08-29T07:53:00Z</time>
      </trkpt>
      <trkpt lat="47.66658" lon="6.2066">
        <ele>297.20001220703</ele>
        <time>2012-08-29T07:53:01Z</time>
      </trkpt>
      <trkpt lat="47.66659" lon="6.2066">
        <ele>297.60000610352</ele>
        <time>2012-08-29T07:53:02Z</time>
      </trkpt>
      <trkpt lat="47.66659" lon="6.20659">
        <ele>297.60000610352</ele>
        <time>2012-08-29T07:53:03Z</time>
      </trkpt>
      <trkpt lat="47.66686" lon="6.20637">
        <ele>301.60000610352</ele>
        <time>2012-08-29T07:54:31Z</time>
      </trkpt>
      <trkpt lat="47.66687" lon="6.20637">
        <ele>301.60000610352</ele>
        <time>2012-08-29T07:54:33Z</time>
      </trkpt>
      <trkpt lat="47.66692" lon="6.20636">
        <ele>301.60000610352</ele>
        <time>2012-08-29T07:54:36Z</time>
      </trkpt>
      <trkpt lat="47.66695" lon="6.20634">
        <ele>301.60000610352</ele>
        <time>2012-08-29T07:54:38Z</time>
      </trkpt>
      <trkpt lat="47.66701" lon="6.2063">
        <ele>301.60000610352</ele>
        <time>2012-08-29T07:54:41Z</time>
      </trkpt>
      <trkpt lat="47.66706" lon="6.20627">
        <ele>302</ele>
        <time>2012-08-29T07:54:44Z</time>
      </trkpt>
      <trkpt lat="47.66708" lon="6.20627">
        <ele>302.39999389648</ele>
        <time>2012-08-29T07:54:45Z</time>
      </trkpt>
      <trkpt lat="47.6671" lon="6.20625">
        <ele>302.79998779297</ele>
        <time>2012-08-29T07:54:46Z</time>
      </trkpt>
      <trkpt lat="47.6671" lon="6.20624">
        <ele>303.20001220703</ele>
        <time>2012-08-29T07:54:47Z</time>
      </trkpt>
      <trkpt lat="47.66712" lon="6.20623">
        <ele>303.60000610352</ele>
        <time>2012-08-29T07:54:48Z</time>
      </trkpt>
      <trkpt lat="47.66718" lon="6.20619">
        <ele>303.60000610352</ele>
        <time>2012-08-29T07:54:52Z</time>
      </trkpt>
      <trkpt lat="47.66719" lon="6.20619">
        <ele>303.60000610352</ele>
        <time>2012-08-29T07:54:53Z</time>
      </trkpt>
      <trkpt lat="47.66728" lon="6.20615">
        <ele>303.60000610352</ele>
        <time>2012-08-29T07:54:58Z</time>
      </trkpt>
      <trkpt lat="47.66742" lon="6.20604">
        <ele>304</ele>
        <time>2012-08-29T07:55:08Z</time>
      </trkpt>
      <trkpt lat="47.66744" lon="6.20604">
        <ele>304.39999389648</ele>
        <time>2012-08-29T07:55:09Z</time>
      </trkpt>
      <trkpt lat="47.66745" lon="6.20603">
        <ele>304.79998779297</ele>
        <time>2012-08-29T07:55:10Z</time>
      </trkpt>
      <trkpt lat="47.66747" lon="6.20602">
        <ele>305.20001220703</ele>
        <time>2012-08-29T07:55:11Z</time>
      </trkpt>
      <trkpt lat="47.66748" lon="6.20601">
        <ele>305.60000610352</ele>
        <time>2012-08-29T07:55:12Z</time>
      </trkpt>
      <trkpt lat="47.66749" lon="6.206">
        <ele>305.60000610352</ele>
        <time>2012-08-29T07:55:13Z</time>
      </trkpt>
      <trkpt lat="47.66759" lon="6.20595">
        <ele>305.60000610352</ele>
        <time>2012-08-29T07:55:19Z</time>
      </trkpt>
      <trkpt lat="47.6676" lon="6.20593">
        <ele>305.60000610352</ele>
        <time>2012-08-29T07:55:20Z</time>
      </trkpt>
      <trkpt lat="47.66771" lon="6.20586">
        <ele>305.60000610352</ele>
        <time>2012-08-29T07:55:27Z</time>
      </trkpt>
      <trkpt lat="47.66783" lon="6.20577">
        <ele>305.60000610352</ele>
        <time>2012-08-29T07:55:35Z</time>
      </trkpt>
      <trkpt lat="47.66786" lon="6.20574">
        <ele>305.60000610352</ele>
        <time>2012-08-29T07:55:37Z</time>
      </trkpt>
      <trkpt lat="47.66791" lon="6.2057">
        <ele>305.60000610352</ele>
        <time>2012-08-29T07:55:40Z</time>
      </trkpt>
      <trkpt lat="47.66798" lon="6.20568">
        <ele>305.60000610352</ele>
        <time>2012-08-29T07:55:46Z</time>
      </trkpt>
      <trkpt lat="47.66803" lon="6.2058">
        <ele>305.60000610352</ele>
        <time>2012-08-29T07:59:33Z</time>
      </trkpt>
      <trkpt lat="47.66808" lon="6.20585">
        <ele>305.60000610352</ele>
        <time>2012-08-29T07:59:36Z</time>
      </trkpt>
      <trkpt lat="47.66818" lon="6.20583">
        <ele>305.60000610352</ele>
        <time>2012-08-29T07:59:41Z</time>
      </trkpt>
      <trkpt lat="47.66828" lon="6.20576">
        <ele>305.60000610352</ele>
        <time>2012-08-29T07:59:48Z</time>
      </trkpt>
      <trkpt lat="47.66834" lon="6.20571">
        <ele>305.60000610352</ele>
        <time>2012-08-29T07:59:55Z</time>
      </trkpt>
      <trkpt lat="47.66846" lon="6.20567">
        <ele>305.60000610352</ele>
        <time>2012-08-29T08:00:02Z</time>
      </trkpt>
      <trkpt lat="47.66848" lon="6.20565">
        <ele>305.20001220703</ele>
        <time>2012-08-29T08:00:05Z</time>
      </trkpt>
      <trkpt lat="47.66848" lon="6.20566">
        <ele>304.79998779297</ele>
        <time>2012-08-29T08:00:06Z</time>
      </trkpt>
      <trkpt lat="47.66839" lon="6.20576">
        <ele>303.60000610352</ele>
        <time>2012-08-29T08:00:35Z</time>
      </trkpt>
      <trkpt lat="47.66837" lon="6.20577">
        <ele>303.60000610352</ele>
        <time>2012-08-29T08:00:36Z</time>
      </trkpt>
      <trkpt lat="47.66833" lon="6.20576">
        <ele>303.60000610352</ele>
        <time>2012-08-29T08:00:41Z</time>
      </trkpt>
      <trkpt lat="47.6683" lon="6.20574">
        <ele>303.60000610352</ele>
        <time>2012-08-29T08:00:44Z</time>
      </trkpt>
      <trkpt lat="47.66828" lon="6.20573">
        <ele>303.60000610352</ele>
        <time>2012-08-29T08:00:46Z</time>
      </trkpt>
      <trkpt lat="47.66826" lon="6.20572">
        <ele>303.60000610352</ele>
        <time>2012-08-29T08:00:47Z</time>
      </trkpt>
      <trkpt lat="47.6682" lon="6.20573">
        <ele>303.60000610352</ele>
        <time>2012-08-29T08:00:53Z</time>
      </trkpt>
      <trkpt lat="47.66818" lon="6.20576">
        <ele>303.60000610352</ele>
        <time>2012-08-29T08:00:56Z</time>
      </trkpt>
      <trkpt lat="47.66814" lon="6.20581">
        <ele>303.60000610352</ele>
        <time>2012-08-29T08:01:00Z</time>
      </trkpt>
      <trkpt lat="47.66812" lon="6.20582">
        <ele>303.60000610352</ele>
        <time>2012-08-29T08:01:02Z</time>
      </trkpt>
      <trkpt lat="47.66808" lon="6.20583">
        <ele>303.60000610352</ele>
        <time>2012-08-29T08:01:06Z</time>
      </trkpt>
      <trkpt lat="47.66804" lon="6.20581">
        <ele>303.60000610352</ele>
        <time>2012-08-29T08:01:11Z</time>
      </trkpt>
      <trkpt lat="47.66787" lon="6.20573">
        <ele>305.79998779297</ele>
        <time>2012-08-29T08:02:59Z</time>
      </trkpt>
      <trkpt lat="47.66776" lon="6.20581">
        <ele>305.79998779297</ele>
        <time>2012-08-29T08:03:06Z</time>
      </trkpt>
      <trkpt lat="47.66765" lon="6.20589">
        <ele>305.79998779297</ele>
        <time>2012-08-29T08:03:13Z</time>
      </trkpt>
      <trkpt lat="47.66759" lon="6.20593">
        <ele>306.20001220703</ele>
        <time>2012-08-29T08:03:17Z</time>
      </trkpt>
      <trkpt lat="47.66757" lon="6.20594">
        <ele>306.60000610352</ele>
        <time>2012-08-29T08:03:18Z</time>
      </trkpt>
      <trkpt lat="47.66755" lon="6.20596">
        <ele>307</ele>
        <time>2012-08-29T08:03:19Z</time>
      </trkpt>
      <trkpt lat="47.66753" lon="6.20597">
        <ele>307.39999389648</ele>
        <time>2012-08-29T08:03:20Z</time>
      </trkpt>
      <trkpt lat="47.66751" lon="6.20598">
        <ele>307.79998779297</ele>
        <time>2012-08-29T08:03:21Z</time>
      </trkpt>
      <trkpt lat="47.66742" lon="6.20603">
        <ele>307.79998779297</ele>
        <time>2012-08-29T08:03:26Z</time>
      </trkpt>
      <trkpt lat="47.6673" lon="6.20612">
        <ele>307.79998779297</ele>
        <time>2012-08-29T08:03:31Z</time>
      </trkpt>
      <trkpt lat="47.66708" lon="6.20624">
        <ele>307.79998779297</ele>
        <time>2012-08-29T08:03:38Z</time>
      </trkpt>
      <trkpt lat="47.66706" lon="6.20626">
        <ele>307.39999389648</ele>
        <time>2012-08-29T08:03:39Z</time>
      </trkpt>
      <trkpt lat="47.66704" lon="6.20627">
        <ele>306.79998779297</ele>
        <time>2012-08-29T08:03:40Z</time>
      </trkpt>
      <trkpt lat="47.66701" lon="6.20628">
        <ele>306.39999389648</ele>
        <time>2012-08-29T08:03:41Z</time>
      </trkpt>
      <trkpt lat="47.66699" lon="6.2063">
        <ele>306</ele>
        <time>2012-08-29T08:03:42Z</time>
      </trkpt>
      <trkpt lat="47.66697" lon="6.20631">
        <ele>305.60000610352</ele>
        <time>2012-08-29T08:03:43Z</time>
      </trkpt>
      <trkpt lat="47.66696" lon="6.20632">
        <ele>305.60000610352</ele>
        <time>2012-08-29T08:03:44Z</time>
      </trkpt>
      <trkpt lat="47.66683" lon="6.2064">
        <ele>305.60000610352</ele>
        <time>2012-08-29T08:03:50Z</time>
      </trkpt>
      <trkpt lat="47.66681" lon="6.20642">
        <ele>305.20001220703</ele>
        <time>2012-08-29T08:03:51Z</time>
      </trkpt>
      <trkpt lat="47.66678" lon="6.20643">
        <ele>304.79998779297</ele>
        <time>2012-08-29T08:03:52Z</time>
      </trkpt>
      <trkpt lat="47.66676" lon="6.20645">
        <ele>304.39999389648</ele>
        <time>2012-08-29T08:03:53Z</time>
      </trkpt>
      <trkpt lat="47.66674" lon="6.20647">
        <ele>304</ele>
        <time>2012-08-29T08:03:54Z</time>
      </trkpt>
      <trkpt lat="47.66673" lon="6.20648">
        <ele>303.60000610352</ele>
        <time>2012-08-29T08:03:55Z</time>
      </trkpt>
      <trkpt lat="47.6667" lon="6.20651">
        <ele>303.60000610352</ele>
        <time>2012-08-29T08:03:57Z</time>
      </trkpt>
      <trkpt lat="47.66666" lon="6.20653">
        <ele>303.20001220703</ele>
        <time>2012-08-29T08:03:59Z</time>
      </trkpt>
      <trkpt lat="47.66664" lon="6.20655">
        <ele>302.79998779297</ele>
        <time>2012-08-29T08:04:00Z</time>
      </trkpt>
      <trkpt lat="47.66662" lon="6.20657">
        <ele>302.20001220703</ele>
        <time>2012-08-29T08:04:01Z</time>
      </trkpt>
      <trkpt lat="47.6666" lon="6.20658">
        <ele>301.79998779297</ele>
        <time>2012-08-29T08:04:02Z</time>
      </trkpt>
      <trkpt lat="47.66658" lon="6.2066">
        <ele>301.39999389648</ele>
        <time>2012-08-29T08:04:03Z</time>
      </trkpt>
      <trkpt lat="47.6665" lon="6.20664">
        <ele>301</ele>
        <time>2012-08-29T08:04:06Z</time>
      </trkpt>
      <trkpt lat="47.66647" lon="6.20665">
        <ele>300.60000610352</ele>
        <time>2012-08-29T08:04:07Z</time>
      </trkpt>
      <trkpt lat="47.66644" lon="6.20665">
        <ele>300.20001220703</ele>
        <time>2012-08-29T08:04:08Z</time>
      </trkpt>
      <trkpt lat="47.66641" lon="6.20665">
        <ele>299.79998779297</ele>
        <time>2012-08-29T08:04:09Z</time>
      </trkpt>
      <trkpt lat="47.66639" lon="6.20664">
        <ele>299.39999389648</ele>
        <time>2012-08-29T08:04:10Z</time>
      </trkpt>
      <trkpt lat="47.66626" lon="6.20662">
        <ele>299.39999389648</ele>
        <time>2012-08-29T08:04:15Z</time>
      </trkpt>
      <trkpt lat="47.66614" lon="6.20658">
        <ele>299</ele>
        <time>2012-08-29T08:04:21Z</time>
      </trkpt>
      <trkpt lat="47.66612" lon="6.20658">
        <ele>298.39999389648</ele>
        <time>2012-08-29T08:04:22Z</time>
      </trkpt>
      <trkpt lat="47.66609" lon="6.20657">
        <ele>298</ele>
        <time>2012-08-29T08:04:23Z</time>
      </trkpt>
      <trkpt lat="47.66607" lon="6.20656">
        <ele>297.60000610352</ele>
        <time>2012-08-29T08:04:24Z</time>
      </trkpt>
      <trkpt lat="47.66604" lon="6.20655">
        <ele>297.20001220703</ele>
        <time>2012-08-29T08:04:25Z</time>
      </trkpt>
      <trkpt lat="47.66594" lon="6.20656">
        <ele>296.79998779297</ele>
        <time>2012-08-29T08:04:29Z</time>
      </trkpt>
      <trkpt lat="47.66592" lon="6.20657">
        <ele>296.20001220703</ele>
        <time>2012-08-29T08:04:30Z</time>
      </trkpt>
      <trkpt lat="47.66589" lon="6.20658">
        <ele>295.79998779297</ele>
        <time>2012-08-29T08:04:31Z</time>
      </trkpt>
      <trkpt lat="47.66586" lon="6.20659">
        <ele>295.39999389648</ele>
        <time>2012-08-29T08:04:32Z</time>
      </trkpt>
      <trkpt lat="47.66583" lon="6.20658">
        <ele>295</ele>
        <time>2012-08-29T08:04:33Z</time>
      </trkpt>
      <trkpt lat="47.66581" lon="6.20658">
        <ele>295</ele>
        <time>2012-08-29T08:04:34Z</time>
      </trkpt>
      <trkpt lat="47.66576" lon="6.20657">
        <ele>294.39999389648</ele>
        <time>2012-08-29T08:04:36Z</time>
      </trkpt>
      <trkpt lat="47.66574" lon="6.20657">
        <ele>294</ele>
        <time>2012-08-29T08:04:37Z</time>
      </trkpt>
      <trkpt lat="47.66572" lon="6.20657">
        <ele>293.60000610352</ele>
        <time>2012-08-29T08:04:38Z</time>
      </trkpt>
      <trkpt lat="47.66571" lon="6.20657">
        <ele>293</ele>
        <time>2012-08-29T08:04:39Z</time>
      </trkpt>
      <trkpt lat="47.66568" lon="6.20657">
        <ele>292.60000610352</ele>
        <time>2012-08-29T08:04:40Z</time>
      </trkpt>
      <trkpt lat="47.66564" lon="6.20657">
        <ele>292.20001220703</ele>
        <time>2012-08-29T08:04:42Z</time>
      </trkpt>
      <trkpt lat="47.66561" lon="6.20656">
        <ele>291.60000610352</ele>
        <time>2012-08-29T08:04:43Z</time>
      </trkpt>
      <trkpt lat="47.66558" lon="6.20655">
        <ele>291.20001220703</ele>
        <time>2012-08-29T08:04:44Z</time>
      </trkpt>
      <trkpt lat="47.66555" lon="6.20655">
        <ele>290.79998779297</ele>
        <time>2012-08-29T08:04:45Z</time>
      </trkpt>
      <trkpt lat="47.66553" lon="6.20654">
        <ele>290</ele>
        <time>2012-08-29T08:04:46Z</time>
      </trkpt>
      <trkpt lat="47.6655" lon="6.20653">
        <ele>289.60000610352</ele>
        <time>2012-08-29T08:04:47Z</time>
      </trkpt>
      <trkpt lat="47.66546" lon="6.20652">
        <ele>289</ele>
        <time>2012-08-29T08:04:48Z</time>
      </trkpt>
      <trkpt lat="47.66542" lon="6.20651">
        <ele>288.60000610352</ele>
        <time>2012-08-29T08:04:49Z</time>
      </trkpt>
      <trkpt lat="47.66538" lon="6.2065">
        <ele>288</ele>
        <time>2012-08-29T08:04:50Z</time>
      </trkpt>
      <trkpt lat="47.66534" lon="6.20648">
        <ele>287.39999389648</ele>
        <time>2012-08-29T08:04:51Z</time>
      </trkpt>
      <trkpt lat="47.66531" lon="6.20646">
        <ele>287</ele>
        <time>2012-08-29T08:04:52Z</time>
      </trkpt>
      <trkpt lat="47.66527" lon="6.20645">
        <ele>286.39999389648</ele>
        <time>2012-08-29T08:04:53Z</time>
      </trkpt>
      <trkpt lat="47.66524" lon="6.20643">
        <ele>285.79998779297</ele>
        <time>2012-08-29T08:04:54Z</time>
      </trkpt>
      <trkpt lat="47.66521" lon="6.20643">
        <ele>285.39999389648</ele>
        <time>2012-08-29T08:04:55Z</time>
      </trkpt>
      <trkpt lat="47.66518" lon="6.20644">
        <ele>284.79998779297</ele>
        <time>2012-08-29T08:04:56Z</time>
      </trkpt>
      <trkpt lat="47.66515" lon="6.20644">
        <ele>284.20001220703</ele>
        <time>2012-08-29T08:04:57Z</time>
      </trkpt>
      <trkpt lat="47.66512" lon="6.20645">
        <ele>283.79998779297</ele>
        <time>2012-08-29T08:04:58Z</time>
      </trkpt>
      <trkpt lat="47.66509" lon="6.20645">
        <ele>283.39999389648</ele>
        <time>2012-08-29T08:04:59Z</time>
      </trkpt>
      <trkpt lat="47.66506" lon="6.20646">
        <ele>282.79998779297</ele>
        <time>2012-08-29T08:05:00Z</time>
      </trkpt>
      <trkpt lat="47.66503" lon="6.20647">
        <ele>282.39999389648</ele>
        <time>2012-08-29T08:05:01Z</time>
      </trkpt>
      <trkpt lat="47.66501" lon="6.20648">
        <ele>282</ele>
        <time>2012-08-29T08:05:02Z</time>
      </trkpt>
      <trkpt lat="47.66498" lon="6.2065">
        <ele>281.60000610352</ele>
        <time>2012-08-29T08:05:03Z</time>
      </trkpt>
      <trkpt lat="47.66496" lon="6.20652">
        <ele>281</ele>
        <time>2012-08-29T08:05:04Z</time>
      </trkpt>
      <trkpt lat="47.66493" lon="6.20654">
        <ele>280.60000610352</ele>
        <time>2012-08-29T08:05:05Z</time>
      </trkpt>
      <trkpt lat="47.66491" lon="6.20656">
        <ele>280.20001220703</ele>
        <time>2012-08-29T08:05:06Z</time>
      </trkpt>
      <trkpt lat="47.66488" lon="6.20659">
        <ele>279.60000610352</ele>
        <time>2012-08-29T08:05:07Z</time>
      </trkpt>
      <trkpt lat="47.66486" lon="6.20661">
        <ele>279.20001220703</ele>
        <time>2012-08-29T08:05:08Z</time>
      </trkpt>
      <trkpt lat="47.66483" lon="6.20665">
        <ele>278.60000610352</ele>
        <time>2012-08-29T08:05:09Z</time>
      </trkpt>
      <trkpt lat="47.6648" lon="6.20667">
        <ele>277.60000610352</ele>
        <time>2012-08-29T08:05:10Z</time>
      </trkpt>
      <trkpt lat="47.66478" lon="6.20669">
        <ele>277.20001220703</ele>
        <time>2012-08-29T08:05:11Z</time>
      </trkpt>
      <trkpt lat="47.66475" lon="6.2067">
        <ele>276.60000610352</ele>
        <time>2012-08-29T08:05:12Z</time>
      </trkpt>
      <trkpt lat="47.66471" lon="6.2067">
        <ele>276.20001220703</ele>
        <time>2012-08-29T08:05:13Z</time>
      </trkpt>
      <trkpt lat="47.66468" lon="6.2067">
        <ele>275.79998779297</ele>
        <time>2012-08-29T08:05:14Z</time>
      </trkpt>
      <trkpt lat="47.66464" lon="6.20669">
        <ele>275.20001220703</ele>
        <time>2012-08-29T08:05:15Z</time>
      </trkpt>
      <trkpt lat="47.66461" lon="6.20667">
        <ele>274.79998779297</ele>
        <time>2012-08-29T08:05:16Z</time>
      </trkpt>
      <trkpt lat="47.66459" lon="6.20666">
        <ele>274.20001220703</ele>
        <time>2012-08-29T08:05:17Z</time>
      </trkpt>
      <trkpt lat="47.66456" lon="6.20664">
        <ele>273.79998779297</ele>
        <time>2012-08-29T08:05:18Z</time>
      </trkpt>
      <trkpt lat="47.66454" lon="6.20663">
        <ele>273.20001220703</ele>
        <time>2012-08-29T08:05:19Z</time>
      </trkpt>
      <trkpt lat="47.66452" lon="6.20662">
        <ele>272.79998779297</ele>
        <time>2012-08-29T08:05:20Z</time>
      </trkpt>
      <trkpt lat="47.66449" lon="6.20662">
        <ele>272.39999389648</ele>
        <time>2012-08-29T08:05:21Z</time>
      </trkpt>
      <trkpt lat="47.66446" lon="6.20663">
        <ele>271.79998779297</ele>
        <time>2012-08-29T08:05:22Z</time>
      </trkpt>
      <trkpt lat="47.66443" lon="6.20664">
        <ele>271.39999389648</ele>
        <time>2012-08-29T08:05:23Z</time>
      </trkpt>
      <trkpt lat="47.6644" lon="6.20666">
        <ele>271</ele>
        <time>2012-08-29T08:05:24Z</time>
      </trkpt>
      <trkpt lat="47.66438" lon="6.20668">
        <ele>270.60000610352</ele>
        <time>2012-08-29T08:05:25Z</time>
      </trkpt>
      <trkpt lat="47.66436" lon="6.2067">
        <ele>270.20001220703</ele>
        <time>2012-08-29T08:05:26Z</time>
      </trkpt>
      <trkpt lat="47.66435" lon="6.20673">
        <ele>269.79998779297</ele>
        <time>2012-08-29T08:05:27Z</time>
      </trkpt>
      <trkpt lat="47.66433" lon="6.20675">
        <ele>269.20001220703</ele>
        <time>2012-08-29T08:05:28Z</time>
      </trkpt>
      <trkpt lat="47.66431" lon="6.20678">
        <ele>268.79998779297</ele>
        <time>2012-08-29T08:05:29Z</time>
      </trkpt>
      <trkpt lat="47.66429" lon="6.20681">
        <ele>268.39999389648</ele>
        <time>2012-08-29T08:05:30Z</time>
      </trkpt>
      <trkpt lat="47.66426" lon="6.20687">
        <ele>268</ele>
        <time>2012-08-29T08:05:32Z</time>
      </trkpt>
      <trkpt lat="47.66424" lon="6.2069">
        <ele>267.60000610352</ele>
        <time>2012-08-29T08:05:33Z</time>
      </trkpt>
      <trkpt lat="47.66422" lon="6.20692">
        <ele>267.20001220703</ele>
        <time>2012-08-29T08:05:34Z</time>
      </trkpt>
      <trkpt lat="47.6642" lon="6.20694">
        <ele>266.39999389648</ele>
        <time>2012-08-29T08:05:35Z</time>
      </trkpt>
      <trkpt lat="47.6642" lon="6.20696">
        <ele>266.39999389648</ele>
        <time>2012-08-29T08:05:36Z</time>
      </trkpt>
      <trkpt lat="47.66419" lon="6.20702">
        <ele>266</ele>
        <time>2012-08-29T08:05:38Z</time>
      </trkpt>
      <trkpt lat="47.66419" lon="6.20705">
        <ele>265.60000610352</ele>
        <time>2012-08-29T08:05:39Z</time>
      </trkpt>
      <trkpt lat="47.66419" lon="6.20709">
        <ele>265</ele>
        <time>2012-08-29T08:05:40Z</time>
      </trkpt>
      <trkpt lat="47.6642" lon="6.20713">
        <ele>264.60000610352</ele>
        <time>2012-08-29T08:05:41Z</time>
      </trkpt>
      <trkpt lat="47.66421" lon="6.20716">
        <ele>264.20001220703</ele>
        <time>2012-08-29T08:05:42Z</time>
      </trkpt>
      <trkpt lat="47.66424" lon="6.20721">
        <ele>264.20001220703</ele>
        <time>2012-08-29T08:05:44Z</time>
      </trkpt>
      <trkpt lat="47.66425" lon="6.20724">
        <ele>264.20001220703</ele>
        <time>2012-08-29T08:05:46Z</time>
      </trkpt>
      <trkpt lat="47.66425" lon="6.20726">
        <ele>264.20001220703</ele>
        <time>2012-08-29T08:05:49Z</time>
      </trkpt>
      <trkpt lat="47.66427" lon="6.20731">
        <ele>264.20001220703</ele>
        <time>2012-08-29T08:05:55Z</time>
      </trkpt>
      <trkpt lat="47.66428" lon="6.20734">
        <ele>264.20001220703</ele>
        <time>2012-08-29T08:05:56Z</time>
      </trkpt>
      <trkpt lat="47.66431" lon="6.20751">
        <ele>263.79998779297</ele>
        <time>2012-08-29T08:06:01Z</time>
      </trkpt>
      <trkpt lat="47.66431" lon="6.20755">
        <ele>263.39999389648</ele>
        <time>2012-08-29T08:06:02Z</time>
      </trkpt>
      <trkpt lat="47.66432" lon="6.20759">
        <ele>263</ele>
        <time>2012-08-29T08:06:03Z</time>
      </trkpt>
      <trkpt lat="47.66433" lon="6.20762">
        <ele>262.60000610352</ele>
        <time>2012-08-29T08:06:04Z</time>
      </trkpt>
      <trkpt lat="47.66434" lon="6.20766">
        <ele>262.20001220703</ele>
        <time>2012-08-29T08:06:05Z</time>
      </trkpt>
      <trkpt lat="47.66437" lon="6.20778">
        <ele>262.20001220703</ele>
        <time>2012-08-29T08:06:09Z</time>
      </trkpt>
      <trkpt lat="47.66438" lon="6.20786">
        <ele>261.79998779297</ele>
        <time>2012-08-29T08:06:11Z</time>
      </trkpt>
      <trkpt lat="47.66438" lon="6.2079">
        <ele>261.20001220703</ele>
        <time>2012-08-29T08:06:12Z</time>
      </trkpt>
      <trkpt lat="47.66439" lon="6.20793">
        <ele>260.79998779297</ele>
        <time>2012-08-29T08:06:13Z</time>
      </trkpt>
      <trkpt lat="47.66439" lon="6.20797">
        <ele>260.39999389648</ele>
        <time>2012-08-29T08:06:14Z</time>
      </trkpt>
      <trkpt lat="47.66439" lon="6.20799">
        <ele>260</ele>
        <time>2012-08-29T08:06:15Z</time>
      </trkpt>
      <trkpt lat="47.66438" lon="6.20814">
        <ele>259.60000610352</ele>
        <time>2012-08-29T08:06:19Z</time>
      </trkpt>
      <trkpt lat="47.66437" lon="6.20819">
        <ele>259.20001220703</ele>
        <time>2012-08-29T08:06:20Z</time>
      </trkpt>
      <trkpt lat="47.66435" lon="6.20822">
        <ele>258.60000610352</ele>
        <time>2012-08-29T08:06:21Z</time>
      </trkpt>
      <trkpt lat="47.66434" lon="6.20825">
        <ele>258.20001220703</ele>
        <time>2012-08-29T08:06:22Z</time>
      </trkpt>
      <trkpt lat="47.66433" lon="6.20829">
        <ele>257.79998779297</ele>
        <time>2012-08-29T08:06:23Z</time>
      </trkpt>
      <trkpt lat="47.66431" lon="6.20834">
        <ele>257</ele>
        <time>2012-08-29T08:06:24Z</time>
      </trkpt>
      <trkpt lat="47.66429" lon="6.20837">
        <ele>256.60000610352</ele>
        <time>2012-08-29T08:06:25Z</time>
      </trkpt>
      <trkpt lat="47.66427" lon="6.2084">
        <ele>256.20001220703</ele>
        <time>2012-08-29T08:06:26Z</time>
      </trkpt>
      <trkpt lat="47.66426" lon="6.20843">
        <ele>255.60000610352</ele>
        <time>2012-08-29T08:06:27Z</time>
      </trkpt>
      <trkpt lat="47.66422" lon="6.20852">
        <ele>255.19999694824</ele>
        <time>2012-08-29T08:06:30Z</time>
      </trkpt>
      <trkpt lat="47.66421" lon="6.20856">
        <ele>254.80000305176</ele>
        <time>2012-08-29T08:06:31Z</time>
      </trkpt>
      <trkpt lat="47.66419" lon="6.2086">
        <ele>254.39999389648</ele>
        <time>2012-08-29T08:06:32Z</time>
      </trkpt>
      <trkpt lat="47.66418" lon="6.20864">
        <ele>254</ele>
        <time>2012-08-29T08:06:33Z</time>
      </trkpt>
      <trkpt lat="47.66416" lon="6.20869">
        <ele>253.60000610352</ele>
        <time>2012-08-29T08:06:34Z</time>
      </trkpt>
      <trkpt lat="47.66413" lon="6.20886">
        <ele>253.60000610352</ele>
        <time>2012-08-29T08:06:37Z</time>
      </trkpt>
      <trkpt lat="47.66411" lon="6.20891">
        <ele>253.19999694824</ele>
        <time>2012-08-29T08:06:38Z</time>
      </trkpt>
      <trkpt lat="47.6641" lon="6.20895">
        <ele>252.60000610352</ele>
        <time>2012-08-29T08:06:39Z</time>
      </trkpt>
      <trkpt lat="47.66408" lon="6.20898">
        <ele>252.19999694824</ele>
        <time>2012-08-29T08:06:40Z</time>
      </trkpt>
      <trkpt lat="47.66406" lon="6.20902">
        <ele>251.60000610352</ele>
        <time>2012-08-29T08:06:41Z</time>
      </trkpt>
      <trkpt lat="47.66405" lon="6.20906">
        <ele>251.19999694824</ele>
        <time>2012-08-29T08:06:42Z</time>
      </trkpt>
      <trkpt lat="47.66402" lon="6.20925">
        <ele>250.39999389648</ele>
        <time>2012-08-29T08:06:46Z</time>
      </trkpt>
      <trkpt lat="47.66402" lon="6.2093">
        <ele>249.39999389648</ele>
        <time>2012-08-29T08:06:47Z</time>
      </trkpt>
      <trkpt lat="47.66403" lon="6.20935">
        <ele>248.19999694824</ele>
        <time>2012-08-29T08:06:48Z</time>
      </trkpt>
      <trkpt lat="47.66403" lon="6.2094">
        <ele>246.80000305176</ele>
        <time>2012-08-29T08:06:49Z</time>
      </trkpt>
      <trkpt lat="47.66402" lon="6.20945">
        <ele>246.80000305176</ele>
        <time>2012-08-29T08:06:50Z</time>
      </trkpt>
      <trkpt lat="47.66401" lon="6.20949">
        <ele>247</ele>
        <time>2012-08-29T08:06:51Z</time>
      </trkpt>
      <trkpt lat="47.664" lon="6.20953">
        <ele>247.19999694824</ele>
        <time>2012-08-29T08:06:52Z</time>
      </trkpt>
      <trkpt lat="47.66399" lon="6.20957">
        <ele>247.39999389648</ele>
        <time>2012-08-29T08:06:53Z</time>
      </trkpt>
      <trkpt lat="47.66397" lon="6.20961">
        <ele>247.60000610352</ele>
        <time>2012-08-29T08:06:54Z</time>
      </trkpt>
      <trkpt lat="47.66394" lon="6.20973">
        <ele>247.19999694824</ele>
        <time>2012-08-29T08:06:57Z</time>
      </trkpt>
      <trkpt lat="47.66393" lon="6.20978">
        <ele>246.80000305176</ele>
        <time>2012-08-29T08:06:58Z</time>
      </trkpt>
      <trkpt lat="47.66393" lon="6.20983">
        <ele>246.39999389648</ele>
        <time>2012-08-29T08:06:59Z</time>
      </trkpt>
      <trkpt lat="47.66393" lon="6.20989">
        <ele>246</ele>
        <time>2012-08-29T08:07:00Z</time>
      </trkpt>
      <trkpt lat="47.66393" lon="6.20994">
        <ele>245.60000610352</ele>
        <time>2012-08-29T08:07:01Z</time>
      </trkpt>
      <trkpt lat="47.66394" lon="6.21014">
        <ele>245.60000610352</ele>
        <time>2012-08-29T08:07:05Z</time>
      </trkpt>
      <trkpt lat="47.66395" lon="6.21028">
        <ele>245.19999694824</ele>
        <time>2012-08-29T08:07:08Z</time>
      </trkpt>
      <trkpt lat="47.66396" lon="6.21033">
        <ele>244.80000305176</ele>
        <time>2012-08-29T08:07:09Z</time>
      </trkpt>
      <trkpt lat="47.66396" lon="6.21038">
        <ele>244.39999389648</ele>
        <time>2012-08-29T08:07:10Z</time>
      </trkpt>
      <trkpt lat="47.66395" lon="6.21042">
        <ele>244</ele>
        <time>2012-08-29T08:07:11Z</time>
      </trkpt>
      <trkpt lat="47.66395" lon="6.21046">
        <ele>243.60000610352</ele>
        <time>2012-08-29T08:07:12Z</time>
      </trkpt>
      <trkpt lat="47.66394" lon="6.21054">
        <ele>243.60000610352</ele>
        <time>2012-08-29T08:07:16Z</time>
      </trkpt>
      <trkpt lat="47.66394" lon="6.21057">
        <ele>243.60000610352</ele>
        <time>2012-08-29T08:07:20Z</time>
      </trkpt>
      <trkpt lat="47.66397" lon="6.21057">
        <ele>241.60000610352</ele>
        <time>2012-08-29T08:08:23Z</time>
      </trkpt>
      <trkpt lat="47.66398" lon="6.21054">
        <ele>241.60000610352</ele>
        <time>2012-08-29T08:08:24Z</time>
      </trkpt>
      <trkpt lat="47.66404" lon="6.2105">
        <ele>241.60000610352</ele>
        <time>2012-08-29T08:08:28Z</time>
      </trkpt>
      <trkpt lat="47.66408" lon="6.21051">
        <ele>241.60000610352</ele>
        <time>2012-08-29T08:08:30Z</time>
      </trkpt>
      <trkpt lat="47.66413" lon="6.21051">
        <ele>242</ele>
        <time>2012-08-29T08:08:33Z</time>
      </trkpt>
      <trkpt lat="47.66414" lon="6.21051">
        <ele>242.39999389648</ele>
        <time>2012-08-29T08:08:34Z</time>
      </trkpt>
      <trkpt lat="47.66415" lon="6.21051">
        <ele>242.80000305176</ele>
        <time>2012-08-29T08:08:35Z</time>
      </trkpt>
      <trkpt lat="47.66417" lon="6.21051">
        <ele>243.19999694824</ele>
        <time>2012-08-29T08:08:36Z</time>
      </trkpt>
      <trkpt lat="47.66418" lon="6.21051">
        <ele>243.60000610352</ele>
        <time>2012-08-29T08:08:37Z</time>
      </trkpt>
      <trkpt lat="47.66424" lon="6.2105">
        <ele>243.60000610352</ele>
        <time>2012-08-29T08:08:41Z</time>
      </trkpt>
      <trkpt lat="47.6643" lon="6.21049">
        <ele>244</ele>
        <time>2012-08-29T08:08:45Z</time>
      </trkpt>
      <trkpt lat="47.66432" lon="6.21048">
        <ele>244.39999389648</ele>
        <time>2012-08-29T08:08:46Z</time>
      </trkpt>
      <trkpt lat="47.66433" lon="6.21048">
        <ele>245</ele>
        <time>2012-08-29T08:08:47Z</time>
      </trkpt>
      <trkpt lat="47.66435" lon="6.21048">
        <ele>245.39999389648</ele>
        <time>2012-08-29T08:08:48Z</time>
      </trkpt>
      <trkpt lat="47.66436" lon="6.21047">
        <ele>245.80000305176</ele>
        <time>2012-08-29T08:08:49Z</time>
      </trkpt>
      <trkpt lat="47.66447" lon="6.21041">
        <ele>245.80000305176</ele>
        <time>2012-08-29T08:08:56Z</time>
      </trkpt>
      <trkpt lat="47.6645" lon="6.2104">
        <ele>246.19999694824</ele>
        <time>2012-08-29T08:08:58Z</time>
      </trkpt>
      <trkpt lat="47.66452" lon="6.21038">
        <ele>246.60000610352</ele>
        <time>2012-08-29T08:08:59Z</time>
      </trkpt>
      <trkpt lat="47.66453" lon="6.21037">
        <ele>247</ele>
        <time>2012-08-29T08:09:00Z</time>
      </trkpt>
      <trkpt lat="47.66454" lon="6.21036">
        <ele>247.39999389648</ele>
        <time>2012-08-29T08:09:01Z</time>
      </trkpt>
      <trkpt lat="47.66455" lon="6.21036">
        <ele>247.80000305176</ele>
        <time>2012-08-29T08:09:02Z</time>
      </trkpt>
      <trkpt lat="47.66457" lon="6.21035">
        <ele>247.80000305176</ele>
        <time>2012-08-29T08:09:03Z</time>
      </trkpt>
      <trkpt lat="47.66462" lon="6.21033">
        <ele>247.80000305176</ele>
        <time>2012-08-29T08:09:08Z</time>
      </trkpt>
      <trkpt lat="47.66466" lon="6.21029">
        <ele>247.80000305176</ele>
        <time>2012-08-29T08:09:11Z</time>
      </trkpt>
      <trkpt lat="47.6647" lon="6.21028">
        <ele>247.80000305176</ele>
        <time>2012-08-29T08:09:14Z</time>
      </trkpt>
      <trkpt lat="47.66474" lon="6.21026">
        <ele>248.19999694824</ele>
        <time>2012-08-29T08:09:17Z</time>
      </trkpt>
      <trkpt lat="47.66475" lon="6.21025">
        <ele>249.19999694824</ele>
        <time>2012-08-29T08:09:18Z</time>
      </trkpt>
      <trkpt lat="47.66476" lon="6.21024">
        <ele>249.60000610352</ele>
        <time>2012-08-29T08:09:19Z</time>
      </trkpt>
      <trkpt lat="47.66478" lon="6.21024">
        <ele>250</ele>
        <time>2012-08-29T08:09:20Z</time>
      </trkpt>
      <trkpt lat="47.66485" lon="6.2102">
        <ele>250</ele>
        <time>2012-08-29T08:09:25Z</time>
      </trkpt>
      <trkpt lat="47.66491" lon="6.21017">
        <ele>250</ele>
        <time>2012-08-29T08:09:31Z</time>
      </trkpt>
      <trkpt lat="47.66494" lon="6.21016">
        <ele>250.39999389648</ele>
        <time>2012-08-29T08:09:33Z</time>
      </trkpt>
      <trkpt lat="47.66497" lon="6.21016">
        <ele>250.80000305176</ele>
        <time>2012-08-29T08:09:34Z</time>
      </trkpt>
      <trkpt lat="47.66499" lon="6.21015">
        <ele>251.19999694824</ele>
        <time>2012-08-29T08:09:35Z</time>
      </trkpt>
      <trkpt lat="47.66501" lon="6.21014">
        <ele>251.60000610352</ele>
        <time>2012-08-29T08:09:36Z</time>
      </trkpt>
      <trkpt lat="47.66502" lon="6.21014">
        <ele>252</ele>
        <time>2012-08-29T08:09:37Z</time>
      </trkpt>
      <trkpt lat="47.66506" lon="6.21013">
        <ele>252</ele>
        <time>2012-08-29T08:09:39Z</time>
      </trkpt>
      <trkpt lat="47.66516" lon="6.21008">
        <ele>252</ele>
        <time>2012-08-29T08:09:46Z</time>
      </trkpt>
      <trkpt lat="47.66528" lon="6.21002">
        <ele>252.39999389648</ele>
        <time>2012-08-29T08:09:54Z</time>
      </trkpt>
      <trkpt lat="47.66529" lon="6.21001">
        <ele>252.80000305176</ele>
        <time>2012-08-29T08:09:55Z</time>
      </trkpt>
      <trkpt lat="47.66531" lon="6.21">
        <ele>253.19999694824</ele>
        <time>2012-08-29T08:09:56Z</time>
      </trkpt>
      <trkpt lat="47.66532" lon="6.21">
        <ele>253.60000610352</ele>
        <time>2012-08-29T08:09:57Z</time>
      </trkpt>
      <trkpt lat="47.66533" lon="6.20999">
        <ele>254</ele>
        <time>2012-08-29T08:09:58Z</time>
      </trkpt>
      <trkpt lat="47.66537" lon="6.20997">
        <ele>254</ele>
        <time>2012-08-29T08:10:00Z</time>
      </trkpt>
      <trkpt lat="47.66547" lon="6.20991">
        <ele>254</ele>
        <time>2012-08-29T08:10:07Z</time>
      </trkpt>
      <trkpt lat="47.66553" lon="6.20987">
        <ele>254.39999389648</ele>
        <time>2012-08-29T08:10:12Z</time>
      </trkpt>
      <trkpt lat="47.66554" lon="6.20987">
        <ele>254.80000305176</ele>
        <time>2012-08-29T08:10:13Z</time>
      </trkpt>
      <trkpt lat="47.66556" lon="6.20987">
        <ele>255.19999694824</ele>
        <time>2012-08-29T08:10:14Z</time>
      </trkpt>
      <trkpt lat="47.66557" lon="6.20986">
        <ele>255.60000610352</ele>
        <time>2012-08-29T08:10:15Z</time>
      </trkpt>
      <trkpt lat="47.66558" lon="6.20986">
        <ele>256</ele>
        <time>2012-08-29T08:10:16Z</time>
      </trkpt>
      <trkpt lat="47.66567" lon="6.20983">
        <ele>256</ele>
        <time>2012-08-29T08:10:22Z</time>
      </trkpt>
      <trkpt lat="47.66579" lon="6.20977">
        <ele>256</ele>
        <time>2012-08-29T08:10:30Z</time>
      </trkpt>
      <trkpt lat="47.66581" lon="6.20976">
        <ele>256.39999389648</ele>
        <time>2012-08-29T08:10:32Z</time>
      </trkpt>
      <trkpt lat="47.66582" lon="6.20975">
        <ele>257.39999389648</ele>
        <time>2012-08-29T08:10:33Z</time>
      </trkpt>
      <trkpt lat="47.66584" lon="6.20974">
        <ele>257.79998779297</ele>
        <time>2012-08-29T08:10:34Z</time>
      </trkpt>
      <trkpt lat="47.66585" lon="6.20974">
        <ele>258.20001220703</ele>
        <time>2012-08-29T08:10:35Z</time>
      </trkpt>
      <trkpt lat="47.6659" lon="6.20972">
        <ele>258.20001220703</ele>
        <time>2012-08-29T08:10:38Z</time>
      </trkpt>
      <trkpt lat="47.66602" lon="6.20966">
        <ele>258.20001220703</ele>
        <time>2012-08-29T08:10:46Z</time>
      </trkpt>
      <trkpt lat="47.6661" lon="6.20963">
        <ele>258.20001220703</ele>
        <time>2012-08-29T08:10:52Z</time>
      </trkpt>
      <trkpt lat="47.66614" lon="6.20962">
        <ele>258.60000610352</ele>
        <time>2012-08-29T08:10:54Z</time>
      </trkpt>
      <trkpt lat="47.66616" lon="6.20961">
        <ele>259</ele>
        <time>2012-08-29T08:10:55Z</time>
      </trkpt>
      <trkpt lat="47.66617" lon="6.2096">
        <ele>259.39999389648</ele>
        <time>2012-08-29T08:10:56Z</time>
      </trkpt>
      <trkpt lat="47.66619" lon="6.20959">
        <ele>260.20001220703</ele>
        <time>2012-08-29T08:10:57Z</time>
      </trkpt>
      <trkpt lat="47.66629" lon="6.20955">
        <ele>260.20001220703</ele>
        <time>2012-08-29T08:11:03Z</time>
      </trkpt>
      <trkpt lat="47.66644" lon="6.2095">
        <ele>260.20001220703</ele>
        <time>2012-08-29T08:11:10Z</time>
      </trkpt>
      <trkpt lat="47.6666" lon="6.20941">
        <ele>260.20001220703</ele>
        <time>2012-08-29T08:11:18Z</time>
      </trkpt>
      <trkpt lat="47.66677" lon="6.20932">
        <ele>260.20001220703</ele>
        <time>2012-08-29T08:11:26Z</time>
      </trkpt>
      <trkpt lat="47.66692" lon="6.20924">
        <ele>260.20001220703</ele>
        <time>2012-08-29T08:11:33Z</time>
      </trkpt>
      <trkpt lat="47.66698" lon="6.2092">
        <ele>260.60000610352</ele>
        <time>2012-08-29T08:11:36Z</time>
      </trkpt>
      <trkpt lat="47.66699" lon="6.20919">
        <ele>261</ele>
        <time>2012-08-29T08:11:37Z</time>
      </trkpt>
      <trkpt lat="47.66701" lon="6.20918">
        <ele>261.39999389648</ele>
        <time>2012-08-29T08:11:38Z</time>
      </trkpt>
      <trkpt lat="47.66703" lon="6.20917">
        <ele>261.79998779297</ele>
        <time>2012-08-29T08:11:39Z</time>
      </trkpt>
      <trkpt lat="47.66705" lon="6.20916">
        <ele>262.20001220703</ele>
        <time>2012-08-29T08:11:40Z</time>
      </trkpt>
      <trkpt lat="47.6672" lon="6.20909">
        <ele>262.20001220703</ele>
        <time>2012-08-29T08:11:48Z</time>
      </trkpt>
      <trkpt lat="47.66736" lon="6.20901">
        <ele>262.60000610352</ele>
        <time>2012-08-29T08:11:56Z</time>
      </trkpt>
      <trkpt lat="47.66738" lon="6.209">
        <ele>263</ele>
        <time>2012-08-29T08:11:57Z</time>
      </trkpt>
      <trkpt lat="47.6674" lon="6.20899">
        <ele>263.39999389648</ele>
        <time>2012-08-29T08:11:58Z</time>
      </trkpt>
      <trkpt lat="47.66741" lon="6.20898">
        <ele>263.79998779297</ele>
        <time>2012-08-29T08:11:59Z</time>
      </trkpt>
      <trkpt lat="47.66743" lon="6.20896">
        <ele>264.20001220703</ele>
        <time>2012-08-29T08:12:00Z</time>
      </trkpt>
      <trkpt lat="47.66753" lon="6.20892">
        <ele>264.20001220703</ele>
        <time>2012-08-29T08:12:05Z</time>
      </trkpt>
      <trkpt lat="47.66768" lon="6.2088">
        <ele>264.20001220703</ele>
        <time>2012-08-29T08:12:14Z</time>
      </trkpt>
      <trkpt lat="47.66773" lon="6.20877">
        <ele>264.60000610352</ele>
        <time>2012-08-29T08:12:17Z</time>
      </trkpt>
      <trkpt lat="47.66775" lon="6.20876">
        <ele>265</ele>
        <time>2012-08-29T08:12:18Z</time>
      </trkpt>
      <trkpt lat="47.66776" lon="6.20875">
        <ele>265.39999389648</ele>
        <time>2012-08-29T08:12:19Z</time>
      </trkpt>
      <trkpt lat="47.66778" lon="6.20874">
        <ele>265.79998779297</ele>
        <time>2012-08-29T08:12:20Z</time>
      </trkpt>
      <trkpt lat="47.66779" lon="6.20872">
        <ele>266.20001220703</ele>
        <time>2012-08-29T08:12:21Z</time>
      </trkpt>
      <trkpt lat="47.66781" lon="6.20871">
        <ele>266.20001220703</ele>
        <time>2012-08-29T08:12:22Z</time>
      </trkpt>
      <trkpt lat="47.66795" lon="6.20861">
        <ele>266.20001220703</ele>
        <time>2012-08-29T08:12:31Z</time>
      </trkpt>
      <trkpt lat="47.66798" lon="6.20856">
        <ele>266.79998779297</ele>
        <time>2012-08-29T08:12:34Z</time>
      </trkpt>
      <trkpt lat="47.668" lon="6.20855">
        <ele>267.39999389648</ele>
        <time>2012-08-29T08:12:35Z</time>
      </trkpt>
      <trkpt lat="47.66801" lon="6.20854">
        <ele>267.79998779297</ele>
        <time>2012-08-29T08:12:36Z</time>
      </trkpt>
      <trkpt lat="47.66803" lon="6.20853">
        <ele>269</ele>
        <time>2012-08-29T08:12:37Z</time>
      </trkpt>
      <trkpt lat="47.66814" lon="6.20843">
        <ele>269</ele>
        <time>2012-08-29T08:12:45Z</time>
      </trkpt>
      <trkpt lat="47.66822" lon="6.20836">
        <ele>269</ele>
        <time>2012-08-29T08:12:51Z</time>
      </trkpt>
      <trkpt lat="47.66825" lon="6.20834">
        <ele>269.39999389648</ele>
        <time>2012-08-29T08:12:53Z</time>
      </trkpt>
      <trkpt lat="47.66826" lon="6.20832">
        <ele>269.79998779297</ele>
        <time>2012-08-29T08:12:54Z</time>
      </trkpt>
      <trkpt lat="47.66827" lon="6.20831">
        <ele>270.20001220703</ele>
        <time>2012-08-29T08:12:55Z</time>
      </trkpt>
      <trkpt lat="47.66828" lon="6.2083">
        <ele>270.60000610352</ele>
        <time>2012-08-29T08:12:56Z</time>
      </trkpt>
      <trkpt lat="47.66829" lon="6.20828">
        <ele>271</ele>
        <time>2012-08-29T08:12:57Z</time>
      </trkpt>
      <trkpt lat="47.66832" lon="6.20826">
        <ele>271</ele>
        <time>2012-08-29T08:12:59Z</time>
      </trkpt>
      <trkpt lat="47.66839" lon="6.20817">
        <ele>271.39999389648</ele>
        <time>2012-08-29T08:13:05Z</time>
      </trkpt>
      <trkpt lat="47.6684" lon="6.20816">
        <ele>271.79998779297</ele>
        <time>2012-08-29T08:13:06Z</time>
      </trkpt>
      <trkpt lat="47.66841" lon="6.20815">
        <ele>272.20001220703</ele>
        <time>2012-08-29T08:13:07Z</time>
      </trkpt>
      <trkpt lat="47.66842" lon="6.20814">
        <ele>272.60000610352</ele>
        <time>2012-08-29T08:13:08Z</time>
      </trkpt>
      <trkpt lat="47.66843" lon="6.20813">
        <ele>273</ele>
        <time>2012-08-29T08:13:09Z</time>
      </trkpt>
      <trkpt lat="47.66848" lon="6.20807">
        <ele>273</ele>
        <time>2012-08-29T08:13:14Z</time>
      </trkpt>
      <trkpt lat="47.66851" lon="6.20802">
        <ele>273.39999389648</ele>
        <time>2012-08-29T08:13:18Z</time>
      </trkpt>
      <trkpt lat="47.66852" lon="6.208">
        <ele>273.79998779297</ele>
        <time>2012-08-29T08:13:19Z</time>
      </trkpt>
      <trkpt lat="47.66853" lon="6.20799">
        <ele>274.20001220703</ele>
        <time>2012-08-29T08:13:20Z</time>
      </trkpt>
      <trkpt lat="47.66854" lon="6.20798">
        <ele>274.60000610352</ele>
        <time>2012-08-29T08:13:21Z</time>
      </trkpt>
      <trkpt lat="47.66855" lon="6.20796">
        <ele>275</ele>
        <time>2012-08-29T08:13:22Z</time>
      </trkpt>
      <trkpt lat="47.66861" lon="6.20783">
        <ele>275</ele>
        <time>2012-08-29T08:13:31Z</time>
      </trkpt>
      <trkpt lat="47.66863" lon="6.20778">
        <ele>275.60000610352</ele>
        <time>2012-08-29T08:13:34Z</time>
      </trkpt>
      <trkpt lat="47.66864" lon="6.20776">
        <ele>276</ele>
        <time>2012-08-29T08:13:35Z</time>
      </trkpt>
      <trkpt lat="47.66865" lon="6.20775">
        <ele>276.39999389648</ele>
        <time>2012-08-29T08:13:36Z</time>
      </trkpt>
      <trkpt lat="47.66866" lon="6.20773">
        <ele>276.79998779297</ele>
        <time>2012-08-29T08:13:37Z</time>
      </trkpt>
      <trkpt lat="47.66866" lon="6.20771">
        <ele>277.20001220703</ele>
        <time>2012-08-29T08:13:38Z</time>
      </trkpt>
      <trkpt lat="47.66872" lon="6.20761">
        <ele>277.20001220703</ele>
        <time>2012-08-29T08:13:44Z</time>
      </trkpt>
      <trkpt lat="47.66879" lon="6.20754">
        <ele>277.20001220703</ele>
        <time>2012-08-29T08:13:50Z</time>
      </trkpt>
      <trkpt lat="47.66881" lon="6.20753">
        <ele>277.60000610352</ele>
        <time>2012-08-29T08:13:51Z</time>
      </trkpt>
      <trkpt lat="47.66882" lon="6.20752">
        <ele>278</ele>
        <time>2012-08-29T08:13:52Z</time>
      </trkpt>
      <trkpt lat="47.66883" lon="6.20751">
        <ele>278.39999389648</ele>
        <time>2012-08-29T08:13:53Z</time>
      </trkpt>
      <trkpt lat="47.66884" lon="6.20749">
        <ele>278.79998779297</ele>
        <time>2012-08-29T08:13:54Z</time>
      </trkpt>
      <trkpt lat="47.66886" lon="6.20748">
        <ele>279.20001220703</ele>
        <time>2012-08-29T08:13:55Z</time>
      </trkpt>
      <trkpt lat="47.66889" lon="6.20745">
        <ele>279.20001220703</ele>
        <time>2012-08-29T08:13:58Z</time>
      </trkpt>
      <trkpt lat="47.66897" lon="6.20734">
        <ele>279.20001220703</ele>
        <time>2012-08-29T08:14:06Z</time>
      </trkpt>
      <trkpt lat="47.66903" lon="6.20726">
        <ele>279.20001220703</ele>
        <time>2012-08-29T08:14:12Z</time>
      </trkpt>
      <trkpt lat="47.66904" lon="6.20725">
        <ele>279.20001220703</ele>
        <time>2012-08-29T08:14:13Z</time>
      </trkpt>
      <trkpt lat="47.66906" lon="6.20723">
        <ele>280</ele>
        <time>2012-08-29T08:14:14Z</time>
      </trkpt>
      <trkpt lat="47.66907" lon="6.20722">
        <ele>280.39999389648</ele>
        <time>2012-08-29T08:14:15Z</time>
      </trkpt>
      <trkpt lat="47.66908" lon="6.20721">
        <ele>280.79998779297</ele>
        <time>2012-08-29T08:14:16Z</time>
      </trkpt>
      <trkpt lat="47.66909" lon="6.2072">
        <ele>281.20001220703</ele>
        <time>2012-08-29T08:14:17Z</time>
      </trkpt>
      <trkpt lat="47.6691" lon="6.20718">
        <ele>281.20001220703</ele>
        <time>2012-08-29T08:14:18Z</time>
      </trkpt>
      <trkpt lat="47.66917" lon="6.20712">
        <ele>281.20001220703</ele>
        <time>2012-08-29T08:14:24Z</time>
      </trkpt>
      <trkpt lat="47.66927" lon="6.20704">
        <ele>281.20001220703</ele>
        <time>2012-08-29T08:14:31Z</time>
      </trkpt>
      <trkpt lat="47.66935" lon="6.20697">
        <ele>281.60000610352</ele>
        <time>2012-08-29T08:14:38Z</time>
      </trkpt>
      <trkpt lat="47.66937" lon="6.20696">
        <ele>282.39999389648</ele>
        <time>2012-08-29T08:14:39Z</time>
      </trkpt>
      <trkpt lat="47.66938" lon="6.20695">
        <ele>282.79998779297</ele>
        <time>2012-08-29T08:14:40Z</time>
      </trkpt>
      <trkpt lat="47.66939" lon="6.20694">
        <ele>283.20001220703</ele>
        <time>2012-08-29T08:14:41Z</time>
      </trkpt>
      <trkpt lat="47.66949" lon="6.20684">
        <ele>283.20001220703</ele>
        <time>2012-08-29T08:14:49Z</time>
      </trkpt>
      <trkpt lat="47.66958" lon="6.20675">
        <ele>283.20001220703</ele>
        <time>2012-08-29T08:14:57Z</time>
      </trkpt>
      <trkpt lat="47.66959" lon="6.20674">
        <ele>283.79998779297</ele>
        <time>2012-08-29T08:14:58Z</time>
      </trkpt>
      <trkpt lat="47.66961" lon="6.20673">
        <ele>284.20001220703</ele>
        <time>2012-08-29T08:14:59Z</time>
      </trkpt>
      <trkpt lat="47.66962" lon="6.20672">
        <ele>284.60000610352</ele>
        <time>2012-08-29T08:15:00Z</time>
      </trkpt>
      <trkpt lat="47.66963" lon="6.20671">
        <ele>285</ele>
        <time>2012-08-29T08:15:01Z</time>
      </trkpt>
      <trkpt lat="47.66964" lon="6.20671">
        <ele>285.39999389648</ele>
        <time>2012-08-29T08:15:02Z</time>
      </trkpt>
      <trkpt lat="47.66967" lon="6.2067">
        <ele>285.39999389648</ele>
        <time>2012-08-29T08:15:04Z</time>
      </trkpt>
      <trkpt lat="47.66968" lon="6.20669">
        <ele>285.39999389648</ele>
        <time>2012-08-29T08:15:05Z</time>
      </trkpt>
      <trkpt lat="47.66975" lon="6.20663">
        <ele>285.39999389648</ele>
        <time>2012-08-29T08:15:12Z</time>
      </trkpt>
      <trkpt lat="47.66978" lon="6.20659">
        <ele>285.79998779297</ele>
        <time>2012-08-29T08:15:15Z</time>
      </trkpt>
      <trkpt lat="47.66978" lon="6.20658">
        <ele>286.20001220703</ele>
        <time>2012-08-29T08:15:16Z</time>
      </trkpt>
      <trkpt lat="47.66979" lon="6.20656">
        <ele>286.60000610352</ele>
        <time>2012-08-29T08:15:17Z</time>
      </trkpt>
      <trkpt lat="47.6698" lon="6.20655">
        <ele>287</ele>
        <time>2012-08-29T08:15:18Z</time>
      </trkpt>
      <trkpt lat="47.6698" lon="6.20653">
        <ele>287.60000610352</ele>
        <time>2012-08-29T08:15:19Z</time>
      </trkpt>
      <trkpt lat="47.66987" lon="6.20645">
        <ele>287.60000610352</ele>
        <time>2012-08-29T08:15:26Z</time>
      </trkpt>
      <trkpt lat="47.66988" lon="6.2064">
        <ele>287.60000610352</ele>
        <time>2012-08-29T08:15:29Z</time>
      </trkpt>
      <trkpt lat="47.66989" lon="6.20633">
        <ele>287.60000610352</ele>
        <time>2012-08-29T08:15:32Z</time>
      </trkpt>
      <trkpt lat="47.6699" lon="6.20632">
        <ele>288</ele>
        <time>2012-08-29T08:15:33Z</time>
      </trkpt>
      <trkpt lat="47.66991" lon="6.2063">
        <ele>288.39999389648</ele>
        <time>2012-08-29T08:15:34Z</time>
      </trkpt>
      <trkpt lat="47.66992" lon="6.20629">
        <ele>288.79998779297</ele>
        <time>2012-08-29T08:15:35Z</time>
      </trkpt>
      <trkpt lat="47.66992" lon="6.20627">
        <ele>289.20001220703</ele>
        <time>2012-08-29T08:15:36Z</time>
      </trkpt>
      <trkpt lat="47.66993" lon="6.20625">
        <ele>289.60000610352</ele>
        <time>2012-08-29T08:15:37Z</time>
      </trkpt>
      <trkpt lat="47.66993" lon="6.20623">
        <ele>289.60000610352</ele>
        <time>2012-08-29T08:15:38Z</time>
      </trkpt>
      <trkpt lat="47.66996" lon="6.20611">
        <ele>289.60000610352</ele>
        <time>2012-08-29T08:15:45Z</time>
      </trkpt>
      <trkpt lat="47.66998" lon="6.20602">
        <ele>290</ele>
        <time>2012-08-29T08:15:50Z</time>
      </trkpt>
      <trkpt lat="47.66999" lon="6.206">
        <ele>290.39999389648</ele>
        <time>2012-08-29T08:15:51Z</time>
      </trkpt>
      <trkpt lat="47.66999" lon="6.20598">
        <ele>290.79998779297</ele>
        <time>2012-08-29T08:15:52Z</time>
      </trkpt>
      <trkpt lat="47.67" lon="6.20597">
        <ele>291.60000610352</ele>
        <time>2012-08-29T08:15:53Z</time>
      </trkpt>
      <trkpt lat="47.67005" lon="6.20586">
        <ele>291.60000610352</ele>
        <time>2012-08-29T08:16:00Z</time>
      </trkpt>
      <trkpt lat="47.6701" lon="6.20577">
        <ele>291.60000610352</ele>
        <time>2012-08-29T08:16:08Z</time>
      </trkpt>
      <trkpt lat="47.67012" lon="6.20573">
        <ele>292</ele>
        <time>2012-08-29T08:16:11Z</time>
      </trkpt>
      <trkpt lat="47.67013" lon="6.20572">
        <ele>292.39999389648</ele>
        <time>2012-08-29T08:16:12Z</time>
      </trkpt>
      <trkpt lat="47.67014" lon="6.20571">
        <ele>292.79998779297</ele>
        <time>2012-08-29T08:16:13Z</time>
      </trkpt>
      <trkpt lat="47.67015" lon="6.2057">
        <ele>293.20001220703</ele>
        <time>2012-08-29T08:16:14Z</time>
      </trkpt>
      <trkpt lat="47.67016" lon="6.2057">
        <ele>293.60000610352</ele>
        <time>2012-08-29T08:16:15Z</time>
      </trkpt>
      <trkpt lat="47.67022" lon="6.20565">
        <ele>293.60000610352</ele>
        <time>2012-08-29T08:16:21Z</time>
      </trkpt>
      <trkpt lat="47.67024" lon="6.2056">
        <ele>293.60000610352</ele>
        <time>2012-08-29T08:16:25Z</time>
      </trkpt>
      <trkpt lat="47.67026" lon="6.20557">
        <ele>293.60000610352</ele>
        <time>2012-08-29T08:16:28Z</time>
      </trkpt>
      <trkpt lat="47.67028" lon="6.20557">
        <ele>294</ele>
        <time>2012-08-29T08:16:30Z</time>
      </trkpt>
      <trkpt lat="47.67029" lon="6.20556">
        <ele>294.39999389648</ele>
        <time>2012-08-29T08:16:31Z</time>
      </trkpt>
      <trkpt lat="47.6703" lon="6.20555">
        <ele>294.79998779297</ele>
        <time>2012-08-29T08:16:32Z</time>
      </trkpt>
      <trkpt lat="47.67031" lon="6.20554">
        <ele>295.20001220703</ele>
        <time>2012-08-29T08:16:33Z</time>
      </trkpt>
      <trkpt lat="47.67032" lon="6.20553">
        <ele>295.60000610352</ele>
        <time>2012-08-29T08:16:34Z</time>
      </trkpt>
      <trkpt lat="47.67038" lon="6.20546">
        <ele>295.60000610352</ele>
        <time>2012-08-29T08:16:40Z</time>
      </trkpt>
      <trkpt lat="47.67045" lon="6.20536">
        <ele>296</ele>
        <time>2012-08-29T08:16:47Z</time>
      </trkpt>
      <trkpt lat="47.67046" lon="6.20536">
        <ele>296.39999389648</ele>
        <time>2012-08-29T08:16:48Z</time>
      </trkpt>
      <trkpt lat="47.67047" lon="6.20535">
        <ele>296.79998779297</ele>
        <time>2012-08-29T08:16:49Z</time>
      </trkpt>
      <trkpt lat="47.67048" lon="6.20534">
        <ele>297.20001220703</ele>
        <time>2012-08-29T08:16:50Z</time>
      </trkpt>
      <trkpt lat="47.67049" lon="6.20534">
        <ele>297.60000610352</ele>
        <time>2012-08-29T08:16:51Z</time>
      </trkpt>
      <trkpt lat="47.67054" lon="6.20529">
        <ele>297.60000610352</ele>
        <time>2012-08-29T08:16:56Z</time>
      </trkpt>
      <trkpt lat="47.67055" lon="6.20528">
        <ele>297.60000610352</ele>
        <time>2012-08-29T08:16:57Z</time>
      </trkpt>
      <trkpt lat="47.67057" lon="6.20522">
        <ele>297.60000610352</ele>
        <time>2012-08-29T08:17:01Z</time>
      </trkpt>
      <trkpt lat="47.67059" lon="6.2052">
        <ele>297.60000610352</ele>
        <time>2012-08-29T08:17:03Z</time>
      </trkpt>
      <trkpt lat="47.67065" lon="6.20517">
        <ele>298.20001220703</ele>
        <time>2012-08-29T08:17:08Z</time>
      </trkpt>
      <trkpt lat="47.67066" lon="6.20516">
        <ele>298.60000610352</ele>
        <time>2012-08-29T08:17:09Z</time>
      </trkpt>
      <trkpt lat="47.67066" lon="6.20515">
        <ele>299</ele>
        <time>2012-08-29T08:17:10Z</time>
      </trkpt>
      <trkpt lat="47.67066" lon="6.20514">
        <ele>299.39999389648</ele>
        <time>2012-08-29T08:17:11Z</time>
      </trkpt>
      <trkpt lat="47.67067" lon="6.20512">
        <ele>299.79998779297</ele>
        <time>2012-08-29T08:17:12Z</time>
      </trkpt>
      <trkpt lat="47.67068" lon="6.20508">
        <ele>299.79998779297</ele>
        <time>2012-08-29T08:17:14Z</time>
      </trkpt>
      <trkpt lat="47.67071" lon="6.20506">
        <ele>299.79998779297</ele>
        <time>2012-08-29T08:17:16Z</time>
      </trkpt>
      <trkpt lat="47.67073" lon="6.20504">
        <ele>299.79998779297</ele>
        <time>2012-08-29T08:17:18Z</time>
      </trkpt>
      <trkpt lat="47.67074" lon="6.20501">
        <ele>299.79998779297</ele>
        <time>2012-08-29T08:17:20Z</time>
      </trkpt>
      <trkpt lat="47.67076" lon="6.20496">
        <ele>299.79998779297</ele>
        <time>2012-08-29T08:17:23Z</time>
      </trkpt>
      <trkpt lat="47.67079" lon="6.20493">
        <ele>299.79998779297</ele>
        <time>2012-08-29T08:17:26Z</time>
      </trkpt>
      <trkpt lat="47.67082" lon="6.20491">
        <ele>300.20001220703</ele>
        <time>2012-08-29T08:17:29Z</time>
      </trkpt>
      <trkpt lat="47.67083" lon="6.2049">
        <ele>300.60000610352</ele>
        <time>2012-08-29T08:17:30Z</time>
      </trkpt>
      <trkpt lat="47.67084" lon="6.20489">
        <ele>301</ele>
        <time>2012-08-29T08:17:31Z</time>
      </trkpt>
      <trkpt lat="47.67085" lon="6.20488">
        <ele>301.79998779297</ele>
        <time>2012-08-29T08:17:32Z</time>
      </trkpt>
      <trkpt lat="47.67085" lon="6.20487">
        <ele>301.79998779297</ele>
        <time>2012-08-29T08:17:33Z</time>
      </trkpt>
      <trkpt lat="47.67092" lon="6.20478">
        <ele>301.79998779297</ele>
        <time>2012-08-29T08:17:41Z</time>
      </trkpt>
      <trkpt lat="47.67092" lon="6.20476">
        <ele>301.79998779297</ele>
        <time>2012-08-29T08:17:42Z</time>
      </trkpt>
      <trkpt lat="47.67096" lon="6.20469">
        <ele>301.79998779297</ele>
        <time>2012-08-29T08:17:47Z</time>
      </trkpt>
      <trkpt lat="47.67099" lon="6.20465">
        <ele>302.20001220703</ele>
        <time>2012-08-29T08:17:50Z</time>
      </trkpt>
      <trkpt lat="47.67099" lon="6.20463">
        <ele>302.60000610352</ele>
        <time>2012-08-29T08:17:51Z</time>
      </trkpt>
      <trkpt lat="47.671" lon="6.20461">
        <ele>303</ele>
        <time>2012-08-29T08:17:52Z</time>
      </trkpt>
      <trkpt lat="47.671" lon="6.20459">
        <ele>303.39999389648</ele>
        <time>2012-08-29T08:17:53Z</time>
      </trkpt>
      <trkpt lat="47.67101" lon="6.20457">
        <ele>303.79998779297</ele>
        <time>2012-08-29T08:17:54Z</time>
      </trkpt>
      <trkpt lat="47.67104" lon="6.20453">
        <ele>303.79998779297</ele>
        <time>2012-08-29T08:17:57Z</time>
      </trkpt>
      <trkpt lat="47.67106" lon="6.20451">
        <ele>303.79998779297</ele>
        <time>2012-08-29T08:18:00Z</time>
      </trkpt>
      <trkpt lat="47.67107" lon="6.2045">
        <ele>303.79998779297</ele>
        <time>2012-08-29T08:18:01Z</time>
      </trkpt>
      <trkpt lat="47.67109" lon="6.20442">
        <ele>303.79998779297</ele>
        <time>2012-08-29T08:18:05Z</time>
      </trkpt>
      <trkpt lat="47.67116" lon="6.20433">
        <ele>303.79998779297</ele>
        <time>2012-08-29T08:18:12Z</time>
      </trkpt>
      <trkpt lat="47.67117" lon="6.20428">
        <ele>304.39999389648</ele>
        <time>2012-08-29T08:18:15Z</time>
      </trkpt>
      <trkpt lat="47.67118" lon="6.20426">
        <ele>304.79998779297</ele>
        <time>2012-08-29T08:18:16Z</time>
      </trkpt>
      <trkpt lat="47.67119" lon="6.20425">
        <ele>305.20001220703</ele>
        <time>2012-08-29T08:18:17Z</time>
      </trkpt>
      <trkpt lat="47.6712" lon="6.20423">
        <ele>305.60000610352</ele>
        <time>2012-08-29T08:18:18Z</time>
      </trkpt>
      <trkpt lat="47.67121" lon="6.20422">
        <ele>306</ele>
        <time>2012-08-29T08:18:19Z</time>
      </trkpt>
      <trkpt lat="47.67126" lon="6.20416">
        <ele>306</ele>
        <time>2012-08-29T08:18:25Z</time>
      </trkpt>
      <trkpt lat="47.6713" lon="6.20408">
        <ele>306</ele>
        <time>2012-08-29T08:18:30Z</time>
      </trkpt>
      <trkpt lat="47.67131" lon="6.20406">
        <ele>306</ele>
        <time>2012-08-29T08:18:31Z</time>
      </trkpt>
      <trkpt lat="47.67132" lon="6.20405">
        <ele>306</ele>
        <time>2012-08-29T08:18:32Z</time>
      </trkpt>
      <trkpt lat="47.67139" lon="6.20398">
        <ele>306</ele>
        <time>2012-08-29T08:18:38Z</time>
      </trkpt>
      <trkpt lat="47.67147" lon="6.20391">
        <ele>306</ele>
        <time>2012-08-29T08:18:45Z</time>
      </trkpt>
      <trkpt lat="47.67153" lon="6.20386">
        <ele>306.39999389648</ele>
        <time>2012-08-29T08:18:49Z</time>
      </trkpt>
      <trkpt lat="47.67155" lon="6.20385">
        <ele>306.79998779297</ele>
        <time>2012-08-29T08:18:50Z</time>
      </trkpt>
      <trkpt lat="47.67157" lon="6.20384">
        <ele>307.20001220703</ele>
        <time>2012-08-29T08:18:51Z</time>
      </trkpt>
      <trkpt lat="47.67159" lon="6.20384">
        <ele>307.60000610352</ele>
        <time>2012-08-29T08:18:52Z</time>
      </trkpt>
      <trkpt lat="47.67161" lon="6.20383">
        <ele>308</ele>
        <time>2012-08-29T08:18:53Z</time>
      </trkpt>
      <trkpt lat="47.67169" lon="6.20377">
        <ele>308</ele>
        <time>2012-08-29T08:18:58Z</time>
      </trkpt>
      <trkpt lat="47.6718" lon="6.20371">
        <ele>308</ele>
        <time>2012-08-29T08:19:03Z</time>
      </trkpt>
      <trkpt lat="47.67192" lon="6.20359">
        <ele>308</ele>
        <time>2012-08-29T08:19:09Z</time>
      </trkpt>
      <trkpt lat="47.67203" lon="6.20339">
        <ele>308</ele>
        <time>2012-08-29T08:19:16Z</time>
      </trkpt>
      <trkpt lat="47.67211" lon="6.20318">
        <ele>308</ele>
        <time>2012-08-29T08:19:23Z</time>
      </trkpt>
      <trkpt lat="47.67213" lon="6.20315">
        <ele>308</ele>
        <time>2012-08-29T08:19:24Z</time>
      </trkpt>
      <trkpt lat="47.67223" lon="6.20297">
        <ele>308</ele>
        <time>2012-08-29T08:19:30Z</time>
      </trkpt>
      <trkpt lat="47.67239" lon="6.20284">
        <ele>308</ele>
        <time>2012-08-29T08:19:36Z</time>
      </trkpt>
      <trkpt lat="47.67264" lon="6.2027">
        <ele>308</ele>
        <time>2012-08-29T08:19:45Z</time>
      </trkpt>
      <trkpt lat="47.67285" lon="6.20255">
        <ele>308</ele>
        <time>2012-08-29T08:19:53Z</time>
      </trkpt>
      <trkpt lat="47.67301" lon="6.2024">
        <ele>308</ele>
        <time>2012-08-29T08:20:00Z</time>
      </trkpt>
      <trkpt lat="47.67324" lon="6.20217">
        <ele>308</ele>
        <time>2012-08-29T08:20:10Z</time>
      </trkpt>
      <trkpt lat="47.67343" lon="6.20202">
        <ele>308</ele>
        <time>2012-08-29T08:20:18Z</time>
      </trkpt>
      <trkpt lat="47.67348" lon="6.202">
        <ele>308.39999389648</ele>
        <time>2012-08-29T08:20:20Z</time>
      </trkpt>
      <trkpt lat="47.67351" lon="6.20199">
        <ele>308.79998779297</ele>
        <time>2012-08-29T08:20:21Z</time>
      </trkpt>
      <trkpt lat="47.67353" lon="6.20197">
        <ele>309.20001220703</ele>
        <time>2012-08-29T08:20:22Z</time>
      </trkpt>
      <trkpt lat="47.67356" lon="6.20195">
        <ele>309.60000610352</ele>
        <time>2012-08-29T08:20:23Z</time>
      </trkpt>
      <trkpt lat="47.67358" lon="6.20193">
        <ele>310</ele>
        <time>2012-08-29T08:20:24Z</time>
      </trkpt>
      <trkpt lat="47.67375" lon="6.20183">
        <ele>310</ele>
        <time>2012-08-29T08:20:31Z</time>
      </trkpt>
      <trkpt lat="47.674" lon="6.20165">
        <ele>310</ele>
        <time>2012-08-29T08:20:41Z</time>
      </trkpt>
      <trkpt lat="47.67416" lon="6.20157">
        <ele>310</ele>
        <time>2012-08-29T08:20:48Z</time>
      </trkpt>
      <trkpt lat="47.67433" lon="6.2015">
        <ele>310</ele>
        <time>2012-08-29T08:20:55Z</time>
      </trkpt>
      <trkpt lat="47.67444" lon="6.20149">
        <ele>310</ele>
        <time>2012-08-29T08:21:01Z</time>
      </trkpt>
      <trkpt lat="47.67448" lon="6.2015">
        <ele>310.60000610352</ele>
        <time>2012-08-29T08:21:03Z</time>
      </trkpt>
      <trkpt lat="47.67449" lon="6.20151">
        <ele>311</ele>
        <time>2012-08-29T08:21:04Z</time>
      </trkpt>
      <trkpt lat="47.67451" lon="6.20152">
        <ele>311.39999389648</ele>
        <time>2012-08-29T08:21:05Z</time>
      </trkpt>
      <trkpt lat="47.67453" lon="6.20152">
        <ele>311.79998779297</ele>
        <time>2012-08-29T08:21:06Z</time>
      </trkpt>
      <trkpt lat="47.67454" lon="6.20153">
        <ele>312.20001220703</ele>
        <time>2012-08-29T08:21:07Z</time>
      </trkpt>
      <trkpt lat="47.67456" lon="6.20154">
        <ele>312.20001220703</ele>
        <time>2012-08-29T08:21:08Z</time>
      </trkpt>
      <trkpt lat="47.67468" lon="6.20159">
        <ele>312.20001220703</ele>
        <time>2012-08-29T08:21:16Z</time>
      </trkpt>
      <trkpt lat="47.67484" lon="6.20162">
        <ele>312.20001220703</ele>
        <time>2012-08-29T08:21:22Z</time>
      </trkpt>
      <trkpt lat="47.67494" lon="6.20165">
        <ele>312.20001220703</ele>
        <time>2012-08-29T08:21:28Z</time>
      </trkpt>
      <trkpt lat="47.67508" lon="6.20168">
        <ele>312.20001220703</ele>
        <time>2012-08-29T08:21:35Z</time>
      </trkpt>
      <trkpt lat="47.67511" lon="6.20168">
        <ele>312.60000610352</ele>
        <time>2012-08-29T08:21:36Z</time>
      </trkpt>
      <trkpt lat="47.67513" lon="6.20169">
        <ele>313</ele>
        <time>2012-08-29T08:21:37Z</time>
      </trkpt>
      <trkpt lat="47.67514" lon="6.2017">
        <ele>313.39999389648</ele>
        <time>2012-08-29T08:21:38Z</time>
      </trkpt>
      <trkpt lat="47.67516" lon="6.2017">
        <ele>314.20001220703</ele>
        <time>2012-08-29T08:21:39Z</time>
      </trkpt>
      <trkpt lat="47.67523" lon="6.2017">
        <ele>314.20001220703</ele>
        <time>2012-08-29T08:21:42Z</time>
      </trkpt>
      <trkpt lat="47.67539" lon="6.20171">
        <ele>314.20001220703</ele>
        <time>2012-08-29T08:21:49Z</time>
      </trkpt>
      <trkpt lat="47.67571" lon="6.2017">
        <ele>314.20001220703</ele>
        <time>2012-08-29T08:21:55Z</time>
      </trkpt>
      <trkpt lat="47.67589" lon="6.20176">
        <ele>314.20001220703</ele>
        <time>2012-08-29T08:22:02Z</time>
      </trkpt>
      <trkpt lat="47.67594" lon="6.20179">
        <ele>314.60000610352</ele>
        <time>2012-08-29T08:22:05Z</time>
      </trkpt>
      <trkpt lat="47.67596" lon="6.2018">
        <ele>315.20001220703</ele>
        <time>2012-08-29T08:22:06Z</time>
      </trkpt>
      <trkpt lat="47.67597" lon="6.20181">
        <ele>315.60000610352</ele>
        <time>2012-08-29T08:22:07Z</time>
      </trkpt>
      <trkpt lat="47.67599" lon="6.20183">
        <ele>316</ele>
        <time>2012-08-29T08:22:08Z</time>
      </trkpt>
      <trkpt lat="47.67601" lon="6.20184">
        <ele>316.39999389648</ele>
        <time>2012-08-29T08:22:09Z</time>
      </trkpt>
      <trkpt lat="47.67603" lon="6.20185">
        <ele>316.39999389648</ele>
        <time>2012-08-29T08:22:10Z</time>
      </trkpt>
      <trkpt lat="47.67618" lon="6.20196">
        <ele>316.39999389648</ele>
        <time>2012-08-29T08:22:16Z</time>
      </trkpt>
      <trkpt lat="47.67638" lon="6.20209">
        <ele>316.39999389648</ele>
        <time>2012-08-29T08:22:24Z</time>
      </trkpt>
      <trkpt lat="47.67654" lon="6.20216">
        <ele>316.39999389648</ele>
        <time>2012-08-29T08:22:30Z</time>
      </trkpt>
      <trkpt lat="47.67667" lon="6.20219">
        <ele>316.79998779297</ele>
        <time>2012-08-29T08:22:33Z</time>
      </trkpt>
      <trkpt lat="47.6767" lon="6.20221">
        <ele>317.20001220703</ele>
        <time>2012-08-29T08:22:34Z</time>
      </trkpt>
      <trkpt lat="47.67673" lon="6.20221">
        <ele>317.60000610352</ele>
        <time>2012-08-29T08:22:35Z</time>
      </trkpt>
      <trkpt lat="47.67675" lon="6.20222">
        <ele>318</ele>
        <time>2012-08-29T08:22:36Z</time>
      </trkpt>
      <trkpt lat="47.67677" lon="6.20223">
        <ele>318.39999389648</ele>
        <time>2012-08-29T08:22:37Z</time>
      </trkpt>
      <trkpt lat="47.67693" lon="6.20233">
        <ele>318.39999389648</ele>
        <time>2012-08-29T08:22:44Z</time>
      </trkpt>
      <trkpt lat="47.67707" lon="6.20243">
        <ele>318.39999389648</ele>
        <time>2012-08-29T08:22:50Z</time>
      </trkpt>
      <trkpt lat="47.67721" lon="6.20248">
        <ele>318.39999389648</ele>
        <time>2012-08-29T08:22:56Z</time>
      </trkpt>
      <trkpt lat="47.67725" lon="6.20249">
        <ele>318.79998779297</ele>
        <time>2012-08-29T08:22:58Z</time>
      </trkpt>
      <trkpt lat="47.67728" lon="6.20249">
        <ele>319.20001220703</ele>
        <time>2012-08-29T08:22:59Z</time>
      </trkpt>
      <trkpt lat="47.6773" lon="6.20249">
        <ele>319.60000610352</ele>
        <time>2012-08-29T08:23:00Z</time>
      </trkpt>
      <trkpt lat="47.67731" lon="6.20249">
        <ele>320</ele>
        <time>2012-08-29T08:23:01Z</time>
      </trkpt>
      <trkpt lat="47.67733" lon="6.20248">
        <ele>320.39999389648</ele>
        <time>2012-08-29T08:23:02Z</time>
      </trkpt>
      <trkpt lat="47.67735" lon="6.20247">
        <ele>320.39999389648</ele>
        <time>2012-08-29T08:23:03Z</time>
      </trkpt>
      <trkpt lat="47.67744" lon="6.20246">
        <ele>320.39999389648</ele>
        <time>2012-08-29T08:23:09Z</time>
      </trkpt>
      <trkpt lat="47.67755" lon="6.20244">
        <ele>320.79998779297</ele>
        <time>2012-08-29T08:23:15Z</time>
      </trkpt>
      <trkpt lat="47.67758" lon="6.20244">
        <ele>321.20001220703</ele>
        <time>2012-08-29T08:23:16Z</time>
      </trkpt>
      <trkpt lat="47.6776" lon="6.20243">
        <ele>321.60000610352</ele>
        <time>2012-08-29T08:23:17Z</time>
      </trkpt>
      <trkpt lat="47.67761" lon="6.20242">
        <ele>322.39999389648</ele>
        <time>2012-08-29T08:23:18Z</time>
      </trkpt>
      <trkpt lat="47.67768" lon="6.20241">
        <ele>322.39999389648</ele>
        <time>2012-08-29T08:23:23Z</time>
      </trkpt>
      <trkpt lat="47.67776" lon="6.20239">
        <ele>322.79998779297</ele>
        <time>2012-08-29T08:23:28Z</time>
      </trkpt>
      <trkpt lat="47.67778" lon="6.20239">
        <ele>323.39999389648</ele>
        <time>2012-08-29T08:23:29Z</time>
      </trkpt>
      <trkpt lat="47.6778" lon="6.20239">
        <ele>323.79998779297</ele>
        <time>2012-08-29T08:23:30Z</time>
      </trkpt>
      <trkpt lat="47.67781" lon="6.20238">
        <ele>324.20001220703</ele>
        <time>2012-08-29T08:23:31Z</time>
      </trkpt>
      <trkpt lat="47.67783" lon="6.20238">
        <ele>324.60000610352</ele>
        <time>2012-08-29T08:23:32Z</time>
      </trkpt>
      <trkpt lat="47.67792" lon="6.20233">
        <ele>324.60000610352</ele>
        <time>2012-08-29T08:23:37Z</time>
      </trkpt>
      <trkpt lat="47.67801" lon="6.20224">
        <ele>324.60000610352</ele>
        <time>2012-08-29T08:23:44Z</time>
      </trkpt>
      <trkpt lat="47.67807" lon="6.20216">
        <ele>325</ele>
        <time>2012-08-29T08:23:49Z</time>
      </trkpt>
      <trkpt lat="47.67808" lon="6.20214">
        <ele>325.39999389648</ele>
        <time>2012-08-29T08:23:50Z</time>
      </trkpt>
      <trkpt lat="47.67809" lon="6.20213">
        <ele>325.79998779297</ele>
        <time>2012-08-29T08:23:51Z</time>
      </trkpt>
      <trkpt lat="47.67811" lon="6.20211">
        <ele>326.20001220703</ele>
        <time>2012-08-29T08:23:52Z</time>
      </trkpt>
      <trkpt lat="47.67812" lon="6.20209">
        <ele>326.60000610352</ele>
        <time>2012-08-29T08:23:53Z</time>
      </trkpt>
      <trkpt lat="47.67817" lon="6.20202">
        <ele>326.60000610352</ele>
        <time>2012-08-29T08:23:57Z</time>
      </trkpt>
      <trkpt lat="47.6783" lon="6.20188">
        <ele>326.60000610352</ele>
        <time>2012-08-29T08:24:06Z</time>
      </trkpt>
      <trkpt lat="47.67842" lon="6.20188">
        <ele>326.60000610352</ele>
        <time>2012-08-29T08:24:13Z</time>
      </trkpt>
      <trkpt lat="47.67853" lon="6.20196">
        <ele>326.60000610352</ele>
        <time>2012-08-29T08:24:20Z</time>
      </trkpt>
      <trkpt lat="47.67858" lon="6.20205">
        <ele>327</ele>
        <time>2012-08-29T08:24:24Z</time>
      </trkpt>
      <trkpt lat="47.67858" lon="6.20206">
        <ele>327.39999389648</ele>
        <time>2012-08-29T08:24:25Z</time>
      </trkpt>
      <trkpt lat="47.67859" lon="6.20208">
        <ele>327.79998779297</ele>
        <time>2012-08-29T08:24:26Z</time>
      </trkpt>
      <trkpt lat="47.67861" lon="6.20209">
        <ele>328.20001220703</ele>
        <time>2012-08-29T08:24:27Z</time>
      </trkpt>
      <trkpt lat="47.67863" lon="6.2021">
        <ele>328.60000610352</ele>
        <time>2012-08-29T08:24:28Z</time>
      </trkpt>
      <trkpt lat="47.67875" lon="6.2022">
        <ele>328.60000610352</ele>
        <time>2012-08-29T08:24:36Z</time>
      </trkpt>
      <trkpt lat="47.67878" lon="6.20222">
        <ele>329.20001220703</ele>
        <time>2012-08-29T08:24:38Z</time>
      </trkpt>
      <trkpt lat="47.67879" lon="6.20223">
        <ele>329.60000610352</ele>
        <time>2012-08-29T08:24:39Z</time>
      </trkpt>
      <trkpt lat="47.67881" lon="6.20224">
        <ele>330</ele>
        <time>2012-08-29T08:24:40Z</time>
      </trkpt>
      <trkpt lat="47.67882" lon="6.20226">
        <ele>330.39999389648</ele>
        <time>2012-08-29T08:24:41Z</time>
      </trkpt>
      <trkpt lat="47.67884" lon="6.20228">
        <ele>331</ele>
        <time>2012-08-29T08:24:42Z</time>
      </trkpt>
      <trkpt lat="47.67895" lon="6.20237">
        <ele>331</ele>
        <time>2012-08-29T08:24:50Z</time>
      </trkpt>
      <trkpt lat="47.67906" lon="6.20249">
        <ele>331</ele>
        <time>2012-08-29T08:24:58Z</time>
      </trkpt>
      <trkpt lat="47.67916" lon="6.20256">
        <ele>331</ele>
        <time>2012-08-29T08:25:05Z</time>
      </trkpt>
      <trkpt lat="47.67919" lon="6.20258">
        <ele>331.39999389648</ele>
        <time>2012-08-29T08:25:07Z</time>
      </trkpt>
      <trkpt lat="47.6792" lon="6.20259">
        <ele>331.79998779297</ele>
        <time>2012-08-29T08:25:08Z</time>
      </trkpt>
      <trkpt lat="47.67921" lon="6.2026">
        <ele>332.20001220703</ele>
        <time>2012-08-29T08:25:09Z</time>
      </trkpt>
      <trkpt lat="47.67923" lon="6.20262">
        <ele>332.60000610352</ele>
        <time>2012-08-29T08:25:10Z</time>
      </trkpt>
      <trkpt lat="47.67925" lon="6.20263">
        <ele>333</ele>
        <time>2012-08-29T08:25:11Z</time>
      </trkpt>
      <trkpt lat="47.67926" lon="6.20264">
        <ele>333</ele>
        <time>2012-08-29T08:25:12Z</time>
      </trkpt>
      <trkpt lat="47.6794" lon="6.20274">
        <ele>333</ele>
        <time>2012-08-29T08:25:21Z</time>
      </trkpt>
      <trkpt lat="47.67949" lon="6.20281">
        <ele>333.39999389648</ele>
        <time>2012-08-29T08:25:27Z</time>
      </trkpt>
      <trkpt lat="47.6795" lon="6.20282">
        <ele>333.79998779297</ele>
        <time>2012-08-29T08:25:28Z</time>
      </trkpt>
      <trkpt lat="47.67952" lon="6.20284">
        <ele>334.39999389648</ele>
        <time>2012-08-29T08:25:29Z</time>
      </trkpt>
      <trkpt lat="47.67953" lon="6.20285">
        <ele>334.79998779297</ele>
        <time>2012-08-29T08:25:30Z</time>
      </trkpt>
      <trkpt lat="47.67955" lon="6.20286">
        <ele>335.20001220703</ele>
        <time>2012-08-29T08:25:31Z</time>
      </trkpt>
      <trkpt lat="47.67969" lon="6.20293">
        <ele>335.20001220703</ele>
        <time>2012-08-29T08:25:39Z</time>
      </trkpt>
      <trkpt lat="47.67982" lon="6.203">
        <ele>335.20001220703</ele>
        <time>2012-08-29T08:25:47Z</time>
      </trkpt>
      <trkpt lat="47.6799" lon="6.20304">
        <ele>335.20001220703</ele>
        <time>2012-08-29T08:25:52Z</time>
      </trkpt>
      <trkpt lat="47.67992" lon="6.20304">
        <ele>335.20001220703</ele>
        <time>2012-08-29T08:25:53Z</time>
      </trkpt>
      <trkpt lat="47.68" lon="6.20307">
        <ele>335.20001220703</ele>
        <time>2012-08-29T08:25:58Z</time>
      </trkpt>
      <trkpt lat="47.68003" lon="6.20309">
        <ele>335.20001220703</ele>
        <time>2012-08-29T08:26:00Z</time>
      </trkpt>
      <trkpt lat="47.68007" lon="6.2031">
        <ele>335.20001220703</ele>
        <time>2012-08-29T08:26:03Z</time>
      </trkpt>
      <trkpt lat="47.68016" lon="6.20315">
        <ele>335.20001220703</ele>
        <time>2012-08-29T08:26:08Z</time>
      </trkpt>
      <trkpt lat="47.68026" lon="6.20319">
        <ele>335.20001220703</ele>
        <time>2012-08-29T08:26:14Z</time>
      </trkpt>
      <trkpt lat="47.68044" lon="6.20327">
        <ele>335.20001220703</ele>
        <time>2012-08-29T08:26:21Z</time>
      </trkpt>
      <trkpt lat="47.68062" lon="6.20334">
        <ele>335.20001220703</ele>
        <time>2012-08-29T08:26:27Z</time>
      </trkpt>
      <trkpt lat="47.68081" lon="6.20341">
        <ele>335.20001220703</ele>
        <time>2012-08-29T08:26:34Z</time>
      </trkpt>
      <trkpt lat="47.68098" lon="6.20348">
        <ele>335.20001220703</ele>
        <time>2012-08-29T08:26:41Z</time>
      </trkpt>
      <trkpt lat="47.68118" lon="6.20355">
        <ele>335.20001220703</ele>
        <time>2012-08-29T08:26:49Z</time>
      </trkpt>
      <trkpt lat="47.68139" lon="6.20363">
        <ele>335.20001220703</ele>
        <time>2012-08-29T08:26:56Z</time>
      </trkpt>
      <trkpt lat="47.68142" lon="6.20364">
        <ele>334.60000610352</ele>
        <time>2012-08-29T08:26:57Z</time>
      </trkpt>
      <trkpt lat="47.68146" lon="6.20365">
        <ele>334.20001220703</ele>
        <time>2012-08-29T08:26:58Z</time>
      </trkpt>
      <trkpt lat="47.68151" lon="6.20367">
        <ele>333.79998779297</ele>
        <time>2012-08-29T08:26:59Z</time>
      </trkpt>
      <trkpt lat="47.68155" lon="6.20368">
        <ele>335</ele>
        <time>2012-08-29T08:27:00Z</time>
      </trkpt>
      <trkpt lat="47.6816" lon="6.20369">
        <ele>335</ele>
        <time>2012-08-29T08:27:01Z</time>
      </trkpt>
      <trkpt lat="47.68165" lon="6.2037">
        <ele>334.79998779297</ele>
        <time>2012-08-29T08:27:02Z</time>
      </trkpt>
      <trkpt lat="47.6817" lon="6.20372">
        <ele>334.79998779297</ele>
        <time>2012-08-29T08:27:03Z</time>
      </trkpt>
      <trkpt lat="47.68176" lon="6.20374">
        <ele>334.79998779297</ele>
        <time>2012-08-29T08:27:04Z</time>
      </trkpt>
      <trkpt lat="47.68181" lon="6.20377">
        <ele>334.79998779297</ele>
        <time>2012-08-29T08:27:05Z</time>
      </trkpt>
      <trkpt lat="47.68187" lon="6.20381">
        <ele>334.20001220703</ele>
        <time>2012-08-29T08:27:06Z</time>
      </trkpt>
      <trkpt lat="47.68192" lon="6.20384">
        <ele>333.79998779297</ele>
        <time>2012-08-29T08:27:07Z</time>
      </trkpt>
      <trkpt lat="47.68198" lon="6.20387">
        <ele>333.39999389648</ele>
        <time>2012-08-29T08:27:08Z</time>
      </trkpt>
      <trkpt lat="47.68204" lon="6.20391">
        <ele>333</ele>
        <time>2012-08-29T08:27:09Z</time>
      </trkpt>
      <trkpt lat="47.6821" lon="6.20395">
        <ele>332.60000610352</ele>
        <time>2012-08-29T08:27:10Z</time>
      </trkpt>
      <trkpt lat="47.68222" lon="6.20405">
        <ele>332.20001220703</ele>
        <time>2012-08-29T08:27:12Z</time>
      </trkpt>
      <trkpt lat="47.68227" lon="6.20409">
        <ele>331.79998779297</ele>
        <time>2012-08-29T08:27:13Z</time>
      </trkpt>
      <trkpt lat="47.68233" lon="6.20414">
        <ele>331.39999389648</ele>
        <time>2012-08-29T08:27:14Z</time>
      </trkpt>
      <trkpt lat="47.68239" lon="6.20419">
        <ele>331</ele>
        <time>2012-08-29T08:27:15Z</time>
      </trkpt>
      <trkpt lat="47.68244" lon="6.20423">
        <ele>330.60000610352</ele>
        <time>2012-08-29T08:27:16Z</time>
      </trkpt>
      <trkpt lat="47.68259" lon="6.20436">
        <ele>330.60000610352</ele>
        <time>2012-08-29T08:27:19Z</time>
      </trkpt>
      <trkpt lat="47.68278" lon="6.20451">
        <ele>330.60000610352</ele>
        <time>2012-08-29T08:27:24Z</time>
      </trkpt>
      <trkpt lat="47.68292" lon="6.20459">
        <ele>330.60000610352</ele>
        <time>2012-08-29T08:27:30Z</time>
      </trkpt>
      <trkpt lat="47.68312" lon="6.20472">
        <ele>330.60000610352</ele>
        <time>2012-08-29T08:27:36Z</time>
      </trkpt>
      <trkpt lat="47.68326" lon="6.2048">
        <ele>330.20001220703</ele>
        <time>2012-08-29T08:27:39Z</time>
      </trkpt>
      <trkpt lat="47.68331" lon="6.20483">
        <ele>329.60000610352</ele>
        <time>2012-08-29T08:27:40Z</time>
      </trkpt>
      <trkpt lat="47.68337" lon="6.20487">
        <ele>329.20001220703</ele>
        <time>2012-08-29T08:27:41Z</time>
      </trkpt>
      <trkpt lat="47.68343" lon="6.2049">
        <ele>328.79998779297</ele>
        <time>2012-08-29T08:27:42Z</time>
      </trkpt>
      <trkpt lat="47.68349" lon="6.20492">
        <ele>328.39999389648</ele>
        <time>2012-08-29T08:27:43Z</time>
      </trkpt>
      <trkpt lat="47.68365" lon="6.20501">
        <ele>328.39999389648</ele>
        <time>2012-08-29T08:27:46Z</time>
      </trkpt>
      <trkpt lat="47.68382" lon="6.2051">
        <ele>328.39999389648</ele>
        <time>2012-08-29T08:27:49Z</time>
      </trkpt>
      <trkpt lat="47.68395" lon="6.20521">
        <ele>328</ele>
        <time>2012-08-29T08:27:52Z</time>
      </trkpt>
      <trkpt lat="47.68399" lon="6.20524">
        <ele>327.60000610352</ele>
        <time>2012-08-29T08:27:53Z</time>
      </trkpt>
      <trkpt lat="47.68403" lon="6.20528">
        <ele>327.20001220703</ele>
        <time>2012-08-29T08:27:54Z</time>
      </trkpt>
      <trkpt lat="47.68407" lon="6.20532">
        <ele>326.79998779297</ele>
        <time>2012-08-29T08:27:55Z</time>
      </trkpt>
      <trkpt lat="47.68411" lon="6.20535">
        <ele>326.39999389648</ele>
        <time>2012-08-29T08:27:56Z</time>
      </trkpt>
      <trkpt lat="47.6842" lon="6.20541">
        <ele>326.39999389648</ele>
        <time>2012-08-29T08:27:58Z</time>
      </trkpt>
      <trkpt lat="47.68438" lon="6.20555">
        <ele>326.39999389648</ele>
        <time>2012-08-29T08:28:03Z</time>
      </trkpt>
      <trkpt lat="47.68449" lon="6.20564">
        <ele>326.39999389648</ele>
        <time>2012-08-29T08:28:08Z</time>
      </trkpt>
      <trkpt lat="47.68462" lon="6.20575">
        <ele>326.39999389648</ele>
        <time>2012-08-29T08:28:15Z</time>
      </trkpt>
      <trkpt lat="47.68474" lon="6.20593">
        <ele>326.39999389648</ele>
        <time>2012-08-29T08:28:23Z</time>
      </trkpt>
      <trkpt lat="47.68483" lon="6.20608">
        <ele>326.39999389648</ele>
        <time>2012-08-29T08:28:29Z</time>
      </trkpt>
      <trkpt lat="47.68494" lon="6.2063">
        <ele>326.39999389648</ele>
        <time>2012-08-29T08:28:37Z</time>
      </trkpt>
      <trkpt lat="47.68498" lon="6.20641">
        <ele>326.79998779297</ele>
        <time>2012-08-29T08:28:41Z</time>
      </trkpt>
      <trkpt lat="47.685" lon="6.20643">
        <ele>327.20001220703</ele>
        <time>2012-08-29T08:28:42Z</time>
      </trkpt>
      <trkpt lat="47.68502" lon="6.20646">
        <ele>327.60000610352</ele>
        <time>2012-08-29T08:28:43Z</time>
      </trkpt>
      <trkpt lat="47.68503" lon="6.20649">
        <ele>328</ele>
        <time>2012-08-29T08:28:44Z</time>
      </trkpt>
      <trkpt lat="47.68505" lon="6.20652">
        <ele>328.39999389648</ele>
        <time>2012-08-29T08:28:45Z</time>
      </trkpt>
      <trkpt lat="47.68513" lon="6.20664">
        <ele>328.39999389648</ele>
        <time>2012-08-29T08:28:49Z</time>
      </trkpt>
      <trkpt lat="47.68524" lon="6.20684">
        <ele>328.39999389648</ele>
        <time>2012-08-29T08:28:56Z</time>
      </trkpt>
      <trkpt lat="47.68531" lon="6.20696">
        <ele>328.39999389648</ele>
        <time>2012-08-29T08:29:01Z</time>
      </trkpt>
      <trkpt lat="47.68543" lon="6.20713">
        <ele>328.39999389648</ele>
        <time>2012-08-29T08:29:08Z</time>
      </trkpt>
      <trkpt lat="47.68546" lon="6.20725">
        <ele>328.39999389648</ele>
        <time>2012-08-29T08:29:14Z</time>
      </trkpt>
      <trkpt lat="47.68548" lon="6.20729">
        <ele>328.79998779297</ele>
        <time>2012-08-29T08:29:16Z</time>
      </trkpt>
      <trkpt lat="47.68549" lon="6.20731">
        <ele>329.20001220703</ele>
        <time>2012-08-29T08:29:17Z</time>
      </trkpt>
      <trkpt lat="47.68551" lon="6.20734">
        <ele>329.60000610352</ele>
        <time>2012-08-29T08:29:18Z</time>
      </trkpt>
      <trkpt lat="47.68552" lon="6.20737">
        <ele>330</ele>
        <time>2012-08-29T08:29:19Z</time>
      </trkpt>
      <trkpt lat="47.68554" lon="6.20739">
        <ele>330.39999389648</ele>
        <time>2012-08-29T08:29:20Z</time>
      </trkpt>
      <trkpt lat="47.68555" lon="6.20742">
        <ele>330.39999389648</ele>
        <time>2012-08-29T08:29:21Z</time>
      </trkpt>
      <trkpt lat="47.68562" lon="6.20754">
        <ele>330.39999389648</ele>
        <time>2012-08-29T08:29:26Z</time>
      </trkpt>
      <trkpt lat="47.68565" lon="6.20758">
        <ele>330.39999389648</ele>
        <time>2012-08-29T08:29:28Z</time>
      </trkpt>
      <trkpt lat="47.6857" lon="6.20772">
        <ele>330.39999389648</ele>
        <time>2012-08-29T08:29:33Z</time>
      </trkpt>
      <trkpt lat="47.68581" lon="6.20789">
        <ele>330.39999389648</ele>
        <time>2012-08-29T08:29:40Z</time>
      </trkpt>
      <trkpt lat="47.68593" lon="6.20803">
        <ele>330.39999389648</ele>
        <time>2012-08-29T08:29:45Z</time>
      </trkpt>
      <trkpt lat="47.68611" lon="6.20824">
        <ele>330.39999389648</ele>
        <time>2012-08-29T08:29:53Z</time>
      </trkpt>
      <trkpt lat="47.68624" lon="6.20834">
        <ele>330.39999389648</ele>
        <time>2012-08-29T08:29:58Z</time>
      </trkpt>
      <trkpt lat="47.68631" lon="6.20845">
        <ele>330.39999389648</ele>
        <time>2012-08-29T08:30:05Z</time>
      </trkpt>
      <trkpt lat="47.68632" lon="6.20848">
        <ele>330.39999389648</ele>
        <time>2012-08-29T08:30:07Z</time>
      </trkpt>
      <trkpt lat="47.68634" lon="6.2085">
        <ele>330.39999389648</ele>
        <time>2012-08-29T08:30:09Z</time>
      </trkpt>
      <trkpt lat="47.68642" lon="6.20867">
        <ele>333</ele>
        <time>2012-08-29T08:31:24Z</time>
      </trkpt>
      <trkpt lat="47.68644" lon="6.20869">
        <ele>333</ele>
        <time>2012-08-29T08:31:25Z</time>
      </trkpt>
      <trkpt lat="47.68648" lon="6.20875">
        <ele>333</ele>
        <time>2012-08-29T08:31:28Z</time>
      </trkpt>
      <trkpt lat="47.68653" lon="6.20881">
        <ele>333</ele>
        <time>2012-08-29T08:31:31Z</time>
      </trkpt>
      <trkpt lat="47.68661" lon="6.2089">
        <ele>333</ele>
        <time>2012-08-29T08:31:36Z</time>
      </trkpt>
      <trkpt lat="47.68669" lon="6.20897">
        <ele>333</ele>
        <time>2012-08-29T08:31:41Z</time>
      </trkpt>
      <trkpt lat="47.6868" lon="6.20905">
        <ele>333</ele>
        <time>2012-08-29T08:31:47Z</time>
      </trkpt>
      <trkpt lat="47.68686" lon="6.20906">
        <ele>332.60000610352</ele>
        <time>2012-08-29T08:31:49Z</time>
      </trkpt>
      <trkpt lat="47.68689" lon="6.20907">
        <ele>332.20001220703</ele>
        <time>2012-08-29T08:31:50Z</time>
      </trkpt>
      <trkpt lat="47.68692" lon="6.20908">
        <ele>331.79998779297</ele>
        <time>2012-08-29T08:31:51Z</time>
      </trkpt>
      <trkpt lat="47.68695" lon="6.2091">
        <ele>331.39999389648</ele>
        <time>2012-08-29T08:31:52Z</time>
      </trkpt>
      <trkpt lat="47.68698" lon="6.20911">
        <ele>331</ele>
        <time>2012-08-29T08:31:53Z</time>
      </trkpt>
      <trkpt lat="47.68701" lon="6.20912">
        <ele>331</ele>
        <time>2012-08-29T08:31:54Z</time>
      </trkpt>
      <trkpt lat="47.68708" lon="6.20915">
        <ele>330.60000610352</ele>
        <time>2012-08-29T08:31:56Z</time>
      </trkpt>
      <trkpt lat="47.68711" lon="6.20916">
        <ele>330.20001220703</ele>
        <time>2012-08-29T08:31:57Z</time>
      </trkpt>
      <trkpt lat="47.68714" lon="6.20917">
        <ele>329.39999389648</ele>
        <time>2012-08-29T08:31:58Z</time>
      </trkpt>
      <trkpt lat="47.68717" lon="6.20918">
        <ele>329</ele>
        <time>2012-08-29T08:31:59Z</time>
      </trkpt>
      <trkpt lat="47.68721" lon="6.20919">
        <ele>328.60000610352</ele>
        <time>2012-08-29T08:32:00Z</time>
      </trkpt>
      <trkpt lat="47.68725" lon="6.20919">
        <ele>328.20001220703</ele>
        <time>2012-08-29T08:32:01Z</time>
      </trkpt>
      <trkpt lat="47.68729" lon="6.20919">
        <ele>327.79998779297</ele>
        <time>2012-08-29T08:32:02Z</time>
      </trkpt>
      <trkpt lat="47.68734" lon="6.20919">
        <ele>327.39999389648</ele>
        <time>2012-08-29T08:32:03Z</time>
      </trkpt>
      <trkpt lat="47.68739" lon="6.2092">
        <ele>327</ele>
        <time>2012-08-29T08:32:04Z</time>
      </trkpt>
      <trkpt lat="47.68743" lon="6.2092">
        <ele>327</ele>
        <time>2012-08-29T08:32:05Z</time>
      </trkpt>
      <trkpt lat="47.6877" lon="6.20923">
        <ele>327</ele>
        <time>2012-08-29T08:32:10Z</time>
      </trkpt>
      <trkpt lat="47.68794" lon="6.20926">
        <ele>327</ele>
        <time>2012-08-29T08:32:16Z</time>
      </trkpt>
      <trkpt lat="47.68804" lon="6.20927">
        <ele>327</ele>
        <time>2012-08-29T08:32:21Z</time>
      </trkpt>
      <trkpt lat="47.68815" lon="6.20902">
        <ele>327</ele>
        <time>2012-08-29T08:33:23Z</time>
      </trkpt>
      <trkpt lat="47.68818" lon="6.20898">
        <ele>327.39999389648</ele>
        <time>2012-08-29T08:33:25Z</time>
      </trkpt>
      <trkpt lat="47.68819" lon="6.20897">
        <ele>327.79998779297</ele>
        <time>2012-08-29T08:33:26Z</time>
      </trkpt>
      <trkpt lat="47.68821" lon="6.20895">
        <ele>328.20001220703</ele>
        <time>2012-08-29T08:33:27Z</time>
      </trkpt>
      <trkpt lat="47.68822" lon="6.20894">
        <ele>328.60000610352</ele>
        <time>2012-08-29T08:33:28Z</time>
      </trkpt>
      <trkpt lat="47.68822" lon="6.20892">
        <ele>329</ele>
        <time>2012-08-29T08:33:29Z</time>
      </trkpt>
      <trkpt lat="47.68829" lon="6.20882">
        <ele>329</ele>
        <time>2012-08-29T08:33:36Z</time>
      </trkpt>
      <trkpt lat="47.68829" lon="6.20881">
        <ele>329</ele>
        <time>2012-08-29T08:33:38Z</time>
      </trkpt>
      <trkpt lat="47.6883" lon="6.20873">
        <ele>329</ele>
        <time>2012-08-29T08:33:53Z</time>
      </trkpt>
      <trkpt lat="47.6883" lon="6.20869">
        <ele>329</ele>
        <time>2012-08-29T08:33:55Z</time>
      </trkpt>
      <trkpt lat="47.68831" lon="6.20854">
        <ele>329</ele>
        <time>2012-08-29T08:34:01Z</time>
      </trkpt>
      <trkpt lat="47.68835" lon="6.20839">
        <ele>329.39999389648</ele>
        <time>2012-08-29T08:34:06Z</time>
      </trkpt>
      <trkpt lat="47.68836" lon="6.20837">
        <ele>329.79998779297</ele>
        <time>2012-08-29T08:34:07Z</time>
      </trkpt>
      <trkpt lat="47.68837" lon="6.20835">
        <ele>330.20001220703</ele>
        <time>2012-08-29T08:34:08Z</time>
      </trkpt>
      <trkpt lat="47.68839" lon="6.20832">
        <ele>330.60000610352</ele>
        <time>2012-08-29T08:34:09Z</time>
      </trkpt>
      <trkpt lat="47.6884" lon="6.20829">
        <ele>331</ele>
        <time>2012-08-29T08:34:10Z</time>
      </trkpt>
      <trkpt lat="47.68841" lon="6.20826">
        <ele>331</ele>
        <time>2012-08-29T08:34:11Z</time>
      </trkpt>
      <trkpt lat="47.6884" lon="6.20808">
        <ele>331</ele>
        <time>2012-08-29T08:34:20Z</time>
      </trkpt>
      <trkpt lat="47.6884" lon="6.20805">
        <ele>331</ele>
        <time>2012-08-29T08:34:21Z</time>
      </trkpt>
      <trkpt lat="47.6884" lon="6.20792">
        <ele>331</ele>
        <time>2012-08-29T08:34:25Z</time>
      </trkpt>
      <trkpt lat="47.6884" lon="6.2079">
        <ele>331</ele>
        <time>2012-08-29T08:34:26Z</time>
      </trkpt>
      <trkpt lat="47.68835" lon="6.20784">
        <ele>331</ele>
        <time>2012-08-29T08:34:30Z</time>
      </trkpt>
      <trkpt lat="47.68832" lon="6.20781">
        <ele>331</ele>
        <time>2012-08-29T08:34:32Z</time>
      </trkpt>
      <trkpt lat="47.68829" lon="6.20775">
        <ele>331.39999389648</ele>
        <time>2012-08-29T08:34:35Z</time>
      </trkpt>
      <trkpt lat="47.68827" lon="6.20773">
        <ele>331.79998779297</ele>
        <time>2012-08-29T08:34:36Z</time>
      </trkpt>
      <trkpt lat="47.68825" lon="6.2077">
        <ele>332.20001220703</ele>
        <time>2012-08-29T08:34:37Z</time>
      </trkpt>
      <trkpt lat="47.68824" lon="6.20767">
        <ele>332.60000610352</ele>
        <time>2012-08-29T08:34:38Z</time>
      </trkpt>
      <trkpt lat="47.68823" lon="6.20765">
        <ele>333</ele>
        <time>2012-08-29T08:34:39Z</time>
      </trkpt>
      <trkpt lat="47.68818" lon="6.20748">
        <ele>333</ele>
        <time>2012-08-29T08:34:46Z</time>
      </trkpt>
      <trkpt lat="47.68815" lon="6.2074">
        <ele>333.39999389648</ele>
        <time>2012-08-29T08:34:51Z</time>
      </trkpt>
      <trkpt lat="47.68815" lon="6.20738">
        <ele>333.79998779297</ele>
        <time>2012-08-29T08:34:52Z</time>
      </trkpt>
      <trkpt lat="47.68814" lon="6.20736">
        <ele>334.20001220703</ele>
        <time>2012-08-29T08:34:53Z</time>
      </trkpt>
      <trkpt lat="47.68813" lon="6.20735">
        <ele>334.60000610352</ele>
        <time>2012-08-29T08:34:54Z</time>
      </trkpt>
      <trkpt lat="47.68812" lon="6.20733">
        <ele>335</ele>
        <time>2012-08-29T08:34:55Z</time>
      </trkpt>
      <trkpt lat="47.68809" lon="6.20726">
        <ele>335</ele>
        <time>2012-08-29T08:35:00Z</time>
      </trkpt>
      <trkpt lat="47.68806" lon="6.20714">
        <ele>335</ele>
        <time>2012-08-29T08:35:07Z</time>
      </trkpt>
      <trkpt lat="47.688" lon="6.20704">
        <ele>335.39999389648</ele>
        <time>2012-08-29T08:35:13Z</time>
      </trkpt>
      <trkpt lat="47.68799" lon="6.20702">
        <ele>336</ele>
        <time>2012-08-29T08:35:14Z</time>
      </trkpt>
      <trkpt lat="47.68799" lon="6.20701">
        <ele>336.79998779297</ele>
        <time>2012-08-29T08:35:15Z</time>
      </trkpt>
      <trkpt lat="47.68798" lon="6.20699">
        <ele>337.20001220703</ele>
        <time>2012-08-29T08:35:16Z</time>
      </trkpt>
      <trkpt lat="47.68796" lon="6.20696">
        <ele>337.20001220703</ele>
        <time>2012-08-29T08:35:18Z</time>
      </trkpt>
      <trkpt lat="47.68793" lon="6.20683">
        <ele>337.20001220703</ele>
        <time>2012-08-29T08:35:25Z</time>
      </trkpt>
      <trkpt lat="47.6879" lon="6.20678">
        <ele>337.20001220703</ele>
        <time>2012-08-29T08:35:27Z</time>
      </trkpt>
      <trkpt lat="47.68787" lon="6.20665">
        <ele>337.20001220703</ele>
        <time>2012-08-29T08:35:33Z</time>
      </trkpt>
      <trkpt lat="47.68786" lon="6.20663">
        <ele>337.20001220703</ele>
        <time>2012-08-29T08:35:34Z</time>
      </trkpt>
      <trkpt lat="47.68784" lon="6.2066">
        <ele>337.20001220703</ele>
        <time>2012-08-29T08:35:37Z</time>
      </trkpt>
      <trkpt lat="47.68784" lon="6.20656">
        <ele>337.20001220703</ele>
        <time>2012-08-29T08:35:58Z</time>
      </trkpt>
      <trkpt lat="47.68784" lon="6.20654">
        <ele>337.20001220703</ele>
        <time>2012-08-29T08:35:59Z</time>
      </trkpt>
      <trkpt lat="47.68783" lon="6.2064">
        <ele>337.20001220703</ele>
        <time>2012-08-29T08:36:03Z</time>
      </trkpt>
      <trkpt lat="47.68784" lon="6.20635">
        <ele>337.20001220703</ele>
        <time>2012-08-29T08:36:04Z</time>
      </trkpt>
      <trkpt lat="47.68785" lon="6.2063">
        <ele>336.20001220703</ele>
        <time>2012-08-29T08:36:05Z</time>
      </trkpt>
      <trkpt lat="47.68786" lon="6.20626">
        <ele>335.79998779297</ele>
        <time>2012-08-29T08:36:06Z</time>
      </trkpt>
      <trkpt lat="47.68785" lon="6.20623">
        <ele>335.39999389648</ele>
        <time>2012-08-29T08:36:07Z</time>
      </trkpt>
      <trkpt lat="47.68785" lon="6.2062">
        <ele>335</ele>
        <time>2012-08-29T08:36:08Z</time>
      </trkpt>
      <trkpt lat="47.68784" lon="6.20615">
        <ele>335</ele>
        <time>2012-08-29T08:36:09Z</time>
      </trkpt>
      <trkpt lat="47.68781" lon="6.20605">
        <ele>334.60000610352</ele>
        <time>2012-08-29T08:36:11Z</time>
      </trkpt>
      <trkpt lat="47.68779" lon="6.20601">
        <ele>334.20001220703</ele>
        <time>2012-08-29T08:36:12Z</time>
      </trkpt>
      <trkpt lat="47.68778" lon="6.20598">
        <ele>333.79998779297</ele>
        <time>2012-08-29T08:36:13Z</time>
      </trkpt>
      <trkpt lat="47.68777" lon="6.20595">
        <ele>333.39999389648</ele>
        <time>2012-08-29T08:36:14Z</time>
      </trkpt>
      <trkpt lat="47.68776" lon="6.20591">
        <ele>333</ele>
        <time>2012-08-29T08:36:15Z</time>
      </trkpt>
      <trkpt lat="47.68775" lon="6.20588">
        <ele>333</ele>
        <time>2012-08-29T08:36:16Z</time>
      </trkpt>
      <trkpt lat="47.68768" lon="6.20573">
        <ele>333</ele>
        <time>2012-08-29T08:36:20Z</time>
      </trkpt>
      <trkpt lat="47.6876" lon="6.20554">
        <ele>333</ele>
        <time>2012-08-29T08:36:26Z</time>
      </trkpt>
      <trkpt lat="47.68755" lon="6.20541">
        <ele>332</ele>
        <time>2012-08-29T08:36:30Z</time>
      </trkpt>
      <trkpt lat="47.68754" lon="6.20537">
        <ele>331.60000610352</ele>
        <time>2012-08-29T08:36:31Z</time>
      </trkpt>
      <trkpt lat="47.68753" lon="6.20533">
        <ele>331.20001220703</ele>
        <time>2012-08-29T08:36:32Z</time>
      </trkpt>
      <trkpt lat="47.68752" lon="6.20529">
        <ele>330.60000610352</ele>
        <time>2012-08-29T08:36:33Z</time>
      </trkpt>
      <trkpt lat="47.68747" lon="6.20514">
        <ele>330.20001220703</ele>
        <time>2012-08-29T08:36:36Z</time>
      </trkpt>
      <trkpt lat="47.68745" lon="6.20509">
        <ele>329.79998779297</ele>
        <time>2012-08-29T08:36:37Z</time>
      </trkpt>
      <trkpt lat="47.68743" lon="6.20506">
        <ele>329.39999389648</ele>
        <time>2012-08-29T08:36:38Z</time>
      </trkpt>
      <trkpt lat="47.68742" lon="6.20503">
        <ele>329</ele>
        <time>2012-08-29T08:36:39Z</time>
      </trkpt>
      <trkpt lat="47.68739" lon="6.20499">
        <ele>328.60000610352</ele>
        <time>2012-08-29T08:36:40Z</time>
      </trkpt>
      <trkpt lat="47.6873" lon="6.20481">
        <ele>328.60000610352</ele>
        <time>2012-08-29T08:36:45Z</time>
      </trkpt>
      <trkpt lat="47.68723" lon="6.2047">
        <ele>328.20001220703</ele>
        <time>2012-08-29T08:36:48Z</time>
      </trkpt>
      <trkpt lat="47.68721" lon="6.20467">
        <ele>327.60000610352</ele>
        <time>2012-08-29T08:36:49Z</time>
      </trkpt>
      <trkpt lat="47.68719" lon="6.20463">
        <ele>327.20001220703</ele>
        <time>2012-08-29T08:36:50Z</time>
      </trkpt>
      <trkpt lat="47.68716" lon="6.20458">
        <ele>326.79998779297</ele>
        <time>2012-08-29T08:36:51Z</time>
      </trkpt>
      <trkpt lat="47.68713" lon="6.20454">
        <ele>326.20001220703</ele>
        <time>2012-08-29T08:36:52Z</time>
      </trkpt>
      <trkpt lat="47.6871" lon="6.20451">
        <ele>325.79998779297</ele>
        <time>2012-08-29T08:36:53Z</time>
      </trkpt>
      <trkpt lat="47.68707" lon="6.20448">
        <ele>325</ele>
        <time>2012-08-29T08:36:54Z</time>
      </trkpt>
      <trkpt lat="47.68704" lon="6.20445">
        <ele>324.39999389648</ele>
        <time>2012-08-29T08:36:55Z</time>
      </trkpt>
      <trkpt lat="47.68701" lon="6.20442">
        <ele>324</ele>
        <time>2012-08-29T08:36:56Z</time>
      </trkpt>
      <trkpt lat="47.68699" lon="6.20439">
        <ele>324</ele>
        <time>2012-08-29T08:36:57Z</time>
      </trkpt>
      <trkpt lat="47.68695" lon="6.20434">
        <ele>323.60000610352</ele>
        <time>2012-08-29T08:36:59Z</time>
      </trkpt>
      <trkpt lat="47.68693" lon="6.20431">
        <ele>323.20001220703</ele>
        <time>2012-08-29T08:37:00Z</time>
      </trkpt>
      <trkpt lat="47.68692" lon="6.20429">
        <ele>322.60000610352</ele>
        <time>2012-08-29T08:37:01Z</time>
      </trkpt>
      <trkpt lat="47.6869" lon="6.20427">
        <ele>322.20001220703</ele>
        <time>2012-08-29T08:37:02Z</time>
      </trkpt>
      <trkpt lat="47.68688" lon="6.20423">
        <ele>321.79998779297</ele>
        <time>2012-08-29T08:37:03Z</time>
      </trkpt>
      <trkpt lat="47.68686" lon="6.20421">
        <ele>321.79998779297</ele>
        <time>2012-08-29T08:37:04Z</time>
      </trkpt>
      <trkpt lat="47.68684" lon="6.20415">
        <ele>321.39999389648</ele>
        <time>2012-08-29T08:37:06Z</time>
      </trkpt>
      <trkpt lat="47.68683" lon="6.2041">
        <ele>320.79998779297</ele>
        <time>2012-08-29T08:37:07Z</time>
      </trkpt>
      <trkpt lat="47.68683" lon="6.20405">
        <ele>320.39999389648</ele>
        <time>2012-08-29T08:37:08Z</time>
      </trkpt>
      <trkpt lat="47.68682" lon="6.20401">
        <ele>320</ele>
        <time>2012-08-29T08:37:09Z</time>
      </trkpt>
      <trkpt lat="47.68681" lon="6.20396">
        <ele>319.39999389648</ele>
        <time>2012-08-29T08:37:10Z</time>
      </trkpt>
      <trkpt lat="47.6868" lon="6.20392">
        <ele>319</ele>
        <time>2012-08-29T08:37:11Z</time>
      </trkpt>
      <trkpt lat="47.68679" lon="6.20387">
        <ele>318.60000610352</ele>
        <time>2012-08-29T08:37:12Z</time>
      </trkpt>
      <trkpt lat="47.68679" lon="6.20383">
        <ele>318.20001220703</ele>
        <time>2012-08-29T08:37:13Z</time>
      </trkpt>
      <trkpt lat="47.68678" lon="6.20379">
        <ele>317.60000610352</ele>
        <time>2012-08-29T08:37:14Z</time>
      </trkpt>
      <trkpt lat="47.68677" lon="6.20376">
        <ele>317.20001220703</ele>
        <time>2012-08-29T08:37:15Z</time>
      </trkpt>
      <trkpt lat="47.68676" lon="6.20373">
        <ele>317.20001220703</ele>
        <time>2012-08-29T08:37:16Z</time>
      </trkpt>
      <trkpt lat="47.68675" lon="6.2037">
        <ele>316.79998779297</ele>
        <time>2012-08-29T08:37:17Z</time>
      </trkpt>
      <trkpt lat="47.68674" lon="6.20367">
        <ele>316.39999389648</ele>
        <time>2012-08-29T08:37:18Z</time>
      </trkpt>
      <trkpt lat="47.68674" lon="6.20362">
        <ele>315.60000610352</ele>
        <time>2012-08-29T08:37:19Z</time>
      </trkpt>
      <trkpt lat="47.68673" lon="6.20359">
        <ele>315.20001220703</ele>
        <time>2012-08-29T08:37:20Z</time>
      </trkpt>
      <trkpt lat="47.68671" lon="6.20355">
        <ele>314.79998779297</ele>
        <time>2012-08-29T08:37:21Z</time>
      </trkpt>
      <trkpt lat="47.6867" lon="6.20351">
        <ele>314.39999389648</ele>
        <time>2012-08-29T08:37:22Z</time>
      </trkpt>
      <trkpt lat="47.68669" lon="6.20348">
        <ele>314</ele>
        <time>2012-08-29T08:37:23Z</time>
      </trkpt>
      <trkpt lat="47.68668" lon="6.20344">
        <ele>313.60000610352</ele>
        <time>2012-08-29T08:37:24Z</time>
      </trkpt>
      <trkpt lat="47.68666" lon="6.20339">
        <ele>313.20001220703</ele>
        <time>2012-08-29T08:37:25Z</time>
      </trkpt>
      <trkpt lat="47.68664" lon="6.20332">
        <ele>313.20001220703</ele>
        <time>2012-08-29T08:37:27Z</time>
      </trkpt>
      <trkpt lat="47.68663" lon="6.20324">
        <ele>312.60000610352</ele>
        <time>2012-08-29T08:37:29Z</time>
      </trkpt>
      <trkpt lat="47.68662" lon="6.2032">
        <ele>312.20001220703</ele>
        <time>2012-08-29T08:37:30Z</time>
      </trkpt>
      <trkpt lat="47.68661" lon="6.20315">
        <ele>311.79998779297</ele>
        <time>2012-08-29T08:37:31Z</time>
      </trkpt>
      <trkpt lat="47.6866" lon="6.20311">
        <ele>311.39999389648</ele>
        <time>2012-08-29T08:37:32Z</time>
      </trkpt>
      <trkpt lat="47.68659" lon="6.20306">
        <ele>311</ele>
        <time>2012-08-29T08:37:33Z</time>
      </trkpt>
      <trkpt lat="47.68657" lon="6.20285">
        <ele>310.60000610352</ele>
        <time>2012-08-29T08:37:37Z</time>
      </trkpt>
      <trkpt lat="47.68656" lon="6.2028">
        <ele>310.20001220703</ele>
        <time>2012-08-29T08:37:38Z</time>
      </trkpt>
      <trkpt lat="47.68656" lon="6.20276">
        <ele>309.60000610352</ele>
        <time>2012-08-29T08:37:39Z</time>
      </trkpt>
      <trkpt lat="47.68656" lon="6.2027">
        <ele>309.20001220703</ele>
        <time>2012-08-29T08:37:40Z</time>
      </trkpt>
      <trkpt lat="47.68656" lon="6.20266">
        <ele>308.79998779297</ele>
        <time>2012-08-29T08:37:41Z</time>
      </trkpt>
      <trkpt lat="47.68655" lon="6.20256">
        <ele>308.39999389648</ele>
        <time>2012-08-29T08:37:43Z</time>
      </trkpt>
      <trkpt lat="47.68655" lon="6.20251">
        <ele>307.60000610352</ele>
        <time>2012-08-29T08:37:44Z</time>
      </trkpt>
      <trkpt lat="47.68655" lon="6.20247">
        <ele>307.20001220703</ele>
        <time>2012-08-29T08:37:45Z</time>
      </trkpt>
      <trkpt lat="47.68654" lon="6.20243">
        <ele>306.79998779297</ele>
        <time>2012-08-29T08:37:46Z</time>
      </trkpt>
      <trkpt lat="47.6865" lon="6.20231">
        <ele>306.79998779297</ele>
        <time>2012-08-29T08:37:49Z</time>
      </trkpt>
      <trkpt lat="47.68644" lon="6.20221">
        <ele>306.39999389648</ele>
        <time>2012-08-29T08:37:53Z</time>
      </trkpt>
      <trkpt lat="47.68643" lon="6.20218">
        <ele>306</ele>
        <time>2012-08-29T08:37:54Z</time>
      </trkpt>
      <trkpt lat="47.68642" lon="6.20216">
        <ele>305.39999389648</ele>
        <time>2012-08-29T08:37:55Z</time>
      </trkpt>
      <trkpt lat="47.68641" lon="6.20214">
        <ele>305</ele>
        <time>2012-08-29T08:37:56Z</time>
      </trkpt>
      <trkpt lat="47.6864" lon="6.20211">
        <ele>304.60000610352</ele>
        <time>2012-08-29T08:37:57Z</time>
      </trkpt>
      <trkpt lat="47.68634" lon="6.20202">
        <ele>304.60000610352</ele>
        <time>2012-08-29T08:38:01Z</time>
      </trkpt>
      <trkpt lat="47.6863" lon="6.20186">
        <ele>304.60000610352</ele>
        <time>2012-08-29T08:38:06Z</time>
      </trkpt>
      <trkpt lat="47.6863" lon="6.20182">
        <ele>304.20001220703</ele>
        <time>2012-08-29T08:38:07Z</time>
      </trkpt>
      <trkpt lat="47.68629" lon="6.20179">
        <ele>303.39999389648</ele>
        <time>2012-08-29T08:38:08Z</time>
      </trkpt>
      <trkpt lat="47.68628" lon="6.20175">
        <ele>303</ele>
        <time>2012-08-29T08:38:09Z</time>
      </trkpt>
      <trkpt lat="47.68628" lon="6.20171">
        <ele>302.60000610352</ele>
        <time>2012-08-29T08:38:10Z</time>
      </trkpt>
      <trkpt lat="47.68625" lon="6.20162">
        <ele>302.60000610352</ele>
        <time>2012-08-29T08:38:13Z</time>
      </trkpt>
      <trkpt lat="47.68617" lon="6.2014">
        <ele>302.60000610352</ele>
        <time>2012-08-29T08:38:19Z</time>
      </trkpt>
      <trkpt lat="47.68606" lon="6.20114">
        <ele>302.60000610352</ele>
        <time>2012-08-29T08:38:25Z</time>
      </trkpt>
      <trkpt lat="47.68601" lon="6.20101">
        <ele>302.20001220703</ele>
        <time>2012-08-29T08:38:27Z</time>
      </trkpt>
      <trkpt lat="47.68598" lon="6.20096">
        <ele>301.79998779297</ele>
        <time>2012-08-29T08:38:28Z</time>
      </trkpt>
      <trkpt lat="47.68595" lon="6.20092">
        <ele>301.20001220703</ele>
        <time>2012-08-29T08:38:29Z</time>
      </trkpt>
      <trkpt lat="47.68593" lon="6.20088">
        <ele>300.79998779297</ele>
        <time>2012-08-29T08:38:30Z</time>
      </trkpt>
      <trkpt lat="47.6859" lon="6.20086">
        <ele>300.39999389648</ele>
        <time>2012-08-29T08:38:31Z</time>
      </trkpt>
      <trkpt lat="47.68584" lon="6.20076">
        <ele>300.39999389648</ele>
        <time>2012-08-29T08:38:34Z</time>
      </trkpt>
      <trkpt lat="47.68577" lon="6.20056">
        <ele>300</ele>
        <time>2012-08-29T08:38:39Z</time>
      </trkpt>
      <trkpt lat="47.68576" lon="6.20052">
        <ele>299.60000610352</ele>
        <time>2012-08-29T08:38:40Z</time>
      </trkpt>
      <trkpt lat="47.68575" lon="6.20048">
        <ele>299.20001220703</ele>
        <time>2012-08-29T08:38:41Z</time>
      </trkpt>
      <trkpt lat="47.68575" lon="6.20044">
        <ele>298.79998779297</ele>
        <time>2012-08-29T08:38:42Z</time>
      </trkpt>
      <trkpt lat="47.68574" lon="6.20039">
        <ele>298.39999389648</ele>
        <time>2012-08-29T08:38:43Z</time>
      </trkpt>
      <trkpt lat="47.68572" lon="6.20024">
        <ele>298.39999389648</ele>
        <time>2012-08-29T08:38:47Z</time>
      </trkpt>
      <trkpt lat="47.68566" lon="6.20003">
        <ele>298</ele>
        <time>2012-08-29T08:38:52Z</time>
      </trkpt>
      <trkpt lat="47.68565" lon="6.19999">
        <ele>297.60000610352</ele>
        <time>2012-08-29T08:38:53Z</time>
      </trkpt>
      <trkpt lat="47.68564" lon="6.19995">
        <ele>297</ele>
        <time>2012-08-29T08:38:54Z</time>
      </trkpt>
      <trkpt lat="47.68563" lon="6.1999">
        <ele>296.60000610352</ele>
        <time>2012-08-29T08:38:55Z</time>
      </trkpt>
      <trkpt lat="47.68563" lon="6.19986">
        <ele>296.20001220703</ele>
        <time>2012-08-29T08:38:56Z</time>
      </trkpt>
      <trkpt lat="47.6856" lon="6.19977">
        <ele>296.20001220703</ele>
        <time>2012-08-29T08:38:58Z</time>
      </trkpt>
      <trkpt lat="47.68557" lon="6.19946">
        <ele>296.20001220703</ele>
        <time>2012-08-29T08:39:05Z</time>
      </trkpt>
      <trkpt lat="47.68546" lon="6.19906">
        <ele>296.20001220703</ele>
        <time>2012-08-29T08:39:13Z</time>
      </trkpt>
      <trkpt lat="47.68544" lon="6.19884">
        <ele>295.79998779297</ele>
        <time>2012-08-29T08:39:17Z</time>
      </trkpt>
      <trkpt lat="47.68544" lon="6.1988">
        <ele>295.39999389648</ele>
        <time>2012-08-29T08:39:18Z</time>
      </trkpt>
      <trkpt lat="47.68544" lon="6.19876">
        <ele>295</ele>
        <time>2012-08-29T08:39:19Z</time>
      </trkpt>
      <trkpt lat="47.68544" lon="6.19872">
        <ele>294.60000610352</ele>
        <time>2012-08-29T08:39:20Z</time>
      </trkpt>
      <trkpt lat="47.68543" lon="6.19868">
        <ele>294.20001220703</ele>
        <time>2012-08-29T08:39:21Z</time>
      </trkpt>
      <trkpt lat="47.68545" lon="6.19842">
        <ele>294.20001220703</ele>
        <time>2012-08-29T08:39:27Z</time>
      </trkpt>
      <trkpt lat="47.68542" lon="6.19825">
        <ele>294.20001220703</ele>
        <time>2012-08-29T08:39:32Z</time>
      </trkpt>
      <trkpt lat="47.68536" lon="6.19804">
        <ele>294.20001220703</ele>
        <time>2012-08-29T08:39:37Z</time>
      </trkpt>
      <trkpt lat="47.68534" lon="6.19798">
        <ele>294.20001220703</ele>
        <time>2012-08-29T08:39:39Z</time>
      </trkpt>
      <trkpt lat="47.68532" lon="6.19789">
        <ele>294.20001220703</ele>
        <time>2012-08-29T08:39:42Z</time>
      </trkpt>
      <trkpt lat="47.68525" lon="6.19774">
        <ele>294.20001220703</ele>
        <time>2012-08-29T08:39:48Z</time>
      </trkpt>
      <trkpt lat="47.68518" lon="6.1976">
        <ele>294.20001220703</ele>
        <time>2012-08-29T08:39:55Z</time>
      </trkpt>
      <trkpt lat="47.68512" lon="6.19744">
        <ele>294.20001220703</ele>
        <time>2012-08-29T08:40:03Z</time>
      </trkpt>
      <trkpt lat="47.685" lon="6.19722">
        <ele>294.20001220703</ele>
        <time>2012-08-29T08:40:10Z</time>
      </trkpt>
      <trkpt lat="47.6849" lon="6.19704">
        <ele>294.20001220703</ele>
        <time>2012-08-29T08:40:16Z</time>
      </trkpt>
      <trkpt lat="47.68483" lon="6.19692">
        <ele>294.20001220703</ele>
        <time>2012-08-29T08:40:21Z</time>
      </trkpt>
      <trkpt lat="47.68475" lon="6.19675">
        <ele>294.20001220703</ele>
        <time>2012-08-29T08:40:28Z</time>
      </trkpt>
      <trkpt lat="47.68473" lon="6.19668">
        <ele>294.20001220703</ele>
        <time>2012-08-29T08:40:31Z</time>
      </trkpt>
      <trkpt lat="47.68472" lon="6.19666">
        <ele>294.60000610352</ele>
        <time>2012-08-29T08:40:32Z</time>
      </trkpt>
      <trkpt lat="47.68471" lon="6.19663">
        <ele>295</ele>
        <time>2012-08-29T08:40:33Z</time>
      </trkpt>
      <trkpt lat="47.6847" lon="6.19658">
        <ele>295.39999389648</ele>
        <time>2012-08-29T08:40:34Z</time>
      </trkpt>
      <trkpt lat="47.68468" lon="6.19653">
        <ele>295.79998779297</ele>
        <time>2012-08-29T08:40:35Z</time>
      </trkpt>
      <trkpt lat="47.68465" lon="6.19649">
        <ele>296.20001220703</ele>
        <time>2012-08-29T08:40:36Z</time>
      </trkpt>
      <trkpt lat="47.68464" lon="6.19645">
        <ele>296.20001220703</ele>
        <time>2012-08-29T08:40:37Z</time>
      </trkpt>
      <trkpt lat="47.68461" lon="6.19636">
        <ele>296.20001220703</ele>
        <time>2012-08-29T08:40:40Z</time>
      </trkpt>
      <trkpt lat="47.6846" lon="6.19629">
        <ele>296.20001220703</ele>
        <time>2012-08-29T08:40:43Z</time>
      </trkpt>
      <trkpt lat="47.68456" lon="6.19612">
        <ele>296.20001220703</ele>
        <time>2012-08-29T08:40:49Z</time>
      </trkpt>
      <trkpt lat="47.68455" lon="6.19601">
        <ele>296.60000610352</ele>
        <time>2012-08-29T08:40:53Z</time>
      </trkpt>
      <trkpt lat="47.68454" lon="6.19599">
        <ele>297.20001220703</ele>
        <time>2012-08-29T08:40:54Z</time>
      </trkpt>
      <trkpt lat="47.68453" lon="6.19596">
        <ele>297.60000610352</ele>
        <time>2012-08-29T08:40:55Z</time>
      </trkpt>
      <trkpt lat="47.68452" lon="6.19594">
        <ele>298</ele>
        <time>2012-08-29T08:40:56Z</time>
      </trkpt>
      <trkpt lat="47.68451" lon="6.19591">
        <ele>298.39999389648</ele>
        <time>2012-08-29T08:40:57Z</time>
      </trkpt>
      <trkpt lat="47.68447" lon="6.19578">
        <ele>298.39999389648</ele>
        <time>2012-08-29T08:41:03Z</time>
      </trkpt>
      <trkpt lat="47.68445" lon="6.19565">
        <ele>298.39999389648</ele>
        <time>2012-08-29T08:41:09Z</time>
      </trkpt>
      <trkpt lat="47.68442" lon="6.1955">
        <ele>298.79998779297</ele>
        <time>2012-08-29T08:41:15Z</time>
      </trkpt>
      <trkpt lat="47.68441" lon="6.19548">
        <ele>299.20001220703</ele>
        <time>2012-08-29T08:41:16Z</time>
      </trkpt>
      <trkpt lat="47.6844" lon="6.19546">
        <ele>299.60000610352</ele>
        <time>2012-08-29T08:41:17Z</time>
      </trkpt>
      <trkpt lat="47.68439" lon="6.19543">
        <ele>300</ele>
        <time>2012-08-29T08:41:18Z</time>
      </trkpt>
      <trkpt lat="47.68438" lon="6.19541">
        <ele>300.39999389648</ele>
        <time>2012-08-29T08:41:19Z</time>
      </trkpt>
      <trkpt lat="47.68437" lon="6.19539">
        <ele>300.39999389648</ele>
        <time>2012-08-29T08:41:20Z</time>
      </trkpt>
      <trkpt lat="47.68434" lon="6.19523">
        <ele>300.39999389648</ele>
        <time>2012-08-29T08:41:26Z</time>
      </trkpt>
      <trkpt lat="47.68426" lon="6.19497">
        <ele>300.39999389648</ele>
        <time>2012-08-29T08:41:33Z</time>
      </trkpt>
      <trkpt lat="47.68421" lon="6.19484">
        <ele>300.39999389648</ele>
        <time>2012-08-29T08:41:39Z</time>
      </trkpt>
      <trkpt lat="47.6842" lon="6.19482">
        <ele>300.79998779297</ele>
        <time>2012-08-29T08:41:40Z</time>
      </trkpt>
      <trkpt lat="47.68419" lon="6.1948">
        <ele>301.20001220703</ele>
        <time>2012-08-29T08:41:41Z</time>
      </trkpt>
      <trkpt lat="47.68419" lon="6.19478">
        <ele>301.60000610352</ele>
        <time>2012-08-29T08:41:42Z</time>
      </trkpt>
      <trkpt lat="47.68418" lon="6.19475">
        <ele>302</ele>
        <time>2012-08-29T08:41:43Z</time>
      </trkpt>
      <trkpt lat="47.68417" lon="6.19472">
        <ele>302.39999389648</ele>
        <time>2012-08-29T08:41:44Z</time>
      </trkpt>
      <trkpt lat="47.68416" lon="6.19469">
        <ele>302.39999389648</ele>
        <time>2012-08-29T08:41:45Z</time>
      </trkpt>
      <trkpt lat="47.68416" lon="6.19462">
        <ele>302.39999389648</ele>
        <time>2012-08-29T08:41:50Z</time>
      </trkpt>
      <trkpt lat="47.68418" lon="6.19462">
        <ele>302.39999389648</ele>
        <time>2012-08-29T08:43:18Z</time>
      </trkpt>
      <trkpt lat="47.68423" lon="6.19468">
        <ele>302.39999389648</ele>
        <time>2012-08-29T08:43:20Z</time>
      </trkpt>
      <trkpt lat="47.68438" lon="6.19486">
        <ele>302</ele>
        <time>2012-08-29T08:43:24Z</time>
      </trkpt>
      <trkpt lat="47.68442" lon="6.19492">
        <ele>301.60000610352</ele>
        <time>2012-08-29T08:43:25Z</time>
      </trkpt>
      <trkpt lat="47.68446" lon="6.19498">
        <ele>301.20001220703</ele>
        <time>2012-08-29T08:43:26Z</time>
      </trkpt>
      <trkpt lat="47.6845" lon="6.19503">
        <ele>300.79998779297</ele>
        <time>2012-08-29T08:43:27Z</time>
      </trkpt>
      <trkpt lat="47.68454" lon="6.19509">
        <ele>300.20001220703</ele>
        <time>2012-08-29T08:43:28Z</time>
      </trkpt>
      <trkpt lat="47.68458" lon="6.19515">
        <ele>299.60000610352</ele>
        <time>2012-08-29T08:43:29Z</time>
      </trkpt>
      <trkpt lat="47.68462" lon="6.19521">
        <ele>299</ele>
        <time>2012-08-29T08:43:30Z</time>
      </trkpt>
      <trkpt lat="47.68466" lon="6.19526">
        <ele>298.39999389648</ele>
        <time>2012-08-29T08:43:31Z</time>
      </trkpt>
      <trkpt lat="47.68469" lon="6.1953">
        <ele>297.60000610352</ele>
        <time>2012-08-29T08:43:32Z</time>
      </trkpt>
      <trkpt lat="47.68472" lon="6.19534">
        <ele>297</ele>
        <time>2012-08-29T08:43:33Z</time>
      </trkpt>
      <trkpt lat="47.68475" lon="6.19538">
        <ele>295.60000610352</ele>
        <time>2012-08-29T08:43:34Z</time>
      </trkpt>
      <trkpt lat="47.68479" lon="6.19542">
        <ele>295</ele>
        <time>2012-08-29T08:43:35Z</time>
      </trkpt>
      <trkpt lat="47.68483" lon="6.19545">
        <ele>294.20001220703</ele>
        <time>2012-08-29T08:43:36Z</time>
      </trkpt>
      <trkpt lat="47.68486" lon="6.19548">
        <ele>293.79998779297</ele>
        <time>2012-08-29T08:43:37Z</time>
      </trkpt>
      <trkpt lat="47.6849" lon="6.19551">
        <ele>293.20001220703</ele>
        <time>2012-08-29T08:43:38Z</time>
      </trkpt>
      <trkpt lat="47.68493" lon="6.19553">
        <ele>292.60000610352</ele>
        <time>2012-08-29T08:43:39Z</time>
      </trkpt>
      <trkpt lat="47.68497" lon="6.19556">
        <ele>292</ele>
        <time>2012-08-29T08:43:40Z</time>
      </trkpt>
      <trkpt lat="47.68501" lon="6.1956">
        <ele>291.39999389648</ele>
        <time>2012-08-29T08:43:41Z</time>
      </trkpt>
      <trkpt lat="47.68505" lon="6.19563">
        <ele>290.79998779297</ele>
        <time>2012-08-29T08:43:42Z</time>
      </trkpt>
      <trkpt lat="47.68509" lon="6.19567">
        <ele>290.39999389648</ele>
        <time>2012-08-29T08:43:43Z</time>
      </trkpt>
      <trkpt lat="47.68513" lon="6.19571">
        <ele>289.79998779297</ele>
        <time>2012-08-29T08:43:44Z</time>
      </trkpt>
      <trkpt lat="47.68517" lon="6.19574">
        <ele>289.20001220703</ele>
        <time>2012-08-29T08:43:45Z</time>
      </trkpt>
      <trkpt lat="47.6852" lon="6.19579">
        <ele>288.79998779297</ele>
        <time>2012-08-29T08:43:46Z</time>
      </trkpt>
      <trkpt lat="47.68524" lon="6.19583">
        <ele>288.20001220703</ele>
        <time>2012-08-29T08:43:47Z</time>
      </trkpt>
      <trkpt lat="47.68527" lon="6.19587">
        <ele>287.60000610352</ele>
        <time>2012-08-29T08:43:48Z</time>
      </trkpt>
      <trkpt lat="47.6853" lon="6.19591">
        <ele>287</ele>
        <time>2012-08-29T08:43:49Z</time>
      </trkpt>
      <trkpt lat="47.68533" lon="6.19594">
        <ele>286.39999389648</ele>
        <time>2012-08-29T08:43:50Z</time>
      </trkpt>
      <trkpt lat="47.68537" lon="6.19598">
        <ele>286</ele>
        <time>2012-08-29T08:43:51Z</time>
      </trkpt>
      <trkpt lat="47.6854" lon="6.19601">
        <ele>285.39999389648</ele>
        <time>2012-08-29T08:43:52Z</time>
      </trkpt>
      <trkpt lat="47.68543" lon="6.19605">
        <ele>284.79998779297</ele>
        <time>2012-08-29T08:43:53Z</time>
      </trkpt>
      <trkpt lat="47.68546" lon="6.19609">
        <ele>284.39999389648</ele>
        <time>2012-08-29T08:43:54Z</time>
      </trkpt>
      <trkpt lat="47.6855" lon="6.19613">
        <ele>283.79998779297</ele>
        <time>2012-08-29T08:43:55Z</time>
      </trkpt>
      <trkpt lat="47.68554" lon="6.19617">
        <ele>283.39999389648</ele>
        <time>2012-08-29T08:43:56Z</time>
      </trkpt>
      <trkpt lat="47.68557" lon="6.19622">
        <ele>283</ele>
        <time>2012-08-29T08:43:57Z</time>
      </trkpt>
      <trkpt lat="47.68561" lon="6.19626">
        <ele>282.60000610352</ele>
        <time>2012-08-29T08:43:58Z</time>
      </trkpt>
      <trkpt lat="47.68564" lon="6.19629">
        <ele>281.60000610352</ele>
        <time>2012-08-29T08:43:59Z</time>
      </trkpt>
      <trkpt lat="47.68567" lon="6.19633">
        <ele>281</ele>
        <time>2012-08-29T08:44:00Z</time>
      </trkpt>
      <trkpt lat="47.6857" lon="6.19637">
        <ele>280.60000610352</ele>
        <time>2012-08-29T08:44:01Z</time>
      </trkpt>
      <trkpt lat="47.68574" lon="6.1964">
        <ele>280</ele>
        <time>2012-08-29T08:44:02Z</time>
      </trkpt>
      <trkpt lat="47.68577" lon="6.19643">
        <ele>279.39999389648</ele>
        <time>2012-08-29T08:44:03Z</time>
      </trkpt>
      <trkpt lat="47.6858" lon="6.19646">
        <ele>279</ele>
        <time>2012-08-29T08:44:04Z</time>
      </trkpt>
      <trkpt lat="47.68583" lon="6.19649">
        <ele>278.39999389648</ele>
        <time>2012-08-29T08:44:05Z</time>
      </trkpt>
      <trkpt lat="47.68586" lon="6.19652">
        <ele>278</ele>
        <time>2012-08-29T08:44:06Z</time>
      </trkpt>
      <trkpt lat="47.68589" lon="6.19654">
        <ele>277.39999389648</ele>
        <time>2012-08-29T08:44:07Z</time>
      </trkpt>
      <trkpt lat="47.68591" lon="6.19655">
        <ele>277</ele>
        <time>2012-08-29T08:44:08Z</time>
      </trkpt>
      <trkpt lat="47.68594" lon="6.19657">
        <ele>276.60000610352</ele>
        <time>2012-08-29T08:44:09Z</time>
      </trkpt>
      <trkpt lat="47.68597" lon="6.19658">
        <ele>276</ele>
        <time>2012-08-29T08:44:10Z</time>
      </trkpt>
      <trkpt lat="47.686" lon="6.19659">
        <ele>275.60000610352</ele>
        <time>2012-08-29T08:44:11Z</time>
      </trkpt>
      <trkpt lat="47.68604" lon="6.19661">
        <ele>275.20001220703</ele>
        <time>2012-08-29T08:44:12Z</time>
      </trkpt>
      <trkpt lat="47.68608" lon="6.19662">
        <ele>274.60000610352</ele>
        <time>2012-08-29T08:44:13Z</time>
      </trkpt>
      <trkpt lat="47.68612" lon="6.19663">
        <ele>274.20001220703</ele>
        <time>2012-08-29T08:44:14Z</time>
      </trkpt>
      <trkpt lat="47.68615" lon="6.19664">
        <ele>273.79998779297</ele>
        <time>2012-08-29T08:44:15Z</time>
      </trkpt>
      <trkpt lat="47.68619" lon="6.19666">
        <ele>273.20001220703</ele>
        <time>2012-08-29T08:44:16Z</time>
      </trkpt>
      <trkpt lat="47.68623" lon="6.19666">
        <ele>272.79998779297</ele>
        <time>2012-08-29T08:44:17Z</time>
      </trkpt>
      <trkpt lat="47.68626" lon="6.19667">
        <ele>272.39999389648</ele>
        <time>2012-08-29T08:44:18Z</time>
      </trkpt>
      <trkpt lat="47.68629" lon="6.19668">
        <ele>272</ele>
        <time>2012-08-29T08:44:19Z</time>
      </trkpt>
      <trkpt lat="47.68632" lon="6.19668">
        <ele>271.60000610352</ele>
        <time>2012-08-29T08:44:20Z</time>
      </trkpt>
      <trkpt lat="47.68636" lon="6.1967">
        <ele>271</ele>
        <time>2012-08-29T08:44:21Z</time>
      </trkpt>
      <trkpt lat="47.68643" lon="6.19673">
        <ele>270.60000610352</ele>
        <time>2012-08-29T08:44:23Z</time>
      </trkpt>
      <trkpt lat="47.68647" lon="6.19675">
        <ele>269.79998779297</ele>
        <time>2012-08-29T08:44:24Z</time>
      </trkpt>
      <trkpt lat="47.68651" lon="6.19678">
        <ele>269.20001220703</ele>
        <time>2012-08-29T08:44:25Z</time>
      </trkpt>
      <trkpt lat="47.68656" lon="6.1968">
        <ele>268.79998779297</ele>
        <time>2012-08-29T08:44:26Z</time>
      </trkpt>
      <trkpt lat="47.6866" lon="6.19684">
        <ele>268.39999389648</ele>
        <time>2012-08-29T08:44:27Z</time>
      </trkpt>
      <trkpt lat="47.68665" lon="6.19687">
        <ele>268</ele>
        <time>2012-08-29T08:44:28Z</time>
      </trkpt>
      <trkpt lat="47.68668" lon="6.19688">
        <ele>267.60000610352</ele>
        <time>2012-08-29T08:44:29Z</time>
      </trkpt>
      <trkpt lat="47.68671" lon="6.1969">
        <ele>267</ele>
        <time>2012-08-29T08:44:30Z</time>
      </trkpt>
      <trkpt lat="47.68676" lon="6.19691">
        <ele>266.60000610352</ele>
        <time>2012-08-29T08:44:31Z</time>
      </trkpt>
      <trkpt lat="47.6868" lon="6.19691">
        <ele>266.20001220703</ele>
        <time>2012-08-29T08:44:32Z</time>
      </trkpt>
      <trkpt lat="47.68683" lon="6.19691">
        <ele>265.79998779297</ele>
        <time>2012-08-29T08:44:33Z</time>
      </trkpt>
      <trkpt lat="47.68685" lon="6.19689">
        <ele>265.39999389648</ele>
        <time>2012-08-29T08:44:34Z</time>
      </trkpt>
      <trkpt lat="47.68688" lon="6.19689">
        <ele>265</ele>
        <time>2012-08-29T08:44:35Z</time>
      </trkpt>
      <trkpt lat="47.68691" lon="6.19689">
        <ele>264.39999389648</ele>
        <time>2012-08-29T08:44:36Z</time>
      </trkpt>
      <trkpt lat="47.687" lon="6.19688">
        <ele>264</ele>
        <time>2012-08-29T08:44:38Z</time>
      </trkpt>
      <trkpt lat="47.68706" lon="6.19686">
        <ele>263.60000610352</ele>
        <time>2012-08-29T08:44:39Z</time>
      </trkpt>
      <trkpt lat="47.68712" lon="6.19685">
        <ele>263.20001220703</ele>
        <time>2012-08-29T08:44:40Z</time>
      </trkpt>
      <trkpt lat="47.68719" lon="6.19684">
        <ele>262.79998779297</ele>
        <time>2012-08-29T08:44:41Z</time>
      </trkpt>
      <trkpt lat="47.68726" lon="6.19683">
        <ele>262.39999389648</ele>
        <time>2012-08-29T08:44:42Z</time>
      </trkpt>
      <trkpt lat="47.68746" lon="6.1968">
        <ele>262</ele>
        <time>2012-08-29T08:44:45Z</time>
      </trkpt>
      <trkpt lat="47.68752" lon="6.19679">
        <ele>261.60000610352</ele>
        <time>2012-08-29T08:44:46Z</time>
      </trkpt>
      <trkpt lat="47.68759" lon="6.19678">
        <ele>261.20001220703</ele>
        <time>2012-08-29T08:44:47Z</time>
      </trkpt>
      <trkpt lat="47.68766" lon="6.19676">
        <ele>260.39999389648</ele>
        <time>2012-08-29T08:44:48Z</time>
      </trkpt>
      <trkpt lat="47.68773" lon="6.19675">
        <ele>260.39999389648</ele>
        <time>2012-08-29T08:44:49Z</time>
      </trkpt>
      <trkpt lat="47.68812" lon="6.19668">
        <ele>260.39999389648</ele>
        <time>2012-08-29T08:44:56Z</time>
      </trkpt>
      <trkpt lat="47.68831" lon="6.19662">
        <ele>260.39999389648</ele>
        <time>2012-08-29T08:45:02Z</time>
      </trkpt>
      <trkpt lat="47.68841" lon="6.19657">
        <ele>260.39999389648</ele>
        <time>2012-08-29T08:45:08Z</time>
      </trkpt>
      <trkpt lat="47.68857" lon="6.19651">
        <ele>260.39999389648</ele>
        <time>2012-08-29T08:45:15Z</time>
      </trkpt>
      <trkpt lat="47.6886" lon="6.1965">
        <ele>260.79998779297</ele>
        <time>2012-08-29T08:45:16Z</time>
      </trkpt>
      <trkpt lat="47.68863" lon="6.19648">
        <ele>261.39999389648</ele>
        <time>2012-08-29T08:45:17Z</time>
      </trkpt>
      <trkpt lat="47.68865" lon="6.19647">
        <ele>261.79998779297</ele>
        <time>2012-08-29T08:45:18Z</time>
      </trkpt>
      <trkpt lat="47.68868" lon="6.19646">
        <ele>262.20001220703</ele>
        <time>2012-08-29T08:45:19Z</time>
      </trkpt>
      <trkpt lat="47.6887" lon="6.19645">
        <ele>262.60000610352</ele>
        <time>2012-08-29T08:45:20Z</time>
      </trkpt>
      <trkpt lat="47.68875" lon="6.19644">
        <ele>262.60000610352</ele>
        <time>2012-08-29T08:45:22Z</time>
      </trkpt>
      <trkpt lat="47.68892" lon="6.19639">
        <ele>263</ele>
        <time>2012-08-29T08:45:29Z</time>
      </trkpt>
      <trkpt lat="47.68894" lon="6.19639">
        <ele>263.39999389648</ele>
        <time>2012-08-29T08:45:30Z</time>
      </trkpt>
      <trkpt lat="47.68897" lon="6.19639">
        <ele>263.79998779297</ele>
        <time>2012-08-29T08:45:31Z</time>
      </trkpt>
      <trkpt lat="47.689" lon="6.19639">
        <ele>264.20001220703</ele>
        <time>2012-08-29T08:45:32Z</time>
      </trkpt>
      <trkpt lat="47.68903" lon="6.19639">
        <ele>264.60000610352</ele>
        <time>2012-08-29T08:45:33Z</time>
      </trkpt>
      <trkpt lat="47.68913" lon="6.19641">
        <ele>264.60000610352</ele>
        <time>2012-08-29T08:45:36Z</time>
      </trkpt>
      <trkpt lat="47.68935" lon="6.19655">
        <ele>264.60000610352</ele>
        <time>2012-08-29T08:45:43Z</time>
      </trkpt>
      <trkpt lat="47.68957" lon="6.19669">
        <ele>264.60000610352</ele>
        <time>2012-08-29T08:45:50Z</time>
      </trkpt>
      <trkpt lat="47.68962" lon="6.1967">
        <ele>264.60000610352</ele>
        <time>2012-08-29T08:45:51Z</time>
      </trkpt>
      <trkpt lat="47.6898" lon="6.19669">
        <ele>264.60000610352</ele>
        <time>2012-08-29T08:45:55Z</time>
      </trkpt>
      <trkpt lat="47.69015" lon="6.19661">
        <ele>264.60000610352</ele>
        <time>2012-08-29T08:46:01Z</time>
      </trkpt>
      <trkpt lat="47.69021" lon="6.1966">
        <ele>264.20001220703</ele>
        <time>2012-08-29T08:46:02Z</time>
      </trkpt>
      <trkpt lat="47.69028" lon="6.19658">
        <ele>263.20001220703</ele>
        <time>2012-08-29T08:46:03Z</time>
      </trkpt>
      <trkpt lat="47.69035" lon="6.19656">
        <ele>262.79998779297</ele>
        <time>2012-08-29T08:46:04Z</time>
      </trkpt>
      <trkpt lat="47.69042" lon="6.19654">
        <ele>262.20001220703</ele>
        <time>2012-08-29T08:46:05Z</time>
      </trkpt>
      <trkpt lat="47.69057" lon="6.19651">
        <ele>262.20001220703</ele>
        <time>2012-08-29T08:46:07Z</time>
      </trkpt>
      <trkpt lat="47.69064" lon="6.19649">
        <ele>261.79998779297</ele>
        <time>2012-08-29T08:46:08Z</time>
      </trkpt>
      <trkpt lat="47.69072" lon="6.19648">
        <ele>261.39999389648</ele>
        <time>2012-08-29T08:46:09Z</time>
      </trkpt>
      <trkpt lat="47.69079" lon="6.19646">
        <ele>261</ele>
        <time>2012-08-29T08:46:10Z</time>
      </trkpt>
      <trkpt lat="47.69087" lon="6.19644">
        <ele>260.60000610352</ele>
        <time>2012-08-29T08:46:11Z</time>
      </trkpt>
      <trkpt lat="47.69095" lon="6.19641">
        <ele>260</ele>
        <time>2012-08-29T08:46:12Z</time>
      </trkpt>
      <trkpt lat="47.6911" lon="6.19636">
        <ele>259.60000610352</ele>
        <time>2012-08-29T08:46:14Z</time>
      </trkpt>
      <trkpt lat="47.69118" lon="6.19633">
        <ele>259.20001220703</ele>
        <time>2012-08-29T08:46:15Z</time>
      </trkpt>
      <trkpt lat="47.69126" lon="6.1963">
        <ele>258.60000610352</ele>
        <time>2012-08-29T08:46:16Z</time>
      </trkpt>
      <trkpt lat="47.69133" lon="6.19627">
        <ele>258.20001220703</ele>
        <time>2012-08-29T08:46:17Z</time>
      </trkpt>
      <trkpt lat="47.69141" lon="6.19624">
        <ele>257.60000610352</ele>
        <time>2012-08-29T08:46:18Z</time>
      </trkpt>
      <trkpt lat="47.69156" lon="6.19619">
        <ele>257.20001220703</ele>
        <time>2012-08-29T08:46:20Z</time>
      </trkpt>
      <trkpt lat="47.69164" lon="6.19615">
        <ele>256.79998779297</ele>
        <time>2012-08-29T08:46:21Z</time>
      </trkpt>
      <trkpt lat="47.69172" lon="6.19612">
        <ele>256.20001220703</ele>
        <time>2012-08-29T08:46:22Z</time>
      </trkpt>
      <trkpt lat="47.69179" lon="6.19609">
        <ele>255.80000305176</ele>
        <time>2012-08-29T08:46:23Z</time>
      </trkpt>
      <trkpt lat="47.69187" lon="6.19606">
        <ele>255.39999389648</ele>
        <time>2012-08-29T08:46:24Z</time>
      </trkpt>
      <trkpt lat="47.69195" lon="6.19603">
        <ele>254.80000305176</ele>
        <time>2012-08-29T08:46:25Z</time>
      </trkpt>
      <trkpt lat="47.69202" lon="6.196">
        <ele>254.19999694824</ele>
        <time>2012-08-29T08:46:26Z</time>
      </trkpt>
      <trkpt lat="47.69211" lon="6.19596">
        <ele>253.80000305176</ele>
        <time>2012-08-29T08:46:27Z</time>
      </trkpt>
      <trkpt lat="47.69218" lon="6.19594">
        <ele>252.80000305176</ele>
        <time>2012-08-29T08:46:28Z</time>
      </trkpt>
      <trkpt lat="47.69226" lon="6.19591">
        <ele>252.39999389648</ele>
        <time>2012-08-29T08:46:29Z</time>
      </trkpt>
      <trkpt lat="47.69234" lon="6.19588">
        <ele>252</ele>
        <time>2012-08-29T08:46:30Z</time>
      </trkpt>
      <trkpt lat="47.69241" lon="6.19585">
        <ele>251.60000610352</ele>
        <time>2012-08-29T08:46:31Z</time>
      </trkpt>
      <trkpt lat="47.69248" lon="6.19582">
        <ele>251.19999694824</ele>
        <time>2012-08-29T08:46:32Z</time>
      </trkpt>
      <trkpt lat="47.69256" lon="6.19579">
        <ele>251.19999694824</ele>
        <time>2012-08-29T08:46:33Z</time>
      </trkpt>
      <trkpt lat="47.69284" lon="6.19564">
        <ele>250.60000610352</ele>
        <time>2012-08-29T08:46:37Z</time>
      </trkpt>
      <trkpt lat="47.6929" lon="6.1956">
        <ele>250.19999694824</ele>
        <time>2012-08-29T08:46:38Z</time>
      </trkpt>
      <trkpt lat="47.69297" lon="6.19556">
        <ele>249.80000305176</ele>
        <time>2012-08-29T08:46:39Z</time>
      </trkpt>
      <trkpt lat="47.69303" lon="6.19552">
        <ele>249.39999389648</ele>
        <time>2012-08-29T08:46:40Z</time>
      </trkpt>
      <trkpt lat="47.69309" lon="6.19547">
        <ele>249</ele>
        <time>2012-08-29T08:46:41Z</time>
      </trkpt>
      <trkpt lat="47.69331" lon="6.19529">
        <ele>249</ele>
        <time>2012-08-29T08:46:45Z</time>
      </trkpt>
      <trkpt lat="47.69363" lon="6.19503">
        <ele>249</ele>
        <time>2012-08-29T08:46:52Z</time>
      </trkpt>
      <trkpt lat="47.69367" lon="6.19499">
        <ele>249</ele>
        <time>2012-08-29T08:46:53Z</time>
      </trkpt>
      <trkpt lat="47.69375" lon="6.19493">
        <ele>249</ele>
        <time>2012-08-29T08:46:55Z</time>
      </trkpt>
      <trkpt lat="47.69378" lon="6.19491">
        <ele>249</ele>
        <time>2012-08-29T08:46:56Z</time>
      </trkpt>
      <trkpt lat="47.69382" lon="6.19487">
        <ele>249</ele>
        <time>2012-08-29T08:46:57Z</time>
      </trkpt>
      <trkpt lat="47.69398" lon="6.19471">
        <ele>249</ele>
        <time>2012-08-29T08:47:02Z</time>
      </trkpt>
      <trkpt lat="47.69421" lon="6.19443">
        <ele>249</ele>
        <time>2012-08-29T08:47:10Z</time>
      </trkpt>
      <trkpt lat="47.69432" lon="6.19421">
        <ele>249</ele>
        <time>2012-08-29T08:47:16Z</time>
      </trkpt>
      <trkpt lat="47.69439" lon="6.1939">
        <ele>249</ele>
        <time>2012-08-29T08:47:24Z</time>
      </trkpt>
      <trkpt lat="47.69448" lon="6.19372">
        <ele>249.39999389648</ele>
        <time>2012-08-29T08:47:29Z</time>
      </trkpt>
      <trkpt lat="47.6945" lon="6.1937">
        <ele>249.80000305176</ele>
        <time>2012-08-29T08:47:30Z</time>
      </trkpt>
      <trkpt lat="47.69452" lon="6.19367">
        <ele>250.19999694824</ele>
        <time>2012-08-29T08:47:31Z</time>
      </trkpt>
      <trkpt lat="47.69455" lon="6.19364">
        <ele>250.60000610352</ele>
        <time>2012-08-29T08:47:32Z</time>
      </trkpt>
      <trkpt lat="47.69457" lon="6.19361">
        <ele>251</ele>
        <time>2012-08-29T08:47:33Z</time>
      </trkpt>
      <trkpt lat="47.69473" lon="6.19341">
        <ele>251</ele>
        <time>2012-08-29T08:47:38Z</time>
      </trkpt>
      <trkpt lat="47.69481" lon="6.19333">
        <ele>251</ele>
        <time>2012-08-29T08:47:40Z</time>
      </trkpt>
      <trkpt lat="47.69491" lon="6.19322">
        <ele>251</ele>
        <time>2012-08-29T08:47:42Z</time>
      </trkpt>
      <trkpt lat="47.69496" lon="6.19317">
        <ele>251</ele>
        <time>2012-08-29T08:47:43Z</time>
      </trkpt>
      <trkpt lat="47.69501" lon="6.19313">
        <ele>250.60000610352</ele>
        <time>2012-08-29T08:47:44Z</time>
      </trkpt>
      <trkpt lat="47.69507" lon="6.19308">
        <ele>250.19999694824</ele>
        <time>2012-08-29T08:47:45Z</time>
      </trkpt>
      <trkpt lat="47.69512" lon="6.19303">
        <ele>249.80000305176</ele>
        <time>2012-08-29T08:47:46Z</time>
      </trkpt>
      <trkpt lat="47.69518" lon="6.19299">
        <ele>249.39999389648</ele>
        <time>2012-08-29T08:47:47Z</time>
      </trkpt>
      <trkpt lat="47.69524" lon="6.19294">
        <ele>249</ele>
        <time>2012-08-29T08:47:48Z</time>
      </trkpt>
      <trkpt lat="47.69531" lon="6.1929">
        <ele>249</ele>
        <time>2012-08-29T08:47:49Z</time>
      </trkpt>
      <trkpt lat="47.69538" lon="6.19286">
        <ele>248.39999389648</ele>
        <time>2012-08-29T08:47:50Z</time>
      </trkpt>
      <trkpt lat="47.69545" lon="6.19283">
        <ele>248</ele>
        <time>2012-08-29T08:47:51Z</time>
      </trkpt>
      <trkpt lat="47.69551" lon="6.19282">
        <ele>247.60000610352</ele>
        <time>2012-08-29T08:47:52Z</time>
      </trkpt>
      <trkpt lat="47.69558" lon="6.19281">
        <ele>247.19999694824</ele>
        <time>2012-08-29T08:47:53Z</time>
      </trkpt>
      <trkpt lat="47.69565" lon="6.19279">
        <ele>246.80000305176</ele>
        <time>2012-08-29T08:47:54Z</time>
      </trkpt>
      <trkpt lat="47.69604" lon="6.1927">
        <ele>246.80000305176</ele>
        <time>2012-08-29T08:48:01Z</time>
      </trkpt>
      <trkpt lat="47.69627" lon="6.19259">
        <ele>246.80000305176</ele>
        <time>2012-08-29T08:48:07Z</time>
      </trkpt>
      <trkpt lat="47.69653" lon="6.19245">
        <ele>246.80000305176</ele>
        <time>2012-08-29T08:48:15Z</time>
      </trkpt>
      <trkpt lat="47.6968" lon="6.19226">
        <ele>246.80000305176</ele>
        <time>2012-08-29T08:48:23Z</time>
      </trkpt>
      <trkpt lat="47.69709" lon="6.192">
        <ele>246.80000305176</ele>
        <time>2012-08-29T08:48:30Z</time>
      </trkpt>
      <trkpt lat="47.69718" lon="6.19192">
        <ele>246.80000305176</ele>
        <time>2012-08-29T08:48:32Z</time>
      </trkpt>
      <trkpt lat="47.69731" lon="6.1918">
        <ele>246.80000305176</ele>
        <time>2012-08-29T08:48:35Z</time>
      </trkpt>
      <trkpt lat="47.69765" lon="6.19154">
        <ele>246.80000305176</ele>
        <time>2012-08-29T08:48:43Z</time>
      </trkpt>
      <trkpt lat="47.69793" lon="6.19134">
        <ele>246.80000305176</ele>
        <time>2012-08-29T08:48:50Z</time>
      </trkpt>
      <trkpt lat="47.69813" lon="6.19118">
        <ele>246.80000305176</ele>
        <time>2012-08-29T08:48:56Z</time>
      </trkpt>
      <trkpt lat="47.69819" lon="6.19109">
        <ele>246.80000305176</ele>
        <time>2012-08-29T08:48:58Z</time>
      </trkpt>
      <trkpt lat="47.69821" lon="6.19104">
        <ele>246.80000305176</ele>
        <time>2012-08-29T08:48:59Z</time>
      </trkpt>
      <trkpt lat="47.69822" lon="6.19098">
        <ele>246.80000305176</ele>
        <time>2012-08-29T08:49:00Z</time>
      </trkpt>
      <trkpt lat="47.69821" lon="6.19077">
        <ele>246.80000305176</ele>
        <time>2012-08-29T08:49:04Z</time>
      </trkpt>
      <trkpt lat="47.6982" lon="6.19072">
        <ele>246.80000305176</ele>
        <time>2012-08-29T08:49:05Z</time>
      </trkpt>
      <trkpt lat="47.69817" lon="6.19034">
        <ele>246.80000305176</ele>
        <time>2012-08-29T08:49:13Z</time>
      </trkpt>
      <trkpt lat="47.69812" lon="6.18994">
        <ele>246.80000305176</ele>
        <time>2012-08-29T08:49:21Z</time>
      </trkpt>
      <trkpt lat="47.69806" lon="6.18948">
        <ele>246.80000305176</ele>
        <time>2012-08-29T08:49:29Z</time>
      </trkpt>
      <trkpt lat="47.69807" lon="6.18903">
        <ele>246.80000305176</ele>
        <time>2012-08-29T08:49:37Z</time>
      </trkpt>
      <trkpt lat="47.69813" lon="6.18895">
        <ele>246.80000305176</ele>
        <time>2012-08-29T08:49:39Z</time>
      </trkpt>
      <trkpt lat="47.69818" lon="6.18891">
        <ele>246.80000305176</ele>
        <time>2012-08-29T08:49:41Z</time>
      </trkpt>
      <trkpt lat="47.69822" lon="6.1889">
        <ele>246.80000305176</ele>
        <time>2012-08-29T08:49:43Z</time>
      </trkpt>
      <trkpt lat="47.69825" lon="6.18888">
        <ele>246.80000305176</ele>
        <time>2012-08-29T08:49:45Z</time>
      </trkpt>
      <trkpt lat="47.69824" lon="6.18888">
        <ele>246.80000305176</ele>
        <time>2012-08-29T08:49:46Z</time>
      </trkpt>
      <trkpt lat="47.69827" lon="6.1888">
        <ele>246.80000305176</ele>
        <time>2012-08-29T08:49:55Z</time>
      </trkpt>
      <trkpt lat="47.69825" lon="6.18877">
        <ele>246.80000305176</ele>
        <time>2012-08-29T08:49:56Z</time>
      </trkpt>
      <trkpt lat="47.69818" lon="6.18868">
        <ele>246.80000305176</ele>
        <time>2012-08-29T08:49:59Z</time>
      </trkpt>
      <trkpt lat="47.69813" lon="6.18861">
        <ele>246.80000305176</ele>
        <time>2012-08-29T08:50:01Z</time>
      </trkpt>
      <trkpt lat="47.69787" lon="6.1883">
        <ele>246.80000305176</ele>
        <time>2012-08-29T08:50:10Z</time>
      </trkpt>
      <trkpt lat="47.6978" lon="6.18822">
        <ele>246.80000305176</ele>
        <time>2012-08-29T08:50:12Z</time>
      </trkpt>
      <trkpt lat="47.6977" lon="6.18809">
        <ele>246.80000305176</ele>
        <time>2012-08-29T08:50:15Z</time>
      </trkpt>
      <trkpt lat="47.69745" lon="6.18772">
        <ele>246.80000305176</ele>
        <time>2012-08-29T08:50:23Z</time>
      </trkpt>
      <trkpt lat="47.69724" lon="6.18749">
        <ele>246.80000305176</ele>
        <time>2012-08-29T08:50:29Z</time>
      </trkpt>
      <trkpt lat="47.69721" lon="6.18744">
        <ele>246.80000305176</ele>
        <time>2012-08-29T08:50:30Z</time>
      </trkpt>
      <trkpt lat="47.69699" lon="6.18721">
        <ele>246.80000305176</ele>
        <time>2012-08-29T08:50:37Z</time>
      </trkpt>
      <trkpt lat="47.69675" lon="6.18709">
        <ele>246.80000305176</ele>
        <time>2012-08-29T08:50:43Z</time>
      </trkpt>
      <trkpt lat="47.69662" lon="6.18704">
        <ele>246.80000305176</ele>
        <time>2012-08-29T08:50:46Z</time>
      </trkpt>
      <trkpt lat="47.69644" lon="6.18699">
        <ele>246.80000305176</ele>
        <time>2012-08-29T08:50:50Z</time>
      </trkpt>
      <trkpt lat="47.69601" lon="6.18688">
        <ele>246.80000305176</ele>
        <time>2012-08-29T08:50:59Z</time>
      </trkpt>
      <trkpt lat="47.69563" lon="6.18667">
        <ele>246.80000305176</ele>
        <time>2012-08-29T08:51:07Z</time>
      </trkpt>
      <trkpt lat="47.69529" lon="6.18633">
        <ele>246.80000305176</ele>
        <time>2012-08-29T08:51:15Z</time>
      </trkpt>
      <trkpt lat="47.6951" lon="6.186">
        <ele>246.80000305176</ele>
        <time>2012-08-29T08:51:21Z</time>
      </trkpt>
      <trkpt lat="47.69505" lon="6.18589">
        <ele>246.80000305176</ele>
        <time>2012-08-29T08:51:23Z</time>
      </trkpt>
      <trkpt lat="47.69492" lon="6.18541">
        <ele>246.80000305176</ele>
        <time>2012-08-29T08:51:31Z</time>
      </trkpt>
      <trkpt lat="47.69486" lon="6.18497">
        <ele>246.80000305176</ele>
        <time>2012-08-29T08:51:38Z</time>
      </trkpt>
      <trkpt lat="47.69486" lon="6.18491">
        <ele>246.80000305176</ele>
        <time>2012-08-29T08:51:39Z</time>
      </trkpt>
      <trkpt lat="47.69482" lon="6.18439">
        <ele>246.80000305176</ele>
        <time>2012-08-29T08:51:47Z</time>
      </trkpt>
      <trkpt lat="47.69472" lon="6.18385">
        <ele>246.80000305176</ele>
        <time>2012-08-29T08:51:55Z</time>
      </trkpt>
      <trkpt lat="47.69467" lon="6.18366">
        <ele>246.80000305176</ele>
        <time>2012-08-29T08:51:58Z</time>
      </trkpt>
      <trkpt lat="47.69462" lon="6.18348">
        <ele>246.80000305176</ele>
        <time>2012-08-29T08:52:01Z</time>
      </trkpt>
      <trkpt lat="47.6944" lon="6.18298">
        <ele>246.80000305176</ele>
        <time>2012-08-29T08:52:10Z</time>
      </trkpt>
      <trkpt lat="47.69417" lon="6.18262">
        <ele>246.80000305176</ele>
        <time>2012-08-29T08:52:18Z</time>
      </trkpt>
      <trkpt lat="47.6939" lon="6.18226">
        <ele>246.80000305176</ele>
        <time>2012-08-29T08:52:27Z</time>
      </trkpt>
      <trkpt lat="47.6937" lon="6.18198">
        <ele>246.80000305176</ele>
        <time>2012-08-29T08:52:35Z</time>
      </trkpt>
      <trkpt lat="47.69343" lon="6.18161">
        <ele>246.80000305176</ele>
        <time>2012-08-29T08:52:46Z</time>
      </trkpt>
      <trkpt lat="47.69323" lon="6.18133">
        <ele>246.80000305176</ele>
        <time>2012-08-29T08:52:55Z</time>
      </trkpt>
      <trkpt lat="47.69311" lon="6.18118">
        <ele>247.19999694824</ele>
        <time>2012-08-29T08:53:00Z</time>
      </trkpt>
      <trkpt lat="47.69309" lon="6.18114">
        <ele>247.60000610352</ele>
        <time>2012-08-29T08:53:01Z</time>
      </trkpt>
      <trkpt lat="47.69307" lon="6.18111">
        <ele>248</ele>
        <time>2012-08-29T08:53:02Z</time>
      </trkpt>
      <trkpt lat="47.69305" lon="6.18108">
        <ele>248.80000305176</ele>
        <time>2012-08-29T08:53:03Z</time>
      </trkpt>
      <trkpt lat="47.693" lon="6.18102">
        <ele>248.80000305176</ele>
        <time>2012-08-29T08:53:05Z</time>
      </trkpt>
      <trkpt lat="47.69282" lon="6.18078">
        <ele>248.80000305176</ele>
        <time>2012-08-29T08:53:13Z</time>
      </trkpt>
      <trkpt lat="47.69271" lon="6.18062">
        <ele>249.19999694824</ele>
        <time>2012-08-29T08:53:18Z</time>
      </trkpt>
      <trkpt lat="47.69269" lon="6.18059">
        <ele>249.60000610352</ele>
        <time>2012-08-29T08:53:19Z</time>
      </trkpt>
      <trkpt lat="47.69267" lon="6.18056">
        <ele>250</ele>
        <time>2012-08-29T08:53:20Z</time>
      </trkpt>
      <trkpt lat="47.69264" lon="6.18053">
        <ele>250.39999389648</ele>
        <time>2012-08-29T08:53:21Z</time>
      </trkpt>
      <trkpt lat="47.69262" lon="6.1805">
        <ele>250.80000305176</ele>
        <time>2012-08-29T08:53:22Z</time>
      </trkpt>
      <trkpt lat="47.6926" lon="6.18047">
        <ele>250.80000305176</ele>
        <time>2012-08-29T08:53:23Z</time>
      </trkpt>
      <trkpt lat="47.69247" lon="6.1803">
        <ele>250.80000305176</ele>
        <time>2012-08-29T08:53:29Z</time>
      </trkpt>
      <trkpt lat="47.69227" lon="6.18002">
        <ele>251.19999694824</ele>
        <time>2012-08-29T08:53:38Z</time>
      </trkpt>
      <trkpt lat="47.69225" lon="6.17999">
        <ele>251.60000610352</ele>
        <time>2012-08-29T08:53:39Z</time>
      </trkpt>
      <trkpt lat="47.69222" lon="6.17996">
        <ele>252</ele>
        <time>2012-08-29T08:53:40Z</time>
      </trkpt>
      <trkpt lat="47.6922" lon="6.17993">
        <ele>252.39999389648</ele>
        <time>2012-08-29T08:53:41Z</time>
      </trkpt>
      <trkpt lat="47.69218" lon="6.1799">
        <ele>252.80000305176</ele>
        <time>2012-08-29T08:53:42Z</time>
      </trkpt>
      <trkpt lat="47.69204" lon="6.1797">
        <ele>252.80000305176</ele>
        <time>2012-08-29T08:53:49Z</time>
      </trkpt>
      <trkpt lat="47.6919" lon="6.17949">
        <ele>253.19999694824</ele>
        <time>2012-08-29T08:53:56Z</time>
      </trkpt>
      <trkpt lat="47.69187" lon="6.17946">
        <ele>253.60000610352</ele>
        <time>2012-08-29T08:53:57Z</time>
      </trkpt>
      <trkpt lat="47.69185" lon="6.17943">
        <ele>254</ele>
        <time>2012-08-29T08:53:58Z</time>
      </trkpt>
      <trkpt lat="47.69183" lon="6.1794">
        <ele>254.39999389648</ele>
        <time>2012-08-29T08:53:59Z</time>
      </trkpt>
      <trkpt lat="47.69181" lon="6.17938">
        <ele>254.80000305176</ele>
        <time>2012-08-29T08:54:00Z</time>
      </trkpt>
      <trkpt lat="47.69169" lon="6.1792">
        <ele>254.80000305176</ele>
        <time>2012-08-29T08:54:05Z</time>
      </trkpt>
      <trkpt lat="47.69151" lon="6.17896">
        <ele>254.80000305176</ele>
        <time>2012-08-29T08:54:11Z</time>
      </trkpt>
      <trkpt lat="47.69147" lon="6.17892">
        <ele>254.80000305176</ele>
        <time>2012-08-29T08:54:12Z</time>
      </trkpt>
      <trkpt lat="47.69129" lon="6.17863">
        <ele>254.80000305176</ele>
        <time>2012-08-29T08:54:18Z</time>
      </trkpt>
      <trkpt lat="47.69107" lon="6.17833">
        <ele>254.80000305176</ele>
        <time>2012-08-29T08:54:25Z</time>
      </trkpt>
      <trkpt lat="47.69105" lon="6.17828">
        <ele>254.80000305176</ele>
        <time>2012-08-29T08:54:26Z</time>
      </trkpt>
      <trkpt lat="47.69093" lon="6.17812">
        <ele>254.80000305176</ele>
        <time>2012-08-29T08:54:30Z</time>
      </trkpt>
      <trkpt lat="47.6908" lon="6.17795">
        <ele>254.39999389648</ele>
        <time>2012-08-29T08:54:34Z</time>
      </trkpt>
      <trkpt lat="47.69076" lon="6.17791">
        <ele>254</ele>
        <time>2012-08-29T08:54:35Z</time>
      </trkpt>
      <trkpt lat="47.69073" lon="6.17787">
        <ele>253.60000610352</ele>
        <time>2012-08-29T08:54:36Z</time>
      </trkpt>
      <trkpt lat="47.6907" lon="6.17783">
        <ele>253.19999694824</ele>
        <time>2012-08-29T08:54:37Z</time>
      </trkpt>
      <trkpt lat="47.69066" lon="6.17779">
        <ele>252.80000305176</ele>
        <time>2012-08-29T08:54:38Z</time>
      </trkpt>
      <trkpt lat="47.69063" lon="6.17775">
        <ele>252.80000305176</ele>
        <time>2012-08-29T08:54:39Z</time>
      </trkpt>
      <trkpt lat="47.69041" lon="6.1775">
        <ele>252.80000305176</ele>
        <time>2012-08-29T08:54:46Z</time>
      </trkpt>
      <trkpt lat="47.69021" lon="6.17728">
        <ele>252.80000305176</ele>
        <time>2012-08-29T08:54:53Z</time>
      </trkpt>
      <trkpt lat="47.69012" lon="6.1772">
        <ele>252.39999389648</ele>
        <time>2012-08-29T08:54:56Z</time>
      </trkpt>
      <trkpt lat="47.69009" lon="6.17717">
        <ele>252</ele>
        <time>2012-08-29T08:54:57Z</time>
      </trkpt>
      <trkpt lat="47.69006" lon="6.17714">
        <ele>251.60000610352</ele>
        <time>2012-08-29T08:54:58Z</time>
      </trkpt>
      <trkpt lat="47.69004" lon="6.17711">
        <ele>251.19999694824</ele>
        <time>2012-08-29T08:54:59Z</time>
      </trkpt>
      <trkpt lat="47.69001" lon="6.17708">
        <ele>250.80000305176</ele>
        <time>2012-08-29T08:55:00Z</time>
      </trkpt>
      <trkpt lat="47.68976" lon="6.17683">
        <ele>250.80000305176</ele>
        <time>2012-08-29T08:55:07Z</time>
      </trkpt>
      <trkpt lat="47.68946" lon="6.17653">
        <ele>250.80000305176</ele>
        <time>2012-08-29T08:55:14Z</time>
      </trkpt>
      <trkpt lat="47.68932" lon="6.17639">
        <ele>250.39999389648</ele>
        <time>2012-08-29T08:55:17Z</time>
      </trkpt>
      <trkpt lat="47.68927" lon="6.17634">
        <ele>250</ele>
        <time>2012-08-29T08:55:18Z</time>
      </trkpt>
      <trkpt lat="47.68922" lon="6.17629">
        <ele>249.60000610352</ele>
        <time>2012-08-29T08:55:19Z</time>
      </trkpt>
      <trkpt lat="47.68918" lon="6.17624">
        <ele>249.19999694824</ele>
        <time>2012-08-29T08:55:20Z</time>
      </trkpt>
      <trkpt lat="47.68913" lon="6.1762">
        <ele>248.80000305176</ele>
        <time>2012-08-29T08:55:21Z</time>
      </trkpt>
      <trkpt lat="47.68908" lon="6.17615">
        <ele>248.80000305176</ele>
        <time>2012-08-29T08:55:22Z</time>
      </trkpt>
      <trkpt lat="47.6887" lon="6.17575">
        <ele>248.80000305176</ele>
        <time>2012-08-29T08:55:30Z</time>
      </trkpt>
      <trkpt lat="47.68843" lon="6.17548">
        <ele>248.39999389648</ele>
        <time>2012-08-29T08:55:36Z</time>
      </trkpt>
      <trkpt lat="47.68838" lon="6.17543">
        <ele>248</ele>
        <time>2012-08-29T08:55:37Z</time>
      </trkpt>
      <trkpt lat="47.68834" lon="6.17539">
        <ele>247.60000610352</ele>
        <time>2012-08-29T08:55:38Z</time>
      </trkpt>
      <trkpt lat="47.6883" lon="6.17535">
        <ele>247.19999694824</ele>
        <time>2012-08-29T08:55:39Z</time>
      </trkpt>
      <trkpt lat="47.68826" lon="6.17531">
        <ele>246.80000305176</ele>
        <time>2012-08-29T08:55:40Z</time>
      </trkpt>
      <trkpt lat="47.68807" lon="6.17513">
        <ele>246.80000305176</ele>
        <time>2012-08-29T08:55:45Z</time>
      </trkpt>
      <trkpt lat="47.68781" lon="6.17483">
        <ele>246.80000305176</ele>
        <time>2012-08-29T08:55:53Z</time>
      </trkpt>
      <trkpt lat="47.68755" lon="6.17449">
        <ele>246.80000305176</ele>
        <time>2012-08-29T08:56:01Z</time>
      </trkpt>
      <trkpt lat="47.68744" lon="6.17432">
        <ele>246.80000305176</ele>
        <time>2012-08-29T08:56:05Z</time>
      </trkpt>
      <trkpt lat="47.68738" lon="6.1742">
        <ele>246.80000305176</ele>
        <time>2012-08-29T08:56:08Z</time>
      </trkpt>
      <trkpt lat="47.68729" lon="6.17402">
        <ele>246.80000305176</ele>
        <time>2012-08-29T08:56:14Z</time>
      </trkpt>
      <trkpt lat="47.68722" lon="6.17387">
        <ele>246.80000305176</ele>
        <time>2012-08-29T08:56:19Z</time>
      </trkpt>
      <trkpt lat="47.68721" lon="6.17382">
        <ele>246.80000305176</ele>
        <time>2012-08-29T08:56:21Z</time>
      </trkpt>
      <trkpt lat="47.68723" lon="6.17379">
        <ele>246.19999694824</ele>
        <time>2012-08-29T08:56:23Z</time>
      </trkpt>
      <trkpt lat="47.68726" lon="6.17378">
        <ele>245.80000305176</ele>
        <time>2012-08-29T08:56:24Z</time>
      </trkpt>
      <trkpt lat="47.68728" lon="6.17377">
        <ele>245.39999389648</ele>
        <time>2012-08-29T08:56:25Z</time>
      </trkpt>
      <trkpt lat="47.6873" lon="6.17376">
        <ele>245</ele>
        <time>2012-08-29T08:56:26Z</time>
      </trkpt>
      <trkpt lat="47.68732" lon="6.17374">
        <ele>244.60000610352</ele>
        <time>2012-08-29T08:56:27Z</time>
      </trkpt>
      <trkpt lat="47.68736" lon="6.17371">
        <ele>244.60000610352</ele>
        <time>2012-08-29T08:56:29Z</time>
      </trkpt>
      <trkpt lat="47.68739" lon="6.17369">
        <ele>244.60000610352</ele>
        <time>2012-08-29T08:56:30Z</time>
      </trkpt>
      <trkpt lat="47.6875" lon="6.17359">
        <ele>244.60000610352</ele>
        <time>2012-08-29T08:56:36Z</time>
      </trkpt>
      <trkpt lat="47.68759" lon="6.17352">
        <ele>244.60000610352</ele>
        <time>2012-08-29T08:56:42Z</time>
      </trkpt>
      <trkpt lat="47.6877" lon="6.17343">
        <ele>244.60000610352</ele>
        <time>2012-08-29T08:56:50Z</time>
      </trkpt>
      <trkpt lat="47.68779" lon="6.17337">
        <ele>245</ele>
        <time>2012-08-29T08:56:56Z</time>
      </trkpt>
      <trkpt lat="47.6878" lon="6.17336">
        <ele>245.39999389648</ele>
        <time>2012-08-29T08:56:57Z</time>
      </trkpt>
      <trkpt lat="47.68782" lon="6.17335">
        <ele>245.80000305176</ele>
        <time>2012-08-29T08:56:58Z</time>
      </trkpt>
      <trkpt lat="47.68783" lon="6.17334">
        <ele>246.39999389648</ele>
        <time>2012-08-29T08:56:59Z</time>
      </trkpt>
      <trkpt lat="47.68785" lon="6.17333">
        <ele>246.80000305176</ele>
        <time>2012-08-29T08:57:00Z</time>
      </trkpt>
      <trkpt lat="47.68795" lon="6.17325">
        <ele>246.80000305176</ele>
        <time>2012-08-29T08:57:07Z</time>
      </trkpt>
      <trkpt lat="47.68807" lon="6.17317">
        <ele>246.80000305176</ele>
        <time>2012-08-29T08:57:15Z</time>
      </trkpt>
      <trkpt lat="47.68819" lon="6.17309">
        <ele>246.80000305176</ele>
        <time>2012-08-29T08:57:23Z</time>
      </trkpt>
      <trkpt lat="47.68826" lon="6.17305">
        <ele>247.19999694824</ele>
        <time>2012-08-29T08:57:28Z</time>
      </trkpt>
      <trkpt lat="47.68827" lon="6.17304">
        <ele>247.60000610352</ele>
        <time>2012-08-29T08:57:29Z</time>
      </trkpt>
      <trkpt lat="47.68829" lon="6.17302">
        <ele>248</ele>
        <time>2012-08-29T08:57:30Z</time>
      </trkpt>
      <trkpt lat="47.6883" lon="6.17301">
        <ele>248.39999389648</ele>
        <time>2012-08-29T08:57:31Z</time>
      </trkpt>
      <trkpt lat="47.68831" lon="6.173">
        <ele>248.80000305176</ele>
        <time>2012-08-29T08:57:32Z</time>
      </trkpt>
      <trkpt lat="47.68842" lon="6.17294">
        <ele>248.80000305176</ele>
        <time>2012-08-29T08:57:39Z</time>
      </trkpt>
      <trkpt lat="47.6885" lon="6.17287">
        <ele>248.80000305176</ele>
        <time>2012-08-29T08:57:45Z</time>
      </trkpt>
      <trkpt lat="47.68861" lon="6.1728">
        <ele>248.80000305176</ele>
        <time>2012-08-29T08:57:53Z</time>
      </trkpt>
      <trkpt lat="47.68869" lon="6.17274">
        <ele>249.60000610352</ele>
        <time>2012-08-29T08:57:59Z</time>
      </trkpt>
      <trkpt lat="47.6887" lon="6.17273">
        <ele>250</ele>
        <time>2012-08-29T08:58:00Z</time>
      </trkpt>
      <trkpt lat="47.68871" lon="6.17272">
        <ele>250.39999389648</ele>
        <time>2012-08-29T08:58:01Z</time>
      </trkpt>
      <trkpt lat="47.68873" lon="6.17271">
        <ele>250.80000305176</ele>
        <time>2012-08-29T08:58:02Z</time>
      </trkpt>
      <trkpt lat="47.68878" lon="6.17267">
        <ele>250.80000305176</ele>
        <time>2012-08-29T08:58:06Z</time>
      </trkpt>
      <trkpt lat="47.68888" lon="6.17259">
        <ele>250.80000305176</ele>
        <time>2012-08-29T08:58:13Z</time>
      </trkpt>
      <trkpt lat="47.6889" lon="6.17256">
        <ele>250.80000305176</ele>
        <time>2012-08-29T08:58:15Z</time>
      </trkpt>
      <trkpt lat="47.68894" lon="6.17253">
        <ele>250.80000305176</ele>
        <time>2012-08-29T08:58:18Z</time>
      </trkpt>
      <trkpt lat="47.68906" lon="6.17244">
        <ele>250.80000305176</ele>
        <time>2012-08-29T08:58:27Z</time>
      </trkpt>
      <trkpt lat="47.68911" lon="6.1724">
        <ele>251.19999694824</ele>
        <time>2012-08-29T08:58:31Z</time>
      </trkpt>
      <trkpt lat="47.68912" lon="6.17239">
        <ele>251.60000610352</ele>
        <time>2012-08-29T08:58:32Z</time>
      </trkpt>
      <trkpt lat="47.68913" lon="6.17238">
        <ele>252</ele>
        <time>2012-08-29T08:58:33Z</time>
      </trkpt>
      <trkpt lat="47.68915" lon="6.17237">
        <ele>252.39999389648</ele>
        <time>2012-08-29T08:58:34Z</time>
      </trkpt>
      <trkpt lat="47.68916" lon="6.17236">
        <ele>252.80000305176</ele>
        <time>2012-08-29T08:58:35Z</time>
      </trkpt>
      <trkpt lat="47.68924" lon="6.1723">
        <ele>252.80000305176</ele>
        <time>2012-08-29T08:58:41Z</time>
      </trkpt>
      <trkpt lat="47.68932" lon="6.17224">
        <ele>252.80000305176</ele>
        <time>2012-08-29T08:58:48Z</time>
      </trkpt>
      <trkpt lat="47.68941" lon="6.17217">
        <ele>253.39999389648</ele>
        <time>2012-08-29T08:58:55Z</time>
      </trkpt>
      <trkpt lat="47.68942" lon="6.17216">
        <ele>253.80000305176</ele>
        <time>2012-08-29T08:58:56Z</time>
      </trkpt>
      <trkpt lat="47.68944" lon="6.17215">
        <ele>254.19999694824</ele>
        <time>2012-08-29T08:58:57Z</time>
      </trkpt>
      <trkpt lat="47.68945" lon="6.17214">
        <ele>254.60000610352</ele>
        <time>2012-08-29T08:58:58Z</time>
      </trkpt>
      <trkpt lat="47.68946" lon="6.17213">
        <ele>255</ele>
        <time>2012-08-29T08:58:59Z</time>
      </trkpt>
      <trkpt lat="47.6895" lon="6.1721">
        <ele>255</ele>
        <time>2012-08-29T08:59:02Z</time>
      </trkpt>
      <trkpt lat="47.68951" lon="6.17209">
        <ele>255</ele>
        <time>2012-08-29T08:59:03Z</time>
      </trkpt>
      <trkpt lat="47.68957" lon="6.17204">
        <ele>255</ele>
        <time>2012-08-29T08:59:08Z</time>
      </trkpt>
      <trkpt lat="47.68968" lon="6.17198">
        <ele>255</ele>
        <time>2012-08-29T08:59:16Z</time>
      </trkpt>
      <trkpt lat="47.6897" lon="6.17196">
        <ele>255.39999389648</ele>
        <time>2012-08-29T08:59:18Z</time>
      </trkpt>
      <trkpt lat="47.68972" lon="6.17195">
        <ele>255.80000305176</ele>
        <time>2012-08-29T08:59:19Z</time>
      </trkpt>
      <trkpt lat="47.68973" lon="6.17194">
        <ele>256.20001220703</ele>
        <time>2012-08-29T08:59:20Z</time>
      </trkpt>
      <trkpt lat="47.68974" lon="6.17193">
        <ele>256.60000610352</ele>
        <time>2012-08-29T08:59:21Z</time>
      </trkpt>
      <trkpt lat="47.68976" lon="6.17191">
        <ele>257</ele>
        <time>2012-08-29T08:59:22Z</time>
      </trkpt>
      <trkpt lat="47.68977" lon="6.17191">
        <ele>257</ele>
        <time>2012-08-29T08:59:23Z</time>
      </trkpt>
      <trkpt lat="47.68985" lon="6.17186">
        <ele>257</ele>
        <time>2012-08-29T08:59:29Z</time>
      </trkpt>
      <trkpt lat="47.68995" lon="6.17176">
        <ele>257</ele>
        <time>2012-08-29T08:59:37Z</time>
      </trkpt>
      <trkpt lat="47.68994" lon="6.17174">
        <ele>257</ele>
        <time>2012-08-29T08:59:38Z</time>
      </trkpt>
      <trkpt lat="47.68988" lon="6.17169">
        <ele>257</ele>
        <time>2012-08-29T08:59:43Z</time>
      </trkpt>
      <trkpt lat="47.68987" lon="6.17167">
        <ele>257.39999389648</ele>
        <time>2012-08-29T08:59:44Z</time>
      </trkpt>
      <trkpt lat="47.68985" lon="6.17165">
        <ele>257.79998779297</ele>
        <time>2012-08-29T08:59:45Z</time>
      </trkpt>
      <trkpt lat="47.68984" lon="6.17164">
        <ele>258.20001220703</ele>
        <time>2012-08-29T08:59:46Z</time>
      </trkpt>
      <trkpt lat="47.68983" lon="6.17164">
        <ele>258.60000610352</ele>
        <time>2012-08-29T08:59:47Z</time>
      </trkpt>
      <trkpt lat="47.68982" lon="6.17163">
        <ele>259.20001220703</ele>
        <time>2012-08-29T08:59:48Z</time>
      </trkpt>
      <trkpt lat="47.68981" lon="6.17162">
        <ele>259.20001220703</ele>
        <time>2012-08-29T08:59:49Z</time>
      </trkpt>
      <trkpt lat="47.6897" lon="6.17153">
        <ele>259.20001220703</ele>
        <time>2012-08-29T08:59:57Z</time>
      </trkpt>
      <trkpt lat="47.68962" lon="6.17141">
        <ele>259.20001220703</ele>
        <time>2012-08-29T09:00:04Z</time>
      </trkpt>
      <trkpt lat="47.6895" lon="6.17125">
        <ele>259.20001220703</ele>
        <time>2012-08-29T09:00:14Z</time>
      </trkpt>
      <trkpt lat="47.68942" lon="6.17111">
        <ele>259.20001220703</ele>
        <time>2012-08-29T09:00:20Z</time>
      </trkpt>
      <trkpt lat="47.68932" lon="6.17095">
        <ele>259.20001220703</ele>
        <time>2012-08-29T09:00:27Z</time>
      </trkpt>
      <trkpt lat="47.68929" lon="6.17089">
        <ele>259.60000610352</ele>
        <time>2012-08-29T09:00:30Z</time>
      </trkpt>
      <trkpt lat="47.68927" lon="6.17086">
        <ele>260</ele>
        <time>2012-08-29T09:00:31Z</time>
      </trkpt>
      <trkpt lat="47.68926" lon="6.17084">
        <ele>260.39999389648</ele>
        <time>2012-08-29T09:00:32Z</time>
      </trkpt>
      <trkpt lat="47.68924" lon="6.17081">
        <ele>260.79998779297</ele>
        <time>2012-08-29T09:00:33Z</time>
      </trkpt>
      <trkpt lat="47.68922" lon="6.17079">
        <ele>261.20001220703</ele>
        <time>2012-08-29T09:00:34Z</time>
      </trkpt>
      <trkpt lat="47.6891" lon="6.17059">
        <ele>261.20001220703</ele>
        <time>2012-08-29T09:00:42Z</time>
      </trkpt>
      <trkpt lat="47.68895" lon="6.17036">
        <ele>261.20001220703</ele>
        <time>2012-08-29T09:00:50Z</time>
      </trkpt>
      <trkpt lat="47.68875" lon="6.17009">
        <ele>261.20001220703</ele>
        <time>2012-08-29T09:00:58Z</time>
      </trkpt>
      <trkpt lat="47.68864" lon="6.16994">
        <ele>260.79998779297</ele>
        <time>2012-08-29T09:01:02Z</time>
      </trkpt>
      <trkpt lat="47.68861" lon="6.1699">
        <ele>260.39999389648</ele>
        <time>2012-08-29T09:01:03Z</time>
      </trkpt>
      <trkpt lat="47.68858" lon="6.16986">
        <ele>260</ele>
        <time>2012-08-29T09:01:04Z</time>
      </trkpt>
      <trkpt lat="47.68855" lon="6.16983">
        <ele>259.60000610352</ele>
        <time>2012-08-29T09:01:05Z</time>
      </trkpt>
      <trkpt lat="47.68853" lon="6.16979">
        <ele>259.20001220703</ele>
        <time>2012-08-29T09:01:06Z</time>
      </trkpt>
      <trkpt lat="47.6883" lon="6.16945">
        <ele>259.20001220703</ele>
        <time>2012-08-29T09:01:15Z</time>
      </trkpt>
      <trkpt lat="47.68812" lon="6.16914">
        <ele>259.20001220703</ele>
        <time>2012-08-29T09:01:22Z</time>
      </trkpt>
      <trkpt lat="47.68791" lon="6.16876">
        <ele>258.79998779297</ele>
        <time>2012-08-29T09:01:30Z</time>
      </trkpt>
      <trkpt lat="47.68788" lon="6.16871">
        <ele>258.39999389648</ele>
        <time>2012-08-29T09:01:31Z</time>
      </trkpt>
      <trkpt lat="47.68785" lon="6.16866">
        <ele>257.79998779297</ele>
        <time>2012-08-29T09:01:32Z</time>
      </trkpt>
      <trkpt lat="47.68782" lon="6.1686">
        <ele>257.39999389648</ele>
        <time>2012-08-29T09:01:33Z</time>
      </trkpt>
      <trkpt lat="47.68779" lon="6.16855">
        <ele>257</ele>
        <time>2012-08-29T09:01:34Z</time>
      </trkpt>
      <trkpt lat="47.68769" lon="6.16838">
        <ele>257</ele>
        <time>2012-08-29T09:01:37Z</time>
      </trkpt>
      <trkpt lat="47.68757" lon="6.16816">
        <ele>256.60000610352</ele>
        <time>2012-08-29T09:01:41Z</time>
      </trkpt>
      <trkpt lat="47.68754" lon="6.16811">
        <ele>256.20001220703</ele>
        <time>2012-08-29T09:01:42Z</time>
      </trkpt>
      <trkpt lat="47.6875" lon="6.16805">
        <ele>255.80000305176</ele>
        <time>2012-08-29T09:01:43Z</time>
      </trkpt>
      <trkpt lat="47.68747" lon="6.168">
        <ele>255.39999389648</ele>
        <time>2012-08-29T09:01:44Z</time>
      </trkpt>
      <trkpt lat="47.68744" lon="6.16794">
        <ele>255</ele>
        <time>2012-08-29T09:01:45Z</time>
      </trkpt>
      <trkpt lat="47.68721" lon="6.16755">
        <ele>255</ele>
        <time>2012-08-29T09:01:52Z</time>
      </trkpt>
      <trkpt lat="47.68718" lon="6.1675">
        <ele>254.60000610352</ele>
        <time>2012-08-29T09:01:53Z</time>
      </trkpt>
      <trkpt lat="47.68714" lon="6.16744">
        <ele>254.19999694824</ele>
        <time>2012-08-29T09:01:54Z</time>
      </trkpt>
      <trkpt lat="47.68711" lon="6.16739">
        <ele>253.80000305176</ele>
        <time>2012-08-29T09:01:55Z</time>
      </trkpt>
      <trkpt lat="47.68708" lon="6.16734">
        <ele>253.39999389648</ele>
        <time>2012-08-29T09:01:56Z</time>
      </trkpt>
      <trkpt lat="47.68705" lon="6.16729">
        <ele>253</ele>
        <time>2012-08-29T09:01:57Z</time>
      </trkpt>
      <trkpt lat="47.68693" lon="6.1671">
        <ele>253</ele>
        <time>2012-08-29T09:02:01Z</time>
      </trkpt>
      <trkpt lat="47.68671" lon="6.16678">
        <ele>252.60000610352</ele>
        <time>2012-08-29T09:02:08Z</time>
      </trkpt>
      <trkpt lat="47.68668" lon="6.16673">
        <ele>252</ele>
        <time>2012-08-29T09:02:09Z</time>
      </trkpt>
      <trkpt lat="47.68665" lon="6.16669">
        <ele>251.60000610352</ele>
        <time>2012-08-29T09:02:10Z</time>
      </trkpt>
      <trkpt lat="47.68661" lon="6.16664">
        <ele>251.19999694824</ele>
        <time>2012-08-29T09:02:11Z</time>
      </trkpt>
      <trkpt lat="47.68658" lon="6.1666">
        <ele>250.80000305176</ele>
        <time>2012-08-29T09:02:12Z</time>
      </trkpt>
      <trkpt lat="47.68644" lon="6.16639">
        <ele>250.80000305176</ele>
        <time>2012-08-29T09:02:17Z</time>
      </trkpt>
      <trkpt lat="47.68618" lon="6.16607">
        <ele>250.80000305176</ele>
        <time>2012-08-29T09:02:25Z</time>
      </trkpt>
      <trkpt lat="47.68596" lon="6.16584">
        <ele>250.80000305176</ele>
        <time>2012-08-29T09:02:32Z</time>
      </trkpt>
      <trkpt lat="47.68581" lon="6.16571">
        <ele>250.39999389648</ele>
        <time>2012-08-29T09:02:36Z</time>
      </trkpt>
      <trkpt lat="47.68578" lon="6.16568">
        <ele>250</ele>
        <time>2012-08-29T09:02:37Z</time>
      </trkpt>
      <trkpt lat="47.68574" lon="6.16564">
        <ele>249.60000610352</ele>
        <time>2012-08-29T09:02:38Z</time>
      </trkpt>
      <trkpt lat="47.68571" lon="6.16561">
        <ele>249.19999694824</ele>
        <time>2012-08-29T09:02:39Z</time>
      </trkpt>
      <trkpt lat="47.68567" lon="6.16557">
        <ele>248.80000305176</ele>
        <time>2012-08-29T09:02:40Z</time>
      </trkpt>
      <trkpt lat="47.68538" lon="6.16529">
        <ele>248.80000305176</ele>
        <time>2012-08-29T09:02:48Z</time>
      </trkpt>
      <trkpt lat="47.68512" lon="6.165">
        <ele>248</ele>
        <time>2012-08-29T09:02:55Z</time>
      </trkpt>
      <trkpt lat="47.68508" lon="6.16495">
        <ele>247.60000610352</ele>
        <time>2012-08-29T09:02:56Z</time>
      </trkpt>
      <trkpt lat="47.68504" lon="6.16491">
        <ele>247.19999694824</ele>
        <time>2012-08-29T09:02:57Z</time>
      </trkpt>
      <trkpt lat="47.68499" lon="6.16488">
        <ele>246.80000305176</ele>
        <time>2012-08-29T09:02:58Z</time>
      </trkpt>
      <trkpt lat="47.68495" lon="6.16485">
        <ele>246.80000305176</ele>
        <time>2012-08-29T09:02:59Z</time>
      </trkpt>
      <trkpt lat="47.68487" lon="6.16476">
        <ele>246.80000305176</ele>
        <time>2012-08-29T09:03:01Z</time>
      </trkpt>
      <trkpt lat="47.68483" lon="6.16471">
        <ele>246.80000305176</ele>
        <time>2012-08-29T09:03:02Z</time>
      </trkpt>
      <trkpt lat="47.68478" lon="6.16461">
        <ele>246.80000305176</ele>
        <time>2012-08-29T09:03:04Z</time>
      </trkpt>
      <trkpt lat="47.68465" lon="6.16439">
        <ele>246.80000305176</ele>
        <time>2012-08-29T09:03:10Z</time>
      </trkpt>
      <trkpt lat="47.68451" lon="6.16419">
        <ele>246.80000305176</ele>
        <time>2012-08-29T09:03:16Z</time>
      </trkpt>
      <trkpt lat="47.68431" lon="6.16397">
        <ele>246.80000305176</ele>
        <time>2012-08-29T09:03:23Z</time>
      </trkpt>
      <trkpt lat="47.68408" lon="6.16376">
        <ele>246.80000305176</ele>
        <time>2012-08-29T09:03:30Z</time>
      </trkpt>
      <trkpt lat="47.68381" lon="6.16357">
        <ele>246.80000305176</ele>
        <time>2012-08-29T09:03:37Z</time>
      </trkpt>
      <trkpt lat="47.68377" lon="6.16355">
        <ele>246.80000305176</ele>
        <time>2012-08-29T09:03:38Z</time>
      </trkpt>
      <trkpt lat="47.68364" lon="6.16354">
        <ele>246.19999694824</ele>
        <time>2012-08-29T09:03:41Z</time>
      </trkpt>
      <trkpt lat="47.68359" lon="6.16355">
        <ele>245.80000305176</ele>
        <time>2012-08-29T09:03:42Z</time>
      </trkpt>
      <trkpt lat="47.68355" lon="6.16354">
        <ele>245.39999389648</ele>
        <time>2012-08-29T09:03:43Z</time>
      </trkpt>
      <trkpt lat="47.68352" lon="6.16353">
        <ele>245</ele>
        <time>2012-08-29T09:03:44Z</time>
      </trkpt>
      <trkpt lat="47.68349" lon="6.16351">
        <ele>244.60000610352</ele>
        <time>2012-08-29T09:03:45Z</time>
      </trkpt>
      <trkpt lat="47.68346" lon="6.16349">
        <ele>244.60000610352</ele>
        <time>2012-08-29T09:03:46Z</time>
      </trkpt>
      <trkpt lat="47.68343" lon="6.16346">
        <ele>244.60000610352</ele>
        <time>2012-08-29T09:03:47Z</time>
      </trkpt>
      <trkpt lat="47.68338" lon="6.16342">
        <ele>244.19999694824</ele>
        <time>2012-08-29T09:03:49Z</time>
      </trkpt>
      <trkpt lat="47.68335" lon="6.16339">
        <ele>243.80000305176</ele>
        <time>2012-08-29T09:03:50Z</time>
      </trkpt>
      <trkpt lat="47.68332" lon="6.16336">
        <ele>243.39999389648</ele>
        <time>2012-08-29T09:03:51Z</time>
      </trkpt>
      <trkpt lat="47.68328" lon="6.16332">
        <ele>243</ele>
        <time>2012-08-29T09:03:52Z</time>
      </trkpt>
      <trkpt lat="47.68324" lon="6.16329">
        <ele>242.60000610352</ele>
        <time>2012-08-29T09:03:53Z</time>
      </trkpt>
      <trkpt lat="47.6832" lon="6.16326">
        <ele>242.60000610352</ele>
        <time>2012-08-29T09:03:54Z</time>
      </trkpt>
      <trkpt lat="47.68317" lon="6.16324">
        <ele>242.19999694824</ele>
        <time>2012-08-29T09:03:55Z</time>
      </trkpt>
      <trkpt lat="47.68314" lon="6.16321">
        <ele>241.60000610352</ele>
        <time>2012-08-29T09:03:56Z</time>
      </trkpt>
      <trkpt lat="47.68313" lon="6.16317">
        <ele>241.19999694824</ele>
        <time>2012-08-29T09:03:57Z</time>
      </trkpt>
      <trkpt lat="47.68313" lon="6.16313">
        <ele>240.80000305176</ele>
        <time>2012-08-29T09:03:58Z</time>
      </trkpt>
      <trkpt lat="47.68313" lon="6.1631">
        <ele>240.39999389648</ele>
        <time>2012-08-29T09:03:59Z</time>
      </trkpt>
      <trkpt lat="47.68316" lon="6.16305">
        <ele>240.39999389648</ele>
        <time>2012-08-29T09:04:01Z</time>
      </trkpt>
      <trkpt lat="47.68325" lon="6.16289">
        <ele>240.39999389648</ele>
        <time>2012-08-29T09:04:06Z</time>
      </trkpt>
      <trkpt lat="47.68342" lon="6.16258">
        <ele>240.39999389648</ele>
        <time>2012-08-29T09:04:14Z</time>
      </trkpt>
      <trkpt lat="47.68358" lon="6.16234">
        <ele>240.39999389648</ele>
        <time>2012-08-29T09:04:20Z</time>
      </trkpt>
      <trkpt lat="47.6838" lon="6.16205">
        <ele>240.39999389648</ele>
        <time>2012-08-29T09:04:27Z</time>
      </trkpt>
      <trkpt lat="47.68396" lon="6.16175">
        <ele>240.39999389648</ele>
        <time>2012-08-29T09:04:34Z</time>
      </trkpt>
      <trkpt lat="47.68417" lon="6.16135">
        <ele>240.39999389648</ele>
        <time>2012-08-29T09:04:44Z</time>
      </trkpt>
      <trkpt lat="47.68434" lon="6.16108">
        <ele>240.39999389648</ele>
        <time>2012-08-29T09:04:51Z</time>
      </trkpt>
      <trkpt lat="47.68461" lon="6.1608">
        <ele>240.39999389648</ele>
        <time>2012-08-29T09:04:59Z</time>
      </trkpt>
      <trkpt lat="47.68489" lon="6.16052">
        <ele>240.39999389648</ele>
        <time>2012-08-29T09:05:07Z</time>
      </trkpt>
      <trkpt lat="47.68523" lon="6.16015">
        <ele>240.39999389648</ele>
        <time>2012-08-29T09:05:18Z</time>
      </trkpt>
      <trkpt lat="47.68545" lon="6.15992">
        <ele>240.39999389648</ele>
        <time>2012-08-29T09:05:26Z</time>
      </trkpt>
      <trkpt lat="47.68551" lon="6.15985">
        <ele>240.80000305176</ele>
        <time>2012-08-29T09:05:29Z</time>
      </trkpt>
      <trkpt lat="47.68553" lon="6.15982">
        <ele>241.19999694824</ele>
        <time>2012-08-29T09:05:30Z</time>
      </trkpt>
      <trkpt lat="47.68555" lon="6.15979">
        <ele>241.80000305176</ele>
        <time>2012-08-29T09:05:31Z</time>
      </trkpt>
      <trkpt lat="47.68557" lon="6.15977">
        <ele>242.19999694824</ele>
        <time>2012-08-29T09:05:32Z</time>
      </trkpt>
      <trkpt lat="47.68559" lon="6.15976">
        <ele>242.60000610352</ele>
        <time>2012-08-29T09:05:33Z</time>
      </trkpt>
      <trkpt lat="47.68576" lon="6.15968">
        <ele>242.60000610352</ele>
        <time>2012-08-29T09:05:40Z</time>
      </trkpt>
      <trkpt lat="47.68594" lon="6.15962">
        <ele>243.39999389648</ele>
        <time>2012-08-29T09:05:48Z</time>
      </trkpt>
      <trkpt lat="47.68596" lon="6.15961">
        <ele>243.80000305176</ele>
        <time>2012-08-29T09:05:49Z</time>
      </trkpt>
      <trkpt lat="47.68598" lon="6.1596">
        <ele>244.19999694824</ele>
        <time>2012-08-29T09:05:50Z</time>
      </trkpt>
      <trkpt lat="47.686" lon="6.1596">
        <ele>244.60000610352</ele>
        <time>2012-08-29T09:05:51Z</time>
      </trkpt>
      <trkpt lat="47.68608" lon="6.15958">
        <ele>244.60000610352</ele>
        <time>2012-08-29T09:05:55Z</time>
      </trkpt>
      <trkpt lat="47.68619" lon="6.15954">
        <ele>244.60000610352</ele>
        <time>2012-08-29T09:06:01Z</time>
      </trkpt>
      <trkpt lat="47.68621" lon="6.15954">
        <ele>245</ele>
        <time>2012-08-29T09:06:02Z</time>
      </trkpt>
      <trkpt lat="47.68623" lon="6.15954">
        <ele>245.39999389648</ele>
        <time>2012-08-29T09:06:03Z</time>
      </trkpt>
      <trkpt lat="47.68625" lon="6.15953">
        <ele>245.80000305176</ele>
        <time>2012-08-29T09:06:04Z</time>
      </trkpt>
      <trkpt lat="47.68627" lon="6.15953">
        <ele>246.19999694824</ele>
        <time>2012-08-29T09:06:05Z</time>
      </trkpt>
      <trkpt lat="47.68629" lon="6.15952">
        <ele>246.60000610352</ele>
        <time>2012-08-29T09:06:06Z</time>
      </trkpt>
      <trkpt lat="47.68636" lon="6.1595">
        <ele>246.60000610352</ele>
        <time>2012-08-29T09:06:10Z</time>
      </trkpt>
      <trkpt lat="47.68652" lon="6.15945">
        <ele>246.60000610352</ele>
        <time>2012-08-29T09:06:19Z</time>
      </trkpt>
      <trkpt lat="47.68653" lon="6.15945">
        <ele>247</ele>
        <time>2012-08-29T09:06:20Z</time>
      </trkpt>
      <trkpt lat="47.68655" lon="6.15945">
        <ele>247.39999389648</ele>
        <time>2012-08-29T09:06:21Z</time>
      </trkpt>
      <trkpt lat="47.68657" lon="6.15944">
        <ele>248</ele>
        <time>2012-08-29T09:06:22Z</time>
      </trkpt>
      <trkpt lat="47.68659" lon="6.15943">
        <ele>248.39999389648</ele>
        <time>2012-08-29T09:06:23Z</time>
      </trkpt>
      <trkpt lat="47.6866" lon="6.15943">
        <ele>248.80000305176</ele>
        <time>2012-08-29T09:06:24Z</time>
      </trkpt>
      <trkpt lat="47.68662" lon="6.15942">
        <ele>248.80000305176</ele>
        <time>2012-08-29T09:06:25Z</time>
      </trkpt>
      <trkpt lat="47.68679" lon="6.15933">
        <ele>248.80000305176</ele>
        <time>2012-08-29T09:06:35Z</time>
      </trkpt>
      <trkpt lat="47.68684" lon="6.15927">
        <ele>249.19999694824</ele>
        <time>2012-08-29T09:06:38Z</time>
      </trkpt>
      <trkpt lat="47.68685" lon="6.15926">
        <ele>249.60000610352</ele>
        <time>2012-08-29T09:06:39Z</time>
      </trkpt>
      <trkpt lat="47.68687" lon="6.15924">
        <ele>250</ele>
        <time>2012-08-29T09:06:40Z</time>
      </trkpt>
      <trkpt lat="47.68689" lon="6.15923">
        <ele>250.39999389648</ele>
        <time>2012-08-29T09:06:41Z</time>
      </trkpt>
      <trkpt lat="47.6869" lon="6.15923">
        <ele>250.80000305176</ele>
        <time>2012-08-29T09:06:42Z</time>
      </trkpt>
      <trkpt lat="47.68694" lon="6.15922">
        <ele>250.80000305176</ele>
        <time>2012-08-29T09:06:44Z</time>
      </trkpt>
      <trkpt lat="47.68697" lon="6.15921">
        <ele>250.80000305176</ele>
        <time>2012-08-29T09:06:46Z</time>
      </trkpt>
      <trkpt lat="47.68702" lon="6.15918">
        <ele>250.80000305176</ele>
        <time>2012-08-29T09:06:49Z</time>
      </trkpt>
      <trkpt lat="47.68709" lon="6.15912">
        <ele>250.80000305176</ele>
        <time>2012-08-29T09:06:54Z</time>
      </trkpt>
      <trkpt lat="47.6872" lon="6.15903">
        <ele>250.80000305176</ele>
        <time>2012-08-29T09:07:01Z</time>
      </trkpt>
      <trkpt lat="47.68725" lon="6.15898">
        <ele>251.19999694824</ele>
        <time>2012-08-29T09:07:04Z</time>
      </trkpt>
      <trkpt lat="47.68726" lon="6.15897">
        <ele>251.60000610352</ele>
        <time>2012-08-29T09:07:05Z</time>
      </trkpt>
      <trkpt lat="47.68727" lon="6.15896">
        <ele>252</ele>
        <time>2012-08-29T09:07:06Z</time>
      </trkpt>
      <trkpt lat="47.68729" lon="6.15894">
        <ele>252.39999389648</ele>
        <time>2012-08-29T09:07:07Z</time>
      </trkpt>
      <trkpt lat="47.68731" lon="6.15893">
        <ele>252.80000305176</ele>
        <time>2012-08-29T09:07:08Z</time>
      </trkpt>
      <trkpt lat="47.68744" lon="6.15883">
        <ele>252.80000305176</ele>
        <time>2012-08-29T09:07:16Z</time>
      </trkpt>
      <trkpt lat="47.68754" lon="6.15875">
        <ele>252.80000305176</ele>
        <time>2012-08-29T09:07:22Z</time>
      </trkpt>
      <trkpt lat="47.68766" lon="6.15863">
        <ele>252.80000305176</ele>
        <time>2012-08-29T09:07:30Z</time>
      </trkpt>
      <trkpt lat="47.68768" lon="6.15862">
        <ele>253.19999694824</ele>
        <time>2012-08-29T09:07:31Z</time>
      </trkpt>
      <trkpt lat="47.6877" lon="6.1586">
        <ele>253.60000610352</ele>
        <time>2012-08-29T09:07:32Z</time>
      </trkpt>
      <trkpt lat="47.68771" lon="6.15859">
        <ele>254</ele>
        <time>2012-08-29T09:07:33Z</time>
      </trkpt>
      <trkpt lat="47.68773" lon="6.15857">
        <ele>254.39999389648</ele>
        <time>2012-08-29T09:07:34Z</time>
      </trkpt>
      <trkpt lat="47.68774" lon="6.15856">
        <ele>254.80000305176</ele>
        <time>2012-08-29T09:07:35Z</time>
      </trkpt>
      <trkpt lat="47.68779" lon="6.1585">
        <ele>254.80000305176</ele>
        <time>2012-08-29T09:07:38Z</time>
      </trkpt>
      <trkpt lat="47.68791" lon="6.15838">
        <ele>254.80000305176</ele>
        <time>2012-08-29T09:07:46Z</time>
      </trkpt>
      <trkpt lat="47.68801" lon="6.15827">
        <ele>254.80000305176</ele>
        <time>2012-08-29T09:07:53Z</time>
      </trkpt>
      <trkpt lat="47.68804" lon="6.15824">
        <ele>255.39999389648</ele>
        <time>2012-08-29T09:07:55Z</time>
      </trkpt>
      <trkpt lat="47.68806" lon="6.15823">
        <ele>256</ele>
        <time>2012-08-29T09:07:56Z</time>
      </trkpt>
      <trkpt lat="47.68807" lon="6.15822">
        <ele>256.60000610352</ele>
        <time>2012-08-29T09:07:57Z</time>
      </trkpt>
      <trkpt lat="47.68809" lon="6.1582">
        <ele>257.20001220703</ele>
        <time>2012-08-29T09:07:58Z</time>
      </trkpt>
      <trkpt lat="47.6881" lon="6.15818">
        <ele>257.79998779297</ele>
        <time>2012-08-29T09:07:59Z</time>
      </trkpt>
      <trkpt lat="47.68811" lon="6.15816">
        <ele>257.79998779297</ele>
        <time>2012-08-29T09:08:00Z</time>
      </trkpt>
      <trkpt lat="47.6882" lon="6.15801">
        <ele>257.79998779297</ele>
        <time>2012-08-29T09:08:07Z</time>
      </trkpt>
      <trkpt lat="47.68822" lon="6.15799">
        <ele>257.79998779297</ele>
        <time>2012-08-29T09:08:08Z</time>
      </trkpt>
      <trkpt lat="47.68826" lon="6.15791">
        <ele>257.79998779297</ele>
        <time>2012-08-29T09:08:12Z</time>
      </trkpt>
      <trkpt lat="47.68833" lon="6.15775">
        <ele>257.79998779297</ele>
        <time>2012-08-29T09:08:19Z</time>
      </trkpt>
      <trkpt lat="47.6884" lon="6.15758">
        <ele>257.79998779297</ele>
        <time>2012-08-29T09:08:26Z</time>
      </trkpt>
      <trkpt lat="47.68842" lon="6.15753">
        <ele>258.20001220703</ele>
        <time>2012-08-29T09:08:28Z</time>
      </trkpt>
      <trkpt lat="47.68843" lon="6.15751">
        <ele>258.60000610352</ele>
        <time>2012-08-29T09:08:29Z</time>
      </trkpt>
      <trkpt lat="47.68844" lon="6.15748">
        <ele>259</ele>
        <time>2012-08-29T09:08:30Z</time>
      </trkpt>
      <trkpt lat="47.68845" lon="6.15745">
        <ele>259.39999389648</ele>
        <time>2012-08-29T09:08:31Z</time>
      </trkpt>
      <trkpt lat="47.68846" lon="6.15742">
        <ele>259.79998779297</ele>
        <time>2012-08-29T09:08:32Z</time>
      </trkpt>
      <trkpt lat="47.68847" lon="6.15737">
        <ele>259.79998779297</ele>
        <time>2012-08-29T09:08:34Z</time>
      </trkpt>
      <trkpt lat="47.68855" lon="6.15716">
        <ele>259.79998779297</ele>
        <time>2012-08-29T09:08:41Z</time>
      </trkpt>
      <trkpt lat="47.68862" lon="6.157">
        <ele>259.79998779297</ele>
        <time>2012-08-29T09:08:47Z</time>
      </trkpt>
      <trkpt lat="47.68871" lon="6.1568">
        <ele>259.79998779297</ele>
        <time>2012-08-29T09:08:53Z</time>
      </trkpt>
      <trkpt lat="47.68883" lon="6.15658">
        <ele>259.79998779297</ele>
        <time>2012-08-29T09:08:59Z</time>
      </trkpt>
      <trkpt lat="47.68893" lon="6.15634">
        <ele>259.79998779297</ele>
        <time>2012-08-29T09:09:05Z</time>
      </trkpt>
      <trkpt lat="47.68907" lon="6.15604">
        <ele>259.79998779297</ele>
        <time>2012-08-29T09:09:12Z</time>
      </trkpt>
      <trkpt lat="47.6892" lon="6.15576">
        <ele>259.79998779297</ele>
        <time>2012-08-29T09:09:19Z</time>
      </trkpt>
      <trkpt lat="47.68932" lon="6.15548">
        <ele>259.79998779297</ele>
        <time>2012-08-29T09:09:26Z</time>
      </trkpt>
      <trkpt lat="47.68946" lon="6.15516">
        <ele>260.20001220703</ele>
        <time>2012-08-29T09:09:34Z</time>
      </trkpt>
      <trkpt lat="47.68947" lon="6.15511">
        <ele>260.60000610352</ele>
        <time>2012-08-29T09:09:35Z</time>
      </trkpt>
      <trkpt lat="47.68948" lon="6.15507">
        <ele>261</ele>
        <time>2012-08-29T09:09:36Z</time>
      </trkpt>
      <trkpt lat="47.6895" lon="6.15502">
        <ele>261.39999389648</ele>
        <time>2012-08-29T09:09:37Z</time>
      </trkpt>
      <trkpt lat="47.68952" lon="6.15497">
        <ele>261.79998779297</ele>
        <time>2012-08-29T09:09:38Z</time>
      </trkpt>
      <trkpt lat="47.68956" lon="6.1548">
        <ele>261.79998779297</ele>
        <time>2012-08-29T09:09:41Z</time>
      </trkpt>
      <trkpt lat="47.68958" lon="6.15474">
        <ele>261.79998779297</ele>
        <time>2012-08-29T09:09:42Z</time>
      </trkpt>
      <trkpt lat="47.68965" lon="6.15447">
        <ele>261.39999389648</ele>
        <time>2012-08-29T09:09:46Z</time>
      </trkpt>
      <trkpt lat="47.68967" lon="6.1544">
        <ele>261</ele>
        <time>2012-08-29T09:09:47Z</time>
      </trkpt>
      <trkpt lat="47.68969" lon="6.15431">
        <ele>260.60000610352</ele>
        <time>2012-08-29T09:09:48Z</time>
      </trkpt>
      <trkpt lat="47.68971" lon="6.15423">
        <ele>260.20001220703</ele>
        <time>2012-08-29T09:09:49Z</time>
      </trkpt>
      <trkpt lat="47.68974" lon="6.15415">
        <ele>259.79998779297</ele>
        <time>2012-08-29T09:09:50Z</time>
      </trkpt>
      <trkpt lat="47.68985" lon="6.15391">
        <ele>259.39999389648</ele>
        <time>2012-08-29T09:09:53Z</time>
      </trkpt>
      <trkpt lat="47.68989" lon="6.15384">
        <ele>259</ele>
        <time>2012-08-29T09:09:54Z</time>
      </trkpt>
      <trkpt lat="47.68993" lon="6.15377">
        <ele>258</ele>
        <time>2012-08-29T09:09:55Z</time>
      </trkpt>
      <trkpt lat="47.68997" lon="6.15371">
        <ele>257.60000610352</ele>
        <time>2012-08-29T09:09:56Z</time>
      </trkpt>
      <trkpt lat="47.69001" lon="6.15366">
        <ele>257.60000610352</ele>
        <time>2012-08-29T09:09:57Z</time>
      </trkpt>
      <trkpt lat="47.69004" lon="6.15363">
        <ele>257.60000610352</ele>
        <time>2012-08-29T09:09:58Z</time>
      </trkpt>
      <trkpt lat="47.6902" lon="6.15352">
        <ele>257.60000610352</ele>
        <time>2012-08-29T09:10:03Z</time>
      </trkpt>
      <trkpt lat="47.69043" lon="6.15343">
        <ele>257.60000610352</ele>
        <time>2012-08-29T09:10:09Z</time>
      </trkpt>
      <trkpt lat="47.69078" lon="6.1533">
        <ele>257.60000610352</ele>
        <time>2012-08-29T09:10:16Z</time>
      </trkpt>
      <trkpt lat="47.6909" lon="6.15326">
        <ele>257.20001220703</ele>
        <time>2012-08-29T09:10:18Z</time>
      </trkpt>
      <trkpt lat="47.69096" lon="6.15324">
        <ele>256.20001220703</ele>
        <time>2012-08-29T09:10:19Z</time>
      </trkpt>
      <trkpt lat="47.69103" lon="6.15322">
        <ele>255.80000305176</ele>
        <time>2012-08-29T09:10:20Z</time>
      </trkpt>
      <trkpt lat="47.6911" lon="6.1532">
        <ele>255.39999389648</ele>
        <time>2012-08-29T09:10:21Z</time>
      </trkpt>
      <trkpt lat="47.69116" lon="6.15317">
        <ele>255</ele>
        <time>2012-08-29T09:10:22Z</time>
      </trkpt>
      <trkpt lat="47.69123" lon="6.15315">
        <ele>254.60000610352</ele>
        <time>2012-08-29T09:10:23Z</time>
      </trkpt>
      <trkpt lat="47.6913" lon="6.15311">
        <ele>254</ele>
        <time>2012-08-29T09:10:24Z</time>
      </trkpt>
      <trkpt lat="47.69137" lon="6.15307">
        <ele>253.60000610352</ele>
        <time>2012-08-29T09:10:25Z</time>
      </trkpt>
      <trkpt lat="47.69143" lon="6.15302">
        <ele>253.19999694824</ele>
        <time>2012-08-29T09:10:26Z</time>
      </trkpt>
      <trkpt lat="47.69149" lon="6.15296">
        <ele>253.19999694824</ele>
        <time>2012-08-29T09:10:27Z</time>
      </trkpt>
      <trkpt lat="47.69172" lon="6.15265">
        <ele>253.19999694824</ele>
        <time>2012-08-29T09:10:32Z</time>
      </trkpt>
      <trkpt lat="47.69188" lon="6.15245">
        <ele>253.19999694824</ele>
        <time>2012-08-29T09:10:36Z</time>
      </trkpt>
      <trkpt lat="47.69197" lon="6.15238">
        <ele>253.19999694824</ele>
        <time>2012-08-29T09:10:38Z</time>
      </trkpt>
      <trkpt lat="47.69201" lon="6.15235">
        <ele>253.19999694824</ele>
        <time>2012-08-29T09:10:39Z</time>
      </trkpt>
      <trkpt lat="47.6922" lon="6.1523">
        <ele>253.19999694824</ele>
        <time>2012-08-29T09:10:43Z</time>
      </trkpt>
      <trkpt lat="47.69254" lon="6.15218">
        <ele>253.19999694824</ele>
        <time>2012-08-29T09:10:50Z</time>
      </trkpt>
      <trkpt lat="47.69258" lon="6.15215">
        <ele>253.19999694824</ele>
        <time>2012-08-29T09:10:51Z</time>
      </trkpt>
      <trkpt lat="47.69278" lon="6.15202">
        <ele>253.19999694824</ele>
        <time>2012-08-29T09:10:57Z</time>
      </trkpt>
      <trkpt lat="47.69299" lon="6.15187">
        <ele>253.19999694824</ele>
        <time>2012-08-29T09:11:05Z</time>
      </trkpt>
      <trkpt lat="47.6932" lon="6.1517">
        <ele>253.19999694824</ele>
        <time>2012-08-29T09:11:13Z</time>
      </trkpt>
      <trkpt lat="47.69344" lon="6.15157">
        <ele>253.19999694824</ele>
        <time>2012-08-29T09:11:21Z</time>
      </trkpt>
      <trkpt lat="47.6937" lon="6.15144">
        <ele>253.19999694824</ele>
        <time>2012-08-29T09:11:29Z</time>
      </trkpt>
      <trkpt lat="47.69378" lon="6.15141">
        <ele>253.19999694824</ele>
        <time>2012-08-29T09:11:31Z</time>
      </trkpt>
      <trkpt lat="47.69393" lon="6.15136">
        <ele>253.19999694824</ele>
        <time>2012-08-29T09:11:35Z</time>
      </trkpt>
      <trkpt lat="47.69418" lon="6.15132">
        <ele>253.19999694824</ele>
        <time>2012-08-29T09:11:43Z</time>
      </trkpt>
      <trkpt lat="47.69424" lon="6.15131">
        <ele>253.80000305176</ele>
        <time>2012-08-29T09:11:45Z</time>
      </trkpt>
      <trkpt lat="47.69426" lon="6.15131">
        <ele>254.19999694824</ele>
        <time>2012-08-29T09:11:46Z</time>
      </trkpt>
      <trkpt lat="47.69429" lon="6.1513">
        <ele>254.60000610352</ele>
        <time>2012-08-29T09:11:47Z</time>
      </trkpt>
      <trkpt lat="47.69432" lon="6.15129">
        <ele>255</ele>
        <time>2012-08-29T09:11:48Z</time>
      </trkpt>
      <trkpt lat="47.69435" lon="6.15127">
        <ele>255.39999389648</ele>
        <time>2012-08-29T09:11:49Z</time>
      </trkpt>
      <trkpt lat="47.69458" lon="6.15118">
        <ele>255.39999389648</ele>
        <time>2012-08-29T09:11:55Z</time>
      </trkpt>
      <trkpt lat="47.69482" lon="6.15116">
        <ele>255.39999389648</ele>
        <time>2012-08-29T09:12:02Z</time>
      </trkpt>
      <trkpt lat="47.69494" lon="6.15123">
        <ele>255.39999389648</ele>
        <time>2012-08-29T09:12:05Z</time>
      </trkpt>
      <trkpt lat="47.69501" lon="6.15132">
        <ele>255.39999389648</ele>
        <time>2012-08-29T09:12:07Z</time>
      </trkpt>
      <trkpt lat="47.6951" lon="6.15147">
        <ele>255.39999389648</ele>
        <time>2012-08-29T09:12:10Z</time>
      </trkpt>
      <trkpt lat="47.69516" lon="6.15159">
        <ele>255.39999389648</ele>
        <time>2012-08-29T09:12:12Z</time>
      </trkpt>
      <trkpt lat="47.69533" lon="6.15172">
        <ele>255.39999389648</ele>
        <time>2012-08-29T09:12:16Z</time>
      </trkpt>
      <trkpt lat="47.69545" lon="6.15171">
        <ele>255.39999389648</ele>
        <time>2012-08-29T09:12:19Z</time>
      </trkpt>
      <trkpt lat="47.69549" lon="6.15171">
        <ele>255.39999389648</ele>
        <time>2012-08-29T09:12:20Z</time>
      </trkpt>
      <trkpt lat="47.69576" lon="6.15164">
        <ele>255.39999389648</ele>
        <time>2012-08-29T09:12:28Z</time>
      </trkpt>
      <trkpt lat="47.69598" lon="6.15159">
        <ele>255.39999389648</ele>
        <time>2012-08-29T09:12:36Z</time>
      </trkpt>
      <trkpt lat="47.69614" lon="6.15156">
        <ele>255.39999389648</ele>
        <time>2012-08-29T09:12:43Z</time>
      </trkpt>
      <trkpt lat="47.69628" lon="6.15149">
        <ele>255.39999389648</ele>
        <time>2012-08-29T09:12:50Z</time>
      </trkpt>
      <trkpt lat="47.69633" lon="6.15145">
        <ele>255.80000305176</ele>
        <time>2012-08-29T09:12:53Z</time>
      </trkpt>
      <trkpt lat="47.69635" lon="6.15144">
        <ele>256.20001220703</ele>
        <time>2012-08-29T09:12:54Z</time>
      </trkpt>
      <trkpt lat="47.69637" lon="6.15143">
        <ele>256.60000610352</ele>
        <time>2012-08-29T09:12:55Z</time>
      </trkpt>
      <trkpt lat="47.6964" lon="6.15142">
        <ele>257.20001220703</ele>
        <time>2012-08-29T09:12:56Z</time>
      </trkpt>
      <trkpt lat="47.69642" lon="6.15141">
        <ele>257.60000610352</ele>
        <time>2012-08-29T09:12:57Z</time>
      </trkpt>
      <trkpt lat="47.69652" lon="6.15137">
        <ele>257.60000610352</ele>
        <time>2012-08-29T09:13:02Z</time>
      </trkpt>
      <trkpt lat="47.69665" lon="6.15127">
        <ele>257.60000610352</ele>
        <time>2012-08-29T09:13:09Z</time>
      </trkpt>
      <trkpt lat="47.69666" lon="6.15125">
        <ele>258</ele>
        <time>2012-08-29T09:13:10Z</time>
      </trkpt>
      <trkpt lat="47.69667" lon="6.15123">
        <ele>258.39999389648</ele>
        <time>2012-08-29T09:13:11Z</time>
      </trkpt>
      <trkpt lat="47.69668" lon="6.15121">
        <ele>258.79998779297</ele>
        <time>2012-08-29T09:13:12Z</time>
      </trkpt>
      <trkpt lat="47.69669" lon="6.15119">
        <ele>259.20001220703</ele>
        <time>2012-08-29T09:13:13Z</time>
      </trkpt>
      <trkpt lat="47.69671" lon="6.15117">
        <ele>259.60000610352</ele>
        <time>2012-08-29T09:13:14Z</time>
      </trkpt>
      <trkpt lat="47.69673" lon="6.15112">
        <ele>259.60000610352</ele>
        <time>2012-08-29T09:13:16Z</time>
      </trkpt>
      <trkpt lat="47.69681" lon="6.15094">
        <ele>259.60000610352</ele>
        <time>2012-08-29T09:13:23Z</time>
      </trkpt>
      <trkpt lat="47.69689" lon="6.15076">
        <ele>260</ele>
        <time>2012-08-29T09:13:31Z</time>
      </trkpt>
      <trkpt lat="47.6969" lon="6.15074">
        <ele>260.39999389648</ele>
        <time>2012-08-29T09:13:32Z</time>
      </trkpt>
      <trkpt lat="47.6969" lon="6.15072">
        <ele>260.79998779297</ele>
        <time>2012-08-29T09:13:33Z</time>
      </trkpt>
      <trkpt lat="47.69691" lon="6.15071">
        <ele>261.39999389648</ele>
        <time>2012-08-29T09:13:34Z</time>
      </trkpt>
      <trkpt lat="47.69691" lon="6.15069">
        <ele>261.79998779297</ele>
        <time>2012-08-29T09:13:35Z</time>
      </trkpt>
      <trkpt lat="47.69695" lon="6.15056">
        <ele>261.79998779297</ele>
        <time>2012-08-29T09:13:41Z</time>
      </trkpt>
      <trkpt lat="47.69698" lon="6.15039">
        <ele>262.20001220703</ele>
        <time>2012-08-29T09:13:49Z</time>
      </trkpt>
      <trkpt lat="47.69698" lon="6.15037">
        <ele>262.60000610352</ele>
        <time>2012-08-29T09:13:50Z</time>
      </trkpt>
      <trkpt lat="47.69699" lon="6.15035">
        <ele>263</ele>
        <time>2012-08-29T09:13:51Z</time>
      </trkpt>
      <trkpt lat="47.69699" lon="6.15033">
        <ele>263.39999389648</ele>
        <time>2012-08-29T09:13:52Z</time>
      </trkpt>
      <trkpt lat="47.69699" lon="6.15031">
        <ele>263.79998779297</ele>
        <time>2012-08-29T09:13:53Z</time>
      </trkpt>
      <trkpt lat="47.69701" lon="6.15023">
        <ele>263.79998779297</ele>
        <time>2012-08-29T09:13:57Z</time>
      </trkpt>
      <trkpt lat="47.69705" lon="6.15007">
        <ele>264.20001220703</ele>
        <time>2012-08-29T09:14:05Z</time>
      </trkpt>
      <trkpt lat="47.69706" lon="6.15005">
        <ele>264.60000610352</ele>
        <time>2012-08-29T09:14:06Z</time>
      </trkpt>
      <trkpt lat="47.69707" lon="6.15003">
        <ele>265</ele>
        <time>2012-08-29T09:14:07Z</time>
      </trkpt>
      <trkpt lat="47.69707" lon="6.15001">
        <ele>265.39999389648</ele>
        <time>2012-08-29T09:14:08Z</time>
      </trkpt>
      <trkpt lat="47.69707" lon="6.14999">
        <ele>265.79998779297</ele>
        <time>2012-08-29T09:14:09Z</time>
      </trkpt>
      <trkpt lat="47.69706" lon="6.14991">
        <ele>265.79998779297</ele>
        <time>2012-08-29T09:14:13Z</time>
      </trkpt>
      <trkpt lat="47.69707" lon="6.14989">
        <ele>265.79998779297</ele>
        <time>2012-08-29T09:14:14Z</time>
      </trkpt>
      <trkpt lat="47.69711" lon="6.14981">
        <ele>265.79998779297</ele>
        <time>2012-08-29T09:14:19Z</time>
      </trkpt>
      <trkpt lat="47.69711" lon="6.14977">
        <ele>265.79998779297</ele>
        <time>2012-08-29T09:14:21Z</time>
      </trkpt>
      <trkpt lat="47.6971" lon="6.14975">
        <ele>266.20001220703</ele>
        <time>2012-08-29T09:14:22Z</time>
      </trkpt>
      <trkpt lat="47.6971" lon="6.14973">
        <ele>266.60000610352</ele>
        <time>2012-08-29T09:14:23Z</time>
      </trkpt>
      <trkpt lat="47.6971" lon="6.14971">
        <ele>267</ele>
        <time>2012-08-29T09:14:24Z</time>
      </trkpt>
      <trkpt lat="47.69712" lon="6.14971">
        <ele>267.39999389648</ele>
        <time>2012-08-29T09:14:25Z</time>
      </trkpt>
      <trkpt lat="47.69713" lon="6.14969">
        <ele>267.79998779297</ele>
        <time>2012-08-29T09:14:26Z</time>
      </trkpt>
      <trkpt lat="47.69714" lon="6.14968">
        <ele>267.79998779297</ele>
        <time>2012-08-29T09:14:27Z</time>
      </trkpt>
      <trkpt lat="47.69713" lon="6.14962">
        <ele>267.79998779297</ele>
        <time>2012-08-29T09:14:30Z</time>
      </trkpt>
      <trkpt lat="47.69715" lon="6.14954">
        <ele>267.79998779297</ele>
        <time>2012-08-29T09:14:35Z</time>
      </trkpt>
      <trkpt lat="47.69716" lon="6.14944">
        <ele>267.79998779297</ele>
        <time>2012-08-29T09:14:40Z</time>
      </trkpt>
      <trkpt lat="47.69716" lon="6.14942">
        <ele>268.20001220703</ele>
        <time>2012-08-29T09:14:41Z</time>
      </trkpt>
      <trkpt lat="47.69716" lon="6.1494">
        <ele>268.60000610352</ele>
        <time>2012-08-29T09:14:42Z</time>
      </trkpt>
      <trkpt lat="47.69717" lon="6.14938">
        <ele>269</ele>
        <time>2012-08-29T09:14:43Z</time>
      </trkpt>
      <trkpt lat="47.69718" lon="6.14937">
        <ele>269.39999389648</ele>
        <time>2012-08-29T09:14:44Z</time>
      </trkpt>
      <trkpt lat="47.69719" lon="6.14935">
        <ele>269.79998779297</ele>
        <time>2012-08-29T09:14:45Z</time>
      </trkpt>
      <trkpt lat="47.6972" lon="6.14932">
        <ele>269.79998779297</ele>
        <time>2012-08-29T09:14:47Z</time>
      </trkpt>
      <trkpt lat="47.69721" lon="6.1493">
        <ele>269.79998779297</ele>
        <time>2012-08-29T09:14:48Z</time>
      </trkpt>
      <trkpt lat="47.69721" lon="6.14922">
        <ele>269.79998779297</ele>
        <time>2012-08-29T09:14:52Z</time>
      </trkpt>
      <trkpt lat="47.69725" lon="6.1491">
        <ele>270.20001220703</ele>
        <time>2012-08-29T09:14:58Z</time>
      </trkpt>
      <trkpt lat="47.69724" lon="6.14908">
        <ele>270.60000610352</ele>
        <time>2012-08-29T09:14:59Z</time>
      </trkpt>
      <trkpt lat="47.69724" lon="6.14906">
        <ele>271.20001220703</ele>
        <time>2012-08-29T09:15:00Z</time>
      </trkpt>
      <trkpt lat="47.69724" lon="6.14905">
        <ele>271.60000610352</ele>
        <time>2012-08-29T09:15:01Z</time>
      </trkpt>
      <trkpt lat="47.69725" lon="6.14903">
        <ele>272</ele>
        <time>2012-08-29T09:15:02Z</time>
      </trkpt>
      <trkpt lat="47.69726" lon="6.14901">
        <ele>272</ele>
        <time>2012-08-29T09:15:03Z</time>
      </trkpt>
      <trkpt lat="47.69728" lon="6.14893">
        <ele>272</ele>
        <time>2012-08-29T09:15:08Z</time>
      </trkpt>
      <trkpt lat="47.69729" lon="6.14886">
        <ele>272</ele>
        <time>2012-08-29T09:15:12Z</time>
      </trkpt>
      <trkpt lat="47.6973" lon="6.14885">
        <ele>272</ele>
        <time>2012-08-29T09:15:13Z</time>
      </trkpt>
      <trkpt lat="47.69731" lon="6.14883">
        <ele>272</ele>
        <time>2012-08-29T09:15:14Z</time>
      </trkpt>
      <trkpt lat="47.69731" lon="6.14874">
        <ele>272.39999389648</ele>
        <time>2012-08-29T09:15:18Z</time>
      </trkpt>
      <trkpt lat="47.69732" lon="6.14872">
        <ele>272.79998779297</ele>
        <time>2012-08-29T09:15:19Z</time>
      </trkpt>
      <trkpt lat="47.69732" lon="6.14871">
        <ele>273.20001220703</ele>
        <time>2012-08-29T09:15:20Z</time>
      </trkpt>
      <trkpt lat="47.69733" lon="6.14868">
        <ele>273.60000610352</ele>
        <time>2012-08-29T09:15:21Z</time>
      </trkpt>
      <trkpt lat="47.69733" lon="6.14866">
        <ele>274</ele>
        <time>2012-08-29T09:15:22Z</time>
      </trkpt>
      <trkpt lat="47.69737" lon="6.1486">
        <ele>274</ele>
        <time>2012-08-29T09:15:26Z</time>
      </trkpt>
      <trkpt lat="47.69738" lon="6.14848">
        <ele>274</ele>
        <time>2012-08-29T09:15:32Z</time>
      </trkpt>
      <trkpt lat="47.69741" lon="6.1484">
        <ele>274.39999389648</ele>
        <time>2012-08-29T09:15:36Z</time>
      </trkpt>
      <trkpt lat="47.69742" lon="6.14839">
        <ele>274.79998779297</ele>
        <time>2012-08-29T09:15:37Z</time>
      </trkpt>
      <trkpt lat="47.69743" lon="6.14837">
        <ele>275.39999389648</ele>
        <time>2012-08-29T09:15:38Z</time>
      </trkpt>
      <trkpt lat="47.69744" lon="6.14835">
        <ele>275.79998779297</ele>
        <time>2012-08-29T09:15:39Z</time>
      </trkpt>
      <trkpt lat="47.69744" lon="6.14833">
        <ele>276.20001220703</ele>
        <time>2012-08-29T09:15:40Z</time>
      </trkpt>
      <trkpt lat="47.69744" lon="6.14831">
        <ele>276.20001220703</ele>
        <time>2012-08-29T09:15:41Z</time>
      </trkpt>
      <trkpt lat="47.69745" lon="6.14827">
        <ele>276.20001220703</ele>
        <time>2012-08-29T09:15:43Z</time>
      </trkpt>
      <trkpt lat="47.69746" lon="6.14826">
        <ele>276.20001220703</ele>
        <time>2012-08-29T09:15:44Z</time>
      </trkpt>
      <trkpt lat="47.69754" lon="6.14817">
        <ele>276.60000610352</ele>
        <time>2012-08-29T09:15:51Z</time>
      </trkpt>
      <trkpt lat="47.69756" lon="6.14817">
        <ele>277</ele>
        <time>2012-08-29T09:15:52Z</time>
      </trkpt>
      <trkpt lat="47.69757" lon="6.14818">
        <ele>277.39999389648</ele>
        <time>2012-08-29T09:15:53Z</time>
      </trkpt>
      <trkpt lat="47.69759" lon="6.14818">
        <ele>277.79998779297</ele>
        <time>2012-08-29T09:15:54Z</time>
      </trkpt>
      <trkpt lat="47.6976" lon="6.14818">
        <ele>278.20001220703</ele>
        <time>2012-08-29T09:15:55Z</time>
      </trkpt>
      <trkpt lat="47.69764" lon="6.14818">
        <ele>278.20001220703</ele>
        <time>2012-08-29T09:15:58Z</time>
      </trkpt>
      <trkpt lat="47.69774" lon="6.1482">
        <ele>278.20001220703</ele>
        <time>2012-08-29T09:16:05Z</time>
      </trkpt>
      <trkpt lat="47.69775" lon="6.1482">
        <ele>279</ele>
        <time>2012-08-29T09:16:06Z</time>
      </trkpt>
      <trkpt lat="47.69777" lon="6.14822">
        <ele>279.39999389648</ele>
        <time>2012-08-29T09:16:07Z</time>
      </trkpt>
      <trkpt lat="47.69778" lon="6.14823">
        <ele>279.79998779297</ele>
        <time>2012-08-29T09:16:08Z</time>
      </trkpt>
      <trkpt lat="47.69779" lon="6.14824">
        <ele>280.20001220703</ele>
        <time>2012-08-29T09:16:09Z</time>
      </trkpt>
      <trkpt lat="47.69782" lon="6.14825">
        <ele>280.20001220703</ele>
        <time>2012-08-29T09:16:11Z</time>
      </trkpt>
      <trkpt lat="47.69788" lon="6.1483">
        <ele>280.20001220703</ele>
        <time>2012-08-29T09:16:16Z</time>
      </trkpt>
      <trkpt lat="47.69796" lon="6.14836">
        <ele>280.20001220703</ele>
        <time>2012-08-29T09:16:23Z</time>
      </trkpt>
      <trkpt lat="47.69797" lon="6.14837">
        <ele>280.60000610352</ele>
        <time>2012-08-29T09:16:24Z</time>
      </trkpt>
      <trkpt lat="47.69798" lon="6.14838">
        <ele>281.20001220703</ele>
        <time>2012-08-29T09:16:25Z</time>
      </trkpt>
      <trkpt lat="47.69799" lon="6.14839">
        <ele>281.60000610352</ele>
        <time>2012-08-29T09:16:26Z</time>
      </trkpt>
      <trkpt lat="47.69801" lon="6.14841">
        <ele>282</ele>
        <time>2012-08-29T09:16:27Z</time>
      </trkpt>
      <trkpt lat="47.69802" lon="6.14842">
        <ele>282.39999389648</ele>
        <time>2012-08-29T09:16:28Z</time>
      </trkpt>
      <trkpt lat="47.69804" lon="6.14843">
        <ele>282.39999389648</ele>
        <time>2012-08-29T09:16:30Z</time>
      </trkpt>
      <trkpt lat="47.69814" lon="6.14848">
        <ele>282.39999389648</ele>
        <time>2012-08-29T09:16:37Z</time>
      </trkpt>
      <trkpt lat="47.69815" lon="6.14848">
        <ele>282.39999389648</ele>
        <time>2012-08-29T09:16:38Z</time>
      </trkpt>
      <trkpt lat="47.69823" lon="6.14847">
        <ele>282.79998779297</ele>
        <time>2012-08-29T09:16:43Z</time>
      </trkpt>
      <trkpt lat="47.69824" lon="6.14846">
        <ele>283.20001220703</ele>
        <time>2012-08-29T09:16:44Z</time>
      </trkpt>
      <trkpt lat="47.69826" lon="6.14846">
        <ele>283.60000610352</ele>
        <time>2012-08-29T09:16:45Z</time>
      </trkpt>
      <trkpt lat="47.69827" lon="6.14845">
        <ele>284</ele>
        <time>2012-08-29T09:16:46Z</time>
      </trkpt>
      <trkpt lat="47.69828" lon="6.14844">
        <ele>284.39999389648</ele>
        <time>2012-08-29T09:16:47Z</time>
      </trkpt>
      <trkpt lat="47.69831" lon="6.14841">
        <ele>284.39999389648</ele>
        <time>2012-08-29T09:16:49Z</time>
      </trkpt>
      <trkpt lat="47.69841" lon="6.14832">
        <ele>284.39999389648</ele>
        <time>2012-08-29T09:16:57Z</time>
      </trkpt>
      <trkpt lat="47.69842" lon="6.14831">
        <ele>284.79998779297</ele>
        <time>2012-08-29T09:16:58Z</time>
      </trkpt>
      <trkpt lat="47.69844" lon="6.1483">
        <ele>285.20001220703</ele>
        <time>2012-08-29T09:16:59Z</time>
      </trkpt>
      <trkpt lat="47.69845" lon="6.14829">
        <ele>285.60000610352</ele>
        <time>2012-08-29T09:17:00Z</time>
      </trkpt>
      <trkpt lat="47.69846" lon="6.14828">
        <ele>286</ele>
        <time>2012-08-29T09:17:01Z</time>
      </trkpt>
      <trkpt lat="47.69848" lon="6.14827">
        <ele>286.39999389648</ele>
        <time>2012-08-29T09:17:02Z</time>
      </trkpt>
      <trkpt lat="47.69851" lon="6.14825">
        <ele>286.39999389648</ele>
        <time>2012-08-29T09:17:05Z</time>
      </trkpt>
      <trkpt lat="47.69851" lon="6.14825">
        <ele>286.39999389648</ele>
        <time>2012-08-29T09:17:06Z</time>
      </trkpt>
      <trkpt lat="47.69856" lon="6.1482">
        <ele>286.39999389648</ele>
        <time>2012-08-29T09:17:43Z</time>
      </trkpt>
      <trkpt lat="47.69857" lon="6.14819">
        <ele>286.39999389648</ele>
        <time>2012-08-29T09:17:44Z</time>
      </trkpt>
      <trkpt lat="47.6987" lon="6.14807">
        <ele>286.39999389648</ele>
        <time>2012-08-29T09:17:52Z</time>
      </trkpt>
      <trkpt lat="47.69873" lon="6.14804">
        <ele>286.79998779297</ele>
        <time>2012-08-29T09:17:54Z</time>
      </trkpt>
      <trkpt lat="47.69875" lon="6.14802">
        <ele>287.20001220703</ele>
        <time>2012-08-29T09:17:55Z</time>
      </trkpt>
      <trkpt lat="47.69876" lon="6.14801">
        <ele>287.60000610352</ele>
        <time>2012-08-29T09:17:56Z</time>
      </trkpt>
      <trkpt lat="47.69878" lon="6.14799">
        <ele>288</ele>
        <time>2012-08-29T09:17:57Z</time>
      </trkpt>
      <trkpt lat="47.6988" lon="6.14798">
        <ele>288.60000610352</ele>
        <time>2012-08-29T09:17:58Z</time>
      </trkpt>
      <trkpt lat="47.69881" lon="6.14797">
        <ele>288.60000610352</ele>
        <time>2012-08-29T09:17:59Z</time>
      </trkpt>
      <trkpt lat="47.69891" lon="6.1479">
        <ele>288.60000610352</ele>
        <time>2012-08-29T09:18:05Z</time>
      </trkpt>
      <trkpt lat="47.69905" lon="6.14781">
        <ele>288.60000610352</ele>
        <time>2012-08-29T09:18:12Z</time>
      </trkpt>
      <trkpt lat="47.69918" lon="6.14772">
        <ele>288.60000610352</ele>
        <time>2012-08-29T09:18:18Z</time>
      </trkpt>
      <trkpt lat="47.69936" lon="6.14761">
        <ele>288.60000610352</ele>
        <time>2012-08-29T09:18:26Z</time>
      </trkpt>
      <trkpt lat="47.69938" lon="6.14759">
        <ele>289</ele>
        <time>2012-08-29T09:18:27Z</time>
      </trkpt>
      <trkpt lat="47.69941" lon="6.14757">
        <ele>289.39999389648</ele>
        <time>2012-08-29T09:18:28Z</time>
      </trkpt>
      <trkpt lat="47.69943" lon="6.14756">
        <ele>289.79998779297</ele>
        <time>2012-08-29T09:18:29Z</time>
      </trkpt>
      <trkpt lat="47.69946" lon="6.14753">
        <ele>290.20001220703</ele>
        <time>2012-08-29T09:18:30Z</time>
      </trkpt>
      <trkpt lat="47.69948" lon="6.14751">
        <ele>290.60000610352</ele>
        <time>2012-08-29T09:18:31Z</time>
      </trkpt>
      <trkpt lat="47.6995" lon="6.14749">
        <ele>290.60000610352</ele>
        <time>2012-08-29T09:18:32Z</time>
      </trkpt>
      <trkpt lat="47.69961" lon="6.14743">
        <ele>290.60000610352</ele>
        <time>2012-08-29T09:18:37Z</time>
      </trkpt>
      <trkpt lat="47.69978" lon="6.1473">
        <ele>290.60000610352</ele>
        <time>2012-08-29T09:18:45Z</time>
      </trkpt>
      <trkpt lat="47.69984" lon="6.14727">
        <ele>291</ele>
        <time>2012-08-29T09:18:48Z</time>
      </trkpt>
      <trkpt lat="47.69986" lon="6.14725">
        <ele>291.39999389648</ele>
        <time>2012-08-29T09:18:49Z</time>
      </trkpt>
      <trkpt lat="47.69989" lon="6.14724">
        <ele>291.79998779297</ele>
        <time>2012-08-29T09:18:50Z</time>
      </trkpt>
      <trkpt lat="47.69991" lon="6.14722">
        <ele>292.20001220703</ele>
        <time>2012-08-29T09:18:51Z</time>
      </trkpt>
      <trkpt lat="47.69994" lon="6.1472">
        <ele>292.60000610352</ele>
        <time>2012-08-29T09:18:52Z</time>
      </trkpt>
      <trkpt lat="47.69999" lon="6.14716">
        <ele>292.60000610352</ele>
        <time>2012-08-29T09:18:54Z</time>
      </trkpt>
      <trkpt lat="47.70015" lon="6.14706">
        <ele>292.60000610352</ele>
        <time>2012-08-29T09:19:01Z</time>
      </trkpt>
      <trkpt lat="47.70034" lon="6.14692">
        <ele>292.60000610352</ele>
        <time>2012-08-29T09:19:09Z</time>
      </trkpt>
      <trkpt lat="47.70049" lon="6.14682">
        <ele>293</ele>
        <time>2012-08-29T09:19:16Z</time>
      </trkpt>
      <trkpt lat="47.70051" lon="6.14681">
        <ele>293.39999389648</ele>
        <time>2012-08-29T09:19:17Z</time>
      </trkpt>
      <trkpt lat="47.70052" lon="6.14679">
        <ele>293.79998779297</ele>
        <time>2012-08-29T09:19:18Z</time>
      </trkpt>
      <trkpt lat="47.70054" lon="6.14677">
        <ele>294.20001220703</ele>
        <time>2012-08-29T09:19:19Z</time>
      </trkpt>
      <trkpt lat="47.70056" lon="6.14675">
        <ele>294.60000610352</ele>
        <time>2012-08-29T09:19:20Z</time>
      </trkpt>
      <trkpt lat="47.70063" lon="6.14666">
        <ele>294.60000610352</ele>
        <time>2012-08-29T09:19:25Z</time>
      </trkpt>
      <trkpt lat="47.7007" lon="6.14657">
        <ele>295</ele>
        <time>2012-08-29T09:19:30Z</time>
      </trkpt>
      <trkpt lat="47.7007" lon="6.14655">
        <ele>295.39999389648</ele>
        <time>2012-08-29T09:19:31Z</time>
      </trkpt>
      <trkpt lat="47.70071" lon="6.14652">
        <ele>295.79998779297</ele>
        <time>2012-08-29T09:19:32Z</time>
      </trkpt>
      <trkpt lat="47.70072" lon="6.1465">
        <ele>296.39999389648</ele>
        <time>2012-08-29T09:19:33Z</time>
      </trkpt>
      <trkpt lat="47.70073" lon="6.14648">
        <ele>296.79998779297</ele>
        <time>2012-08-29T09:19:34Z</time>
      </trkpt>
      <trkpt lat="47.70077" lon="6.14638">
        <ele>296.79998779297</ele>
        <time>2012-08-29T09:19:39Z</time>
      </trkpt>
      <trkpt lat="47.70083" lon="6.14624">
        <ele>297.20001220703</ele>
        <time>2012-08-29T09:19:46Z</time>
      </trkpt>
      <trkpt lat="47.70084" lon="6.14622">
        <ele>298</ele>
        <time>2012-08-29T09:19:47Z</time>
      </trkpt>
      <trkpt lat="47.70085" lon="6.1462">
        <ele>298.39999389648</ele>
        <time>2012-08-29T09:19:48Z</time>
      </trkpt>
      <trkpt lat="47.70086" lon="6.14618">
        <ele>298.79998779297</ele>
        <time>2012-08-29T09:19:49Z</time>
      </trkpt>
      <trkpt lat="47.70091" lon="6.1461">
        <ele>298.79998779297</ele>
        <time>2012-08-29T09:19:53Z</time>
      </trkpt>
      <trkpt lat="47.70094" lon="6.14605">
        <ele>298.79998779297</ele>
        <time>2012-08-29T09:19:56Z</time>
      </trkpt>
      <trkpt lat="47.70097" lon="6.14598">
        <ele>298.79998779297</ele>
        <time>2012-08-29T09:19:59Z</time>
      </trkpt>
      <trkpt lat="47.70104" lon="6.14587">
        <ele>298.79998779297</ele>
        <time>2012-08-29T09:20:04Z</time>
      </trkpt>
      <trkpt lat="47.70115" lon="6.14567">
        <ele>298.79998779297</ele>
        <time>2012-08-29T09:20:13Z</time>
      </trkpt>
      <trkpt lat="47.70122" lon="6.14554">
        <ele>299.20001220703</ele>
        <time>2012-08-29T09:20:18Z</time>
      </trkpt>
      <trkpt lat="47.70123" lon="6.14551">
        <ele>299.60000610352</ele>
        <time>2012-08-29T09:20:19Z</time>
      </trkpt>
      <trkpt lat="47.70124" lon="6.14548">
        <ele>300</ele>
        <time>2012-08-29T09:20:20Z</time>
      </trkpt>
      <trkpt lat="47.70125" lon="6.14546">
        <ele>300.39999389648</ele>
        <time>2012-08-29T09:20:21Z</time>
      </trkpt>
      <trkpt lat="47.70126" lon="6.14543">
        <ele>300.79998779297</ele>
        <time>2012-08-29T09:20:22Z</time>
      </trkpt>
      <trkpt lat="47.70134" lon="6.14528">
        <ele>300.79998779297</ele>
        <time>2012-08-29T09:20:28Z</time>
      </trkpt>
      <trkpt lat="47.70143" lon="6.14509">
        <ele>300.79998779297</ele>
        <time>2012-08-29T09:20:35Z</time>
      </trkpt>
      <trkpt lat="47.7015" lon="6.14494">
        <ele>300.79998779297</ele>
        <time>2012-08-29T09:20:40Z</time>
      </trkpt>
      <trkpt lat="47.70162" lon="6.1447">
        <ele>300.79998779297</ele>
        <time>2012-08-29T09:20:46Z</time>
      </trkpt>
      <trkpt lat="47.70175" lon="6.14444">
        <ele>300.79998779297</ele>
        <time>2012-08-29T09:20:52Z</time>
      </trkpt>
      <trkpt lat="47.70191" lon="6.14422">
        <ele>300.79998779297</ele>
        <time>2012-08-29T09:20:59Z</time>
      </trkpt>
      <trkpt lat="47.70205" lon="6.14407">
        <ele>300.79998779297</ele>
        <time>2012-08-29T09:21:06Z</time>
      </trkpt>
      <trkpt lat="47.70218" lon="6.14394">
        <ele>300.79998779297</ele>
        <time>2012-08-29T09:21:13Z</time>
      </trkpt>
      <trkpt lat="47.70224" lon="6.14388">
        <ele>301.20001220703</ele>
        <time>2012-08-29T09:21:17Z</time>
      </trkpt>
      <trkpt lat="47.70226" lon="6.14386">
        <ele>301.79998779297</ele>
        <time>2012-08-29T09:21:18Z</time>
      </trkpt>
      <trkpt lat="47.70228" lon="6.14385">
        <ele>302.20001220703</ele>
        <time>2012-08-29T09:21:19Z</time>
      </trkpt>
      <trkpt lat="47.7023" lon="6.14382">
        <ele>302.60000610352</ele>
        <time>2012-08-29T09:21:20Z</time>
      </trkpt>
      <trkpt lat="47.70232" lon="6.14381">
        <ele>303</ele>
        <time>2012-08-29T09:21:21Z</time>
      </trkpt>
      <trkpt lat="47.70244" lon="6.14368">
        <ele>303</ele>
        <time>2012-08-29T09:21:28Z</time>
      </trkpt>
      <trkpt lat="47.70257" lon="6.14355">
        <ele>303</ele>
        <time>2012-08-29T09:21:35Z</time>
      </trkpt>
      <trkpt lat="47.70267" lon="6.14345">
        <ele>303.39999389648</ele>
        <time>2012-08-29T09:21:41Z</time>
      </trkpt>
      <trkpt lat="47.70269" lon="6.14344">
        <ele>303.79998779297</ele>
        <time>2012-08-29T09:21:42Z</time>
      </trkpt>
      <trkpt lat="47.7027" lon="6.14342">
        <ele>304.20001220703</ele>
        <time>2012-08-29T09:21:43Z</time>
      </trkpt>
      <trkpt lat="47.70272" lon="6.1434">
        <ele>304.60000610352</ele>
        <time>2012-08-29T09:21:44Z</time>
      </trkpt>
      <trkpt lat="47.70274" lon="6.14339">
        <ele>305</ele>
        <time>2012-08-29T09:21:45Z</time>
      </trkpt>
      <trkpt lat="47.70283" lon="6.14331">
        <ele>305</ele>
        <time>2012-08-29T09:21:50Z</time>
      </trkpt>
      <trkpt lat="47.70297" lon="6.1432">
        <ele>305</ele>
        <time>2012-08-29T09:21:57Z</time>
      </trkpt>
      <trkpt lat="47.70306" lon="6.14306">
        <ele>305</ele>
        <time>2012-08-29T09:22:03Z</time>
      </trkpt>
      <trkpt lat="47.70313" lon="6.14293">
        <ele>305.39999389648</ele>
        <time>2012-08-29T09:22:08Z</time>
      </trkpt>
      <trkpt lat="47.70315" lon="6.1429">
        <ele>305.79998779297</ele>
        <time>2012-08-29T09:22:09Z</time>
      </trkpt>
      <trkpt lat="47.70316" lon="6.14288">
        <ele>306.20001220703</ele>
        <time>2012-08-29T09:22:10Z</time>
      </trkpt>
      <trkpt lat="47.70317" lon="6.14285">
        <ele>306.60000610352</ele>
        <time>2012-08-29T09:22:11Z</time>
      </trkpt>
      <trkpt lat="47.70318" lon="6.14283">
        <ele>307</ele>
        <time>2012-08-29T09:22:12Z</time>
      </trkpt>
      <trkpt lat="47.70323" lon="6.14275">
        <ele>307</ele>
        <time>2012-08-29T09:22:16Z</time>
      </trkpt>
      <trkpt lat="47.70334" lon="6.14263">
        <ele>307</ele>
        <time>2012-08-29T09:22:23Z</time>
      </trkpt>
      <trkpt lat="47.70342" lon="6.14247">
        <ele>307</ele>
        <time>2012-08-29T09:22:29Z</time>
      </trkpt>
      <trkpt lat="47.70343" lon="6.14244">
        <ele>307</ele>
        <time>2012-08-29T09:22:30Z</time>
      </trkpt>
      <trkpt lat="47.70347" lon="6.14222">
        <ele>307</ele>
        <time>2012-08-29T09:22:37Z</time>
      </trkpt>
      <trkpt lat="47.70346" lon="6.14219">
        <ele>307.60000610352</ele>
        <time>2012-08-29T09:22:38Z</time>
      </trkpt>
      <trkpt lat="47.70345" lon="6.14217">
        <ele>308</ele>
        <time>2012-08-29T09:22:39Z</time>
      </trkpt>
      <trkpt lat="47.70344" lon="6.14214">
        <ele>308.39999389648</ele>
        <time>2012-08-29T09:22:40Z</time>
      </trkpt>
      <trkpt lat="47.70343" lon="6.14212">
        <ele>309.20001220703</ele>
        <time>2012-08-29T09:22:41Z</time>
      </trkpt>
      <trkpt lat="47.70339" lon="6.14204">
        <ele>309.20001220703</ele>
        <time>2012-08-29T09:22:45Z</time>
      </trkpt>
      <trkpt lat="47.7034" lon="6.14201">
        <ele>309.20001220703</ele>
        <time>2012-08-29T09:22:46Z</time>
      </trkpt>
      <trkpt lat="47.70338" lon="6.14193">
        <ele>309.20001220703</ele>
        <time>2012-08-29T09:22:50Z</time>
      </trkpt>
      <trkpt lat="47.70333" lon="6.14175">
        <ele>309.20001220703</ele>
        <time>2012-08-29T09:22:57Z</time>
      </trkpt>
      <trkpt lat="47.70329" lon="6.14162">
        <ele>309.60000610352</ele>
        <time>2012-08-29T09:23:02Z</time>
      </trkpt>
      <trkpt lat="47.70327" lon="6.1416">
        <ele>310</ele>
        <time>2012-08-29T09:23:03Z</time>
      </trkpt>
      <trkpt lat="47.70327" lon="6.14157">
        <ele>310.39999389648</ele>
        <time>2012-08-29T09:23:04Z</time>
      </trkpt>
      <trkpt lat="47.70326" lon="6.14154">
        <ele>311.20001220703</ele>
        <time>2012-08-29T09:23:05Z</time>
      </trkpt>
      <trkpt lat="47.70325" lon="6.14151">
        <ele>311.20001220703</ele>
        <time>2012-08-29T09:23:06Z</time>
      </trkpt>
      <trkpt lat="47.70324" lon="6.14145">
        <ele>311.20001220703</ele>
        <time>2012-08-29T09:23:08Z</time>
      </trkpt>
      <trkpt lat="47.70319" lon="6.14127">
        <ele>311.20001220703</ele>
        <time>2012-08-29T09:23:14Z</time>
      </trkpt>
      <trkpt lat="47.70313" lon="6.14112">
        <ele>311.20001220703</ele>
        <time>2012-08-29T09:23:20Z</time>
      </trkpt>
      <trkpt lat="47.70313" lon="6.14109">
        <ele>311.20001220703</ele>
        <time>2012-08-29T09:23:21Z</time>
      </trkpt>
      <trkpt lat="47.70308" lon="6.14093">
        <ele>311.20001220703</ele>
        <time>2012-08-29T09:23:28Z</time>
      </trkpt>
      <trkpt lat="47.70307" lon="6.14088">
        <ele>312</ele>
        <time>2012-08-29T09:23:30Z</time>
      </trkpt>
      <trkpt lat="47.70306" lon="6.14085">
        <ele>312.39999389648</ele>
        <time>2012-08-29T09:23:31Z</time>
      </trkpt>
      <trkpt lat="47.70306" lon="6.14083">
        <ele>312.79998779297</ele>
        <time>2012-08-29T09:23:32Z</time>
      </trkpt>
      <trkpt lat="47.70305" lon="6.1408">
        <ele>313.20001220703</ele>
        <time>2012-08-29T09:23:33Z</time>
      </trkpt>
      <trkpt lat="47.70304" lon="6.14074">
        <ele>313.20001220703</ele>
        <time>2012-08-29T09:23:36Z</time>
      </trkpt>
      <trkpt lat="47.703" lon="6.14061">
        <ele>313.20001220703</ele>
        <time>2012-08-29T09:23:43Z</time>
      </trkpt>
      <trkpt lat="47.703" lon="6.14056">
        <ele>313.60000610352</ele>
        <time>2012-08-29T09:23:46Z</time>
      </trkpt>
      <trkpt lat="47.703" lon="6.14054">
        <ele>314</ele>
        <time>2012-08-29T09:23:47Z</time>
      </trkpt>
      <trkpt lat="47.703" lon="6.14053">
        <ele>314.60000610352</ele>
        <time>2012-08-29T09:23:48Z</time>
      </trkpt>
      <trkpt lat="47.703" lon="6.14051">
        <ele>315</ele>
        <time>2012-08-29T09:23:49Z</time>
      </trkpt>
      <trkpt lat="47.703" lon="6.14049">
        <ele>315.39999389648</ele>
        <time>2012-08-29T09:23:50Z</time>
      </trkpt>
      <trkpt lat="47.70299" lon="6.14042">
        <ele>315.39999389648</ele>
        <time>2012-08-29T09:23:55Z</time>
      </trkpt>
      <trkpt lat="47.70298" lon="6.14039">
        <ele>315.39999389648</ele>
        <time>2012-08-29T09:23:56Z</time>
      </trkpt>
      <trkpt lat="47.70297" lon="6.14034">
        <ele>315.39999389648</ele>
        <time>2012-08-29T09:23:59Z</time>
      </trkpt>
      <trkpt lat="47.70297" lon="6.14032">
        <ele>315.79998779297</ele>
        <time>2012-08-29T09:24:01Z</time>
      </trkpt>
      <trkpt lat="47.70297" lon="6.14031">
        <ele>316.20001220703</ele>
        <time>2012-08-29T09:24:02Z</time>
      </trkpt>
      <trkpt lat="47.70296" lon="6.14029">
        <ele>316.60000610352</ele>
        <time>2012-08-29T09:24:03Z</time>
      </trkpt>
      <trkpt lat="47.70296" lon="6.14027">
        <ele>317</ele>
        <time>2012-08-29T09:24:04Z</time>
      </trkpt>
      <trkpt lat="47.70295" lon="6.14024">
        <ele>317.60000610352</ele>
        <time>2012-08-29T09:24:05Z</time>
      </trkpt>
      <trkpt lat="47.70294" lon="6.14022">
        <ele>317.60000610352</ele>
        <time>2012-08-29T09:24:06Z</time>
      </trkpt>
      <trkpt lat="47.70292" lon="6.14008">
        <ele>317.60000610352</ele>
        <time>2012-08-29T09:24:13Z</time>
      </trkpt>
      <trkpt lat="47.7029" lon="6.13999">
        <ele>318</ele>
        <time>2012-08-29T09:24:18Z</time>
      </trkpt>
      <trkpt lat="47.7029" lon="6.13995">
        <ele>318.39999389648</ele>
        <time>2012-08-29T09:24:19Z</time>
      </trkpt>
      <trkpt lat="47.70289" lon="6.13992">
        <ele>319.20001220703</ele>
        <time>2012-08-29T09:24:20Z</time>
      </trkpt>
      <trkpt lat="47.70288" lon="6.13989">
        <ele>319.60000610352</ele>
        <time>2012-08-29T09:24:21Z</time>
      </trkpt>
      <trkpt lat="47.70288" lon="6.13986">
        <ele>319.60000610352</ele>
        <time>2012-08-29T09:24:22Z</time>
      </trkpt>
      <trkpt lat="47.70285" lon="6.13974">
        <ele>319.60000610352</ele>
        <time>2012-08-29T09:24:27Z</time>
      </trkpt>
      <trkpt lat="47.70282" lon="6.13961">
        <ele>319.60000610352</ele>
        <time>2012-08-29T09:24:33Z</time>
      </trkpt>
      <trkpt lat="47.70279" lon="6.13954">
        <ele>320</ele>
        <time>2012-08-29T09:24:36Z</time>
      </trkpt>
      <trkpt lat="47.70279" lon="6.13951">
        <ele>320.39999389648</ele>
        <time>2012-08-29T09:24:37Z</time>
      </trkpt>
      <trkpt lat="47.70278" lon="6.13948">
        <ele>320.79998779297</ele>
        <time>2012-08-29T09:24:38Z</time>
      </trkpt>
      <trkpt lat="47.70277" lon="6.13946">
        <ele>321.20001220703</ele>
        <time>2012-08-29T09:24:39Z</time>
      </trkpt>
      <trkpt lat="47.70277" lon="6.13943">
        <ele>321.60000610352</ele>
        <time>2012-08-29T09:24:40Z</time>
      </trkpt>
      <trkpt lat="47.70271" lon="6.13922">
        <ele>321.60000610352</ele>
        <time>2012-08-29T09:24:47Z</time>
      </trkpt>
      <trkpt lat="47.70269" lon="6.13911">
        <ele>321.60000610352</ele>
        <time>2012-08-29T09:24:51Z</time>
      </trkpt>
      <trkpt lat="47.70268" lon="6.13905">
        <ele>321.60000610352</ele>
        <time>2012-08-29T09:24:53Z</time>
      </trkpt>
      <trkpt lat="47.70259" lon="6.13887">
        <ele>321.60000610352</ele>
        <time>2012-08-29T09:25:00Z</time>
      </trkpt>
      <trkpt lat="47.70257" lon="6.13881">
        <ele>322</ele>
        <time>2012-08-29T09:25:03Z</time>
      </trkpt>
      <trkpt lat="47.70257" lon="6.13879">
        <ele>322.39999389648</ele>
        <time>2012-08-29T09:25:04Z</time>
      </trkpt>
      <trkpt lat="47.70258" lon="6.13876">
        <ele>322.79998779297</ele>
        <time>2012-08-29T09:25:05Z</time>
      </trkpt>
      <trkpt lat="47.70258" lon="6.13874">
        <ele>323.20001220703</ele>
        <time>2012-08-29T09:25:06Z</time>
      </trkpt>
      <trkpt lat="47.70259" lon="6.13872">
        <ele>323.60000610352</ele>
        <time>2012-08-29T09:25:07Z</time>
      </trkpt>
      <trkpt lat="47.70259" lon="6.13869">
        <ele>323.60000610352</ele>
        <time>2012-08-29T09:25:10Z</time>
      </trkpt>
      <trkpt lat="47.70264" lon="6.13863">
        <ele>323.60000610352</ele>
        <time>2012-08-29T09:25:50Z</time>
      </trkpt>
      <trkpt lat="47.70265" lon="6.13862">
        <ele>323.60000610352</ele>
        <time>2012-08-29T09:25:51Z</time>
      </trkpt>
      <trkpt lat="47.70269" lon="6.13853">
        <ele>323.60000610352</ele>
        <time>2012-08-29T09:25:56Z</time>
      </trkpt>
      <trkpt lat="47.70269" lon="6.13851">
        <ele>323.60000610352</ele>
        <time>2012-08-29T09:25:57Z</time>
      </trkpt>
      <trkpt lat="47.7027" lon="6.13833">
        <ele>323.60000610352</ele>
        <time>2012-08-29T09:26:04Z</time>
      </trkpt>
      <trkpt lat="47.70266" lon="6.13808">
        <ele>323.60000610352</ele>
        <time>2012-08-29T09:26:12Z</time>
      </trkpt>
      <trkpt lat="47.70264" lon="6.13791">
        <ele>323.60000610352</ele>
        <time>2012-08-29T09:26:18Z</time>
      </trkpt>
      <trkpt lat="47.70261" lon="6.13774">
        <ele>323.60000610352</ele>
        <time>2012-08-29T09:26:24Z</time>
      </trkpt>
      <trkpt lat="47.7026" lon="6.13769">
        <ele>324</ele>
        <time>2012-08-29T09:26:26Z</time>
      </trkpt>
      <trkpt lat="47.7026" lon="6.13766">
        <ele>324.39999389648</ele>
        <time>2012-08-29T09:26:27Z</time>
      </trkpt>
      <trkpt lat="47.70259" lon="6.13763">
        <ele>324.79998779297</ele>
        <time>2012-08-29T09:26:28Z</time>
      </trkpt>
      <trkpt lat="47.70259" lon="6.13761">
        <ele>325.20001220703</ele>
        <time>2012-08-29T09:26:29Z</time>
      </trkpt>
      <trkpt lat="47.70258" lon="6.13758">
        <ele>325.60000610352</ele>
        <time>2012-08-29T09:26:30Z</time>
      </trkpt>
      <trkpt lat="47.70257" lon="6.13753">
        <ele>325.60000610352</ele>
        <time>2012-08-29T09:26:32Z</time>
      </trkpt>
      <trkpt lat="47.70255" lon="6.13732">
        <ele>325.60000610352</ele>
        <time>2012-08-29T09:26:40Z</time>
      </trkpt>
      <trkpt lat="47.70251" lon="6.13714">
        <ele>325.60000610352</ele>
        <time>2012-08-29T09:26:46Z</time>
      </trkpt>
      <trkpt lat="47.70249" lon="6.13697">
        <ele>325.60000610352</ele>
        <time>2012-08-29T09:26:53Z</time>
      </trkpt>
      <trkpt lat="47.70247" lon="6.13682">
        <ele>325.60000610352</ele>
        <time>2012-08-29T09:26:59Z</time>
      </trkpt>
      <trkpt lat="47.70246" lon="6.1368">
        <ele>326</ele>
        <time>2012-08-29T09:27:00Z</time>
      </trkpt>
      <trkpt lat="47.70246" lon="6.13678">
        <ele>326.39999389648</ele>
        <time>2012-08-29T09:27:01Z</time>
      </trkpt>
      <trkpt lat="47.70245" lon="6.13675">
        <ele>326.79998779297</ele>
        <time>2012-08-29T09:27:02Z</time>
      </trkpt>
      <trkpt lat="47.70245" lon="6.13672">
        <ele>327.20001220703</ele>
        <time>2012-08-29T09:27:03Z</time>
      </trkpt>
      <trkpt lat="47.70244" lon="6.1367">
        <ele>327.60000610352</ele>
        <time>2012-08-29T09:27:04Z</time>
      </trkpt>
      <trkpt lat="47.70244" lon="6.13662">
        <ele>327.60000610352</ele>
        <time>2012-08-29T09:27:07Z</time>
      </trkpt>
      <trkpt lat="47.70241" lon="6.13645">
        <ele>327.60000610352</ele>
        <time>2012-08-29T09:27:13Z</time>
      </trkpt>
      <trkpt lat="47.70239" lon="6.13628">
        <ele>327.60000610352</ele>
        <time>2012-08-29T09:27:19Z</time>
      </trkpt>
      <trkpt lat="47.70236" lon="6.13613">
        <ele>327.60000610352</ele>
        <time>2012-08-29T09:27:25Z</time>
      </trkpt>
      <trkpt lat="47.70234" lon="6.13588">
        <ele>327.60000610352</ele>
        <time>2012-08-29T09:27:32Z</time>
      </trkpt>
      <trkpt lat="47.70227" lon="6.1355">
        <ele>327.60000610352</ele>
        <time>2012-08-29T09:27:41Z</time>
      </trkpt>
      <trkpt lat="47.70222" lon="6.13518">
        <ele>327.60000610352</ele>
        <time>2012-08-29T09:27:49Z</time>
      </trkpt>
      <trkpt lat="47.70219" lon="6.13489">
        <ele>327.20001220703</ele>
        <time>2012-08-29T09:27:56Z</time>
      </trkpt>
      <trkpt lat="47.70218" lon="6.13484">
        <ele>326.79998779297</ele>
        <time>2012-08-29T09:27:57Z</time>
      </trkpt>
      <trkpt lat="47.70217" lon="6.13479">
        <ele>326.39999389648</ele>
        <time>2012-08-29T09:27:58Z</time>
      </trkpt>
      <trkpt lat="47.70216" lon="6.13474">
        <ele>326</ele>
        <time>2012-08-29T09:27:59Z</time>
      </trkpt>
      <trkpt lat="47.70215" lon="6.13468">
        <ele>325.60000610352</ele>
        <time>2012-08-29T09:28:00Z</time>
      </trkpt>
      <trkpt lat="47.70211" lon="6.13439">
        <ele>325.60000610352</ele>
        <time>2012-08-29T09:28:06Z</time>
      </trkpt>
      <trkpt lat="47.7021" lon="6.13436">
        <ele>325.20001220703</ele>
        <time>2012-08-29T09:28:07Z</time>
      </trkpt>
      <trkpt lat="47.7021" lon="6.13434">
        <ele>324.79998779297</ele>
        <time>2012-08-29T09:28:08Z</time>
      </trkpt>
      <trkpt lat="47.70209" lon="6.13432">
        <ele>324.39999389648</ele>
        <time>2012-08-29T09:28:09Z</time>
      </trkpt>
      <trkpt lat="47.70209" lon="6.1343">
        <ele>324</ele>
        <time>2012-08-29T09:28:10Z</time>
      </trkpt>
      <trkpt lat="47.70208" lon="6.13426">
        <ele>323.60000610352</ele>
        <time>2012-08-29T09:28:11Z</time>
      </trkpt>
      <trkpt lat="47.70208" lon="6.13412">
        <ele>323.60000610352</ele>
        <time>2012-08-29T09:28:16Z</time>
      </trkpt>
      <trkpt lat="47.70209" lon="6.134">
        <ele>323.60000610352</ele>
        <time>2012-08-29T09:28:23Z</time>
      </trkpt>
      <trkpt lat="47.70206" lon="6.13396">
        <ele>323.60000610352</ele>
        <time>2012-08-29T09:28:25Z</time>
      </trkpt>
      <trkpt lat="47.70202" lon="6.13393">
        <ele>322.79998779297</ele>
        <time>2012-08-29T09:28:27Z</time>
      </trkpt>
      <trkpt lat="47.702" lon="6.13391">
        <ele>322.39999389648</ele>
        <time>2012-08-29T09:28:28Z</time>
      </trkpt>
      <trkpt lat="47.70199" lon="6.13389">
        <ele>322</ele>
        <time>2012-08-29T09:28:29Z</time>
      </trkpt>
      <trkpt lat="47.70198" lon="6.13387">
        <ele>321.60000610352</ele>
        <time>2012-08-29T09:28:30Z</time>
      </trkpt>
      <trkpt lat="47.70198" lon="6.13385">
        <ele>321.60000610352</ele>
        <time>2012-08-29T09:28:31Z</time>
      </trkpt>
      <trkpt lat="47.702" lon="6.13381">
        <ele>321.60000610352</ele>
        <time>2012-08-29T09:28:33Z</time>
      </trkpt>
      <trkpt lat="47.70201" lon="6.13375">
        <ele>321.60000610352</ele>
        <time>2012-08-29T09:28:36Z</time>
      </trkpt>
      <trkpt lat="47.70201" lon="6.13365">
        <ele>321.60000610352</ele>
        <time>2012-08-29T09:28:39Z</time>
      </trkpt>
      <trkpt lat="47.70199" lon="6.13359">
        <ele>321.60000610352</ele>
        <time>2012-08-29T09:28:41Z</time>
      </trkpt>
      <trkpt lat="47.70195" lon="6.13347">
        <ele>321</ele>
        <time>2012-08-29T09:28:45Z</time>
      </trkpt>
      <trkpt lat="47.70193" lon="6.13344">
        <ele>320.60000610352</ele>
        <time>2012-08-29T09:28:46Z</time>
      </trkpt>
      <trkpt lat="47.70192" lon="6.13342">
        <ele>320.20001220703</ele>
        <time>2012-08-29T09:28:47Z</time>
      </trkpt>
      <trkpt lat="47.70189" lon="6.13339">
        <ele>319.79998779297</ele>
        <time>2012-08-29T09:28:48Z</time>
      </trkpt>
      <trkpt lat="47.70187" lon="6.13336">
        <ele>319.39999389648</ele>
        <time>2012-08-29T09:28:49Z</time>
      </trkpt>
      <trkpt lat="47.70181" lon="6.13331">
        <ele>319.39999389648</ele>
        <time>2012-08-29T09:28:51Z</time>
      </trkpt>
      <trkpt lat="47.7017" lon="6.13314">
        <ele>319.39999389648</ele>
        <time>2012-08-29T09:28:57Z</time>
      </trkpt>
      <trkpt lat="47.70169" lon="6.13311">
        <ele>318.79998779297</ele>
        <time>2012-08-29T09:28:58Z</time>
      </trkpt>
      <trkpt lat="47.70167" lon="6.13308">
        <ele>318.39999389648</ele>
        <time>2012-08-29T09:28:59Z</time>
      </trkpt>
      <trkpt lat="47.70165" lon="6.13306">
        <ele>317.79998779297</ele>
        <time>2012-08-29T09:29:00Z</time>
      </trkpt>
      <trkpt lat="47.70164" lon="6.13305">
        <ele>317.39999389648</ele>
        <time>2012-08-29T09:29:01Z</time>
      </trkpt>
      <trkpt lat="47.70163" lon="6.13303">
        <ele>316.79998779297</ele>
        <time>2012-08-29T09:29:02Z</time>
      </trkpt>
      <trkpt lat="47.70161" lon="6.13299">
        <ele>316.79998779297</ele>
        <time>2012-08-29T09:29:05Z</time>
      </trkpt>
      <trkpt lat="47.70159" lon="6.1329">
        <ele>316.39999389648</ele>
        <time>2012-08-29T09:29:07Z</time>
      </trkpt>
      <trkpt lat="47.70159" lon="6.13287">
        <ele>316</ele>
        <time>2012-08-29T09:29:08Z</time>
      </trkpt>
      <trkpt lat="47.70159" lon="6.13284">
        <ele>315.60000610352</ele>
        <time>2012-08-29T09:29:09Z</time>
      </trkpt>
      <trkpt lat="47.70159" lon="6.13281">
        <ele>315.20001220703</ele>
        <time>2012-08-29T09:29:10Z</time>
      </trkpt>
      <trkpt lat="47.70158" lon="6.13279">
        <ele>314.79998779297</ele>
        <time>2012-08-29T09:29:11Z</time>
      </trkpt>
      <trkpt lat="47.70156" lon="6.13276">
        <ele>314.79998779297</ele>
        <time>2012-08-29T09:29:12Z</time>
      </trkpt>
      <trkpt lat="47.70152" lon="6.13268">
        <ele>314.39999389648</ele>
        <time>2012-08-29T09:29:15Z</time>
      </trkpt>
      <trkpt lat="47.70151" lon="6.13267">
        <ele>313.60000610352</ele>
        <time>2012-08-29T09:29:16Z</time>
      </trkpt>
      <trkpt lat="47.70149" lon="6.13266">
        <ele>313</ele>
        <time>2012-08-29T09:29:17Z</time>
      </trkpt>
      <trkpt lat="47.70146" lon="6.13265">
        <ele>312.60000610352</ele>
        <time>2012-08-29T09:29:18Z</time>
      </trkpt>
      <trkpt lat="47.70142" lon="6.13262">
        <ele>312.60000610352</ele>
        <time>2012-08-29T09:29:21Z</time>
      </trkpt>
      <trkpt lat="47.7014" lon="6.1326">
        <ele>312.60000610352</ele>
        <time>2012-08-29T09:29:23Z</time>
      </trkpt>
      <trkpt lat="47.7013" lon="6.13248">
        <ele>312.60000610352</ele>
        <time>2012-08-29T09:29:30Z</time>
      </trkpt>
      <trkpt lat="47.70116" lon="6.13235">
        <ele>312.60000610352</ele>
        <time>2012-08-29T09:29:34Z</time>
      </trkpt>
      <trkpt lat="47.70099" lon="6.13236">
        <ele>312.60000610352</ele>
        <time>2012-08-29T09:29:39Z</time>
      </trkpt>
      <trkpt lat="47.70086" lon="6.1324">
        <ele>312.60000610352</ele>
        <time>2012-08-29T09:29:45Z</time>
      </trkpt>
      <trkpt lat="47.70077" lon="6.13237">
        <ele>313</ele>
        <time>2012-08-29T09:29:49Z</time>
      </trkpt>
      <trkpt lat="47.70074" lon="6.13237">
        <ele>313.39999389648</ele>
        <time>2012-08-29T09:29:50Z</time>
      </trkpt>
      <trkpt lat="47.70071" lon="6.13236">
        <ele>313.79998779297</ele>
        <time>2012-08-29T09:29:51Z</time>
      </trkpt>
      <trkpt lat="47.70069" lon="6.13236">
        <ele>314.39999389648</ele>
        <time>2012-08-29T09:29:52Z</time>
      </trkpt>
      <trkpt lat="47.70068" lon="6.13235">
        <ele>314.79998779297</ele>
        <time>2012-08-29T09:29:53Z</time>
      </trkpt>
      <trkpt lat="47.70058" lon="6.13235">
        <ele>314.79998779297</ele>
        <time>2012-08-29T09:29:57Z</time>
      </trkpt>
      <trkpt lat="47.70043" lon="6.13232">
        <ele>314.79998779297</ele>
        <time>2012-08-29T09:30:05Z</time>
      </trkpt>
      <trkpt lat="47.7004" lon="6.13231">
        <ele>315.20001220703</ele>
        <time>2012-08-29T09:30:08Z</time>
      </trkpt>
      <trkpt lat="47.70038" lon="6.1323">
        <ele>315.60000610352</ele>
        <time>2012-08-29T09:30:09Z</time>
      </trkpt>
      <trkpt lat="47.70037" lon="6.13229">
        <ele>316</ele>
        <time>2012-08-29T09:30:10Z</time>
      </trkpt>
      <trkpt lat="47.70036" lon="6.13229">
        <ele>316.39999389648</ele>
        <time>2012-08-29T09:30:11Z</time>
      </trkpt>
      <trkpt lat="47.70035" lon="6.13229">
        <ele>316.79998779297</ele>
        <time>2012-08-29T09:30:12Z</time>
      </trkpt>
      <trkpt lat="47.70021" lon="6.13227">
        <ele>316.79998779297</ele>
        <time>2012-08-29T09:30:19Z</time>
      </trkpt>
      <trkpt lat="47.7001" lon="6.13228">
        <ele>316.79998779297</ele>
        <time>2012-08-29T09:30:25Z</time>
      </trkpt>
      <trkpt lat="47.69994" lon="6.13225">
        <ele>316.79998779297</ele>
        <time>2012-08-29T09:30:32Z</time>
      </trkpt>
      <trkpt lat="47.69977" lon="6.13224">
        <ele>316.79998779297</ele>
        <time>2012-08-29T09:30:39Z</time>
      </trkpt>
      <trkpt lat="47.69956" lon="6.13223">
        <ele>316.79998779297</ele>
        <time>2012-08-29T09:30:47Z</time>
      </trkpt>
      <trkpt lat="47.69941" lon="6.13216">
        <ele>316.79998779297</ele>
        <time>2012-08-29T09:30:53Z</time>
      </trkpt>
      <trkpt lat="47.69928" lon="6.13211">
        <ele>316.79998779297</ele>
        <time>2012-08-29T09:30:59Z</time>
      </trkpt>
      <trkpt lat="47.69913" lon="6.13206">
        <ele>316.79998779297</ele>
        <time>2012-08-29T09:31:06Z</time>
      </trkpt>
      <trkpt lat="47.69897" lon="6.13201">
        <ele>316.79998779297</ele>
        <time>2012-08-29T09:31:13Z</time>
      </trkpt>
      <trkpt lat="47.69881" lon="6.13198">
        <ele>316.79998779297</ele>
        <time>2012-08-29T09:31:18Z</time>
      </trkpt>
      <trkpt lat="47.69868" lon="6.13191">
        <ele>317.20001220703</ele>
        <time>2012-08-29T09:31:23Z</time>
      </trkpt>
      <trkpt lat="47.69866" lon="6.1319">
        <ele>317.60000610352</ele>
        <time>2012-08-29T09:31:24Z</time>
      </trkpt>
      <trkpt lat="47.69864" lon="6.13188">
        <ele>318</ele>
        <time>2012-08-29T09:31:25Z</time>
      </trkpt>
      <trkpt lat="47.69863" lon="6.13187">
        <ele>318.39999389648</ele>
        <time>2012-08-29T09:31:26Z</time>
      </trkpt>
      <trkpt lat="47.69862" lon="6.13187">
        <ele>318.79998779297</ele>
        <time>2012-08-29T09:31:27Z</time>
      </trkpt>
      <trkpt lat="47.69862" lon="6.13187">
        <ele>318.79998779297</ele>
        <time>2012-08-29T09:31:28Z</time>
      </trkpt>
      <trkpt lat="47.69861" lon="6.13188">
        <ele>318.79998779297</ele>
        <time>2012-08-29T09:33:06Z</time>
      </trkpt>
      <trkpt lat="47.69858" lon="6.13169">
        <ele>318.79998779297</ele>
        <time>2012-08-29T09:33:11Z</time>
      </trkpt>
      <trkpt lat="47.69857" lon="6.13152">
        <ele>318.79998779297</ele>
        <time>2012-08-29T09:33:14Z</time>
      </trkpt>
      <trkpt lat="47.69855" lon="6.13139">
        <ele>318.79998779297</ele>
        <time>2012-08-29T09:33:16Z</time>
      </trkpt>
      <trkpt lat="47.69854" lon="6.13131">
        <ele>318.39999389648</ele>
        <time>2012-08-29T09:33:17Z</time>
      </trkpt>
      <trkpt lat="47.69853" lon="6.13123">
        <ele>318</ele>
        <time>2012-08-29T09:33:18Z</time>
      </trkpt>
      <trkpt lat="47.69851" lon="6.13115">
        <ele>317.60000610352</ele>
        <time>2012-08-29T09:33:19Z</time>
      </trkpt>
      <trkpt lat="47.69848" lon="6.13107">
        <ele>317.20001220703</ele>
        <time>2012-08-29T09:33:20Z</time>
      </trkpt>
      <trkpt lat="47.69845" lon="6.13099">
        <ele>316.79998779297</ele>
        <time>2012-08-29T09:33:21Z</time>
      </trkpt>
      <trkpt lat="47.69834" lon="6.1307">
        <ele>316.39999389648</ele>
        <time>2012-08-29T09:33:25Z</time>
      </trkpt>
      <trkpt lat="47.69831" lon="6.13063">
        <ele>316</ele>
        <time>2012-08-29T09:33:26Z</time>
      </trkpt>
      <trkpt lat="47.69829" lon="6.13056">
        <ele>315.60000610352</ele>
        <time>2012-08-29T09:33:27Z</time>
      </trkpt>
      <trkpt lat="47.69826" lon="6.13049">
        <ele>315.20001220703</ele>
        <time>2012-08-29T09:33:28Z</time>
      </trkpt>
      <trkpt lat="47.69825" lon="6.13042">
        <ele>314.79998779297</ele>
        <time>2012-08-29T09:33:29Z</time>
      </trkpt>
      <trkpt lat="47.6982" lon="6.13027">
        <ele>314.79998779297</ele>
        <time>2012-08-29T09:33:32Z</time>
      </trkpt>
      <trkpt lat="47.69802" lon="6.12986">
        <ele>314.79998779297</ele>
        <time>2012-08-29T09:33:41Z</time>
      </trkpt>
      <trkpt lat="47.69791" lon="6.12963">
        <ele>315.20001220703</ele>
        <time>2012-08-29T09:33:48Z</time>
      </trkpt>
      <trkpt lat="47.69789" lon="6.12959">
        <ele>315.60000610352</ele>
        <time>2012-08-29T09:33:49Z</time>
      </trkpt>
      <trkpt lat="47.69788" lon="6.12956">
        <ele>316</ele>
        <time>2012-08-29T09:33:50Z</time>
      </trkpt>
      <trkpt lat="47.69786" lon="6.12953">
        <ele>316.39999389648</ele>
        <time>2012-08-29T09:33:51Z</time>
      </trkpt>
      <trkpt lat="47.69784" lon="6.1295">
        <ele>316.79998779297</ele>
        <time>2012-08-29T09:33:52Z</time>
      </trkpt>
      <trkpt lat="47.6978" lon="6.12943">
        <ele>316.79998779297</ele>
        <time>2012-08-29T09:33:54Z</time>
      </trkpt>
      <trkpt lat="47.69773" lon="6.12925">
        <ele>316.79998779297</ele>
        <time>2012-08-29T09:33:59Z</time>
      </trkpt>
      <trkpt lat="47.69763" lon="6.12896">
        <ele>316.79998779297</ele>
        <time>2012-08-29T09:34:06Z</time>
      </trkpt>
      <trkpt lat="47.69751" lon="6.12865">
        <ele>316.79998779297</ele>
        <time>2012-08-29T09:34:12Z</time>
      </trkpt>
      <trkpt lat="47.69731" lon="6.12813">
        <ele>316.79998779297</ele>
        <time>2012-08-29T09:34:21Z</time>
      </trkpt>
      <trkpt lat="47.69721" lon="6.12785">
        <ele>316.79998779297</ele>
        <time>2012-08-29T09:34:26Z</time>
      </trkpt>
      <trkpt lat="47.69716" lon="6.12773">
        <ele>316.79998779297</ele>
        <time>2012-08-29T09:34:28Z</time>
      </trkpt>
      <trkpt lat="47.69699" lon="6.12731">
        <ele>316.79998779297</ele>
        <time>2012-08-29T09:34:36Z</time>
      </trkpt>
      <trkpt lat="47.69684" lon="6.12691">
        <ele>316.79998779297</ele>
        <time>2012-08-29T09:34:44Z</time>
      </trkpt>
      <trkpt lat="47.69669" lon="6.1265">
        <ele>316.39999389648</ele>
        <time>2012-08-29T09:34:51Z</time>
      </trkpt>
      <trkpt lat="47.69666" lon="6.12644">
        <ele>316</ele>
        <time>2012-08-29T09:34:52Z</time>
      </trkpt>
      <trkpt lat="47.69663" lon="6.12638">
        <ele>315.60000610352</ele>
        <time>2012-08-29T09:34:53Z</time>
      </trkpt>
      <trkpt lat="47.69661" lon="6.12632">
        <ele>315</ele>
        <time>2012-08-29T09:34:54Z</time>
      </trkpt>
      <trkpt lat="47.69658" lon="6.12626">
        <ele>314.60000610352</ele>
        <time>2012-08-29T09:34:55Z</time>
      </trkpt>
      <trkpt lat="47.69645" lon="6.12602">
        <ele>314.60000610352</ele>
        <time>2012-08-29T09:34:59Z</time>
      </trkpt>
      <trkpt lat="47.69631" lon="6.12579">
        <ele>313.79998779297</ele>
        <time>2012-08-29T09:35:03Z</time>
      </trkpt>
      <trkpt lat="47.69627" lon="6.12573">
        <ele>313.39999389648</ele>
        <time>2012-08-29T09:35:04Z</time>
      </trkpt>
      <trkpt lat="47.69623" lon="6.12568">
        <ele>313</ele>
        <time>2012-08-29T09:35:05Z</time>
      </trkpt>
      <trkpt lat="47.69618" lon="6.12562">
        <ele>312.39999389648</ele>
        <time>2012-08-29T09:35:06Z</time>
      </trkpt>
      <trkpt lat="47.69594" lon="6.12534">
        <ele>312</ele>
        <time>2012-08-29T09:35:11Z</time>
      </trkpt>
      <trkpt lat="47.69588" lon="6.12528">
        <ele>311.60000610352</ele>
        <time>2012-08-29T09:35:12Z</time>
      </trkpt>
      <trkpt lat="47.69583" lon="6.12522">
        <ele>311.20001220703</ele>
        <time>2012-08-29T09:35:13Z</time>
      </trkpt>
      <trkpt lat="47.69578" lon="6.12517">
        <ele>310.79998779297</ele>
        <time>2012-08-29T09:35:14Z</time>
      </trkpt>
      <trkpt lat="47.69572" lon="6.1251">
        <ele>310.39999389648</ele>
        <time>2012-08-29T09:35:15Z</time>
      </trkpt>
      <trkpt lat="47.6956" lon="6.12498">
        <ele>310</ele>
        <time>2012-08-29T09:35:17Z</time>
      </trkpt>
      <trkpt lat="47.69554" lon="6.12492">
        <ele>309.60000610352</ele>
        <time>2012-08-29T09:35:18Z</time>
      </trkpt>
      <trkpt lat="47.69549" lon="6.12487">
        <ele>309.20001220703</ele>
        <time>2012-08-29T09:35:19Z</time>
      </trkpt>
      <trkpt lat="47.69545" lon="6.12482">
        <ele>308.79998779297</ele>
        <time>2012-08-29T09:35:20Z</time>
      </trkpt>
      <trkpt lat="47.69541" lon="6.12477">
        <ele>308.39999389648</ele>
        <time>2012-08-29T09:35:21Z</time>
      </trkpt>
      <trkpt lat="47.69538" lon="6.12473">
        <ele>308</ele>
        <time>2012-08-29T09:35:22Z</time>
      </trkpt>
      <trkpt lat="47.69535" lon="6.12469">
        <ele>307.60000610352</ele>
        <time>2012-08-29T09:35:23Z</time>
      </trkpt>
      <trkpt lat="47.69532" lon="6.12465">
        <ele>307.20001220703</ele>
        <time>2012-08-29T09:35:24Z</time>
      </trkpt>
      <trkpt lat="47.6953" lon="6.12462">
        <ele>306.79998779297</ele>
        <time>2012-08-29T09:35:25Z</time>
      </trkpt>
      <trkpt lat="47.69528" lon="6.12459">
        <ele>306.39999389648</ele>
        <time>2012-08-29T09:35:26Z</time>
      </trkpt>
      <trkpt lat="47.69525" lon="6.12448">
        <ele>306.39999389648</ele>
        <time>2012-08-29T09:35:29Z</time>
      </trkpt>
      <trkpt lat="47.69522" lon="6.12441">
        <ele>306</ele>
        <time>2012-08-29T09:35:31Z</time>
      </trkpt>
      <trkpt lat="47.69521" lon="6.12438">
        <ele>305.60000610352</ele>
        <time>2012-08-29T09:35:32Z</time>
      </trkpt>
      <trkpt lat="47.6952" lon="6.12435">
        <ele>305.20001220703</ele>
        <time>2012-08-29T09:35:33Z</time>
      </trkpt>
      <trkpt lat="47.69518" lon="6.12432">
        <ele>304.79998779297</ele>
        <time>2012-08-29T09:35:34Z</time>
      </trkpt>
      <trkpt lat="47.69517" lon="6.12429">
        <ele>304.39999389648</ele>
        <time>2012-08-29T09:35:35Z</time>
      </trkpt>
      <trkpt lat="47.69515" lon="6.12427">
        <ele>304.39999389648</ele>
        <time>2012-08-29T09:35:36Z</time>
      </trkpt>
      <trkpt lat="47.6951" lon="6.12414">
        <ele>304.39999389648</ele>
        <time>2012-08-29T09:35:39Z</time>
      </trkpt>
      <trkpt lat="47.69509" lon="6.12408">
        <ele>304.39999389648</ele>
        <time>2012-08-29T09:35:40Z</time>
      </trkpt>
      <trkpt lat="47.69505" lon="6.12377">
        <ele>304</ele>
        <time>2012-08-29T09:35:44Z</time>
      </trkpt>
      <trkpt lat="47.69504" lon="6.12369">
        <ele>303.60000610352</ele>
        <time>2012-08-29T09:35:45Z</time>
      </trkpt>
      <trkpt lat="47.69504" lon="6.12359">
        <ele>303.20001220703</ele>
        <time>2012-08-29T09:35:46Z</time>
      </trkpt>
      <trkpt lat="47.69503" lon="6.1235">
        <ele>302.79998779297</ele>
        <time>2012-08-29T09:35:47Z</time>
      </trkpt>
      <trkpt lat="47.69502" lon="6.12341">
        <ele>302.39999389648</ele>
        <time>2012-08-29T09:35:48Z</time>
      </trkpt>
      <trkpt lat="47.69502" lon="6.12312">
        <ele>302.39999389648</ele>
        <time>2012-08-29T09:35:51Z</time>
      </trkpt>
      <trkpt lat="47.69501" lon="6.12303">
        <ele>301.79998779297</ele>
        <time>2012-08-29T09:35:52Z</time>
      </trkpt>
      <trkpt lat="47.69501" lon="6.12294">
        <ele>301.39999389648</ele>
        <time>2012-08-29T09:35:53Z</time>
      </trkpt>
      <trkpt lat="47.69501" lon="6.12284">
        <ele>301</ele>
        <time>2012-08-29T09:35:54Z</time>
      </trkpt>
      <trkpt lat="47.69502" lon="6.12275">
        <ele>300.60000610352</ele>
        <time>2012-08-29T09:35:55Z</time>
      </trkpt>
      <trkpt lat="47.69503" lon="6.12266">
        <ele>300</ele>
        <time>2012-08-29T09:35:56Z</time>
      </trkpt>
      <trkpt lat="47.69505" lon="6.12248">
        <ele>300</ele>
        <time>2012-08-29T09:35:58Z</time>
      </trkpt>
      <trkpt lat="47.69507" lon="6.12239">
        <ele>300</ele>
        <time>2012-08-29T09:35:59Z</time>
      </trkpt>
      <trkpt lat="47.69509" lon="6.12229">
        <ele>299.60000610352</ele>
        <time>2012-08-29T09:36:00Z</time>
      </trkpt>
      <trkpt lat="47.69512" lon="6.1222">
        <ele>299.20001220703</ele>
        <time>2012-08-29T09:36:01Z</time>
      </trkpt>
      <trkpt lat="47.69516" lon="6.12211">
        <ele>298.79998779297</ele>
        <time>2012-08-29T09:36:02Z</time>
      </trkpt>
      <trkpt lat="47.6952" lon="6.12201">
        <ele>298.39999389648</ele>
        <time>2012-08-29T09:36:03Z</time>
      </trkpt>
      <trkpt lat="47.69524" lon="6.1219">
        <ele>297.79998779297</ele>
        <time>2012-08-29T09:36:04Z</time>
      </trkpt>
      <trkpt lat="47.69527" lon="6.12177">
        <ele>297.39999389648</ele>
        <time>2012-08-29T09:36:05Z</time>
      </trkpt>
      <trkpt lat="47.69528" lon="6.12165">
        <ele>296.79998779297</ele>
        <time>2012-08-29T09:36:06Z</time>
      </trkpt>
      <trkpt lat="47.69528" lon="6.12151">
        <ele>296.20001220703</ele>
        <time>2012-08-29T09:36:07Z</time>
      </trkpt>
      <trkpt lat="47.69527" lon="6.12139">
        <ele>295.60000610352</ele>
        <time>2012-08-29T09:36:08Z</time>
      </trkpt>
      <trkpt lat="47.69525" lon="6.12126">
        <ele>294.79998779297</ele>
        <time>2012-08-29T09:36:09Z</time>
      </trkpt>
      <trkpt lat="47.69524" lon="6.12114">
        <ele>294.20001220703</ele>
        <time>2012-08-29T09:36:10Z</time>
      </trkpt>
      <trkpt lat="47.69523" lon="6.12103">
        <ele>293.60000610352</ele>
        <time>2012-08-29T09:36:11Z</time>
      </trkpt>
      <trkpt lat="47.69514" lon="6.12061">
        <ele>293.60000610352</ele>
        <time>2012-08-29T09:36:15Z</time>
      </trkpt>
      <trkpt lat="47.695" lon="6.1202">
        <ele>293.60000610352</ele>
        <time>2012-08-29T09:36:20Z</time>
      </trkpt>
      <trkpt lat="47.69491" lon="6.12001">
        <ele>293.60000610352</ele>
        <time>2012-08-29T09:36:24Z</time>
      </trkpt>
      <trkpt lat="47.69487" lon="6.11999">
        <ele>293.60000610352</ele>
        <time>2012-08-29T09:36:26Z</time>
      </trkpt>
      <trkpt lat="47.69482" lon="6.12002">
        <ele>293.20001220703</ele>
        <time>2012-08-29T09:36:28Z</time>
      </trkpt>
      <trkpt lat="47.6948" lon="6.12005">
        <ele>292.79998779297</ele>
        <time>2012-08-29T09:36:29Z</time>
      </trkpt>
      <trkpt lat="47.69478" lon="6.12008">
        <ele>292.39999389648</ele>
        <time>2012-08-29T09:36:30Z</time>
      </trkpt>
      <trkpt lat="47.69476" lon="6.1201">
        <ele>292</ele>
        <time>2012-08-29T09:36:31Z</time>
      </trkpt>
      <trkpt lat="47.69474" lon="6.12013">
        <ele>291.60000610352</ele>
        <time>2012-08-29T09:36:32Z</time>
      </trkpt>
      <trkpt lat="47.69469" lon="6.12023">
        <ele>291.60000610352</ele>
        <time>2012-08-29T09:36:35Z</time>
      </trkpt>
      <trkpt lat="47.69458" lon="6.12041">
        <ele>291.60000610352</ele>
        <time>2012-08-29T09:36:41Z</time>
      </trkpt>
      <trkpt lat="47.69443" lon="6.12064">
        <ele>291.60000610352</ele>
        <time>2012-08-29T09:36:49Z</time>
      </trkpt>
      <trkpt lat="47.69432" lon="6.12082">
        <ele>291.60000610352</ele>
        <time>2012-08-29T09:36:56Z</time>
      </trkpt>
      <trkpt lat="47.69424" lon="6.12093">
        <ele>291.60000610352</ele>
        <time>2012-08-29T09:37:01Z</time>
      </trkpt>
      <trkpt lat="47.69412" lon="6.12111">
        <ele>291.60000610352</ele>
        <time>2012-08-29T09:37:09Z</time>
      </trkpt>
      <trkpt lat="47.69402" lon="6.12126">
        <ele>291.60000610352</ele>
        <time>2012-08-29T09:37:16Z</time>
      </trkpt>
      <trkpt lat="47.6939" lon="6.12141">
        <ele>291.60000610352</ele>
        <time>2012-08-29T09:37:24Z</time>
      </trkpt>
      <trkpt lat="47.69383" lon="6.12152">
        <ele>291.60000610352</ele>
        <time>2012-08-29T09:37:30Z</time>
      </trkpt>
      <trkpt lat="47.69377" lon="6.12159">
        <ele>291.60000610352</ele>
        <time>2012-08-29T09:37:34Z</time>
      </trkpt>
      <trkpt lat="47.69373" lon="6.12164">
        <ele>291.60000610352</ele>
        <time>2012-08-29T09:37:37Z</time>
      </trkpt>
      <trkpt lat="47.69362" lon="6.12178">
        <ele>291.60000610352</ele>
        <time>2012-08-29T09:37:44Z</time>
      </trkpt>
      <trkpt lat="47.69347" lon="6.12194">
        <ele>291.60000610352</ele>
        <time>2012-08-29T09:37:53Z</time>
      </trkpt>
      <trkpt lat="47.69336" lon="6.12207">
        <ele>291.60000610352</ele>
        <time>2012-08-29T09:38:00Z</time>
      </trkpt>
      <trkpt lat="47.69328" lon="6.12217">
        <ele>291.60000610352</ele>
        <time>2012-08-29T09:38:06Z</time>
      </trkpt>
      <trkpt lat="47.69319" lon="6.12227">
        <ele>291.60000610352</ele>
        <time>2012-08-29T09:38:12Z</time>
      </trkpt>
      <trkpt lat="47.69312" lon="6.12236">
        <ele>291.60000610352</ele>
        <time>2012-08-29T09:38:17Z</time>
      </trkpt>
      <trkpt lat="47.693" lon="6.1225">
        <ele>291.60000610352</ele>
        <time>2012-08-29T09:38:24Z</time>
      </trkpt>
      <trkpt lat="47.69288" lon="6.12261">
        <ele>291.60000610352</ele>
        <time>2012-08-29T09:38:30Z</time>
      </trkpt>
      <trkpt lat="47.69285" lon="6.12265">
        <ele>291.20001220703</ele>
        <time>2012-08-29T09:38:32Z</time>
      </trkpt>
      <trkpt lat="47.69283" lon="6.12267">
        <ele>290.79998779297</ele>
        <time>2012-08-29T09:38:33Z</time>
      </trkpt>
      <trkpt lat="47.69282" lon="6.12268">
        <ele>290.39999389648</ele>
        <time>2012-08-29T09:38:34Z</time>
      </trkpt>
      <trkpt lat="47.6928" lon="6.1227">
        <ele>290</ele>
        <time>2012-08-29T09:38:35Z</time>
      </trkpt>
      <trkpt lat="47.69279" lon="6.12271">
        <ele>289.60000610352</ele>
        <time>2012-08-29T09:38:36Z</time>
      </trkpt>
      <trkpt lat="47.69274" lon="6.12275">
        <ele>289.60000610352</ele>
        <time>2012-08-29T09:38:39Z</time>
      </trkpt>
      <trkpt lat="47.69264" lon="6.12284">
        <ele>289.60000610352</ele>
        <time>2012-08-29T09:38:45Z</time>
      </trkpt>
      <trkpt lat="47.69259" lon="6.12287">
        <ele>289.60000610352</ele>
        <time>2012-08-29T09:38:48Z</time>
      </trkpt>
      <trkpt lat="47.69256" lon="6.12289">
        <ele>289.60000610352</ele>
        <time>2012-08-29T09:38:50Z</time>
      </trkpt>
      <trkpt lat="47.69245" lon="6.12295">
        <ele>289.60000610352</ele>
        <time>2012-08-29T09:38:57Z</time>
      </trkpt>
      <trkpt lat="47.69236" lon="6.123">
        <ele>289.60000610352</ele>
        <time>2012-08-29T09:39:03Z</time>
      </trkpt>
      <trkpt lat="47.69233" lon="6.12301">
        <ele>289.60000610352</ele>
        <time>2012-08-29T09:39:05Z</time>
      </trkpt>
      <trkpt lat="47.69222" lon="6.12307">
        <ele>289.60000610352</ele>
        <time>2012-08-29T09:39:12Z</time>
      </trkpt>
      <trkpt lat="47.69211" lon="6.12314">
        <ele>289.60000610352</ele>
        <time>2012-08-29T09:39:19Z</time>
      </trkpt>
      <trkpt lat="47.69196" lon="6.12324">
        <ele>289.60000610352</ele>
        <time>2012-08-29T09:39:28Z</time>
      </trkpt>
      <trkpt lat="47.69185" lon="6.12332">
        <ele>289.60000610352</ele>
        <time>2012-08-29T09:39:35Z</time>
      </trkpt>
      <trkpt lat="47.69171" lon="6.12342">
        <ele>289.60000610352</ele>
        <time>2012-08-29T09:39:44Z</time>
      </trkpt>
      <trkpt lat="47.69166" lon="6.12345">
        <ele>290</ele>
        <time>2012-08-29T09:39:47Z</time>
      </trkpt>
      <trkpt lat="47.69165" lon="6.12346">
        <ele>290.39999389648</ele>
        <time>2012-08-29T09:39:48Z</time>
      </trkpt>
      <trkpt lat="47.69163" lon="6.12348">
        <ele>290.79998779297</ele>
        <time>2012-08-29T09:39:49Z</time>
      </trkpt>
      <trkpt lat="47.69162" lon="6.12349">
        <ele>291.20001220703</ele>
        <time>2012-08-29T09:39:50Z</time>
      </trkpt>
      <trkpt lat="47.6916" lon="6.12351">
        <ele>291.60000610352</ele>
        <time>2012-08-29T09:39:51Z</time>
      </trkpt>
      <trkpt lat="47.69151" lon="6.12358">
        <ele>291.60000610352</ele>
        <time>2012-08-29T09:39:57Z</time>
      </trkpt>
      <trkpt lat="47.69138" lon="6.12368">
        <ele>291.60000610352</ele>
        <time>2012-08-29T09:40:06Z</time>
      </trkpt>
      <trkpt lat="47.69126" lon="6.12376">
        <ele>291.60000610352</ele>
        <time>2012-08-29T09:40:14Z</time>
      </trkpt>
      <trkpt lat="47.69117" lon="6.12383">
        <ele>291.60000610352</ele>
        <time>2012-08-29T09:40:20Z</time>
      </trkpt>
      <trkpt lat="47.69112" lon="6.12386">
        <ele>292</ele>
        <time>2012-08-29T09:40:23Z</time>
      </trkpt>
      <trkpt lat="47.69111" lon="6.12387">
        <ele>292.39999389648</ele>
        <time>2012-08-29T09:40:24Z</time>
      </trkpt>
      <trkpt lat="47.69109" lon="6.12388">
        <ele>292.79998779297</ele>
        <time>2012-08-29T09:40:25Z</time>
      </trkpt>
      <trkpt lat="47.69108" lon="6.12389">
        <ele>293.20001220703</ele>
        <time>2012-08-29T09:40:26Z</time>
      </trkpt>
      <trkpt lat="47.69106" lon="6.12389">
        <ele>293.60000610352</ele>
        <time>2012-08-29T09:40:27Z</time>
      </trkpt>
      <trkpt lat="47.69095" lon="6.124">
        <ele>293.60000610352</ele>
        <time>2012-08-29T09:40:35Z</time>
      </trkpt>
      <trkpt lat="47.69085" lon="6.124">
        <ele>293.60000610352</ele>
        <time>2012-08-29T09:40:41Z</time>
      </trkpt>
      <trkpt lat="47.69083" lon="6.12398">
        <ele>293.60000610352</ele>
        <time>2012-08-29T09:40:42Z</time>
      </trkpt>
      <trkpt lat="47.69083" lon="6.12397">
        <ele>293.60000610352</ele>
        <time>2012-08-29T09:40:44Z</time>
      </trkpt>
      <trkpt lat="47.69083" lon="6.12396">
        <ele>293.60000610352</ele>
        <time>2012-08-29T09:41:03Z</time>
      </trkpt>
      <trkpt lat="47.69079" lon="6.12391">
        <ele>293.60000610352</ele>
        <time>2012-08-29T09:41:06Z</time>
      </trkpt>
      <trkpt lat="47.69068" lon="6.12377">
        <ele>293.60000610352</ele>
        <time>2012-08-29T09:41:11Z</time>
      </trkpt>
      <trkpt lat="47.69055" lon="6.12371">
        <ele>293.60000610352</ele>
        <time>2012-08-29T09:41:16Z</time>
      </trkpt>
      <trkpt lat="47.69048" lon="6.12379">
        <ele>293.60000610352</ele>
        <time>2012-08-29T09:41:19Z</time>
      </trkpt>
      <trkpt lat="47.69047" lon="6.12383">
        <ele>293.60000610352</ele>
        <time>2012-08-29T09:41:20Z</time>
      </trkpt>
      <trkpt lat="47.69044" lon="6.12395">
        <ele>293.60000610352</ele>
        <time>2012-08-29T09:41:23Z</time>
      </trkpt>
      <trkpt lat="47.6904" lon="6.12412">
        <ele>293.60000610352</ele>
        <time>2012-08-29T09:41:27Z</time>
      </trkpt>
      <trkpt lat="47.69033" lon="6.12427">
        <ele>293.60000610352</ele>
        <time>2012-08-29T09:41:32Z</time>
      </trkpt>
      <trkpt lat="47.69022" lon="6.12458">
        <ele>293.60000610352</ele>
        <time>2012-08-29T09:41:41Z</time>
      </trkpt>
      <trkpt lat="47.69012" lon="6.12482">
        <ele>293.60000610352</ele>
        <time>2012-08-29T09:41:48Z</time>
      </trkpt>
      <trkpt lat="47.69" lon="6.12508">
        <ele>293.60000610352</ele>
        <time>2012-08-29T09:41:56Z</time>
      </trkpt>
      <trkpt lat="47.68991" lon="6.12528">
        <ele>293.60000610352</ele>
        <time>2012-08-29T09:42:02Z</time>
      </trkpt>
      <trkpt lat="47.68981" lon="6.12553">
        <ele>293.60000610352</ele>
        <time>2012-08-29T09:42:09Z</time>
      </trkpt>
      <trkpt lat="47.68973" lon="6.12574">
        <ele>293.60000610352</ele>
        <time>2012-08-29T09:42:15Z</time>
      </trkpt>
      <trkpt lat="47.68964" lon="6.12593">
        <ele>293.60000610352</ele>
        <time>2012-08-29T09:42:21Z</time>
      </trkpt>
      <trkpt lat="47.68954" lon="6.12618">
        <ele>293.60000610352</ele>
        <time>2012-08-29T09:42:27Z</time>
      </trkpt>
      <trkpt lat="47.68942" lon="6.12651">
        <ele>293.60000610352</ele>
        <time>2012-08-29T09:42:34Z</time>
      </trkpt>
      <trkpt lat="47.68933" lon="6.12677">
        <ele>293.60000610352</ele>
        <time>2012-08-29T09:42:39Z</time>
      </trkpt>
      <trkpt lat="47.6893" lon="6.12689">
        <ele>293.60000610352</ele>
        <time>2012-08-29T09:42:41Z</time>
      </trkpt>
      <trkpt lat="47.68928" lon="6.1271">
        <ele>293.60000610352</ele>
        <time>2012-08-29T09:42:44Z</time>
      </trkpt>
      <trkpt lat="47.68927" lon="6.12745">
        <ele>293.60000610352</ele>
        <time>2012-08-29T09:42:49Z</time>
      </trkpt>
      <trkpt lat="47.68927" lon="6.12751">
        <ele>293.60000610352</ele>
        <time>2012-08-29T09:42:50Z</time>
      </trkpt>
      <trkpt lat="47.68922" lon="6.12787">
        <ele>293.60000610352</ele>
        <time>2012-08-29T09:42:56Z</time>
      </trkpt>
      <trkpt lat="47.68912" lon="6.12822">
        <ele>293.60000610352</ele>
        <time>2012-08-29T09:43:03Z</time>
      </trkpt>
      <trkpt lat="47.68904" lon="6.12849">
        <ele>293.60000610352</ele>
        <time>2012-08-29T09:43:09Z</time>
      </trkpt>
      <trkpt lat="47.68897" lon="6.12871">
        <ele>293.60000610352</ele>
        <time>2012-08-29T09:43:14Z</time>
      </trkpt>
      <trkpt lat="47.6889" lon="6.12893">
        <ele>293.60000610352</ele>
        <time>2012-08-29T09:43:20Z</time>
      </trkpt>
      <trkpt lat="47.68886" lon="6.12904">
        <ele>294</ele>
        <time>2012-08-29T09:43:23Z</time>
      </trkpt>
      <trkpt lat="47.68885" lon="6.12907">
        <ele>294.39999389648</ele>
        <time>2012-08-29T09:43:24Z</time>
      </trkpt>
      <trkpt lat="47.68883" lon="6.1291">
        <ele>294.79998779297</ele>
        <time>2012-08-29T09:43:25Z</time>
      </trkpt>
      <trkpt lat="47.68882" lon="6.12914">
        <ele>295.20001220703</ele>
        <time>2012-08-29T09:43:26Z</time>
      </trkpt>
      <trkpt lat="47.68881" lon="6.12918">
        <ele>295.60000610352</ele>
        <time>2012-08-29T09:43:27Z</time>
      </trkpt>
      <trkpt lat="47.68878" lon="6.12928">
        <ele>295.60000610352</ele>
        <time>2012-08-29T09:43:30Z</time>
      </trkpt>
      <trkpt lat="47.68877" lon="6.12931">
        <ele>295.60000610352</ele>
        <time>2012-08-29T09:43:31Z</time>
      </trkpt>
      <trkpt lat="47.68868" lon="6.12956">
        <ele>295.60000610352</ele>
        <time>2012-08-29T09:43:39Z</time>
      </trkpt>
      <trkpt lat="47.68865" lon="6.12963">
        <ele>296</ele>
        <time>2012-08-29T09:43:41Z</time>
      </trkpt>
      <trkpt lat="47.68863" lon="6.12966">
        <ele>296.39999389648</ele>
        <time>2012-08-29T09:43:42Z</time>
      </trkpt>
      <trkpt lat="47.68862" lon="6.12969">
        <ele>296.79998779297</ele>
        <time>2012-08-29T09:43:43Z</time>
      </trkpt>
      <trkpt lat="47.68861" lon="6.12972">
        <ele>297.39999389648</ele>
        <time>2012-08-29T09:43:44Z</time>
      </trkpt>
      <trkpt lat="47.6886" lon="6.12975">
        <ele>297.79998779297</ele>
        <time>2012-08-29T09:43:45Z</time>
      </trkpt>
      <trkpt lat="47.68859" lon="6.12978">
        <ele>297.79998779297</ele>
        <time>2012-08-29T09:43:46Z</time>
      </trkpt>
      <trkpt lat="47.68848" lon="6.12996">
        <ele>297.79998779297</ele>
        <time>2012-08-29T09:43:52Z</time>
      </trkpt>
      <trkpt lat="47.68834" lon="6.13024">
        <ele>297.79998779297</ele>
        <time>2012-08-29T09:43:59Z</time>
      </trkpt>
      <trkpt lat="47.68816" lon="6.1306">
        <ele>297.79998779297</ele>
        <time>2012-08-29T09:44:07Z</time>
      </trkpt>
      <trkpt lat="47.68802" lon="6.13087">
        <ele>297.79998779297</ele>
        <time>2012-08-29T09:44:14Z</time>
      </trkpt>
      <trkpt lat="47.6879" lon="6.13109">
        <ele>297.79998779297</ele>
        <time>2012-08-29T09:44:20Z</time>
      </trkpt>
      <trkpt lat="47.68769" lon="6.1314">
        <ele>297.79998779297</ele>
        <time>2012-08-29T09:44:30Z</time>
      </trkpt>
      <trkpt lat="47.68748" lon="6.1317">
        <ele>297.79998779297</ele>
        <time>2012-08-29T09:44:39Z</time>
      </trkpt>
      <trkpt lat="47.68725" lon="6.13206">
        <ele>297.79998779297</ele>
        <time>2012-08-29T09:44:47Z</time>
      </trkpt>
      <trkpt lat="47.68701" lon="6.13245">
        <ele>297.79998779297</ele>
        <time>2012-08-29T09:44:55Z</time>
      </trkpt>
      <trkpt lat="47.68682" lon="6.13276">
        <ele>297.79998779297</ele>
        <time>2012-08-29T09:45:02Z</time>
      </trkpt>
      <trkpt lat="47.68663" lon="6.1331">
        <ele>297.79998779297</ele>
        <time>2012-08-29T09:45:08Z</time>
      </trkpt>
      <trkpt lat="47.68656" lon="6.13321">
        <ele>297.39999389648</ele>
        <time>2012-08-29T09:45:10Z</time>
      </trkpt>
      <trkpt lat="47.68653" lon="6.13326">
        <ele>297</ele>
        <time>2012-08-29T09:45:11Z</time>
      </trkpt>
      <trkpt lat="47.6865" lon="6.13331">
        <ele>296.60000610352</ele>
        <time>2012-08-29T09:45:12Z</time>
      </trkpt>
      <trkpt lat="47.68647" lon="6.13336">
        <ele>296.20001220703</ele>
        <time>2012-08-29T09:45:13Z</time>
      </trkpt>
      <trkpt lat="47.68644" lon="6.1334">
        <ele>295.60000610352</ele>
        <time>2012-08-29T09:45:14Z</time>
      </trkpt>
      <trkpt lat="47.68622" lon="6.13372">
        <ele>295.60000610352</ele>
        <time>2012-08-29T09:45:22Z</time>
      </trkpt>
      <trkpt lat="47.68603" lon="6.13402">
        <ele>295.60000610352</ele>
        <time>2012-08-29T09:45:30Z</time>
      </trkpt>
      <trkpt lat="47.68585" lon="6.13434">
        <ele>295.60000610352</ele>
        <time>2012-08-29T09:45:37Z</time>
      </trkpt>
      <trkpt lat="47.68562" lon="6.13475">
        <ele>295.60000610352</ele>
        <time>2012-08-29T09:45:45Z</time>
      </trkpt>
      <trkpt lat="47.68541" lon="6.13511">
        <ele>295.60000610352</ele>
        <time>2012-08-29T09:45:51Z</time>
      </trkpt>
      <trkpt lat="47.68537" lon="6.13517">
        <ele>295.20001220703</ele>
        <time>2012-08-29T09:45:52Z</time>
      </trkpt>
      <trkpt lat="47.68533" lon="6.13524">
        <ele>294.79998779297</ele>
        <time>2012-08-29T09:45:53Z</time>
      </trkpt>
      <trkpt lat="47.68529" lon="6.13531">
        <ele>294.39999389648</ele>
        <time>2012-08-29T09:45:54Z</time>
      </trkpt>
      <trkpt lat="47.68525" lon="6.13538">
        <ele>294</ele>
        <time>2012-08-29T09:45:55Z</time>
      </trkpt>
      <trkpt lat="47.68521" lon="6.13545">
        <ele>293.39999389648</ele>
        <time>2012-08-29T09:45:56Z</time>
      </trkpt>
      <trkpt lat="47.68509" lon="6.13565">
        <ele>293.39999389648</ele>
        <time>2012-08-29T09:45:59Z</time>
      </trkpt>
      <trkpt lat="47.68478" lon="6.13622">
        <ele>293.39999389648</ele>
        <time>2012-08-29T09:46:07Z</time>
      </trkpt>
      <trkpt lat="47.68452" lon="6.1367">
        <ele>293.39999389648</ele>
        <time>2012-08-29T09:46:14Z</time>
      </trkpt>
      <trkpt lat="47.68431" lon="6.1371">
        <ele>293</ele>
        <time>2012-08-29T09:46:20Z</time>
      </trkpt>
      <trkpt lat="47.68427" lon="6.13716">
        <ele>292.60000610352</ele>
        <time>2012-08-29T09:46:21Z</time>
      </trkpt>
      <trkpt lat="47.68424" lon="6.13722">
        <ele>292.20001220703</ele>
        <time>2012-08-29T09:46:22Z</time>
      </trkpt>
      <trkpt lat="47.6842" lon="6.13728">
        <ele>291.79998779297</ele>
        <time>2012-08-29T09:46:23Z</time>
      </trkpt>
      <trkpt lat="47.68417" lon="6.13734">
        <ele>291.39999389648</ele>
        <time>2012-08-29T09:46:24Z</time>
      </trkpt>
      <trkpt lat="47.68398" lon="6.1377">
        <ele>291.39999389648</ele>
        <time>2012-08-29T09:46:30Z</time>
      </trkpt>
      <trkpt lat="47.68382" lon="6.13814">
        <ele>291.39999389648</ele>
        <time>2012-08-29T09:46:37Z</time>
      </trkpt>
      <trkpt lat="47.68362" lon="6.13858">
        <ele>291.39999389648</ele>
        <time>2012-08-29T09:46:45Z</time>
      </trkpt>
      <trkpt lat="47.68346" lon="6.13883">
        <ele>291.39999389648</ele>
        <time>2012-08-29T09:46:50Z</time>
      </trkpt>
      <trkpt lat="47.68342" lon="6.13888">
        <ele>291.39999389648</ele>
        <time>2012-08-29T09:46:51Z</time>
      </trkpt>
      <trkpt lat="47.68335" lon="6.13899">
        <ele>291.39999389648</ele>
        <time>2012-08-29T09:46:53Z</time>
      </trkpt>
      <trkpt lat="47.68323" lon="6.13915">
        <ele>291.39999389648</ele>
        <time>2012-08-29T09:46:56Z</time>
      </trkpt>
      <trkpt lat="47.68296" lon="6.13953">
        <ele>291.39999389648</ele>
        <time>2012-08-29T09:47:03Z</time>
      </trkpt>
      <trkpt lat="47.68274" lon="6.13992">
        <ele>291</ele>
        <time>2012-08-29T09:47:09Z</time>
      </trkpt>
      <trkpt lat="47.6827" lon="6.13999">
        <ele>290.60000610352</ele>
        <time>2012-08-29T09:47:10Z</time>
      </trkpt>
      <trkpt lat="47.68267" lon="6.14006">
        <ele>290.20001220703</ele>
        <time>2012-08-29T09:47:11Z</time>
      </trkpt>
      <trkpt lat="47.68263" lon="6.14012">
        <ele>289.79998779297</ele>
        <time>2012-08-29T09:47:12Z</time>
      </trkpt>
      <trkpt lat="47.68259" lon="6.1402">
        <ele>289.39999389648</ele>
        <time>2012-08-29T09:47:13Z</time>
      </trkpt>
      <trkpt lat="47.68245" lon="6.14049">
        <ele>289.39999389648</ele>
        <time>2012-08-29T09:47:17Z</time>
      </trkpt>
      <trkpt lat="47.68234" lon="6.14071">
        <ele>289</ele>
        <time>2012-08-29T09:47:20Z</time>
      </trkpt>
      <trkpt lat="47.6823" lon="6.14078">
        <ele>288.60000610352</ele>
        <time>2012-08-29T09:47:21Z</time>
      </trkpt>
      <trkpt lat="47.68226" lon="6.14085">
        <ele>288.20001220703</ele>
        <time>2012-08-29T09:47:22Z</time>
      </trkpt>
      <trkpt lat="47.68221" lon="6.14093">
        <ele>287.79998779297</ele>
        <time>2012-08-29T09:47:23Z</time>
      </trkpt>
      <trkpt lat="47.68216" lon="6.14101">
        <ele>287.39999389648</ele>
        <time>2012-08-29T09:47:24Z</time>
      </trkpt>
      <trkpt lat="47.68211" lon="6.14109">
        <ele>287.39999389648</ele>
        <time>2012-08-29T09:47:25Z</time>
      </trkpt>
      <trkpt lat="47.68195" lon="6.14132">
        <ele>287</ele>
        <time>2012-08-29T09:47:28Z</time>
      </trkpt>
      <trkpt lat="47.68189" lon="6.1414">
        <ele>286.60000610352</ele>
        <time>2012-08-29T09:47:29Z</time>
      </trkpt>
      <trkpt lat="47.68184" lon="6.14148">
        <ele>286.20001220703</ele>
        <time>2012-08-29T09:47:30Z</time>
      </trkpt>
      <trkpt lat="47.68178" lon="6.14156">
        <ele>285.79998779297</ele>
        <time>2012-08-29T09:47:31Z</time>
      </trkpt>
      <trkpt lat="47.68172" lon="6.14163">
        <ele>285.39999389648</ele>
        <time>2012-08-29T09:47:32Z</time>
      </trkpt>
      <trkpt lat="47.68154" lon="6.14185">
        <ele>284.79998779297</ele>
        <time>2012-08-29T09:47:35Z</time>
      </trkpt>
      <trkpt lat="47.68148" lon="6.14192">
        <ele>284.39999389648</ele>
        <time>2012-08-29T09:47:36Z</time>
      </trkpt>
      <trkpt lat="47.68141" lon="6.142">
        <ele>284</ele>
        <time>2012-08-29T09:47:37Z</time>
      </trkpt>
      <trkpt lat="47.68135" lon="6.14207">
        <ele>283.39999389648</ele>
        <time>2012-08-29T09:47:38Z</time>
      </trkpt>
      <trkpt lat="47.68128" lon="6.14215">
        <ele>283</ele>
        <time>2012-08-29T09:47:39Z</time>
      </trkpt>
      <trkpt lat="47.68115" lon="6.14232">
        <ele>282.60000610352</ele>
        <time>2012-08-29T09:47:41Z</time>
      </trkpt>
      <trkpt lat="47.68108" lon="6.1424">
        <ele>282.20001220703</ele>
        <time>2012-08-29T09:47:42Z</time>
      </trkpt>
      <trkpt lat="47.68102" lon="6.14248">
        <ele>281.60000610352</ele>
        <time>2012-08-29T09:47:43Z</time>
      </trkpt>
      <trkpt lat="47.68095" lon="6.14256">
        <ele>281.20001220703</ele>
        <time>2012-08-29T09:47:44Z</time>
      </trkpt>
      <trkpt lat="47.68088" lon="6.14264">
        <ele>280.79998779297</ele>
        <time>2012-08-29T09:47:45Z</time>
      </trkpt>
      <trkpt lat="47.68076" lon="6.14281">
        <ele>280.39999389648</ele>
        <time>2012-08-29T09:47:47Z</time>
      </trkpt>
      <trkpt lat="47.68069" lon="6.14289">
        <ele>279.60000610352</ele>
        <time>2012-08-29T09:47:48Z</time>
      </trkpt>
      <trkpt lat="47.68063" lon="6.14296">
        <ele>279.20001220703</ele>
        <time>2012-08-29T09:47:49Z</time>
      </trkpt>
      <trkpt lat="47.68056" lon="6.14304">
        <ele>278.79998779297</ele>
        <time>2012-08-29T09:47:50Z</time>
      </trkpt>
      <trkpt lat="47.68044" lon="6.14318">
        <ele>278.79998779297</ele>
        <time>2012-08-29T09:47:52Z</time>
      </trkpt>
      <trkpt lat="47.68026" lon="6.1434">
        <ele>278.39999389648</ele>
        <time>2012-08-29T09:47:55Z</time>
      </trkpt>
      <trkpt lat="47.6802" lon="6.14348">
        <ele>277.79998779297</ele>
        <time>2012-08-29T09:47:56Z</time>
      </trkpt>
      <trkpt lat="47.68014" lon="6.14356">
        <ele>277.39999389648</ele>
        <time>2012-08-29T09:47:57Z</time>
      </trkpt>
      <trkpt lat="47.68008" lon="6.14364">
        <ele>277</ele>
        <time>2012-08-29T09:47:58Z</time>
      </trkpt>
      <trkpt lat="47.68002" lon="6.14371">
        <ele>276.60000610352</ele>
        <time>2012-08-29T09:47:59Z</time>
      </trkpt>
      <trkpt lat="47.67975" lon="6.14411">
        <ele>276.20001220703</ele>
        <time>2012-08-29T09:48:04Z</time>
      </trkpt>
      <trkpt lat="47.6797" lon="6.14419">
        <ele>275.60000610352</ele>
        <time>2012-08-29T09:48:05Z</time>
      </trkpt>
      <trkpt lat="47.67964" lon="6.14427">
        <ele>275.20001220703</ele>
        <time>2012-08-29T09:48:06Z</time>
      </trkpt>
      <trkpt lat="47.67959" lon="6.14435">
        <ele>274.79998779297</ele>
        <time>2012-08-29T09:48:07Z</time>
      </trkpt>
      <trkpt lat="47.67953" lon="6.14443">
        <ele>274.39999389648</ele>
        <time>2012-08-29T09:48:08Z</time>
      </trkpt>
      <trkpt lat="47.67919" lon="6.14489">
        <ele>274</ele>
        <time>2012-08-29T09:48:14Z</time>
      </trkpt>
      <trkpt lat="47.67914" lon="6.14495">
        <ele>273.39999389648</ele>
        <time>2012-08-29T09:48:15Z</time>
      </trkpt>
      <trkpt lat="47.67908" lon="6.14502">
        <ele>273</ele>
        <time>2012-08-29T09:48:16Z</time>
      </trkpt>
      <trkpt lat="47.67902" lon="6.14508">
        <ele>272.60000610352</ele>
        <time>2012-08-29T09:48:17Z</time>
      </trkpt>
      <trkpt lat="47.67897" lon="6.14514">
        <ele>272.20001220703</ele>
        <time>2012-08-29T09:48:18Z</time>
      </trkpt>
      <trkpt lat="47.67879" lon="6.14532">
        <ele>272.20001220703</ele>
        <time>2012-08-29T09:48:21Z</time>
      </trkpt>
      <trkpt lat="47.67835" lon="6.14565">
        <ele>271.79998779297</ele>
        <time>2012-08-29T09:48:28Z</time>
      </trkpt>
      <trkpt lat="47.67827" lon="6.14569">
        <ele>271.39999389648</ele>
        <time>2012-08-29T09:48:29Z</time>
      </trkpt>
      <trkpt lat="47.6782" lon="6.14574">
        <ele>271</ele>
        <time>2012-08-29T09:48:30Z</time>
      </trkpt>
      <trkpt lat="47.67814" lon="6.14578">
        <ele>270.60000610352</ele>
        <time>2012-08-29T09:48:31Z</time>
      </trkpt>
      <trkpt lat="47.67807" lon="6.14582">
        <ele>270.20001220703</ele>
        <time>2012-08-29T09:48:32Z</time>
      </trkpt>
      <trkpt lat="47.678" lon="6.14586">
        <ele>270.20001220703</ele>
        <time>2012-08-29T09:48:33Z</time>
      </trkpt>
      <trkpt lat="47.67749" lon="6.14618">
        <ele>270.20001220703</ele>
        <time>2012-08-29T09:48:41Z</time>
      </trkpt>
      <trkpt lat="47.67743" lon="6.14622">
        <ele>270.20001220703</ele>
        <time>2012-08-29T09:48:42Z</time>
      </trkpt>
      <trkpt lat="47.67689" lon="6.14656">
        <ele>270.20001220703</ele>
        <time>2012-08-29T09:48:51Z</time>
      </trkpt>
      <trkpt lat="47.67657" lon="6.14678">
        <ele>270.20001220703</ele>
        <time>2012-08-29T09:48:57Z</time>
      </trkpt>
      <trkpt lat="47.67621" lon="6.14701">
        <ele>270.20001220703</ele>
        <time>2012-08-29T09:49:04Z</time>
      </trkpt>
      <trkpt lat="47.6758" lon="6.14736">
        <ele>270.20001220703</ele>
        <time>2012-08-29T09:49:13Z</time>
      </trkpt>
      <trkpt lat="47.67549" lon="6.14764">
        <ele>270.20001220703</ele>
        <time>2012-08-29T09:49:21Z</time>
      </trkpt>
      <trkpt lat="47.67528" lon="6.1478">
        <ele>270.20001220703</ele>
        <time>2012-08-29T09:49:26Z</time>
      </trkpt>
      <trkpt lat="47.67505" lon="6.148">
        <ele>270.20001220703</ele>
        <time>2012-08-29T09:49:31Z</time>
      </trkpt>
      <trkpt lat="47.67501" lon="6.14804">
        <ele>270.20001220703</ele>
        <time>2012-08-29T09:49:32Z</time>
      </trkpt>
      <trkpt lat="47.67477" lon="6.14827">
        <ele>270.20001220703</ele>
        <time>2012-08-29T09:49:39Z</time>
      </trkpt>
      <trkpt lat="47.67454" lon="6.14847">
        <ele>270.20001220703</ele>
        <time>2012-08-29T09:49:46Z</time>
      </trkpt>
      <trkpt lat="47.67425" lon="6.14874">
        <ele>270.20001220703</ele>
        <time>2012-08-29T09:49:54Z</time>
      </trkpt>
      <trkpt lat="47.6739" lon="6.14904">
        <ele>270.20001220703</ele>
        <time>2012-08-29T09:50:03Z</time>
      </trkpt>
      <trkpt lat="47.67375" lon="6.14918">
        <ele>270.20001220703</ele>
        <time>2012-08-29T09:50:07Z</time>
      </trkpt>
      <trkpt lat="47.67364" lon="6.14929">
        <ele>270.20001220703</ele>
        <time>2012-08-29T09:50:10Z</time>
      </trkpt>
      <trkpt lat="47.67331" lon="6.14958">
        <ele>270.20001220703</ele>
        <time>2012-08-29T09:50:18Z</time>
      </trkpt>
      <trkpt lat="47.67298" lon="6.14988">
        <ele>270.20001220703</ele>
        <time>2012-08-29T09:50:26Z</time>
      </trkpt>
      <trkpt lat="47.67266" lon="6.15017">
        <ele>270.20001220703</ele>
        <time>2012-08-29T09:50:34Z</time>
      </trkpt>
      <trkpt lat="47.67258" lon="6.15023">
        <ele>270.20001220703</ele>
        <time>2012-08-29T09:50:36Z</time>
      </trkpt>
      <trkpt lat="47.67241" lon="6.15037">
        <ele>270.20001220703</ele>
        <time>2012-08-29T09:50:41Z</time>
      </trkpt>
      <trkpt lat="47.67224" lon="6.15053">
        <ele>270.20001220703</ele>
        <time>2012-08-29T09:50:47Z</time>
      </trkpt>
      <trkpt lat="47.67203" lon="6.15071">
        <ele>270.20001220703</ele>
        <time>2012-08-29T09:50:55Z</time>
      </trkpt>
      <trkpt lat="47.67187" lon="6.15085">
        <ele>270.60000610352</ele>
        <time>2012-08-29T09:51:01Z</time>
      </trkpt>
      <trkpt lat="47.67185" lon="6.15088">
        <ele>271</ele>
        <time>2012-08-29T09:51:02Z</time>
      </trkpt>
      <trkpt lat="47.67183" lon="6.1509">
        <ele>271.39999389648</ele>
        <time>2012-08-29T09:51:03Z</time>
      </trkpt>
      <trkpt lat="47.6718" lon="6.15092">
        <ele>271.79998779297</ele>
        <time>2012-08-29T09:51:04Z</time>
      </trkpt>
      <trkpt lat="47.67178" lon="6.15095">
        <ele>272.20001220703</ele>
        <time>2012-08-29T09:51:05Z</time>
      </trkpt>
      <trkpt lat="47.67168" lon="6.151">
        <ele>272.20001220703</ele>
        <time>2012-08-29T09:51:08Z</time>
      </trkpt>
      <trkpt lat="47.67147" lon="6.15114">
        <ele>272.20001220703</ele>
        <time>2012-08-29T09:51:14Z</time>
      </trkpt>
      <trkpt lat="47.67119" lon="6.15126">
        <ele>272.20001220703</ele>
        <time>2012-08-29T09:51:20Z</time>
      </trkpt>
      <trkpt lat="47.6711" lon="6.15129">
        <ele>272.20001220703</ele>
        <time>2012-08-29T09:51:22Z</time>
      </trkpt>
      <trkpt lat="47.67093" lon="6.15134">
        <ele>272.20001220703</ele>
        <time>2012-08-29T09:51:26Z</time>
      </trkpt>
      <trkpt lat="47.67063" lon="6.15145">
        <ele>272.20001220703</ele>
        <time>2012-08-29T09:51:33Z</time>
      </trkpt>
      <trkpt lat="47.67031" lon="6.15156">
        <ele>272.20001220703</ele>
        <time>2012-08-29T09:51:40Z</time>
      </trkpt>
      <trkpt lat="47.67018" lon="6.15159">
        <ele>272.20001220703</ele>
        <time>2012-08-29T09:51:43Z</time>
      </trkpt>
      <trkpt lat="47.67005" lon="6.15158">
        <ele>272.20001220703</ele>
        <time>2012-08-29T09:51:46Z</time>
      </trkpt>
      <trkpt lat="47.67001" lon="6.15157">
        <ele>272.20001220703</ele>
        <time>2012-08-29T09:51:47Z</time>
      </trkpt>
      <trkpt lat="47.66985" lon="6.15152">
        <ele>272.20001220703</ele>
        <time>2012-08-29T09:51:52Z</time>
      </trkpt>
      <trkpt lat="47.66968" lon="6.15141">
        <ele>272.20001220703</ele>
        <time>2012-08-29T09:51:58Z</time>
      </trkpt>
      <trkpt lat="47.66957" lon="6.15133">
        <ele>272.20001220703</ele>
        <time>2012-08-29T09:52:01Z</time>
      </trkpt>
      <trkpt lat="47.6695" lon="6.15127">
        <ele>272.20001220703</ele>
        <time>2012-08-29T09:52:03Z</time>
      </trkpt>
      <trkpt lat="47.66942" lon="6.15123">
        <ele>272.20001220703</ele>
        <time>2012-08-29T09:52:05Z</time>
      </trkpt>
      <trkpt lat="47.66934" lon="6.15128">
        <ele>272.20001220703</ele>
        <time>2012-08-29T09:52:07Z</time>
      </trkpt>
      <trkpt lat="47.66931" lon="6.15145">
        <ele>272.20001220703</ele>
        <time>2012-08-29T09:52:10Z</time>
      </trkpt>
      <trkpt lat="47.66925" lon="6.15171">
        <ele>272.20001220703</ele>
        <time>2012-08-29T09:52:16Z</time>
      </trkpt>
      <trkpt lat="47.66915" lon="6.15193">
        <ele>272.20001220703</ele>
        <time>2012-08-29T09:52:22Z</time>
      </trkpt>
      <trkpt lat="47.66914" lon="6.15217">
        <ele>272.20001220703</ele>
        <time>2012-08-29T09:52:27Z</time>
      </trkpt>
      <trkpt lat="47.66928" lon="6.15259">
        <ele>272.20001220703</ele>
        <time>2012-08-29T09:52:35Z</time>
      </trkpt>
      <trkpt lat="47.66941" lon="6.15301">
        <ele>272.20001220703</ele>
        <time>2012-08-29T09:52:41Z</time>
      </trkpt>
      <trkpt lat="47.66943" lon="6.15309">
        <ele>272.20001220703</ele>
        <time>2012-08-29T09:52:42Z</time>
      </trkpt>
      <trkpt lat="47.66947" lon="6.15335">
        <ele>272.20001220703</ele>
        <time>2012-08-29T09:52:45Z</time>
      </trkpt>
      <trkpt lat="47.66948" lon="6.15344">
        <ele>271.79998779297</ele>
        <time>2012-08-29T09:52:46Z</time>
      </trkpt>
      <trkpt lat="47.66948" lon="6.15354">
        <ele>271.39999389648</ele>
        <time>2012-08-29T09:52:47Z</time>
      </trkpt>
      <trkpt lat="47.66946" lon="6.15364">
        <ele>271</ele>
        <time>2012-08-29T09:52:48Z</time>
      </trkpt>
      <trkpt lat="47.66946" lon="6.15375">
        <ele>270.60000610352</ele>
        <time>2012-08-29T09:52:49Z</time>
      </trkpt>
      <trkpt lat="47.66946" lon="6.15386">
        <ele>270.20001220703</ele>
        <time>2012-08-29T09:52:50Z</time>
      </trkpt>
      <trkpt lat="47.66946" lon="6.15398">
        <ele>269.79998779297</ele>
        <time>2012-08-29T09:52:51Z</time>
      </trkpt>
      <trkpt lat="47.66946" lon="6.15409">
        <ele>269.20001220703</ele>
        <time>2012-08-29T09:52:52Z</time>
      </trkpt>
      <trkpt lat="47.66947" lon="6.1542">
        <ele>268.79998779297</ele>
        <time>2012-08-29T09:52:53Z</time>
      </trkpt>
      <trkpt lat="47.66946" lon="6.15431">
        <ele>268.39999389648</ele>
        <time>2012-08-29T09:52:54Z</time>
      </trkpt>
      <trkpt lat="47.66947" lon="6.15441">
        <ele>268</ele>
        <time>2012-08-29T09:52:55Z</time>
      </trkpt>
      <trkpt lat="47.66949" lon="6.15479">
        <ele>268</ele>
        <time>2012-08-29T09:52:59Z</time>
      </trkpt>
      <trkpt lat="47.66949" lon="6.1553">
        <ele>268</ele>
        <time>2012-08-29T09:53:05Z</time>
      </trkpt>
      <trkpt lat="47.66949" lon="6.15549">
        <ele>268.39999389648</ele>
        <time>2012-08-29T09:53:08Z</time>
      </trkpt>
      <trkpt lat="47.6695" lon="6.15554">
        <ele>269.20001220703</ele>
        <time>2012-08-29T09:53:09Z</time>
      </trkpt>
      <trkpt lat="47.6695" lon="6.15559">
        <ele>269.60000610352</ele>
        <time>2012-08-29T09:53:10Z</time>
      </trkpt>
      <trkpt lat="47.6695" lon="6.15564">
        <ele>270</ele>
        <time>2012-08-29T09:53:11Z</time>
      </trkpt>
      <trkpt lat="47.66951" lon="6.15583">
        <ele>270.39999389648</ele>
        <time>2012-08-29T09:53:15Z</time>
      </trkpt>
      <trkpt lat="47.66951" lon="6.15588">
        <ele>270.79998779297</ele>
        <time>2012-08-29T09:53:16Z</time>
      </trkpt>
      <trkpt lat="47.66952" lon="6.15592">
        <ele>271.20001220703</ele>
        <time>2012-08-29T09:53:18Z</time>
      </trkpt>
      <trkpt lat="47.66952" lon="6.15597">
        <ele>271.60000610352</ele>
        <time>2012-08-29T09:53:19Z</time>
      </trkpt>
      <trkpt lat="47.66953" lon="6.15601">
        <ele>272</ele>
        <time>2012-08-29T09:53:20Z</time>
      </trkpt>
      <trkpt lat="47.66953" lon="6.15615">
        <ele>272</ele>
        <time>2012-08-29T09:53:24Z</time>
      </trkpt>
      <trkpt lat="47.66954" lon="6.15617">
        <ele>272</ele>
        <time>2012-08-29T09:53:25Z</time>
      </trkpt>
      <trkpt lat="47.66957" lon="6.15613">
        <ele>272</ele>
        <time>2012-08-29T09:53:28Z</time>
      </trkpt>
      <trkpt lat="47.66954" lon="6.15601">
        <ele>272</ele>
        <time>2012-08-29T09:53:34Z</time>
      </trkpt>
      <trkpt lat="47.66953" lon="6.15599">
        <ele>272</ele>
        <time>2012-08-29T09:53:36Z</time>
      </trkpt>
      <trkpt lat="47.66952" lon="6.15602">
        <ele>272</ele>
        <time>2012-08-29T09:56:09Z</time>
      </trkpt>
      <trkpt lat="47.66953" lon="6.15604">
        <ele>272</ele>
        <time>2012-08-29T09:56:10Z</time>
      </trkpt>
      <trkpt lat="47.66959" lon="6.15619">
        <ele>272</ele>
        <time>2012-08-29T09:56:16Z</time>
      </trkpt>
      <trkpt lat="47.6696" lon="6.15622">
        <ele>272</ele>
        <time>2012-08-29T09:56:20Z</time>
      </trkpt>
      <trkpt lat="47.6696" lon="6.15625">
        <ele>272</ele>
        <time>2012-08-29T09:56:35Z</time>
      </trkpt>
      <trkpt lat="47.66959" lon="6.1564">
        <ele>272</ele>
        <time>2012-08-29T09:56:40Z</time>
      </trkpt>
      <trkpt lat="47.66959" lon="6.15653">
        <ele>272</ele>
        <time>2012-08-29T09:56:43Z</time>
      </trkpt>
      <trkpt lat="47.6696" lon="6.15668">
        <ele>272</ele>
        <time>2012-08-29T09:56:46Z</time>
      </trkpt>
      <trkpt lat="47.66961" lon="6.15705">
        <ele>272</ele>
        <time>2012-08-29T09:56:52Z</time>
      </trkpt>
      <trkpt lat="47.66961" lon="6.15719">
        <ele>272</ele>
        <time>2012-08-29T09:56:54Z</time>
      </trkpt>
      <trkpt lat="47.66963" lon="6.15741">
        <ele>272</ele>
        <time>2012-08-29T09:56:57Z</time>
      </trkpt>
      <trkpt lat="47.66966" lon="6.15766">
        <ele>272</ele>
        <time>2012-08-29T09:57:01Z</time>
      </trkpt>
      <trkpt lat="47.66967" lon="6.15786">
        <ele>271.60000610352</ele>
        <time>2012-08-29T09:57:05Z</time>
      </trkpt>
      <trkpt lat="47.66968" lon="6.15791">
        <ele>271.20001220703</ele>
        <time>2012-08-29T09:57:06Z</time>
      </trkpt>
      <trkpt lat="47.66968" lon="6.15797">
        <ele>270.79998779297</ele>
        <time>2012-08-29T09:57:07Z</time>
      </trkpt>
      <trkpt lat="47.66968" lon="6.15802">
        <ele>270.39999389648</ele>
        <time>2012-08-29T09:57:08Z</time>
      </trkpt>
      <trkpt lat="47.66969" lon="6.15808">
        <ele>270</ele>
        <time>2012-08-29T09:57:09Z</time>
      </trkpt>
      <trkpt lat="47.66971" lon="6.15835">
        <ele>270</ele>
        <time>2012-08-29T09:57:13Z</time>
      </trkpt>
      <trkpt lat="47.66972" lon="6.15841">
        <ele>269.60000610352</ele>
        <time>2012-08-29T09:57:14Z</time>
      </trkpt>
      <trkpt lat="47.66972" lon="6.15849">
        <ele>269.20001220703</ele>
        <time>2012-08-29T09:57:15Z</time>
      </trkpt>
      <trkpt lat="47.66973" lon="6.15856">
        <ele>268.79998779297</ele>
        <time>2012-08-29T09:57:16Z</time>
      </trkpt>
      <trkpt lat="47.66974" lon="6.15864">
        <ele>267.79998779297</ele>
        <time>2012-08-29T09:57:17Z</time>
      </trkpt>
      <trkpt lat="47.66975" lon="6.15882">
        <ele>267.79998779297</ele>
        <time>2012-08-29T09:57:19Z</time>
      </trkpt>
      <trkpt lat="47.66976" lon="6.15897">
        <ele>267.39999389648</ele>
        <time>2012-08-29T09:57:21Z</time>
      </trkpt>
      <trkpt lat="47.66977" lon="6.15905">
        <ele>267</ele>
        <time>2012-08-29T09:57:22Z</time>
      </trkpt>
      <trkpt lat="47.66978" lon="6.15912">
        <ele>266.60000610352</ele>
        <time>2012-08-29T09:57:23Z</time>
      </trkpt>
      <trkpt lat="47.66978" lon="6.15919">
        <ele>266.20001220703</ele>
        <time>2012-08-29T09:57:24Z</time>
      </trkpt>
      <trkpt lat="47.66979" lon="6.15926">
        <ele>265.79998779297</ele>
        <time>2012-08-29T09:57:25Z</time>
      </trkpt>
      <trkpt lat="47.66982" lon="6.15952">
        <ele>265.39999389648</ele>
        <time>2012-08-29T09:57:29Z</time>
      </trkpt>
      <trkpt lat="47.66982" lon="6.15959">
        <ele>264.79998779297</ele>
        <time>2012-08-29T09:57:30Z</time>
      </trkpt>
      <trkpt lat="47.66983" lon="6.15964">
        <ele>264.39999389648</ele>
        <time>2012-08-29T09:57:31Z</time>
      </trkpt>
      <trkpt lat="47.66983" lon="6.1597">
        <ele>264</ele>
        <time>2012-08-29T09:57:32Z</time>
      </trkpt>
      <trkpt lat="47.66983" lon="6.15975">
        <ele>263.60000610352</ele>
        <time>2012-08-29T09:57:33Z</time>
      </trkpt>
      <trkpt lat="47.66986" lon="6.15993">
        <ele>263.60000610352</ele>
        <time>2012-08-29T09:57:37Z</time>
      </trkpt>
      <trkpt lat="47.66987" lon="6.16009">
        <ele>263.20001220703</ele>
        <time>2012-08-29T09:57:41Z</time>
      </trkpt>
      <trkpt lat="47.66987" lon="6.16014">
        <ele>262.39999389648</ele>
        <time>2012-08-29T09:57:42Z</time>
      </trkpt>
      <trkpt lat="47.66987" lon="6.1602">
        <ele>262</ele>
        <time>2012-08-29T09:57:43Z</time>
      </trkpt>
      <trkpt lat="47.66988" lon="6.16026">
        <ele>261.60000610352</ele>
        <time>2012-08-29T09:57:44Z</time>
      </trkpt>
      <trkpt lat="47.66991" lon="6.16056">
        <ele>261.60000610352</ele>
        <time>2012-08-29T09:57:49Z</time>
      </trkpt>
      <trkpt lat="47.66992" lon="6.1607">
        <ele>261</ele>
        <time>2012-08-29T09:57:52Z</time>
      </trkpt>
      <trkpt lat="47.66992" lon="6.16075">
        <ele>260.60000610352</ele>
        <time>2012-08-29T09:57:53Z</time>
      </trkpt>
      <trkpt lat="47.66992" lon="6.1608">
        <ele>260.20001220703</ele>
        <time>2012-08-29T09:57:54Z</time>
      </trkpt>
      <trkpt lat="47.66991" lon="6.16086">
        <ele>259.79998779297</ele>
        <time>2012-08-29T09:57:55Z</time>
      </trkpt>
      <trkpt lat="47.66991" lon="6.16092">
        <ele>259.39999389648</ele>
        <time>2012-08-29T09:57:56Z</time>
      </trkpt>
      <trkpt lat="47.66989" lon="6.16099">
        <ele>259.39999389648</ele>
        <time>2012-08-29T09:57:57Z</time>
      </trkpt>
      <trkpt lat="47.66986" lon="6.16122">
        <ele>259.39999389648</ele>
        <time>2012-08-29T09:58:00Z</time>
      </trkpt>
      <trkpt lat="47.66982" lon="6.16137">
        <ele>259</ele>
        <time>2012-08-29T09:58:02Z</time>
      </trkpt>
      <trkpt lat="47.66981" lon="6.16144">
        <ele>258.60000610352</ele>
        <time>2012-08-29T09:58:03Z</time>
      </trkpt>
      <trkpt lat="47.6698" lon="6.16151">
        <ele>258.20001220703</ele>
        <time>2012-08-29T09:58:04Z</time>
      </trkpt>
      <trkpt lat="47.66979" lon="6.16158">
        <ele>257.79998779297</ele>
        <time>2012-08-29T09:58:05Z</time>
      </trkpt>
      <trkpt lat="47.66977" lon="6.16165">
        <ele>257.20001220703</ele>
        <time>2012-08-29T09:58:06Z</time>
      </trkpt>
      <trkpt lat="47.66975" lon="6.16171">
        <ele>256.79998779297</ele>
        <time>2012-08-29T09:58:07Z</time>
      </trkpt>
      <trkpt lat="47.66974" lon="6.16178">
        <ele>256.39999389648</ele>
        <time>2012-08-29T09:58:08Z</time>
      </trkpt>
      <trkpt lat="47.66972" lon="6.16185">
        <ele>256</ele>
        <time>2012-08-29T09:58:09Z</time>
      </trkpt>
      <trkpt lat="47.6697" lon="6.16191">
        <ele>255.60000610352</ele>
        <time>2012-08-29T09:58:10Z</time>
      </trkpt>
      <trkpt lat="47.66968" lon="6.16199">
        <ele>255.19999694824</ele>
        <time>2012-08-29T09:58:11Z</time>
      </trkpt>
      <trkpt lat="47.66967" lon="6.16206">
        <ele>254.80000305176</ele>
        <time>2012-08-29T09:58:12Z</time>
      </trkpt>
      <trkpt lat="47.66965" lon="6.16214">
        <ele>254.39999389648</ele>
        <time>2012-08-29T09:58:13Z</time>
      </trkpt>
      <trkpt lat="47.66963" lon="6.16222">
        <ele>254</ele>
        <time>2012-08-29T09:58:14Z</time>
      </trkpt>
      <trkpt lat="47.66962" lon="6.1623">
        <ele>253.60000610352</ele>
        <time>2012-08-29T09:58:15Z</time>
      </trkpt>
      <trkpt lat="47.66961" lon="6.16238">
        <ele>253.19999694824</ele>
        <time>2012-08-29T09:58:16Z</time>
      </trkpt>
      <trkpt lat="47.66961" lon="6.16254">
        <ele>252.60000610352</ele>
        <time>2012-08-29T09:58:18Z</time>
      </trkpt>
      <trkpt lat="47.66962" lon="6.16263">
        <ele>252.19999694824</ele>
        <time>2012-08-29T09:58:19Z</time>
      </trkpt>
      <trkpt lat="47.66963" lon="6.16272">
        <ele>251.80000305176</ele>
        <time>2012-08-29T09:58:20Z</time>
      </trkpt>
      <trkpt lat="47.66965" lon="6.16279">
        <ele>251.39999389648</ele>
        <time>2012-08-29T09:58:21Z</time>
      </trkpt>
      <trkpt lat="47.66967" lon="6.16287">
        <ele>250.80000305176</ele>
        <time>2012-08-29T09:58:22Z</time>
      </trkpt>
      <trkpt lat="47.6697" lon="6.16303">
        <ele>250.80000305176</ele>
        <time>2012-08-29T09:58:24Z</time>
      </trkpt>
      <trkpt lat="47.66973" lon="6.16317">
        <ele>250.39999389648</ele>
        <time>2012-08-29T09:58:26Z</time>
      </trkpt>
      <trkpt lat="47.66975" lon="6.16324">
        <ele>250</ele>
        <time>2012-08-29T09:58:27Z</time>
      </trkpt>
      <trkpt lat="47.66976" lon="6.16332">
        <ele>249.60000610352</ele>
        <time>2012-08-29T09:58:28Z</time>
      </trkpt>
      <trkpt lat="47.66977" lon="6.16341">
        <ele>249.19999694824</ele>
        <time>2012-08-29T09:58:29Z</time>
      </trkpt>
      <trkpt lat="47.66977" lon="6.1635">
        <ele>248.80000305176</ele>
        <time>2012-08-29T09:58:30Z</time>
      </trkpt>
      <trkpt lat="47.66977" lon="6.16359">
        <ele>247.80000305176</ele>
        <time>2012-08-29T09:58:31Z</time>
      </trkpt>
      <trkpt lat="47.66977" lon="6.16369">
        <ele>247.19999694824</ele>
        <time>2012-08-29T09:58:32Z</time>
      </trkpt>
      <trkpt lat="47.66975" lon="6.16379">
        <ele>246.80000305176</ele>
        <time>2012-08-29T09:58:33Z</time>
      </trkpt>
      <trkpt lat="47.6697" lon="6.16397">
        <ele>246.39999389648</ele>
        <time>2012-08-29T09:58:35Z</time>
      </trkpt>
      <trkpt lat="47.66968" lon="6.16405">
        <ele>245.80000305176</ele>
        <time>2012-08-29T09:58:36Z</time>
      </trkpt>
      <trkpt lat="47.66967" lon="6.16413">
        <ele>245.39999389648</ele>
        <time>2012-08-29T09:58:37Z</time>
      </trkpt>
      <trkpt lat="47.66965" lon="6.16421">
        <ele>245</ele>
        <time>2012-08-29T09:58:38Z</time>
      </trkpt>
      <trkpt lat="47.66964" lon="6.16427">
        <ele>244.60000610352</ele>
        <time>2012-08-29T09:58:39Z</time>
      </trkpt>
      <trkpt lat="47.66962" lon="6.16439">
        <ele>244.19999694824</ele>
        <time>2012-08-29T09:58:41Z</time>
      </trkpt>
      <trkpt lat="47.6696" lon="6.16443">
        <ele>243.80000305176</ele>
        <time>2012-08-29T09:58:42Z</time>
      </trkpt>
      <trkpt lat="47.66959" lon="6.16447">
        <ele>243.39999389648</ele>
        <time>2012-08-29T09:58:43Z</time>
      </trkpt>
      <trkpt lat="47.66958" lon="6.1645">
        <ele>243</ele>
        <time>2012-08-29T09:58:44Z</time>
      </trkpt>
      <trkpt lat="47.66958" lon="6.16453">
        <ele>242.60000610352</ele>
        <time>2012-08-29T09:58:45Z</time>
      </trkpt>
      <trkpt lat="47.66957" lon="6.16457">
        <ele>242.60000610352</ele>
        <time>2012-08-29T09:58:46Z</time>
      </trkpt>
      <trkpt lat="47.66955" lon="6.16485">
        <ele>242.60000610352</ele>
        <time>2012-08-29T09:58:51Z</time>
      </trkpt>
      <trkpt lat="47.66954" lon="6.16519">
        <ele>242.19999694824</ele>
        <time>2012-08-29T09:58:55Z</time>
      </trkpt>
      <trkpt lat="47.66954" lon="6.16527">
        <ele>241.19999694824</ele>
        <time>2012-08-29T09:58:56Z</time>
      </trkpt>
      <trkpt lat="47.66953" lon="6.16535">
        <ele>240.80000305176</ele>
        <time>2012-08-29T09:58:57Z</time>
      </trkpt>
      <trkpt lat="47.66952" lon="6.16542">
        <ele>240.39999389648</ele>
        <time>2012-08-29T09:58:58Z</time>
      </trkpt>
      <trkpt lat="47.66951" lon="6.1655">
        <ele>240.39999389648</ele>
        <time>2012-08-29T09:58:59Z</time>
      </trkpt>
      <trkpt lat="47.66944" lon="6.16579">
        <ele>240.39999389648</ele>
        <time>2012-08-29T09:59:03Z</time>
      </trkpt>
      <trkpt lat="47.66938" lon="6.16618">
        <ele>240.39999389648</ele>
        <time>2012-08-29T09:59:09Z</time>
      </trkpt>
      <trkpt lat="47.66933" lon="6.16652">
        <ele>240.39999389648</ele>
        <time>2012-08-29T09:59:15Z</time>
      </trkpt>
      <trkpt lat="47.66928" lon="6.16698">
        <ele>240.39999389648</ele>
        <time>2012-08-29T09:59:23Z</time>
      </trkpt>
      <trkpt lat="47.6693" lon="6.16723">
        <ele>240.39999389648</ele>
        <time>2012-08-29T09:59:27Z</time>
      </trkpt>
      <trkpt lat="47.66936" lon="6.16748">
        <ele>240.39999389648</ele>
        <time>2012-08-29T09:59:31Z</time>
      </trkpt>
      <trkpt lat="47.66948" lon="6.16774">
        <ele>240.39999389648</ele>
        <time>2012-08-29T09:59:36Z</time>
      </trkpt>
      <trkpt lat="47.66951" lon="6.16779">
        <ele>240.39999389648</ele>
        <time>2012-08-29T09:59:37Z</time>
      </trkpt>
      <trkpt lat="47.66961" lon="6.16791">
        <ele>240.39999389648</ele>
        <time>2012-08-29T09:59:40Z</time>
      </trkpt>
      <trkpt lat="47.66973" lon="6.16803">
        <ele>240.39999389648</ele>
        <time>2012-08-29T09:59:43Z</time>
      </trkpt>
      <trkpt lat="47.67004" lon="6.16832">
        <ele>240.39999389648</ele>
        <time>2012-08-29T09:59:50Z</time>
      </trkpt>
      <trkpt lat="47.67027" lon="6.16854">
        <ele>240</ele>
        <time>2012-08-29T09:59:55Z</time>
      </trkpt>
      <trkpt lat="47.67032" lon="6.16859">
        <ele>239.60000610352</ele>
        <time>2012-08-29T09:59:56Z</time>
      </trkpt>
      <trkpt lat="47.67037" lon="6.16864">
        <ele>239.19999694824</ele>
        <time>2012-08-29T09:59:57Z</time>
      </trkpt>
      <trkpt lat="47.67041" lon="6.1687">
        <ele>238.80000305176</ele>
        <time>2012-08-29T09:59:58Z</time>
      </trkpt>
      <trkpt lat="47.67046" lon="6.16876">
        <ele>238.39999389648</ele>
        <time>2012-08-29T09:59:59Z</time>
      </trkpt>
      <trkpt lat="47.67065" lon="6.16908">
        <ele>238</ele>
        <time>2012-08-29T10:00:03Z</time>
      </trkpt>
      <trkpt lat="47.67068" lon="6.16919">
        <ele>237.60000610352</ele>
        <time>2012-08-29T10:00:04Z</time>
      </trkpt>
      <trkpt lat="47.6707" lon="6.1693">
        <ele>237.19999694824</ele>
        <time>2012-08-29T10:00:05Z</time>
      </trkpt>
      <trkpt lat="47.6707" lon="6.16942">
        <ele>236.60000610352</ele>
        <time>2012-08-29T10:00:06Z</time>
      </trkpt>
      <trkpt lat="47.67069" lon="6.16952">
        <ele>236.19999694824</ele>
        <time>2012-08-29T10:00:07Z</time>
      </trkpt>
      <trkpt lat="47.67066" lon="6.16973">
        <ele>236.19999694824</ele>
        <time>2012-08-29T10:00:09Z</time>
      </trkpt>
      <trkpt lat="47.67065" lon="6.16983">
        <ele>236.19999694824</ele>
        <time>2012-08-29T10:00:10Z</time>
      </trkpt>
      <trkpt lat="47.67057" lon="6.17039">
        <ele>236.19999694824</ele>
        <time>2012-08-29T10:00:16Z</time>
      </trkpt>
      <trkpt lat="47.67057" lon="6.171">
        <ele>236.19999694824</ele>
        <time>2012-08-29T10:00:23Z</time>
      </trkpt>
      <trkpt lat="47.6706" lon="6.17155">
        <ele>236.19999694824</ele>
        <time>2012-08-29T10:00:30Z</time>
      </trkpt>
      <trkpt lat="47.67061" lon="6.17206">
        <ele>236.19999694824</ele>
        <time>2012-08-29T10:00:37Z</time>
      </trkpt>
      <trkpt lat="47.67057" lon="6.17239">
        <ele>236.19999694824</ele>
        <time>2012-08-29T10:00:42Z</time>
      </trkpt>
      <trkpt lat="47.67055" lon="6.17245">
        <ele>236.19999694824</ele>
        <time>2012-08-29T10:00:43Z</time>
      </trkpt>
      <trkpt lat="47.67041" lon="6.17289">
        <ele>236.19999694824</ele>
        <time>2012-08-29T10:00:51Z</time>
      </trkpt>
      <trkpt lat="47.67038" lon="6.17294">
        <ele>236.19999694824</ele>
        <time>2012-08-29T10:00:52Z</time>
      </trkpt>
      <trkpt lat="47.67032" lon="6.17309">
        <ele>236.19999694824</ele>
        <time>2012-08-29T10:00:55Z</time>
      </trkpt>
      <trkpt lat="47.67028" lon="6.17318">
        <ele>236.19999694824</ele>
        <time>2012-08-29T10:00:57Z</time>
      </trkpt>
      <trkpt lat="47.67008" lon="6.17343">
        <ele>236.19999694824</ele>
        <time>2012-08-29T10:01:04Z</time>
      </trkpt>
      <trkpt lat="47.66986" lon="6.17359">
        <ele>236.19999694824</ele>
        <time>2012-08-29T10:01:11Z</time>
      </trkpt>
      <trkpt lat="47.66955" lon="6.17379">
        <ele>236.19999694824</ele>
        <time>2012-08-29T10:01:20Z</time>
      </trkpt>
      <trkpt lat="47.66937" lon="6.17391">
        <ele>237.19999694824</ele>
        <time>2012-08-29T10:01:25Z</time>
      </trkpt>
      <trkpt lat="47.66934" lon="6.17393">
        <ele>237.60000610352</ele>
        <time>2012-08-29T10:01:26Z</time>
      </trkpt>
      <trkpt lat="47.6693" lon="6.17396">
        <ele>238</ele>
        <time>2012-08-29T10:01:27Z</time>
      </trkpt>
      <trkpt lat="47.66926" lon="6.17398">
        <ele>238.39999389648</ele>
        <time>2012-08-29T10:01:28Z</time>
      </trkpt>
      <trkpt lat="47.66908" lon="6.17409">
        <ele>238.39999389648</ele>
        <time>2012-08-29T10:01:33Z</time>
      </trkpt>
      <trkpt lat="47.66883" lon="6.17423">
        <ele>238.39999389648</ele>
        <time>2012-08-29T10:01:40Z</time>
      </trkpt>
      <trkpt lat="47.66871" lon="6.17426">
        <ele>238.39999389648</ele>
        <time>2012-08-29T10:01:43Z</time>
      </trkpt>
      <trkpt lat="47.66854" lon="6.17429">
        <ele>238.39999389648</ele>
        <time>2012-08-29T10:01:47Z</time>
      </trkpt>
      <trkpt lat="47.6682" lon="6.17427">
        <ele>238.39999389648</ele>
        <time>2012-08-29T10:01:55Z</time>
      </trkpt>
      <trkpt lat="47.66789" lon="6.17428">
        <ele>238.39999389648</ele>
        <time>2012-08-29T10:02:03Z</time>
      </trkpt>
      <trkpt lat="47.66745" lon="6.17434">
        <ele>238.39999389648</ele>
        <time>2012-08-29T10:02:14Z</time>
      </trkpt>
      <trkpt lat="47.66712" lon="6.1744">
        <ele>238.39999389648</ele>
        <time>2012-08-29T10:02:22Z</time>
      </trkpt>
      <trkpt lat="47.66708" lon="6.17441">
        <ele>238.39999389648</ele>
        <time>2012-08-29T10:02:23Z</time>
      </trkpt>
      <trkpt lat="47.66674" lon="6.17449">
        <ele>238.39999389648</ele>
        <time>2012-08-29T10:02:31Z</time>
      </trkpt>
      <trkpt lat="47.66635" lon="6.17463">
        <ele>238.39999389648</ele>
        <time>2012-08-29T10:02:39Z</time>
      </trkpt>
      <trkpt lat="47.66626" lon="6.17468">
        <ele>238</ele>
        <time>2012-08-29T10:02:41Z</time>
      </trkpt>
      <trkpt lat="47.66621" lon="6.1747">
        <ele>237.39999389648</ele>
        <time>2012-08-29T10:02:42Z</time>
      </trkpt>
      <trkpt lat="47.66617" lon="6.17473">
        <ele>237</ele>
        <time>2012-08-29T10:02:43Z</time>
      </trkpt>
      <trkpt lat="47.66612" lon="6.17475">
        <ele>236.60000610352</ele>
        <time>2012-08-29T10:02:44Z</time>
      </trkpt>
      <trkpt lat="47.66608" lon="6.17478">
        <ele>236.19999694824</ele>
        <time>2012-08-29T10:02:45Z</time>
      </trkpt>
      <trkpt lat="47.66594" lon="6.17484">
        <ele>236.19999694824</ele>
        <time>2012-08-29T10:02:48Z</time>
      </trkpt>
      <trkpt lat="47.66556" lon="6.17504">
        <ele>236.19999694824</ele>
        <time>2012-08-29T10:02:56Z</time>
      </trkpt>
      <trkpt lat="47.6652" lon="6.17529">
        <ele>236.19999694824</ele>
        <time>2012-08-29T10:03:04Z</time>
      </trkpt>
      <trkpt lat="47.66508" lon="6.17538">
        <ele>236.19999694824</ele>
        <time>2012-08-29T10:03:07Z</time>
      </trkpt>
      <trkpt lat="47.66494" lon="6.17547">
        <ele>236.19999694824</ele>
        <time>2012-08-29T10:03:10Z</time>
      </trkpt>
      <trkpt lat="47.66458" lon="6.17572">
        <ele>236.19999694824</ele>
        <time>2012-08-29T10:03:18Z</time>
      </trkpt>
      <trkpt lat="47.6642" lon="6.17596">
        <ele>236.19999694824</ele>
        <time>2012-08-29T10:03:27Z</time>
      </trkpt>
      <trkpt lat="47.66399" lon="6.1762">
        <ele>236.19999694824</ele>
        <time>2012-08-29T10:03:33Z</time>
      </trkpt>
      <trkpt lat="47.66382" lon="6.17645">
        <ele>235.80000305176</ele>
        <time>2012-08-29T10:03:38Z</time>
      </trkpt>
      <trkpt lat="47.66379" lon="6.1765">
        <ele>235.39999389648</ele>
        <time>2012-08-29T10:03:39Z</time>
      </trkpt>
      <trkpt lat="47.66376" lon="6.17655">
        <ele>235</ele>
        <time>2012-08-29T10:03:40Z</time>
      </trkpt>
      <trkpt lat="47.66373" lon="6.1766">
        <ele>234.60000610352</ele>
        <time>2012-08-29T10:03:41Z</time>
      </trkpt>
      <trkpt lat="47.66371" lon="6.17665">
        <ele>234.19999694824</ele>
        <time>2012-08-29T10:03:42Z</time>
      </trkpt>
      <trkpt lat="47.66353" lon="6.17706">
        <ele>234.19999694824</ele>
        <time>2012-08-29T10:03:49Z</time>
      </trkpt>
      <trkpt lat="47.6634" lon="6.17762">
        <ele>234.19999694824</ele>
        <time>2012-08-29T10:03:57Z</time>
      </trkpt>
      <trkpt lat="47.66336" lon="6.17822">
        <ele>234.19999694824</ele>
        <time>2012-08-29T10:04:05Z</time>
      </trkpt>
      <trkpt lat="47.66332" lon="6.17867">
        <ele>234.19999694824</ele>
        <time>2012-08-29T10:04:12Z</time>
      </trkpt>
      <trkpt lat="47.66329" lon="6.17916">
        <ele>234.19999694824</ele>
        <time>2012-08-29T10:04:20Z</time>
      </trkpt>
      <trkpt lat="47.66328" lon="6.17951">
        <ele>234.19999694824</ele>
        <time>2012-08-29T10:04:26Z</time>
      </trkpt>
      <trkpt lat="47.66327" lon="6.17957">
        <ele>234.19999694824</ele>
        <time>2012-08-29T10:04:27Z</time>
      </trkpt>
      <trkpt lat="47.66321" lon="6.17971">
        <ele>234.19999694824</ele>
        <time>2012-08-29T10:04:30Z</time>
      </trkpt>
      <trkpt lat="47.66318" lon="6.17971">
        <ele>234.19999694824</ele>
        <time>2012-08-29T10:04:31Z</time>
      </trkpt>
      <trkpt lat="47.66301" lon="6.17974">
        <ele>234.19999694824</ele>
        <time>2012-08-29T10:04:36Z</time>
      </trkpt>
      <trkpt lat="47.66279" lon="6.17973">
        <ele>234.19999694824</ele>
        <time>2012-08-29T10:04:42Z</time>
      </trkpt>
      <trkpt lat="47.66259" lon="6.1797">
        <ele>234.19999694824</ele>
        <time>2012-08-29T10:04:49Z</time>
      </trkpt>
      <trkpt lat="47.66253" lon="6.17968">
        <ele>234.60000610352</ele>
        <time>2012-08-29T10:04:51Z</time>
      </trkpt>
      <trkpt lat="47.6625" lon="6.17967">
        <ele>235</ele>
        <time>2012-08-29T10:04:52Z</time>
      </trkpt>
      <trkpt lat="47.66246" lon="6.17966">
        <ele>235.39999389648</ele>
        <time>2012-08-29T10:04:53Z</time>
      </trkpt>
      <trkpt lat="47.66243" lon="6.17966">
        <ele>235.80000305176</ele>
        <time>2012-08-29T10:04:54Z</time>
      </trkpt>
      <trkpt lat="47.6624" lon="6.17965">
        <ele>236.19999694824</ele>
        <time>2012-08-29T10:04:55Z</time>
      </trkpt>
      <trkpt lat="47.66237" lon="6.17964">
        <ele>236.19999694824</ele>
        <time>2012-08-29T10:04:56Z</time>
      </trkpt>
      <trkpt lat="47.66214" lon="6.17958">
        <ele>236.19999694824</ele>
        <time>2012-08-29T10:05:02Z</time>
      </trkpt>
      <trkpt lat="47.66188" lon="6.17953">
        <ele>236.19999694824</ele>
        <time>2012-08-29T10:05:09Z</time>
      </trkpt>
      <trkpt lat="47.66157" lon="6.1795">
        <ele>236.19999694824</ele>
        <time>2012-08-29T10:05:17Z</time>
      </trkpt>
      <trkpt lat="47.66128" lon="6.17951">
        <ele>236.19999694824</ele>
        <time>2012-08-29T10:05:25Z</time>
      </trkpt>
      <trkpt lat="47.66111" lon="6.17951">
        <ele>236.19999694824</ele>
        <time>2012-08-29T10:05:29Z</time>
      </trkpt>
      <trkpt lat="47.66098" lon="6.17951">
        <ele>236.19999694824</ele>
        <time>2012-08-29T10:05:32Z</time>
      </trkpt>
      <trkpt lat="47.66056" lon="6.17951">
        <ele>236.19999694824</ele>
        <time>2012-08-29T10:05:41Z</time>
      </trkpt>
      <trkpt lat="47.66017" lon="6.1795">
        <ele>236.19999694824</ele>
        <time>2012-08-29T10:05:50Z</time>
      </trkpt>
      <trkpt lat="47.65994" lon="6.17949">
        <ele>236.19999694824</ele>
        <time>2012-08-29T10:05:56Z</time>
      </trkpt>
      <trkpt lat="47.65964" lon="6.17947">
        <ele>236.19999694824</ele>
        <time>2012-08-29T10:06:05Z</time>
      </trkpt>
      <trkpt lat="47.65946" lon="6.17946">
        <ele>236.19999694824</ele>
        <time>2012-08-29T10:06:11Z</time>
      </trkpt>
      <trkpt lat="47.65926" lon="6.17947">
        <ele>236.80000305176</ele>
        <time>2012-08-29T10:06:19Z</time>
      </trkpt>
      <trkpt lat="47.65923" lon="6.17947">
        <ele>237.19999694824</ele>
        <time>2012-08-29T10:06:20Z</time>
      </trkpt>
      <trkpt lat="47.65921" lon="6.17947">
        <ele>237.60000610352</ele>
        <time>2012-08-29T10:06:21Z</time>
      </trkpt>
      <trkpt lat="47.65918" lon="6.17946">
        <ele>238.39999389648</ele>
        <time>2012-08-29T10:06:22Z</time>
      </trkpt>
      <trkpt lat="47.65906" lon="6.17948">
        <ele>238.39999389648</ele>
        <time>2012-08-29T10:06:28Z</time>
      </trkpt>
      <trkpt lat="47.659" lon="6.17957">
        <ele>238.39999389648</ele>
        <time>2012-08-29T10:06:32Z</time>
      </trkpt>
      <trkpt lat="47.659" lon="6.17961">
        <ele>238.39999389648</ele>
        <time>2012-08-29T10:06:33Z</time>
      </trkpt>
      <trkpt lat="47.65904" lon="6.17971">
        <ele>238.80000305176</ele>
        <time>2012-08-29T10:06:37Z</time>
      </trkpt>
      <trkpt lat="47.65905" lon="6.17973">
        <ele>239.19999694824</ele>
        <time>2012-08-29T10:06:38Z</time>
      </trkpt>
      <trkpt lat="47.65907" lon="6.17974">
        <ele>239.60000610352</ele>
        <time>2012-08-29T10:06:39Z</time>
      </trkpt>
      <trkpt lat="47.65909" lon="6.17975">
        <ele>240</ele>
        <time>2012-08-29T10:06:40Z</time>
      </trkpt>
      <trkpt lat="47.65912" lon="6.17976">
        <ele>240.39999389648</ele>
        <time>2012-08-29T10:06:41Z</time>
      </trkpt>
      <trkpt lat="47.65916" lon="6.1798">
        <ele>240.39999389648</ele>
        <time>2012-08-29T10:06:43Z</time>
      </trkpt>
      <trkpt lat="47.65932" lon="6.1799">
        <ele>240.39999389648</ele>
        <time>2012-08-29T10:06:51Z</time>
      </trkpt>
      <trkpt lat="47.65944" lon="6.18001">
        <ele>241</ele>
        <time>2012-08-29T10:06:58Z</time>
      </trkpt>
      <trkpt lat="47.65946" lon="6.18002">
        <ele>241.39999389648</ele>
        <time>2012-08-29T10:06:59Z</time>
      </trkpt>
      <trkpt lat="47.65948" lon="6.18003">
        <ele>241.80000305176</ele>
        <time>2012-08-29T10:07:00Z</time>
      </trkpt>
      <trkpt lat="47.65949" lon="6.18006">
        <ele>242.19999694824</ele>
        <time>2012-08-29T10:07:01Z</time>
      </trkpt>
      <trkpt lat="47.65951" lon="6.18007">
        <ele>242.60000610352</ele>
        <time>2012-08-29T10:07:02Z</time>
      </trkpt>
      <trkpt lat="47.65954" lon="6.18009">
        <ele>242.60000610352</ele>
        <time>2012-08-29T10:07:04Z</time>
      </trkpt>
      <trkpt lat="47.65966" lon="6.18023">
        <ele>242.60000610352</ele>
        <time>2012-08-29T10:07:12Z</time>
      </trkpt>
      <trkpt lat="47.65973" lon="6.18029">
        <ele>243</ele>
        <time>2012-08-29T10:07:17Z</time>
      </trkpt>
      <trkpt lat="47.65974" lon="6.18031">
        <ele>243.39999389648</ele>
        <time>2012-08-29T10:07:18Z</time>
      </trkpt>
      <trkpt lat="47.65976" lon="6.18032">
        <ele>243.80000305176</ele>
        <time>2012-08-29T10:07:19Z</time>
      </trkpt>
      <trkpt lat="47.65978" lon="6.18033">
        <ele>244.19999694824</ele>
        <time>2012-08-29T10:07:20Z</time>
      </trkpt>
      <trkpt lat="47.65979" lon="6.18034">
        <ele>244.60000610352</ele>
        <time>2012-08-29T10:07:21Z</time>
      </trkpt>
      <trkpt lat="47.65987" lon="6.18043">
        <ele>244.60000610352</ele>
        <time>2012-08-29T10:07:27Z</time>
      </trkpt>
      <trkpt lat="47.65994" lon="6.18051">
        <ele>245.19999694824</ele>
        <time>2012-08-29T10:07:32Z</time>
      </trkpt>
      <trkpt lat="47.65995" lon="6.18053">
        <ele>245.60000610352</ele>
        <time>2012-08-29T10:07:33Z</time>
      </trkpt>
      <trkpt lat="47.65996" lon="6.18054">
        <ele>246</ele>
        <time>2012-08-29T10:07:34Z</time>
      </trkpt>
      <trkpt lat="47.65997" lon="6.18058">
        <ele>246.39999389648</ele>
        <time>2012-08-29T10:07:35Z</time>
      </trkpt>
      <trkpt lat="47.65998" lon="6.1806">
        <ele>246.80000305176</ele>
        <time>2012-08-29T10:07:36Z</time>
      </trkpt>
      <trkpt lat="47.66002" lon="6.18065">
        <ele>246.80000305176</ele>
        <time>2012-08-29T10:07:39Z</time>
      </trkpt>
      <trkpt lat="47.66013" lon="6.18079">
        <ele>247.19999694824</ele>
        <time>2012-08-29T10:07:47Z</time>
      </trkpt>
      <trkpt lat="47.66014" lon="6.18081">
        <ele>247.60000610352</ele>
        <time>2012-08-29T10:07:48Z</time>
      </trkpt>
      <trkpt lat="47.66015" lon="6.18082">
        <ele>248</ele>
        <time>2012-08-29T10:07:49Z</time>
      </trkpt>
      <trkpt lat="47.66018" lon="6.18084">
        <ele>248.39999389648</ele>
        <time>2012-08-29T10:07:50Z</time>
      </trkpt>
      <trkpt lat="47.66019" lon="6.18085">
        <ele>248.80000305176</ele>
        <time>2012-08-29T10:07:51Z</time>
      </trkpt>
      <trkpt lat="47.66021" lon="6.18087">
        <ele>248.80000305176</ele>
        <time>2012-08-29T10:07:53Z</time>
      </trkpt>
      <trkpt lat="47.66034" lon="6.18101">
        <ele>248.80000305176</ele>
        <time>2012-08-29T10:08:02Z</time>
      </trkpt>
      <trkpt lat="47.66035" lon="6.18101">
        <ele>249.19999694824</ele>
        <time>2012-08-29T10:08:03Z</time>
      </trkpt>
      <trkpt lat="47.66037" lon="6.18102">
        <ele>249.80000305176</ele>
        <time>2012-08-29T10:08:04Z</time>
      </trkpt>
      <trkpt lat="47.66039" lon="6.18103">
        <ele>250.19999694824</ele>
        <time>2012-08-29T10:08:05Z</time>
      </trkpt>
      <trkpt lat="47.6604" lon="6.18103">
        <ele>250.60000610352</ele>
        <time>2012-08-29T10:08:06Z</time>
      </trkpt>
      <trkpt lat="47.66042" lon="6.18104">
        <ele>251</ele>
        <time>2012-08-29T10:08:07Z</time>
      </trkpt>
      <trkpt lat="47.66048" lon="6.18105">
        <ele>251</ele>
        <time>2012-08-29T10:08:10Z</time>
      </trkpt>
      <trkpt lat="47.66059" lon="6.18109">
        <ele>251</ele>
        <time>2012-08-29T10:08:17Z</time>
      </trkpt>
      <trkpt lat="47.66068" lon="6.18114">
        <ele>251.39999389648</ele>
        <time>2012-08-29T10:08:22Z</time>
      </trkpt>
      <trkpt lat="47.6607" lon="6.18114">
        <ele>251.80000305176</ele>
        <time>2012-08-29T10:08:23Z</time>
      </trkpt>
      <trkpt lat="47.66072" lon="6.18114">
        <ele>252.19999694824</ele>
        <time>2012-08-29T10:08:24Z</time>
      </trkpt>
      <trkpt lat="47.66074" lon="6.18114">
        <ele>253</ele>
        <time>2012-08-29T10:08:25Z</time>
      </trkpt>
      <trkpt lat="47.66086" lon="6.18117">
        <ele>253</ele>
        <time>2012-08-29T10:08:31Z</time>
      </trkpt>
      <trkpt lat="47.66095" lon="6.18123">
        <ele>253</ele>
        <time>2012-08-29T10:08:37Z</time>
      </trkpt>
      <trkpt lat="47.66106" lon="6.18126">
        <ele>253</ele>
        <time>2012-08-29T10:08:43Z</time>
      </trkpt>
      <trkpt lat="47.6611" lon="6.1813">
        <ele>253</ele>
        <time>2012-08-29T10:08:46Z</time>
      </trkpt>
      <trkpt lat="47.66112" lon="6.18131">
        <ele>253.39999389648</ele>
        <time>2012-08-29T10:08:47Z</time>
      </trkpt>
      <trkpt lat="47.66114" lon="6.18132">
        <ele>254</ele>
        <time>2012-08-29T10:08:48Z</time>
      </trkpt>
      <trkpt lat="47.66115" lon="6.18132">
        <ele>254.80000305176</ele>
        <time>2012-08-29T10:08:49Z</time>
      </trkpt>
      <trkpt lat="47.66117" lon="6.18131">
        <ele>255.19999694824</ele>
        <time>2012-08-29T10:08:50Z</time>
      </trkpt>
      <trkpt lat="47.66122" lon="6.18133">
        <ele>255.19999694824</ele>
        <time>2012-08-29T10:08:53Z</time>
      </trkpt>
      <trkpt lat="47.66136" lon="6.18141">
        <ele>255.19999694824</ele>
        <time>2012-08-29T10:09:01Z</time>
      </trkpt>
      <trkpt lat="47.66139" lon="6.18145">
        <ele>255.60000610352</ele>
        <time>2012-08-29T10:09:03Z</time>
      </trkpt>
      <trkpt lat="47.6614" lon="6.18146">
        <ele>256</ele>
        <time>2012-08-29T10:09:04Z</time>
      </trkpt>
      <trkpt lat="47.66142" lon="6.18147">
        <ele>256.39999389648</ele>
        <time>2012-08-29T10:09:05Z</time>
      </trkpt>
      <trkpt lat="47.66144" lon="6.18147">
        <ele>256.79998779297</ele>
        <time>2012-08-29T10:09:06Z</time>
      </trkpt>
      <trkpt lat="47.66146" lon="6.18146">
        <ele>257.20001220703</ele>
        <time>2012-08-29T10:09:07Z</time>
      </trkpt>
      <trkpt lat="47.6615" lon="6.18147">
        <ele>257.20001220703</ele>
        <time>2012-08-29T10:09:09Z</time>
      </trkpt>
      <trkpt lat="47.66155" lon="6.18151">
        <ele>257.20001220703</ele>
        <time>2012-08-29T10:09:12Z</time>
      </trkpt>
      <trkpt lat="47.66165" lon="6.18163">
        <ele>257.20001220703</ele>
        <time>2012-08-29T10:09:19Z</time>
      </trkpt>
      <trkpt lat="47.66167" lon="6.18164">
        <ele>257.20001220703</ele>
        <time>2012-08-29T10:09:20Z</time>
      </trkpt>
      <trkpt lat="47.66173" lon="6.1817">
        <ele>257.60000610352</ele>
        <time>2012-08-29T10:09:24Z</time>
      </trkpt>
      <trkpt lat="47.66174" lon="6.18172">
        <ele>258</ele>
        <time>2012-08-29T10:09:25Z</time>
      </trkpt>
      <trkpt lat="47.66176" lon="6.18174">
        <ele>258.39999389648</ele>
        <time>2012-08-29T10:09:26Z</time>
      </trkpt>
      <trkpt lat="47.66177" lon="6.18176">
        <ele>258.79998779297</ele>
        <time>2012-08-29T10:09:27Z</time>
      </trkpt>
      <trkpt lat="47.66178" lon="6.18178">
        <ele>259.20001220703</ele>
        <time>2012-08-29T10:09:28Z</time>
      </trkpt>
      <trkpt lat="47.66188" lon="6.18186">
        <ele>259.20001220703</ele>
        <time>2012-08-29T10:09:34Z</time>
      </trkpt>
      <trkpt lat="47.662" lon="6.18199">
        <ele>259.20001220703</ele>
        <time>2012-08-29T10:09:42Z</time>
      </trkpt>
      <trkpt lat="47.66201" lon="6.18201">
        <ele>259.60000610352</ele>
        <time>2012-08-29T10:09:43Z</time>
      </trkpt>
      <trkpt lat="47.66203" lon="6.18203">
        <ele>260</ele>
        <time>2012-08-29T10:09:44Z</time>
      </trkpt>
      <trkpt lat="47.66204" lon="6.18206">
        <ele>260.60000610352</ele>
        <time>2012-08-29T10:09:45Z</time>
      </trkpt>
      <trkpt lat="47.66205" lon="6.18208">
        <ele>261</ele>
        <time>2012-08-29T10:09:46Z</time>
      </trkpt>
      <trkpt lat="47.66207" lon="6.18211">
        <ele>261.39999389648</ele>
        <time>2012-08-29T10:09:47Z</time>
      </trkpt>
      <trkpt lat="47.6621" lon="6.18218">
        <ele>261.39999389648</ele>
        <time>2012-08-29T10:09:50Z</time>
      </trkpt>
      <trkpt lat="47.66223" lon="6.18236">
        <ele>261.39999389648</ele>
        <time>2012-08-29T10:09:59Z</time>
      </trkpt>
      <trkpt lat="47.66224" lon="6.18238">
        <ele>261.79998779297</ele>
        <time>2012-08-29T10:10:00Z</time>
      </trkpt>
      <trkpt lat="47.66225" lon="6.18241">
        <ele>262.20001220703</ele>
        <time>2012-08-29T10:10:01Z</time>
      </trkpt>
      <trkpt lat="47.66226" lon="6.18243">
        <ele>262.60000610352</ele>
        <time>2012-08-29T10:10:02Z</time>
      </trkpt>
      <trkpt lat="47.66227" lon="6.18245">
        <ele>263.60000610352</ele>
        <time>2012-08-29T10:10:03Z</time>
      </trkpt>
      <trkpt lat="47.66231" lon="6.18255">
        <ele>263.60000610352</ele>
        <time>2012-08-29T10:10:07Z</time>
      </trkpt>
      <trkpt lat="47.66235" lon="6.18275">
        <ele>263.60000610352</ele>
        <time>2012-08-29T10:10:15Z</time>
      </trkpt>
      <trkpt lat="47.66236" lon="6.18278">
        <ele>264</ele>
        <time>2012-08-29T10:10:16Z</time>
      </trkpt>
      <trkpt lat="47.66236" lon="6.1828">
        <ele>264.39999389648</ele>
        <time>2012-08-29T10:10:17Z</time>
      </trkpt>
      <trkpt lat="47.66236" lon="6.18282">
        <ele>264.79998779297</ele>
        <time>2012-08-29T10:10:18Z</time>
      </trkpt>
      <trkpt lat="47.66237" lon="6.18285">
        <ele>265.20001220703</ele>
        <time>2012-08-29T10:10:19Z</time>
      </trkpt>
      <trkpt lat="47.66236" lon="6.18287">
        <ele>265.60000610352</ele>
        <time>2012-08-29T10:10:20Z</time>
      </trkpt>
      <trkpt lat="47.66234" lon="6.18288">
        <ele>265.60000610352</ele>
        <time>2012-08-29T10:10:21Z</time>
      </trkpt>
      <trkpt lat="47.6623" lon="6.18296">
        <ele>265.60000610352</ele>
        <time>2012-08-29T10:10:25Z</time>
      </trkpt>
      <trkpt lat="47.66227" lon="6.183">
        <ele>266</ele>
        <time>2012-08-29T10:10:27Z</time>
      </trkpt>
      <trkpt lat="47.66226" lon="6.18302">
        <ele>266.79998779297</ele>
        <time>2012-08-29T10:10:28Z</time>
      </trkpt>
      <trkpt lat="47.66225" lon="6.18302">
        <ele>267.20001220703</ele>
        <time>2012-08-29T10:10:29Z</time>
      </trkpt>
      <trkpt lat="47.66224" lon="6.18302">
        <ele>267.60000610352</ele>
        <time>2012-08-29T10:10:30Z</time>
      </trkpt>
      <trkpt lat="47.66222" lon="6.18305">
        <ele>267.60000610352</ele>
        <time>2012-08-29T10:10:32Z</time>
      </trkpt>
      <trkpt lat="47.66219" lon="6.18305">
        <ele>267.60000610352</ele>
        <time>2012-08-29T10:10:35Z</time>
      </trkpt>
      <trkpt lat="47.66216" lon="6.18304">
        <ele>267.60000610352</ele>
        <time>2012-08-29T10:10:37Z</time>
      </trkpt>
      <trkpt lat="47.66214" lon="6.18304">
        <ele>268</ele>
        <time>2012-08-29T10:10:39Z</time>
      </trkpt>
      <trkpt lat="47.66212" lon="6.18305">
        <ele>268.39999389648</ele>
        <time>2012-08-29T10:10:40Z</time>
      </trkpt>
      <trkpt lat="47.6621" lon="6.18304">
        <ele>268.79998779297</ele>
        <time>2012-08-29T10:10:41Z</time>
      </trkpt>
      <trkpt lat="47.66209" lon="6.18304">
        <ele>269.20001220703</ele>
        <time>2012-08-29T10:10:42Z</time>
      </trkpt>
      <trkpt lat="47.66207" lon="6.18304">
        <ele>269.60000610352</ele>
        <time>2012-08-29T10:10:43Z</time>
      </trkpt>
      <trkpt lat="47.66206" lon="6.18303">
        <ele>269.60000610352</ele>
        <time>2012-08-29T10:10:44Z</time>
      </trkpt>
      <trkpt lat="47.662" lon="6.183">
        <ele>269.60000610352</ele>
        <time>2012-08-29T10:10:48Z</time>
      </trkpt>
      <trkpt lat="47.66198" lon="6.183">
        <ele>269.60000610352</ele>
        <time>2012-08-29T10:10:51Z</time>
      </trkpt>
      <trkpt lat="47.66196" lon="6.18296">
        <ele>269.60000610352</ele>
        <time>2012-08-29T10:12:14Z</time>
      </trkpt>
      <trkpt lat="47.66195" lon="6.18294">
        <ele>269.60000610352</ele>
        <time>2012-08-29T10:12:15Z</time>
      </trkpt>
      <trkpt lat="47.66186" lon="6.18288">
        <ele>270</ele>
        <time>2012-08-29T10:12:21Z</time>
      </trkpt>
      <trkpt lat="47.66184" lon="6.18288">
        <ele>270.39999389648</ele>
        <time>2012-08-29T10:12:22Z</time>
      </trkpt>
      <trkpt lat="47.66183" lon="6.1829">
        <ele>270.79998779297</ele>
        <time>2012-08-29T10:12:23Z</time>
      </trkpt>
      <trkpt lat="47.66182" lon="6.18291">
        <ele>271.20001220703</ele>
        <time>2012-08-29T10:12:24Z</time>
      </trkpt>
      <trkpt lat="47.66182" lon="6.18291">
        <ele>271.60000610352</ele>
        <time>2012-08-29T10:12:25Z</time>
      </trkpt>
      <trkpt lat="47.66178" lon="6.18286">
        <ele>271.60000610352</ele>
        <time>2012-08-29T10:12:53Z</time>
      </trkpt>
      <trkpt lat="47.66167" lon="6.18278">
        <ele>271.60000610352</ele>
        <time>2012-08-29T10:12:58Z</time>
      </trkpt>
      <trkpt lat="47.66148" lon="6.18269">
        <ele>271.60000610352</ele>
        <time>2012-08-29T10:13:05Z</time>
      </trkpt>
      <trkpt lat="47.66134" lon="6.18262">
        <ele>272.20001220703</ele>
        <time>2012-08-29T10:13:11Z</time>
      </trkpt>
      <trkpt lat="47.66132" lon="6.18261">
        <ele>272.60000610352</ele>
        <time>2012-08-29T10:13:12Z</time>
      </trkpt>
      <trkpt lat="47.66129" lon="6.18259">
        <ele>273</ele>
        <time>2012-08-29T10:13:13Z</time>
      </trkpt>
      <trkpt lat="47.66126" lon="6.18259">
        <ele>273.60000610352</ele>
        <time>2012-08-29T10:13:14Z</time>
      </trkpt>
      <trkpt lat="47.66123" lon="6.18257">
        <ele>274</ele>
        <time>2012-08-29T10:13:15Z</time>
      </trkpt>
      <trkpt lat="47.66114" lon="6.18254">
        <ele>274</ele>
        <time>2012-08-29T10:13:18Z</time>
      </trkpt>
      <trkpt lat="47.66108" lon="6.18253">
        <ele>274.60000610352</ele>
        <time>2012-08-29T10:13:20Z</time>
      </trkpt>
      <trkpt lat="47.66106" lon="6.18253">
        <ele>275.20001220703</ele>
        <time>2012-08-29T10:13:21Z</time>
      </trkpt>
      <trkpt lat="47.66104" lon="6.18252">
        <ele>275.60000610352</ele>
        <time>2012-08-29T10:13:22Z</time>
      </trkpt>
      <trkpt lat="47.66101" lon="6.18252">
        <ele>275.39999389648</ele>
        <time>2012-08-29T10:13:23Z</time>
      </trkpt>
      <trkpt lat="47.66099" lon="6.18251">
        <ele>275.20001220703</ele>
        <time>2012-08-29T10:13:24Z</time>
      </trkpt>
      <trkpt lat="47.66096" lon="6.1825">
        <ele>275</ele>
        <time>2012-08-29T10:13:25Z</time>
      </trkpt>
      <trkpt lat="47.66093" lon="6.1825">
        <ele>274.60000610352</ele>
        <time>2012-08-29T10:13:26Z</time>
      </trkpt>
      <trkpt lat="47.6609" lon="6.18249">
        <ele>274.39999389648</ele>
        <time>2012-08-29T10:13:27Z</time>
      </trkpt>
      <trkpt lat="47.66076" lon="6.18247">
        <ele>274.39999389648</ele>
        <time>2012-08-29T10:13:31Z</time>
      </trkpt>
      <trkpt lat="47.66054" lon="6.18248">
        <ele>274.39999389648</ele>
        <time>2012-08-29T10:13:37Z</time>
      </trkpt>
      <trkpt lat="47.6603" lon="6.18253">
        <ele>274.39999389648</ele>
        <time>2012-08-29T10:13:44Z</time>
      </trkpt>
      <trkpt lat="47.66013" lon="6.18245">
        <ele>274.39999389648</ele>
        <time>2012-08-29T10:13:49Z</time>
      </trkpt>
      <trkpt lat="47.66004" lon="6.18238">
        <ele>274.39999389648</ele>
        <time>2012-08-29T10:13:51Z</time>
      </trkpt>
      <trkpt lat="47.65982" lon="6.18229">
        <ele>274</ele>
        <time>2012-08-29T10:13:55Z</time>
      </trkpt>
      <trkpt lat="47.65975" lon="6.18228">
        <ele>273.60000610352</ele>
        <time>2012-08-29T10:13:56Z</time>
      </trkpt>
      <trkpt lat="47.65968" lon="6.18226">
        <ele>273.20001220703</ele>
        <time>2012-08-29T10:13:57Z</time>
      </trkpt>
      <trkpt lat="47.65961" lon="6.18223">
        <ele>272.79998779297</ele>
        <time>2012-08-29T10:13:58Z</time>
      </trkpt>
      <trkpt lat="47.65953" lon="6.1822">
        <ele>272.39999389648</ele>
        <time>2012-08-29T10:13:59Z</time>
      </trkpt>
      <trkpt lat="47.65947" lon="6.18214">
        <ele>271.79998779297</ele>
        <time>2012-08-29T10:14:00Z</time>
      </trkpt>
      <trkpt lat="47.6594" lon="6.18207">
        <ele>271.39999389648</ele>
        <time>2012-08-29T10:14:01Z</time>
      </trkpt>
      <trkpt lat="47.65933" lon="6.18201">
        <ele>271</ele>
        <time>2012-08-29T10:14:02Z</time>
      </trkpt>
      <trkpt lat="47.65926" lon="6.18197">
        <ele>270.39999389648</ele>
        <time>2012-08-29T10:14:03Z</time>
      </trkpt>
      <trkpt lat="47.65918" lon="6.18195">
        <ele>270</ele>
        <time>2012-08-29T10:14:04Z</time>
      </trkpt>
      <trkpt lat="47.65903" lon="6.1819">
        <ele>269.60000610352</ele>
        <time>2012-08-29T10:14:06Z</time>
      </trkpt>
      <trkpt lat="47.65896" lon="6.18188">
        <ele>269.20001220703</ele>
        <time>2012-08-29T10:14:07Z</time>
      </trkpt>
      <trkpt lat="47.65889" lon="6.18186">
        <ele>268.79998779297</ele>
        <time>2012-08-29T10:14:08Z</time>
      </trkpt>
      <trkpt lat="47.65882" lon="6.18184">
        <ele>268.20001220703</ele>
        <time>2012-08-29T10:14:09Z</time>
      </trkpt>
      <trkpt lat="47.65875" lon="6.18183">
        <ele>267.79998779297</ele>
        <time>2012-08-29T10:14:10Z</time>
      </trkpt>
      <trkpt lat="47.65865" lon="6.18179">
        <ele>267.79998779297</ele>
        <time>2012-08-29T10:14:12Z</time>
      </trkpt>
      <trkpt lat="47.65861" lon="6.18178">
        <ele>267.79998779297</ele>
        <time>2012-08-29T10:14:13Z</time>
      </trkpt>
      <trkpt lat="47.6585" lon="6.18177">
        <ele>267.79998779297</ele>
        <time>2012-08-29T10:14:18Z</time>
      </trkpt>
      <trkpt lat="47.65847" lon="6.18176">
        <ele>267.79998779297</ele>
        <time>2012-08-29T10:14:20Z</time>
      </trkpt>
      <trkpt lat="47.65847" lon="6.18175">
        <ele>267.79998779297</ele>
        <time>2012-08-29T10:14:21Z</time>
      </trkpt>
      <trkpt lat="47.65845" lon="6.18178">
        <ele>267.79998779297</ele>
        <time>2012-08-29T10:14:39Z</time>
      </trkpt>
      <trkpt lat="47.65845" lon="6.18178">
        <ele>267.79998779297</ele>
        <time>2012-08-29T10:14:41Z</time>
      </trkpt>
      <trkpt lat="47.65846" lon="6.18184">
        <ele>267.79998779297</ele>
        <time>2012-08-29T10:14:47Z</time>
      </trkpt>
      <trkpt lat="47.65848" lon="6.18188">
        <ele>267.79998779297</ele>
        <time>2012-08-29T10:14:48Z</time>
      </trkpt>
      <trkpt lat="47.65852" lon="6.18203">
        <ele>267.79998779297</ele>
        <time>2012-08-29T10:14:54Z</time>
      </trkpt>
      <trkpt lat="47.65852" lon="6.18221">
        <ele>267.79998779297</ele>
        <time>2012-08-29T10:14:59Z</time>
      </trkpt>
      <trkpt lat="47.65851" lon="6.18228">
        <ele>268.20001220703</ele>
        <time>2012-08-29T10:15:01Z</time>
      </trkpt>
      <trkpt lat="47.65849" lon="6.18229">
        <ele>268.60000610352</ele>
        <time>2012-08-29T10:15:02Z</time>
      </trkpt>
      <trkpt lat="47.65848" lon="6.18231">
        <ele>269.20001220703</ele>
        <time>2012-08-29T10:15:03Z</time>
      </trkpt>
      <trkpt lat="47.65846" lon="6.18232">
        <ele>269.60000610352</ele>
        <time>2012-08-29T10:15:04Z</time>
      </trkpt>
      <trkpt lat="47.65844" lon="6.18233">
        <ele>270</ele>
        <time>2012-08-29T10:15:05Z</time>
      </trkpt>
      <trkpt lat="47.65834" lon="6.18239">
        <ele>270</ele>
        <time>2012-08-29T10:15:10Z</time>
      </trkpt>
      <trkpt lat="47.65824" lon="6.18246">
        <ele>270</ele>
        <time>2012-08-29T10:15:15Z</time>
      </trkpt>
      <trkpt lat="47.65802" lon="6.18262">
        <ele>270</ele>
        <time>2012-08-29T10:15:23Z</time>
      </trkpt>
      <trkpt lat="47.65778" lon="6.18276">
        <ele>270</ele>
        <time>2012-08-29T10:15:30Z</time>
      </trkpt>
      <trkpt lat="47.65755" lon="6.18294">
        <ele>270</ele>
        <time>2012-08-29T10:15:38Z</time>
      </trkpt>
      <trkpt lat="47.65744" lon="6.18308">
        <ele>270</ele>
        <time>2012-08-29T10:15:43Z</time>
      </trkpt>
      <trkpt lat="47.6573" lon="6.18325">
        <ele>270</ele>
        <time>2012-08-29T10:15:49Z</time>
      </trkpt>
      <trkpt lat="47.65721" lon="6.18338">
        <ele>270</ele>
        <time>2012-08-29T10:15:55Z</time>
      </trkpt>
      <trkpt lat="47.65718" lon="6.18345">
        <ele>270.39999389648</ele>
        <time>2012-08-29T10:15:59Z</time>
      </trkpt>
      <trkpt lat="47.65717" lon="6.18346">
        <ele>270.79998779297</ele>
        <time>2012-08-29T10:16:00Z</time>
      </trkpt>
      <trkpt lat="47.65716" lon="6.18348">
        <ele>271.20001220703</ele>
        <time>2012-08-29T10:16:01Z</time>
      </trkpt>
      <trkpt lat="47.65716" lon="6.1835">
        <ele>271.60000610352</ele>
        <time>2012-08-29T10:16:02Z</time>
      </trkpt>
      <trkpt lat="47.65714" lon="6.18352">
        <ele>272.20001220703</ele>
        <time>2012-08-29T10:16:03Z</time>
      </trkpt>
      <trkpt lat="47.65709" lon="6.1836">
        <ele>272.20001220703</ele>
        <time>2012-08-29T10:16:09Z</time>
      </trkpt>
      <trkpt lat="47.65706" lon="6.18364">
        <ele>272.60000610352</ele>
        <time>2012-08-29T10:16:12Z</time>
      </trkpt>
      <trkpt lat="47.65706" lon="6.18365">
        <ele>273</ele>
        <time>2012-08-29T10:16:13Z</time>
      </trkpt>
      <trkpt lat="47.65705" lon="6.18365">
        <ele>273.79998779297</ele>
        <time>2012-08-29T10:16:14Z</time>
      </trkpt>
      <trkpt lat="47.65704" lon="6.18366">
        <ele>274.20001220703</ele>
        <time>2012-08-29T10:16:15Z</time>
      </trkpt>
      <trkpt lat="47.65702" lon="6.18368">
        <ele>274.20001220703</ele>
        <time>2012-08-29T10:16:17Z</time>
      </trkpt>
      <trkpt lat="47.65693" lon="6.18376">
        <ele>274.60000610352</ele>
        <time>2012-08-29T10:16:25Z</time>
      </trkpt>
      <trkpt lat="47.65691" lon="6.18376">
        <ele>275</ele>
        <time>2012-08-29T10:16:26Z</time>
      </trkpt>
      <trkpt lat="47.6569" lon="6.18376">
        <ele>275.39999389648</ele>
        <time>2012-08-29T10:16:27Z</time>
      </trkpt>
      <trkpt lat="47.65688" lon="6.18376">
        <ele>275.79998779297</ele>
        <time>2012-08-29T10:16:28Z</time>
      </trkpt>
      <trkpt lat="47.65687" lon="6.18376">
        <ele>276.39999389648</ele>
        <time>2012-08-29T10:16:29Z</time>
      </trkpt>
      <trkpt lat="47.65684" lon="6.18375">
        <ele>276.39999389648</ele>
        <time>2012-08-29T10:16:31Z</time>
      </trkpt>
      <trkpt lat="47.65672" lon="6.18378">
        <ele>276.39999389648</ele>
        <time>2012-08-29T10:16:38Z</time>
      </trkpt>
      <trkpt lat="47.65662" lon="6.18378">
        <ele>276.39999389648</ele>
        <time>2012-08-29T10:16:43Z</time>
      </trkpt>
      <trkpt lat="47.65654" lon="6.18377">
        <ele>276.39999389648</ele>
        <time>2012-08-29T10:16:48Z</time>
      </trkpt>
      <trkpt lat="47.6564" lon="6.18378">
        <ele>276.39999389648</ele>
        <time>2012-08-29T10:16:54Z</time>
      </trkpt>
      <trkpt lat="47.65629" lon="6.18383">
        <ele>276.39999389648</ele>
        <time>2012-08-29T10:16:59Z</time>
      </trkpt>
      <trkpt lat="47.65622" lon="6.18385">
        <ele>276.39999389648</ele>
        <time>2012-08-29T10:17:03Z</time>
      </trkpt>
      <trkpt lat="47.65612" lon="6.18391">
        <ele>276.39999389648</ele>
        <time>2012-08-29T10:17:09Z</time>
      </trkpt>
      <trkpt lat="47.65596" lon="6.18401">
        <ele>276.39999389648</ele>
        <time>2012-08-29T10:17:17Z</time>
      </trkpt>
      <trkpt lat="47.65581" lon="6.18404">
        <ele>276.39999389648</ele>
        <time>2012-08-29T10:17:23Z</time>
      </trkpt>
      <trkpt lat="47.65575" lon="6.18408">
        <ele>276.39999389648</ele>
        <time>2012-08-29T10:17:26Z</time>
      </trkpt>
      <trkpt lat="47.65569" lon="6.1841">
        <ele>276.39999389648</ele>
        <time>2012-08-29T10:17:28Z</time>
      </trkpt>
      <trkpt lat="47.65549" lon="6.18418">
        <ele>276.39999389648</ele>
        <time>2012-08-29T10:17:34Z</time>
      </trkpt>
      <trkpt lat="47.65528" lon="6.18423">
        <ele>276.39999389648</ele>
        <time>2012-08-29T10:17:40Z</time>
      </trkpt>
      <trkpt lat="47.65514" lon="6.18435">
        <ele>276.39999389648</ele>
        <time>2012-08-29T10:17:44Z</time>
      </trkpt>
      <trkpt lat="47.6549" lon="6.18457">
        <ele>276.39999389648</ele>
        <time>2012-08-29T10:17:51Z</time>
      </trkpt>
      <trkpt lat="47.65464" lon="6.18474">
        <ele>276.39999389648</ele>
        <time>2012-08-29T10:17:58Z</time>
      </trkpt>
      <trkpt lat="47.65456" lon="6.1848">
        <ele>275.79998779297</ele>
        <time>2012-08-29T10:18:00Z</time>
      </trkpt>
      <trkpt lat="47.65452" lon="6.18483">
        <ele>275.39999389648</ele>
        <time>2012-08-29T10:18:01Z</time>
      </trkpt>
      <trkpt lat="47.65449" lon="6.18487">
        <ele>275</ele>
        <time>2012-08-29T10:18:02Z</time>
      </trkpt>
      <trkpt lat="47.65446" lon="6.1849">
        <ele>274.60000610352</ele>
        <time>2012-08-29T10:18:03Z</time>
      </trkpt>
      <trkpt lat="47.65444" lon="6.18494">
        <ele>274.20001220703</ele>
        <time>2012-08-29T10:18:04Z</time>
      </trkpt>
      <trkpt lat="47.65433" lon="6.18512">
        <ele>274.20001220703</ele>
        <time>2012-08-29T10:18:10Z</time>
      </trkpt>
      <trkpt lat="47.65423" lon="6.18522">
        <ele>274.20001220703</ele>
        <time>2012-08-29T10:18:16Z</time>
      </trkpt>
      <trkpt lat="47.65411" lon="6.18538">
        <ele>274.20001220703</ele>
        <time>2012-08-29T10:18:23Z</time>
      </trkpt>
      <trkpt lat="47.65399" lon="6.18559">
        <ele>274.20001220703</ele>
        <time>2012-08-29T10:18:30Z</time>
      </trkpt>
      <trkpt lat="47.6539" lon="6.18576">
        <ele>274.20001220703</ele>
        <time>2012-08-29T10:18:36Z</time>
      </trkpt>
      <trkpt lat="47.65379" lon="6.18592">
        <ele>274.20001220703</ele>
        <time>2012-08-29T10:18:41Z</time>
      </trkpt>
      <trkpt lat="47.65366" lon="6.1861">
        <ele>274.20001220703</ele>
        <time>2012-08-29T10:18:47Z</time>
      </trkpt>
      <trkpt lat="47.65355" lon="6.18626">
        <ele>274.20001220703</ele>
        <time>2012-08-29T10:18:54Z</time>
      </trkpt>
      <trkpt lat="47.65348" lon="6.18634">
        <ele>274.60000610352</ele>
        <time>2012-08-29T10:18:59Z</time>
      </trkpt>
      <trkpt lat="47.65347" lon="6.18636">
        <ele>275</ele>
        <time>2012-08-29T10:19:00Z</time>
      </trkpt>
      <trkpt lat="47.65346" lon="6.18638">
        <ele>275.39999389648</ele>
        <time>2012-08-29T10:19:01Z</time>
      </trkpt>
      <trkpt lat="47.65344" lon="6.18639">
        <ele>275.79998779297</ele>
        <time>2012-08-29T10:19:02Z</time>
      </trkpt>
      <trkpt lat="47.65343" lon="6.18641">
        <ele>276.20001220703</ele>
        <time>2012-08-29T10:19:03Z</time>
      </trkpt>
      <trkpt lat="47.65339" lon="6.18648">
        <ele>276.60000610352</ele>
        <time>2012-08-29T10:19:07Z</time>
      </trkpt>
      <trkpt lat="47.65338" lon="6.1865">
        <ele>277.20001220703</ele>
        <time>2012-08-29T10:19:08Z</time>
      </trkpt>
      <trkpt lat="47.65336" lon="6.18652">
        <ele>277.60000610352</ele>
        <time>2012-08-29T10:19:09Z</time>
      </trkpt>
      <trkpt lat="47.65335" lon="6.18654">
        <ele>278</ele>
        <time>2012-08-29T10:19:10Z</time>
      </trkpt>
      <trkpt lat="47.65334" lon="6.18656">
        <ele>278.60000610352</ele>
        <time>2012-08-29T10:19:11Z</time>
      </trkpt>
      <trkpt lat="47.65329" lon="6.18667">
        <ele>278.60000610352</ele>
        <time>2012-08-29T10:19:16Z</time>
      </trkpt>
      <trkpt lat="47.65321" lon="6.18674">
        <ele>278.60000610352</ele>
        <time>2012-08-29T10:19:23Z</time>
      </trkpt>
      <trkpt lat="47.65319" lon="6.18674">
        <ele>278.60000610352</ele>
        <time>2012-08-29T10:19:25Z</time>
      </trkpt>
      <trkpt lat="47.65314" lon="6.18668">
        <ele>278.60000610352</ele>
        <time>2012-08-29T10:19:28Z</time>
      </trkpt>
      <trkpt lat="47.65311" lon="6.1866">
        <ele>278.60000610352</ele>
        <time>2012-08-29T10:19:30Z</time>
      </trkpt>
      <trkpt lat="47.65308" lon="6.18657">
        <ele>277.60000610352</ele>
        <time>2012-08-29T10:19:31Z</time>
      </trkpt>
      <trkpt lat="47.65305" lon="6.18654">
        <ele>277.20001220703</ele>
        <time>2012-08-29T10:19:32Z</time>
      </trkpt>
      <trkpt lat="47.65302" lon="6.1865">
        <ele>276.79998779297</ele>
        <time>2012-08-29T10:19:33Z</time>
      </trkpt>
      <trkpt lat="47.65299" lon="6.18647">
        <ele>276.39999389648</ele>
        <time>2012-08-29T10:19:34Z</time>
      </trkpt>
      <trkpt lat="47.65283" lon="6.18625">
        <ele>276.39999389648</ele>
        <time>2012-08-29T10:19:39Z</time>
      </trkpt>
      <trkpt lat="47.65262" lon="6.18595">
        <ele>276.39999389648</ele>
        <time>2012-08-29T10:19:45Z</time>
      </trkpt>
      <trkpt lat="47.65258" lon="6.18589">
        <ele>276</ele>
        <time>2012-08-29T10:19:46Z</time>
      </trkpt>
      <trkpt lat="47.65255" lon="6.18582">
        <ele>275.39999389648</ele>
        <time>2012-08-29T10:19:47Z</time>
      </trkpt>
      <trkpt lat="47.65252" lon="6.18576">
        <ele>275</ele>
        <time>2012-08-29T10:19:48Z</time>
      </trkpt>
      <trkpt lat="47.65249" lon="6.1857">
        <ele>274.60000610352</ele>
        <time>2012-08-29T10:19:49Z</time>
      </trkpt>
      <trkpt lat="47.65246" lon="6.18563">
        <ele>274.20001220703</ele>
        <time>2012-08-29T10:19:50Z</time>
      </trkpt>
      <trkpt lat="47.65243" lon="6.18558">
        <ele>274.20001220703</ele>
        <time>2012-08-29T10:19:51Z</time>
      </trkpt>
      <trkpt lat="47.65234" lon="6.18541">
        <ele>274.20001220703</ele>
        <time>2012-08-29T10:19:54Z</time>
      </trkpt>
      <trkpt lat="47.65225" lon="6.18519">
        <ele>273.60000610352</ele>
        <time>2012-08-29T10:19:58Z</time>
      </trkpt>
      <trkpt lat="47.65223" lon="6.18513">
        <ele>273.20001220703</ele>
        <time>2012-08-29T10:19:59Z</time>
      </trkpt>
      <trkpt lat="47.6522" lon="6.18508">
        <ele>272.79998779297</ele>
        <time>2012-08-29T10:20:00Z</time>
      </trkpt>
      <trkpt lat="47.65218" lon="6.18502">
        <ele>272.39999389648</ele>
        <time>2012-08-29T10:20:01Z</time>
      </trkpt>
      <trkpt lat="47.65215" lon="6.18496">
        <ele>272</ele>
        <time>2012-08-29T10:20:02Z</time>
      </trkpt>
      <trkpt lat="47.65212" lon="6.18491">
        <ele>272</ele>
        <time>2012-08-29T10:20:03Z</time>
      </trkpt>
      <trkpt lat="47.65209" lon="6.18487">
        <ele>272</ele>
        <time>2012-08-29T10:20:04Z</time>
      </trkpt>
      <trkpt lat="47.65187" lon="6.18454">
        <ele>272</ele>
        <time>2012-08-29T10:20:11Z</time>
      </trkpt>
      <trkpt lat="47.65183" lon="6.18449">
        <ele>271.60000610352</ele>
        <time>2012-08-29T10:20:12Z</time>
      </trkpt>
      <trkpt lat="47.6518" lon="6.18445">
        <ele>271.20001220703</ele>
        <time>2012-08-29T10:20:13Z</time>
      </trkpt>
      <trkpt lat="47.65176" lon="6.1844">
        <ele>270.79998779297</ele>
        <time>2012-08-29T10:20:14Z</time>
      </trkpt>
      <trkpt lat="47.65173" lon="6.18436">
        <ele>270.39999389648</ele>
        <time>2012-08-29T10:20:15Z</time>
      </trkpt>
      <trkpt lat="47.6517" lon="6.18432">
        <ele>270</ele>
        <time>2012-08-29T10:20:16Z</time>
      </trkpt>
      <trkpt lat="47.65166" lon="6.18428">
        <ele>270</ele>
        <time>2012-08-29T10:20:17Z</time>
      </trkpt>
      <trkpt lat="47.65162" lon="6.18425">
        <ele>270</ele>
        <time>2012-08-29T10:20:18Z</time>
      </trkpt>
      <trkpt lat="47.65151" lon="6.18415">
        <ele>270</ele>
        <time>2012-08-29T10:20:21Z</time>
      </trkpt>
      <trkpt lat="47.65147" lon="6.18412">
        <ele>270</ele>
        <time>2012-08-29T10:20:22Z</time>
      </trkpt>
      <trkpt lat="47.65138" lon="6.18408">
        <ele>269.60000610352</ele>
        <time>2012-08-29T10:20:24Z</time>
      </trkpt>
      <trkpt lat="47.65134" lon="6.18405">
        <ele>269.20001220703</ele>
        <time>2012-08-29T10:20:25Z</time>
      </trkpt>
      <trkpt lat="47.65129" lon="6.18402">
        <ele>268.79998779297</ele>
        <time>2012-08-29T10:20:26Z</time>
      </trkpt>
      <trkpt lat="47.65126" lon="6.18398">
        <ele>268.20001220703</ele>
        <time>2012-08-29T10:20:27Z</time>
      </trkpt>
      <trkpt lat="47.65122" lon="6.18394">
        <ele>267.79998779297</ele>
        <time>2012-08-29T10:20:28Z</time>
      </trkpt>
      <trkpt lat="47.65111" lon="6.18381">
        <ele>267.39999389648</ele>
        <time>2012-08-29T10:20:31Z</time>
      </trkpt>
      <trkpt lat="47.65108" lon="6.18378">
        <ele>266.79998779297</ele>
        <time>2012-08-29T10:20:32Z</time>
      </trkpt>
      <trkpt lat="47.65105" lon="6.18375">
        <ele>266.20001220703</ele>
        <time>2012-08-29T10:20:33Z</time>
      </trkpt>
      <trkpt lat="47.65103" lon="6.18372">
        <ele>265.79998779297</ele>
        <time>2012-08-29T10:20:34Z</time>
      </trkpt>
      <trkpt lat="47.651" lon="6.1837">
        <ele>265.20001220703</ele>
        <time>2012-08-29T10:20:35Z</time>
      </trkpt>
      <trkpt lat="47.65089" lon="6.18359">
        <ele>265.20001220703</ele>
        <time>2012-08-29T10:20:39Z</time>
      </trkpt>
      <trkpt lat="47.65085" lon="6.18356">
        <ele>265.20001220703</ele>
        <time>2012-08-29T10:20:40Z</time>
      </trkpt>
      <trkpt lat="47.65081" lon="6.18353">
        <ele>264.79998779297</ele>
        <time>2012-08-29T10:20:41Z</time>
      </trkpt>
      <trkpt lat="47.65078" lon="6.18349">
        <ele>264.39999389648</ele>
        <time>2012-08-29T10:20:42Z</time>
      </trkpt>
      <trkpt lat="47.65074" lon="6.18346">
        <ele>264</ele>
        <time>2012-08-29T10:20:43Z</time>
      </trkpt>
      <trkpt lat="47.6507" lon="6.18342">
        <ele>263.20001220703</ele>
        <time>2012-08-29T10:20:44Z</time>
      </trkpt>
      <trkpt lat="47.65066" lon="6.18338">
        <ele>263.20001220703</ele>
        <time>2012-08-29T10:20:45Z</time>
      </trkpt>
      <trkpt lat="47.65052" lon="6.18327">
        <ele>263.20001220703</ele>
        <time>2012-08-29T10:20:49Z</time>
      </trkpt>
      <trkpt lat="47.65036" lon="6.1832">
        <ele>263.20001220703</ele>
        <time>2012-08-29T10:20:53Z</time>
      </trkpt>
      <trkpt lat="47.65024" lon="6.18316">
        <ele>262.79998779297</ele>
        <time>2012-08-29T10:20:56Z</time>
      </trkpt>
      <trkpt lat="47.65019" lon="6.18315">
        <ele>262.39999389648</ele>
        <time>2012-08-29T10:20:57Z</time>
      </trkpt>
      <trkpt lat="47.65015" lon="6.18314">
        <ele>262</ele>
        <time>2012-08-29T10:20:58Z</time>
      </trkpt>
      <trkpt lat="47.6501" lon="6.18314">
        <ele>261.60000610352</ele>
        <time>2012-08-29T10:20:59Z</time>
      </trkpt>
      <trkpt lat="47.65006" lon="6.18313">
        <ele>261.20001220703</ele>
        <time>2012-08-29T10:21:00Z</time>
      </trkpt>
      <trkpt lat="47.64993" lon="6.18311">
        <ele>261.20001220703</ele>
        <time>2012-08-29T10:21:03Z</time>
      </trkpt>
      <trkpt lat="47.64949" lon="6.18307">
        <ele>261.20001220703</ele>
        <time>2012-08-29T10:21:13Z</time>
      </trkpt>
      <trkpt lat="47.64924" lon="6.18302">
        <ele>261.20001220703</ele>
        <time>2012-08-29T10:21:20Z</time>
      </trkpt>
      <trkpt lat="47.64907" lon="6.18294">
        <ele>260.79998779297</ele>
        <time>2012-08-29T10:21:26Z</time>
      </trkpt>
      <trkpt lat="47.64904" lon="6.18292">
        <ele>260.20001220703</ele>
        <time>2012-08-29T10:21:27Z</time>
      </trkpt>
      <trkpt lat="47.64901" lon="6.18291">
        <ele>259.79998779297</ele>
        <time>2012-08-29T10:21:28Z</time>
      </trkpt>
      <trkpt lat="47.64897" lon="6.18289">
        <ele>259.39999389648</ele>
        <time>2012-08-29T10:21:29Z</time>
      </trkpt>
      <trkpt lat="47.64893" lon="6.18287">
        <ele>259</ele>
        <time>2012-08-29T10:21:30Z</time>
      </trkpt>
      <trkpt lat="47.64889" lon="6.18284">
        <ele>259</ele>
        <time>2012-08-29T10:21:31Z</time>
      </trkpt>
      <trkpt lat="47.64873" lon="6.18273">
        <ele>258.60000610352</ele>
        <time>2012-08-29T10:21:34Z</time>
      </trkpt>
      <trkpt lat="47.64868" lon="6.1827">
        <ele>258.20001220703</ele>
        <time>2012-08-29T10:21:35Z</time>
      </trkpt>
      <trkpt lat="47.64862" lon="6.18267">
        <ele>257.79998779297</ele>
        <time>2012-08-29T10:21:36Z</time>
      </trkpt>
      <trkpt lat="47.64857" lon="6.18263">
        <ele>257.20001220703</ele>
        <time>2012-08-29T10:21:37Z</time>
      </trkpt>
      <trkpt lat="47.64852" lon="6.1826">
        <ele>256.79998779297</ele>
        <time>2012-08-29T10:21:38Z</time>
      </trkpt>
      <trkpt lat="47.64829" lon="6.18245">
        <ele>256.79998779297</ele>
        <time>2012-08-29T10:21:43Z</time>
      </trkpt>
      <trkpt lat="47.64807" lon="6.18229">
        <ele>256.39999389648</ele>
        <time>2012-08-29T10:21:48Z</time>
      </trkpt>
      <trkpt lat="47.64802" lon="6.18226">
        <ele>256</ele>
        <time>2012-08-29T10:21:49Z</time>
      </trkpt>
      <trkpt lat="47.64798" lon="6.18223">
        <ele>255.60000610352</ele>
        <time>2012-08-29T10:21:50Z</time>
      </trkpt>
      <trkpt lat="47.64794" lon="6.1822">
        <ele>255.19999694824</ele>
        <time>2012-08-29T10:21:51Z</time>
      </trkpt>
      <trkpt lat="47.6479" lon="6.18217">
        <ele>254.80000305176</ele>
        <time>2012-08-29T10:21:52Z</time>
      </trkpt>
      <trkpt lat="47.64771" lon="6.18201">
        <ele>254.80000305176</ele>
        <time>2012-08-29T10:21:58Z</time>
      </trkpt>
      <trkpt lat="47.64756" lon="6.18185">
        <ele>254.80000305176</ele>
        <time>2012-08-29T10:22:05Z</time>
      </trkpt>
      <trkpt lat="47.64747" lon="6.18174">
        <ele>255.19999694824</ele>
        <time>2012-08-29T10:22:10Z</time>
      </trkpt>
      <trkpt lat="47.64745" lon="6.18171">
        <ele>255.60000610352</ele>
        <time>2012-08-29T10:22:11Z</time>
      </trkpt>
      <trkpt lat="47.64743" lon="6.18169">
        <ele>256</ele>
        <time>2012-08-29T10:22:12Z</time>
      </trkpt>
      <trkpt lat="47.64741" lon="6.18166">
        <ele>256.39999389648</ele>
        <time>2012-08-29T10:22:13Z</time>
      </trkpt>
      <trkpt lat="47.64739" lon="6.18163">
        <ele>256.79998779297</ele>
        <time>2012-08-29T10:22:14Z</time>
      </trkpt>
      <trkpt lat="47.6473" lon="6.18151">
        <ele>256.79998779297</ele>
        <time>2012-08-29T10:22:19Z</time>
      </trkpt>
      <trkpt lat="47.64715" lon="6.18128">
        <ele>256.79998779297</ele>
        <time>2012-08-29T10:22:27Z</time>
      </trkpt>
      <trkpt lat="47.64699" lon="6.181">
        <ele>256.79998779297</ele>
        <time>2012-08-29T10:22:36Z</time>
      </trkpt>
      <trkpt lat="47.64683" lon="6.18077">
        <ele>256.79998779297</ele>
        <time>2012-08-29T10:22:43Z</time>
      </trkpt>
      <trkpt lat="47.64662" lon="6.18055">
        <ele>256.79998779297</ele>
        <time>2012-08-29T10:22:49Z</time>
      </trkpt>
      <trkpt lat="47.6465" lon="6.1804">
        <ele>256.39999389648</ele>
        <time>2012-08-29T10:22:52Z</time>
      </trkpt>
      <trkpt lat="47.64646" lon="6.18036">
        <ele>256</ele>
        <time>2012-08-29T10:22:53Z</time>
      </trkpt>
      <trkpt lat="47.64642" lon="6.18031">
        <ele>255.60000610352</ele>
        <time>2012-08-29T10:22:54Z</time>
      </trkpt>
      <trkpt lat="47.64638" lon="6.18027">
        <ele>255.19999694824</ele>
        <time>2012-08-29T10:22:55Z</time>
      </trkpt>
      <trkpt lat="47.64634" lon="6.18023">
        <ele>254.80000305176</ele>
        <time>2012-08-29T10:22:56Z</time>
      </trkpt>
      <trkpt lat="47.64626" lon="6.18016">
        <ele>254.19999694824</ele>
        <time>2012-08-29T10:22:58Z</time>
      </trkpt>
      <trkpt lat="47.64622" lon="6.18014">
        <ele>253.80000305176</ele>
        <time>2012-08-29T10:22:59Z</time>
      </trkpt>
      <trkpt lat="47.64617" lon="6.18012">
        <ele>253.39999389648</ele>
        <time>2012-08-29T10:23:00Z</time>
      </trkpt>
      <trkpt lat="47.64613" lon="6.18012">
        <ele>252.80000305176</ele>
        <time>2012-08-29T10:23:01Z</time>
      </trkpt>
      <trkpt lat="47.64608" lon="6.18013">
        <ele>252.19999694824</ele>
        <time>2012-08-29T10:23:02Z</time>
      </trkpt>
      <trkpt lat="47.64602" lon="6.18017">
        <ele>251.60000610352</ele>
        <time>2012-08-29T10:23:03Z</time>
      </trkpt>
      <trkpt lat="47.64596" lon="6.18021">
        <ele>251</ele>
        <time>2012-08-29T10:23:04Z</time>
      </trkpt>
      <trkpt lat="47.64591" lon="6.18026">
        <ele>250.19999694824</ele>
        <time>2012-08-29T10:23:05Z</time>
      </trkpt>
      <trkpt lat="47.64586" lon="6.18031">
        <ele>249.39999389648</ele>
        <time>2012-08-29T10:23:06Z</time>
      </trkpt>
      <trkpt lat="47.64582" lon="6.18038">
        <ele>248.60000610352</ele>
        <time>2012-08-29T10:23:07Z</time>
      </trkpt>
      <trkpt lat="47.64578" lon="6.18045">
        <ele>248</ele>
        <time>2012-08-29T10:23:08Z</time>
      </trkpt>
      <trkpt lat="47.64574" lon="6.18051">
        <ele>247.19999694824</ele>
        <time>2012-08-29T10:23:09Z</time>
      </trkpt>
      <trkpt lat="47.64571" lon="6.18058">
        <ele>246.39999389648</ele>
        <time>2012-08-29T10:23:10Z</time>
      </trkpt>
      <trkpt lat="47.64568" lon="6.18064">
        <ele>245.60000610352</ele>
        <time>2012-08-29T10:23:11Z</time>
      </trkpt>
      <trkpt lat="47.64565" lon="6.18071">
        <ele>244</ele>
        <time>2012-08-29T10:23:12Z</time>
      </trkpt>
      <trkpt lat="47.64562" lon="6.18076">
        <ele>243.39999389648</ele>
        <time>2012-08-29T10:23:13Z</time>
      </trkpt>
      <trkpt lat="47.6456" lon="6.18081">
        <ele>242.80000305176</ele>
        <time>2012-08-29T10:23:14Z</time>
      </trkpt>
      <trkpt lat="47.64558" lon="6.18086">
        <ele>242.19999694824</ele>
        <time>2012-08-29T10:23:15Z</time>
      </trkpt>
      <trkpt lat="47.64556" lon="6.1809">
        <ele>241.39999389648</ele>
        <time>2012-08-29T10:23:16Z</time>
      </trkpt>
      <trkpt lat="47.64554" lon="6.18093">
        <ele>240.80000305176</ele>
        <time>2012-08-29T10:23:17Z</time>
      </trkpt>
      <trkpt lat="47.64552" lon="6.18095">
        <ele>240.19999694824</ele>
        <time>2012-08-29T10:23:18Z</time>
      </trkpt>
      <trkpt lat="47.6455" lon="6.18097">
        <ele>239.60000610352</ele>
        <time>2012-08-29T10:23:19Z</time>
      </trkpt>
      <trkpt lat="47.64548" lon="6.181">
        <ele>239</ele>
        <time>2012-08-29T10:23:20Z</time>
      </trkpt>
      <trkpt lat="47.64546" lon="6.18104">
        <ele>238.39999389648</ele>
        <time>2012-08-29T10:23:21Z</time>
      </trkpt>
      <trkpt lat="47.64544" lon="6.18108">
        <ele>237.80000305176</ele>
        <time>2012-08-29T10:23:22Z</time>
      </trkpt>
      <trkpt lat="47.64543" lon="6.1811">
        <ele>237.80000305176</ele>
        <time>2012-08-29T10:23:23Z</time>
      </trkpt>
      <trkpt lat="47.6454" lon="6.18119">
        <ele>237.39999389648</ele>
        <time>2012-08-29T10:23:27Z</time>
      </trkpt>
      <trkpt lat="47.64539" lon="6.18121">
        <ele>237</ele>
        <time>2012-08-29T10:23:28Z</time>
      </trkpt>
      <trkpt lat="47.64537" lon="6.18123">
        <ele>236.60000610352</ele>
        <time>2012-08-29T10:23:29Z</time>
      </trkpt>
      <trkpt lat="47.64536" lon="6.18125">
        <ele>236.19999694824</ele>
        <time>2012-08-29T10:23:30Z</time>
      </trkpt>
      <trkpt lat="47.64535" lon="6.18128">
        <ele>235.80000305176</ele>
        <time>2012-08-29T10:23:31Z</time>
      </trkpt>
      <trkpt lat="47.6453" lon="6.18142">
        <ele>235.39999389648</ele>
        <time>2012-08-29T10:23:37Z</time>
      </trkpt>
      <trkpt lat="47.64529" lon="6.18144">
        <ele>235</ele>
        <time>2012-08-29T10:23:38Z</time>
      </trkpt>
      <trkpt lat="47.64528" lon="6.18146">
        <ele>234.60000610352</ele>
        <time>2012-08-29T10:23:39Z</time>
      </trkpt>
      <trkpt lat="47.64528" lon="6.18148">
        <ele>234.19999694824</ele>
        <time>2012-08-29T10:23:40Z</time>
      </trkpt>
      <trkpt lat="47.64527" lon="6.1815">
        <ele>233.80000305176</ele>
        <time>2012-08-29T10:23:41Z</time>
      </trkpt>
      <trkpt lat="47.64523" lon="6.18159">
        <ele>233.39999389648</ele>
        <time>2012-08-29T10:23:45Z</time>
      </trkpt>
      <trkpt lat="47.64522" lon="6.18161">
        <ele>233</ele>
        <time>2012-08-29T10:23:46Z</time>
      </trkpt>
      <trkpt lat="47.6452" lon="6.18163">
        <ele>232.60000610352</ele>
        <time>2012-08-29T10:23:47Z</time>
      </trkpt>
      <trkpt lat="47.64517" lon="6.18164">
        <ele>232</ele>
        <time>2012-08-29T10:23:48Z</time>
      </trkpt>
      <trkpt lat="47.64515" lon="6.18165">
        <ele>231.60000610352</ele>
        <time>2012-08-29T10:23:49Z</time>
      </trkpt>
      <trkpt lat="47.64512" lon="6.18167">
        <ele>231.19999694824</ele>
        <time>2012-08-29T10:23:50Z</time>
      </trkpt>
      <trkpt lat="47.6451" lon="6.18168">
        <ele>230.80000305176</ele>
        <time>2012-08-29T10:23:51Z</time>
      </trkpt>
      <trkpt lat="47.64508" lon="6.18169">
        <ele>230.39999389648</ele>
        <time>2012-08-29T10:23:52Z</time>
      </trkpt>
      <trkpt lat="47.64507" lon="6.18171">
        <ele>230</ele>
        <time>2012-08-29T10:23:53Z</time>
      </trkpt>
      <trkpt lat="47.64506" lon="6.18172">
        <ele>229.60000610352</ele>
        <time>2012-08-29T10:23:54Z</time>
      </trkpt>
      <trkpt lat="47.64505" lon="6.18173">
        <ele>229.60000610352</ele>
        <time>2012-08-29T10:23:55Z</time>
      </trkpt>
      <trkpt lat="47.64499" lon="6.18186">
        <ele>229.60000610352</ele>
        <time>2012-08-29T10:24:00Z</time>
      </trkpt>
      <trkpt lat="47.64493" lon="6.18209">
        <ele>229.60000610352</ele>
        <time>2012-08-29T10:24:07Z</time>
      </trkpt>
      <trkpt lat="47.64484" lon="6.1823">
        <ele>229.60000610352</ele>
        <time>2012-08-29T10:24:13Z</time>
      </trkpt>
      <trkpt lat="47.64472" lon="6.18255">
        <ele>229.60000610352</ele>
        <time>2012-08-29T10:24:19Z</time>
      </trkpt>
      <trkpt lat="47.64461" lon="6.18271">
        <ele>229.60000610352</ele>
        <time>2012-08-29T10:24:26Z</time>
      </trkpt>
      <trkpt lat="47.64451" lon="6.18286">
        <ele>229.60000610352</ele>
        <time>2012-08-29T10:24:31Z</time>
      </trkpt>
      <trkpt lat="47.64442" lon="6.18296">
        <ele>229.60000610352</ele>
        <time>2012-08-29T10:24:35Z</time>
      </trkpt>
      <trkpt lat="47.64438" lon="6.18303">
        <ele>229.19999694824</ele>
        <time>2012-08-29T10:24:39Z</time>
      </trkpt>
      <trkpt lat="47.64438" lon="6.18303">
        <ele>228.80000305176</ele>
        <time>2012-08-29T10:24:40Z</time>
      </trkpt>
    </trkseg>
  </trk>
</gpx>